<?xml version="1.0" encoding="UTF-8" standalone="no" ?>
<gpx xmlns="http://www.topografix.com/GPX/1/1" xmlns:xsi="http://www.w3.org/2001/XMLSchema-instance" xsi:schemaLocation="http://www.topografix.com/GPX/1/1 http://www.topografix.com/GPX/1/1/gpx.xsd" version="1.1" creator="VisuGPX - https://www.visugpx.com">
  <metadata>
    <name>2021-06-28 17:56:19 etape 2</name>
  </metadata>
  <trk>
    <name><![CDATA[2021-06-28 17:56:19]]></name>
    <trkseg>
      <trkpt lat="45.42716" lon="6.20365">
        <ele>1860.77</ele>
        <time>2021-06-28T06:17:52Z</time>
      </trkpt>
      <trkpt lat="45.42716" lon="6.20366">
        <ele>1860.77</ele>
        <time>2021-06-28T06:17:53Z</time>
      </trkpt>
      <trkpt lat="45.42715" lon="6.20363">
        <ele>1860.29</ele>
        <time>2021-06-28T06:18:12Z</time>
      </trkpt>
      <trkpt lat="45.42718" lon="6.20359">
        <ele>1859.81</ele>
        <time>2021-06-28T06:18:33Z</time>
      </trkpt>
      <trkpt lat="45.42717" lon="6.20358">
        <ele>1859.33</ele>
        <time>2021-06-28T06:18:58Z</time>
      </trkpt>
      <trkpt lat="45.42716" lon="6.20356">
        <ele>1859.33</ele>
        <time>2021-06-28T06:19:18Z</time>
      </trkpt>
      <trkpt lat="45.42715" lon="6.20363">
        <ele>1861.25</ele>
        <time>2021-06-28T06:19:28Z</time>
      </trkpt>
      <trkpt lat="45.42714" lon="6.20364">
        <ele>1859.81</ele>
        <time>2021-06-28T06:19:30Z</time>
      </trkpt>
      <trkpt lat="45.42713" lon="6.2037">
        <ele>1862.21</ele>
        <time>2021-06-28T06:19:40Z</time>
      </trkpt>
      <trkpt lat="45.42713" lon="6.20374">
        <ele>1864.61</ele>
        <time>2021-06-28T06:19:45Z</time>
      </trkpt>
      <trkpt lat="45.42719" lon="6.20377">
        <ele>1864.61</ele>
        <time>2021-06-28T06:19:54Z</time>
      </trkpt>
      <trkpt lat="45.42716" lon="6.20384">
        <ele>1865.58</ele>
        <time>2021-06-28T06:20:03Z</time>
      </trkpt>
      <trkpt lat="45.42712" lon="6.20385">
        <ele>1867.5</ele>
        <time>2021-06-28T06:20:08Z</time>
      </trkpt>
      <trkpt lat="45.42707" lon="6.20383">
        <ele>1867.5</ele>
        <time>2021-06-28T06:20:15Z</time>
      </trkpt>
      <trkpt lat="45.42702" lon="6.20383">
        <ele>1867.98</ele>
        <time>2021-06-28T06:20:21Z</time>
      </trkpt>
      <trkpt lat="45.42697" lon="6.20385">
        <ele>1867.5</ele>
        <time>2021-06-28T06:20:32Z</time>
      </trkpt>
      <trkpt lat="45.42697" lon="6.20382">
        <ele>1867.98</ele>
        <time>2021-06-28T06:20:44Z</time>
      </trkpt>
      <trkpt lat="45.42691" lon="6.20383">
        <ele>1870.86</ele>
        <time>2021-06-28T06:20:55Z</time>
      </trkpt>
      <trkpt lat="45.42685" lon="6.20386">
        <ele>1871.82</ele>
        <time>2021-06-28T06:21:06Z</time>
      </trkpt>
      <trkpt lat="45.42679" lon="6.20388">
        <ele>1872.3</ele>
        <time>2021-06-28T06:21:18Z</time>
      </trkpt>
      <trkpt lat="45.42675" lon="6.20389">
        <ele>1875.67</ele>
        <time>2021-06-28T06:21:24Z</time>
      </trkpt>
      <trkpt lat="45.42671" lon="6.2039">
        <ele>1876.15</ele>
        <time>2021-06-28T06:21:32Z</time>
      </trkpt>
      <trkpt lat="45.42665" lon="6.20392">
        <ele>1879.03</ele>
        <time>2021-06-28T06:21:43Z</time>
      </trkpt>
      <trkpt lat="45.42662" lon="6.20399">
        <ele>1878.55</ele>
        <time>2021-06-28T06:21:54Z</time>
      </trkpt>
      <trkpt lat="45.42661" lon="6.20399">
        <ele>1880</ele>
        <time>2021-06-28T06:21:55Z</time>
      </trkpt>
      <trkpt lat="45.42652" lon="6.20402">
        <ele>1880.48</ele>
        <time>2021-06-28T06:22:07Z</time>
      </trkpt>
      <trkpt lat="45.42644" lon="6.20406">
        <ele>1881.44</ele>
        <time>2021-06-28T06:22:19Z</time>
      </trkpt>
      <trkpt lat="45.42643" lon="6.20406">
        <ele>1882.88</ele>
        <time>2021-06-28T06:22:20Z</time>
      </trkpt>
      <trkpt lat="45.42638" lon="6.20409">
        <ele>1882.4</ele>
        <time>2021-06-28T06:22:26Z</time>
      </trkpt>
      <trkpt lat="45.42631" lon="6.20413">
        <ele>1883.84</ele>
        <time>2021-06-28T06:22:37Z</time>
      </trkpt>
      <trkpt lat="45.42629" lon="6.20416">
        <ele>1883.84</ele>
        <time>2021-06-28T06:22:41Z</time>
      </trkpt>
      <trkpt lat="45.42623" lon="6.2042">
        <ele>1885.28</ele>
        <time>2021-06-28T06:22:53Z</time>
      </trkpt>
      <trkpt lat="45.42622" lon="6.2042">
        <ele>1886.72</ele>
        <time>2021-06-28T06:22:54Z</time>
      </trkpt>
      <trkpt lat="45.42614" lon="6.20425">
        <ele>1886.72</ele>
        <time>2021-06-28T06:23:06Z</time>
      </trkpt>
      <trkpt lat="45.42614" lon="6.20425">
        <ele>1886.24</ele>
        <time>2021-06-28T06:23:07Z</time>
      </trkpt>
      <trkpt lat="45.42611" lon="6.20424">
        <ele>1888.17</ele>
        <time>2021-06-28T06:23:12Z</time>
      </trkpt>
      <trkpt lat="45.42609" lon="6.20423">
        <ele>1888.65</ele>
        <time>2021-06-28T06:23:14Z</time>
      </trkpt>
      <trkpt lat="45.42605" lon="6.20424">
        <ele>1889.13</ele>
        <time>2021-06-28T06:23:21Z</time>
      </trkpt>
      <trkpt lat="45.42602" lon="6.20424">
        <ele>1889.61</ele>
        <time>2021-06-28T06:23:25Z</time>
      </trkpt>
      <trkpt lat="45.42598" lon="6.20425">
        <ele>1889.61</ele>
        <time>2021-06-28T06:23:31Z</time>
      </trkpt>
      <trkpt lat="45.4259" lon="6.20425">
        <ele>1890.09</ele>
        <time>2021-06-28T06:23:43Z</time>
      </trkpt>
      <trkpt lat="45.42585" lon="6.20426">
        <ele>1891.05</ele>
        <time>2021-06-28T06:23:48Z</time>
      </trkpt>
      <trkpt lat="45.42582" lon="6.2043">
        <ele>1891.05</ele>
        <time>2021-06-28T06:23:52Z</time>
      </trkpt>
      <trkpt lat="45.42579" lon="6.20438">
        <ele>1892.01</ele>
        <time>2021-06-28T06:23:59Z</time>
      </trkpt>
      <trkpt lat="45.42579" lon="6.2044">
        <ele>1890.57</ele>
        <time>2021-06-28T06:24:01Z</time>
      </trkpt>
      <trkpt lat="45.42578" lon="6.20442">
        <ele>1892.01</ele>
        <time>2021-06-28T06:24:03Z</time>
      </trkpt>
      <trkpt lat="45.42577" lon="6.20443">
        <ele>1892.01</ele>
        <time>2021-06-28T06:24:07Z</time>
      </trkpt>
      <trkpt lat="45.42579" lon="6.20451">
        <ele>1895.38</ele>
        <time>2021-06-28T06:24:19Z</time>
      </trkpt>
      <trkpt lat="45.4258" lon="6.20453">
        <ele>1894.9</ele>
        <time>2021-06-28T06:24:22Z</time>
      </trkpt>
      <trkpt lat="45.42582" lon="6.20463">
        <ele>1897.3</ele>
        <time>2021-06-28T06:24:32Z</time>
      </trkpt>
      <trkpt lat="45.42581" lon="6.20464">
        <ele>1896.82</ele>
        <time>2021-06-28T06:24:49Z</time>
      </trkpt>
      <trkpt lat="45.4258" lon="6.20473">
        <ele>1895.86</ele>
        <time>2021-06-28T06:25:05Z</time>
      </trkpt>
      <trkpt lat="45.42583" lon="6.20477">
        <ele>1894.42</ele>
        <time>2021-06-28T06:25:14Z</time>
      </trkpt>
      <trkpt lat="45.42587" lon="6.20486">
        <ele>1893.45</ele>
        <time>2021-06-28T06:25:23Z</time>
      </trkpt>
      <trkpt lat="45.42589" lon="6.20496">
        <ele>1892.01</ele>
        <time>2021-06-28T06:25:34Z</time>
      </trkpt>
      <trkpt lat="45.42592" lon="6.20504">
        <ele>1890.57</ele>
        <time>2021-06-28T06:25:41Z</time>
      </trkpt>
      <trkpt lat="45.42594" lon="6.20507">
        <ele>1891.53</ele>
        <time>2021-06-28T06:25:44Z</time>
      </trkpt>
      <trkpt lat="45.42594" lon="6.2051">
        <ele>1891.05</ele>
        <time>2021-06-28T06:25:47Z</time>
      </trkpt>
      <trkpt lat="45.42595" lon="6.20514">
        <ele>1891.05</ele>
        <time>2021-06-28T06:25:50Z</time>
      </trkpt>
      <trkpt lat="45.42597" lon="6.20518">
        <ele>1891.05</ele>
        <time>2021-06-28T06:25:54Z</time>
      </trkpt>
      <trkpt lat="45.42597" lon="6.2052">
        <ele>1890.09</ele>
        <time>2021-06-28T06:25:56Z</time>
      </trkpt>
      <trkpt lat="45.42603" lon="6.20536">
        <ele>1888.65</ele>
        <time>2021-06-28T06:26:09Z</time>
      </trkpt>
      <trkpt lat="45.42604" lon="6.20544">
        <ele>1888.65</ele>
        <time>2021-06-28T06:26:16Z</time>
      </trkpt>
      <trkpt lat="45.42605" lon="6.20548">
        <ele>1887.21</ele>
        <time>2021-06-28T06:26:21Z</time>
      </trkpt>
      <trkpt lat="45.42608" lon="6.20562">
        <ele>1886.72</ele>
        <time>2021-06-28T06:26:34Z</time>
      </trkpt>
      <trkpt lat="45.42611" lon="6.2057">
        <ele>1886.72</ele>
        <time>2021-06-28T06:26:43Z</time>
      </trkpt>
      <trkpt lat="45.4261" lon="6.20578">
        <ele>1888.17</ele>
        <time>2021-06-28T06:26:53Z</time>
      </trkpt>
      <trkpt lat="45.42611" lon="6.20592">
        <ele>1888.65</ele>
        <time>2021-06-28T06:27:05Z</time>
      </trkpt>
      <trkpt lat="45.42612" lon="6.20594">
        <ele>1887.69</ele>
        <time>2021-06-28T06:27:07Z</time>
      </trkpt>
      <trkpt lat="45.42612" lon="6.206">
        <ele>1888.17</ele>
        <time>2021-06-28T06:27:12Z</time>
      </trkpt>
      <trkpt lat="45.42613" lon="6.20613">
        <ele>1888.65</ele>
        <time>2021-06-28T06:27:23Z</time>
      </trkpt>
      <trkpt lat="45.42614" lon="6.20628">
        <ele>1889.13</ele>
        <time>2021-06-28T06:27:36Z</time>
      </trkpt>
      <trkpt lat="45.42615" lon="6.20635">
        <ele>1889.61</ele>
        <time>2021-06-28T06:27:48Z</time>
      </trkpt>
      <trkpt lat="45.42614" lon="6.20634">
        <ele>1888.65</ele>
        <time>2021-06-28T06:27:51Z</time>
      </trkpt>
      <trkpt lat="45.4261" lon="6.20624">
        <ele>1886.24</ele>
        <time>2021-06-28T06:28:04Z</time>
      </trkpt>
      <trkpt lat="45.42605" lon="6.20618">
        <ele>1885.76</ele>
        <time>2021-06-28T06:28:15Z</time>
      </trkpt>
      <trkpt lat="45.426" lon="6.20613">
        <ele>1884.32</ele>
        <time>2021-06-28T06:28:25Z</time>
      </trkpt>
      <trkpt lat="45.42597" lon="6.20604">
        <ele>1882.4</ele>
        <time>2021-06-28T06:28:38Z</time>
      </trkpt>
      <trkpt lat="45.42592" lon="6.20596">
        <ele>1879.03</ele>
        <time>2021-06-28T06:28:51Z</time>
      </trkpt>
      <trkpt lat="45.42591" lon="6.20589">
        <ele>1877.11</ele>
        <time>2021-06-28T06:29:04Z</time>
      </trkpt>
      <trkpt lat="45.4259" lon="6.20586">
        <ele>1876.63</ele>
        <time>2021-06-28T06:29:14Z</time>
      </trkpt>
      <trkpt lat="45.42587" lon="6.20577">
        <ele>1874.71</ele>
        <time>2021-06-28T06:29:26Z</time>
      </trkpt>
      <trkpt lat="45.42584" lon="6.20568">
        <ele>1872.79</ele>
        <time>2021-06-28T06:29:38Z</time>
      </trkpt>
      <trkpt lat="45.42579" lon="6.20563">
        <ele>1870.38</ele>
        <time>2021-06-28T06:29:52Z</time>
      </trkpt>
      <trkpt lat="45.42578" lon="6.20561">
        <ele>1870.38</ele>
        <time>2021-06-28T06:29:54Z</time>
      </trkpt>
      <trkpt lat="45.4257" lon="6.20553">
        <ele>1867.02</ele>
        <time>2021-06-28T06:30:06Z</time>
      </trkpt>
      <trkpt lat="45.42562" lon="6.20546">
        <ele>1865.58</ele>
        <time>2021-06-28T06:30:18Z</time>
      </trkpt>
      <trkpt lat="45.42554" lon="6.20536">
        <ele>1862.69</ele>
        <time>2021-06-28T06:30:32Z</time>
      </trkpt>
      <trkpt lat="45.42549" lon="6.20542">
        <ele>1861.25</ele>
        <time>2021-06-28T06:30:45Z</time>
      </trkpt>
      <trkpt lat="45.42548" lon="6.20545">
        <ele>1861.25</ele>
        <time>2021-06-28T06:31:05Z</time>
      </trkpt>
      <trkpt lat="45.42546" lon="6.2055">
        <ele>1860.77</ele>
        <time>2021-06-28T06:31:12Z</time>
      </trkpt>
      <trkpt lat="45.42546" lon="6.20563">
        <ele>1859.81</ele>
        <time>2021-06-28T06:31:25Z</time>
      </trkpt>
      <trkpt lat="45.42544" lon="6.20566">
        <ele>1857.89</ele>
        <time>2021-06-28T06:31:31Z</time>
      </trkpt>
      <trkpt lat="45.42542" lon="6.20567">
        <ele>1859.33</ele>
        <time>2021-06-28T06:31:36Z</time>
      </trkpt>
      <trkpt lat="45.42538" lon="6.20566">
        <ele>1857.89</ele>
        <time>2021-06-28T06:31:42Z</time>
      </trkpt>
      <trkpt lat="45.42534" lon="6.20569">
        <ele>1857.89</ele>
        <time>2021-06-28T06:31:48Z</time>
      </trkpt>
      <trkpt lat="45.42526" lon="6.20569">
        <ele>1860.77</ele>
        <time>2021-06-28T06:32:00Z</time>
      </trkpt>
      <trkpt lat="45.4252" lon="6.2057">
        <ele>1857.4</ele>
        <time>2021-06-28T06:32:12Z</time>
      </trkpt>
      <trkpt lat="45.42511" lon="6.20568">
        <ele>1859.33</ele>
        <time>2021-06-28T06:32:23Z</time>
      </trkpt>
      <trkpt lat="45.4251" lon="6.20569">
        <ele>1859.33</ele>
        <time>2021-06-28T06:32:25Z</time>
      </trkpt>
      <trkpt lat="45.42502" lon="6.20576">
        <ele>1857.4</ele>
        <time>2021-06-28T06:32:38Z</time>
      </trkpt>
      <trkpt lat="45.42501" lon="6.20578">
        <ele>1860.77</ele>
        <time>2021-06-28T06:32:40Z</time>
      </trkpt>
      <trkpt lat="45.42497" lon="6.20585">
        <ele>1856.92</ele>
        <time>2021-06-28T06:32:53Z</time>
      </trkpt>
      <trkpt lat="45.42497" lon="6.20585">
        <ele>1861.73</ele>
        <time>2021-06-28T06:32:54Z</time>
      </trkpt>
      <trkpt lat="45.42494" lon="6.20589">
        <ele>1858.37</ele>
        <time>2021-06-28T06:33:02Z</time>
      </trkpt>
      <trkpt lat="45.42494" lon="6.2059">
        <ele>1862.69</ele>
        <time>2021-06-28T06:33:03Z</time>
      </trkpt>
      <trkpt lat="45.42493" lon="6.2059">
        <ele>1859.33</ele>
        <time>2021-06-28T06:33:06Z</time>
      </trkpt>
      <trkpt lat="45.42493" lon="6.2059">
        <ele>1863.65</ele>
        <time>2021-06-28T06:33:07Z</time>
      </trkpt>
      <trkpt lat="45.42491" lon="6.20597">
        <ele>1862.21</ele>
        <time>2021-06-28T06:33:19Z</time>
      </trkpt>
      <trkpt lat="45.42491" lon="6.206">
        <ele>1863.17</ele>
        <time>2021-06-28T06:33:24Z</time>
      </trkpt>
      <trkpt lat="45.42491" lon="6.20603">
        <ele>1864.61</ele>
        <time>2021-06-28T06:33:27Z</time>
      </trkpt>
      <trkpt lat="45.42492" lon="6.20605">
        <ele>1865.58</ele>
        <time>2021-06-28T06:33:31Z</time>
      </trkpt>
      <trkpt lat="45.42493" lon="6.20607">
        <ele>1864.13</ele>
        <time>2021-06-28T06:33:33Z</time>
      </trkpt>
      <trkpt lat="45.42494" lon="6.20615">
        <ele>1864.61</ele>
        <time>2021-06-28T06:33:46Z</time>
      </trkpt>
      <trkpt lat="45.42495" lon="6.2062">
        <ele>1867.02</ele>
        <time>2021-06-28T06:33:54Z</time>
      </trkpt>
      <trkpt lat="45.42491" lon="6.20625">
        <ele>1866.54</ele>
        <time>2021-06-28T06:34:02Z</time>
      </trkpt>
      <trkpt lat="45.42485" lon="6.20629">
        <ele>1867.98</ele>
        <time>2021-06-28T06:34:14Z</time>
      </trkpt>
      <trkpt lat="45.42477" lon="6.20634">
        <ele>1866.54</ele>
        <time>2021-06-28T06:34:28Z</time>
      </trkpt>
      <trkpt lat="45.42471" lon="6.20637">
        <ele>1865.58</ele>
        <time>2021-06-28T06:34:39Z</time>
      </trkpt>
      <trkpt lat="45.4247" lon="6.20636">
        <ele>1865.58</ele>
        <time>2021-06-28T06:34:40Z</time>
      </trkpt>
      <trkpt lat="45.42464" lon="6.20641">
        <ele>1864.13</ele>
        <time>2021-06-28T06:34:48Z</time>
      </trkpt>
      <trkpt lat="45.4246" lon="6.20644">
        <ele>1863.65</ele>
        <time>2021-06-28T06:34:54Z</time>
      </trkpt>
      <trkpt lat="45.42456" lon="6.20649">
        <ele>1865.09</ele>
        <time>2021-06-28T06:35:09Z</time>
      </trkpt>
      <trkpt lat="45.42455" lon="6.2065">
        <ele>1867.5</ele>
        <time>2021-06-28T06:35:13Z</time>
      </trkpt>
      <trkpt lat="45.4245" lon="6.2065">
        <ele>1866.54</ele>
        <time>2021-06-28T06:35:26Z</time>
      </trkpt>
      <trkpt lat="45.42448" lon="6.20656">
        <ele>1871.34</ele>
        <time>2021-06-28T06:35:37Z</time>
      </trkpt>
      <trkpt lat="45.42447" lon="6.20656">
        <ele>1867.5</ele>
        <time>2021-06-28T06:35:38Z</time>
      </trkpt>
      <trkpt lat="45.42447" lon="6.20656">
        <ele>1871.34</ele>
        <time>2021-06-28T06:35:39Z</time>
      </trkpt>
      <trkpt lat="45.42442" lon="6.20659">
        <ele>1869.9</ele>
        <time>2021-06-28T06:35:48Z</time>
      </trkpt>
      <trkpt lat="45.42438" lon="6.20663">
        <ele>1872.79</ele>
        <time>2021-06-28T06:35:59Z</time>
      </trkpt>
      <trkpt lat="45.42437" lon="6.20664">
        <ele>1870.86</ele>
        <time>2021-06-28T06:36:01Z</time>
      </trkpt>
      <trkpt lat="45.42437" lon="6.20666">
        <ele>1874.23</ele>
        <time>2021-06-28T06:36:03Z</time>
      </trkpt>
      <trkpt lat="45.42437" lon="6.20666">
        <ele>1872.79</ele>
        <time>2021-06-28T06:36:04Z</time>
      </trkpt>
      <trkpt lat="45.42434" lon="6.2067">
        <ele>1874.23</ele>
        <time>2021-06-28T06:36:14Z</time>
      </trkpt>
      <trkpt lat="45.4243" lon="6.20674">
        <ele>1873.75</ele>
        <time>2021-06-28T06:36:25Z</time>
      </trkpt>
      <trkpt lat="45.42426" lon="6.20677">
        <ele>1875.19</ele>
        <time>2021-06-28T06:36:35Z</time>
      </trkpt>
      <trkpt lat="45.42423" lon="6.20683">
        <ele>1875.19</ele>
        <time>2021-06-28T06:36:44Z</time>
      </trkpt>
      <trkpt lat="45.42419" lon="6.20687">
        <ele>1876.15</ele>
        <time>2021-06-28T06:36:54Z</time>
      </trkpt>
      <trkpt lat="45.42414" lon="6.20691">
        <ele>1876.63</ele>
        <time>2021-06-28T06:37:05Z</time>
      </trkpt>
      <trkpt lat="45.42409" lon="6.20695">
        <ele>1880</ele>
        <time>2021-06-28T06:37:17Z</time>
      </trkpt>
      <trkpt lat="45.42405" lon="6.20699">
        <ele>1880</ele>
        <time>2021-06-28T06:37:28Z</time>
      </trkpt>
      <trkpt lat="45.42402" lon="6.20702">
        <ele>1881.44</ele>
        <time>2021-06-28T06:37:41Z</time>
      </trkpt>
      <trkpt lat="45.42399" lon="6.20708">
        <ele>1881.44</ele>
        <time>2021-06-28T06:37:50Z</time>
      </trkpt>
      <trkpt lat="45.42398" lon="6.20709">
        <ele>1881.44</ele>
        <time>2021-06-28T06:38:00Z</time>
      </trkpt>
      <trkpt lat="45.42398" lon="6.20708">
        <ele>1884.8</ele>
        <time>2021-06-28T06:38:01Z</time>
      </trkpt>
      <trkpt lat="45.42398" lon="6.20708">
        <ele>1881.44</ele>
        <time>2021-06-28T06:38:02Z</time>
      </trkpt>
      <trkpt lat="45.42398" lon="6.20709">
        <ele>1884.8</ele>
        <time>2021-06-28T06:38:03Z</time>
      </trkpt>
      <trkpt lat="45.42398" lon="6.20709">
        <ele>1881.44</ele>
        <time>2021-06-28T06:38:04Z</time>
      </trkpt>
      <trkpt lat="45.42398" lon="6.20709">
        <ele>1885.28</ele>
        <time>2021-06-28T06:38:05Z</time>
      </trkpt>
      <trkpt lat="45.42397" lon="6.2071">
        <ele>1881.92</ele>
        <time>2021-06-28T06:38:06Z</time>
      </trkpt>
      <trkpt lat="45.42397" lon="6.2071">
        <ele>1885.28</ele>
        <time>2021-06-28T06:38:07Z</time>
      </trkpt>
      <trkpt lat="45.42392" lon="6.20715">
        <ele>1882.4</ele>
        <time>2021-06-28T06:38:19Z</time>
      </trkpt>
      <trkpt lat="45.42389" lon="6.20717">
        <ele>1882.88</ele>
        <time>2021-06-28T06:38:25Z</time>
      </trkpt>
      <trkpt lat="45.42387" lon="6.20718">
        <ele>1886.72</ele>
        <time>2021-06-28T06:38:33Z</time>
      </trkpt>
      <trkpt lat="45.42387" lon="6.20718">
        <ele>1886.72</ele>
        <time>2021-06-28T06:38:34Z</time>
      </trkpt>
      <trkpt lat="45.42387" lon="6.2072">
        <ele>1885.76</ele>
        <time>2021-06-28T06:38:36Z</time>
      </trkpt>
      <trkpt lat="45.42384" lon="6.20724">
        <ele>1887.21</ele>
        <time>2021-06-28T06:38:49Z</time>
      </trkpt>
      <trkpt lat="45.42379" lon="6.20728">
        <ele>1886.24</ele>
        <time>2021-06-28T06:39:01Z</time>
      </trkpt>
      <trkpt lat="45.42375" lon="6.20731">
        <ele>1887.21</ele>
        <time>2021-06-28T06:39:13Z</time>
      </trkpt>
      <trkpt lat="45.42372" lon="6.20731">
        <ele>1887.21</ele>
        <time>2021-06-28T06:39:18Z</time>
      </trkpt>
      <trkpt lat="45.42366" lon="6.20733">
        <ele>1887.69</ele>
        <time>2021-06-28T06:39:31Z</time>
      </trkpt>
      <trkpt lat="45.42361" lon="6.20729">
        <ele>1889.61</ele>
        <time>2021-06-28T06:39:42Z</time>
      </trkpt>
      <trkpt lat="45.4236" lon="6.20729">
        <ele>1888.65</ele>
        <time>2021-06-28T06:39:43Z</time>
      </trkpt>
      <trkpt lat="45.42358" lon="6.2073">
        <ele>1890.57</ele>
        <time>2021-06-28T06:39:46Z</time>
      </trkpt>
      <trkpt lat="45.42357" lon="6.20729">
        <ele>1888.65</ele>
        <time>2021-06-28T06:39:48Z</time>
      </trkpt>
      <trkpt lat="45.42356" lon="6.20729">
        <ele>1889.61</ele>
        <time>2021-06-28T06:39:50Z</time>
      </trkpt>
      <trkpt lat="45.42355" lon="6.20727">
        <ele>1888.65</ele>
        <time>2021-06-28T06:39:54Z</time>
      </trkpt>
      <trkpt lat="45.4235" lon="6.20731">
        <ele>1889.61</ele>
        <time>2021-06-28T06:40:04Z</time>
      </trkpt>
      <trkpt lat="45.42346" lon="6.20734">
        <ele>1890.57</ele>
        <time>2021-06-28T06:40:16Z</time>
      </trkpt>
      <trkpt lat="45.42344" lon="6.20735">
        <ele>1893.93</ele>
        <time>2021-06-28T06:40:22Z</time>
      </trkpt>
      <trkpt lat="45.4234" lon="6.20738">
        <ele>1893.45</ele>
        <time>2021-06-28T06:40:32Z</time>
      </trkpt>
      <trkpt lat="45.4234" lon="6.2074">
        <ele>1896.82</ele>
        <time>2021-06-28T06:40:38Z</time>
      </trkpt>
      <trkpt lat="45.42336" lon="6.20736">
        <ele>1895.86</ele>
        <time>2021-06-28T06:40:50Z</time>
      </trkpt>
      <trkpt lat="45.4233" lon="6.20735">
        <ele>1895.86</ele>
        <time>2021-06-28T06:41:01Z</time>
      </trkpt>
      <trkpt lat="45.42326" lon="6.20739">
        <ele>1897.3</ele>
        <time>2021-06-28T06:41:10Z</time>
      </trkpt>
      <trkpt lat="45.42323" lon="6.20744">
        <ele>1898.26</ele>
        <time>2021-06-28T06:41:22Z</time>
      </trkpt>
      <trkpt lat="45.42319" lon="6.20745">
        <ele>1899.7</ele>
        <time>2021-06-28T06:41:32Z</time>
      </trkpt>
      <trkpt lat="45.42317" lon="6.20743">
        <ele>1900.18</ele>
        <time>2021-06-28T06:41:37Z</time>
      </trkpt>
      <trkpt lat="45.42311" lon="6.20742">
        <ele>1900.66</ele>
        <time>2021-06-28T06:41:50Z</time>
      </trkpt>
      <trkpt lat="45.42307" lon="6.20746">
        <ele>1902.59</ele>
        <time>2021-06-28T06:42:00Z</time>
      </trkpt>
      <trkpt lat="45.42304" lon="6.20748">
        <ele>1902.59</ele>
        <time>2021-06-28T06:42:13Z</time>
      </trkpt>
      <trkpt lat="45.42301" lon="6.20746">
        <ele>1904.51</ele>
        <time>2021-06-28T06:42:20Z</time>
      </trkpt>
      <trkpt lat="45.42298" lon="6.20746">
        <ele>1907.87</ele>
        <time>2021-06-28T06:42:27Z</time>
      </trkpt>
      <trkpt lat="45.42297" lon="6.20748">
        <ele>1904.99</ele>
        <time>2021-06-28T06:42:30Z</time>
      </trkpt>
      <trkpt lat="45.42296" lon="6.20749">
        <ele>1907.87</ele>
        <time>2021-06-28T06:42:34Z</time>
      </trkpt>
      <trkpt lat="45.42293" lon="6.20747">
        <ele>1908.83</ele>
        <time>2021-06-28T06:42:45Z</time>
      </trkpt>
      <trkpt lat="45.42289" lon="6.20749">
        <ele>1912.2</ele>
        <time>2021-06-28T06:42:53Z</time>
      </trkpt>
      <trkpt lat="45.42285" lon="6.20754">
        <ele>1912.2</ele>
        <time>2021-06-28T06:43:08Z</time>
      </trkpt>
      <trkpt lat="45.42283" lon="6.20757">
        <ele>1913.64</ele>
        <time>2021-06-28T06:43:13Z</time>
      </trkpt>
      <trkpt lat="45.42281" lon="6.20762">
        <ele>1914.6</ele>
        <time>2021-06-28T06:43:24Z</time>
      </trkpt>
      <trkpt lat="45.4228" lon="6.20764">
        <ele>1919.89</ele>
        <time>2021-06-28T06:43:35Z</time>
      </trkpt>
      <trkpt lat="45.42279" lon="6.20764">
        <ele>1916.53</ele>
        <time>2021-06-28T06:43:40Z</time>
      </trkpt>
      <trkpt lat="45.42276" lon="6.20766">
        <ele>1920.85</ele>
        <time>2021-06-28T06:43:48Z</time>
      </trkpt>
      <trkpt lat="45.42276" lon="6.20767">
        <ele>1917.01</ele>
        <time>2021-06-28T06:43:49Z</time>
      </trkpt>
      <trkpt lat="45.42275" lon="6.20767">
        <ele>1920.37</ele>
        <time>2021-06-28T06:43:50Z</time>
      </trkpt>
      <trkpt lat="45.42274" lon="6.20769">
        <ele>1919.41</ele>
        <time>2021-06-28T06:43:59Z</time>
      </trkpt>
      <trkpt lat="45.42273" lon="6.20769">
        <ele>1922.77</ele>
        <time>2021-06-28T06:44:08Z</time>
      </trkpt>
      <trkpt lat="45.42271" lon="6.20769">
        <ele>1921.81</ele>
        <time>2021-06-28T06:44:20Z</time>
      </trkpt>
      <trkpt lat="45.42268" lon="6.20771">
        <ele>1923.74</ele>
        <time>2021-06-28T06:44:29Z</time>
      </trkpt>
      <trkpt lat="45.42267" lon="6.20771">
        <ele>1925.18</ele>
        <time>2021-06-28T06:44:42Z</time>
      </trkpt>
      <trkpt lat="45.42265" lon="6.2077">
        <ele>1926.14</ele>
        <time>2021-06-28T06:44:49Z</time>
      </trkpt>
      <trkpt lat="45.42263" lon="6.20775">
        <ele>1930.46</ele>
        <time>2021-06-28T06:45:02Z</time>
      </trkpt>
      <trkpt lat="45.42263" lon="6.20775">
        <ele>1926.62</ele>
        <time>2021-06-28T06:45:03Z</time>
      </trkpt>
      <trkpt lat="45.4226" lon="6.20776">
        <ele>1929.98</ele>
        <time>2021-06-28T06:45:14Z</time>
      </trkpt>
      <trkpt lat="45.42259" lon="6.20779">
        <ele>1929.02</ele>
        <time>2021-06-28T06:45:25Z</time>
      </trkpt>
      <trkpt lat="45.42258" lon="6.20778">
        <ele>1931.91</ele>
        <time>2021-06-28T06:45:28Z</time>
      </trkpt>
      <trkpt lat="45.42254" lon="6.20778">
        <ele>1931.91</ele>
        <time>2021-06-28T06:45:40Z</time>
      </trkpt>
      <trkpt lat="45.42251" lon="6.2078">
        <ele>1932.39</ele>
        <time>2021-06-28T06:45:51Z</time>
      </trkpt>
      <trkpt lat="45.42249" lon="6.20781">
        <ele>1935.75</ele>
        <time>2021-06-28T06:45:54Z</time>
      </trkpt>
      <trkpt lat="45.42245" lon="6.20784">
        <ele>1934.79</ele>
        <time>2021-06-28T06:46:04Z</time>
      </trkpt>
      <trkpt lat="45.42242" lon="6.20786">
        <ele>1938.16</ele>
        <time>2021-06-28T06:46:15Z</time>
      </trkpt>
      <trkpt lat="45.4224" lon="6.20788">
        <ele>1940.56</ele>
        <time>2021-06-28T06:46:24Z</time>
      </trkpt>
      <trkpt lat="45.42239" lon="6.2079">
        <ele>1937.19</ele>
        <time>2021-06-28T06:46:27Z</time>
      </trkpt>
      <trkpt lat="45.42239" lon="6.2079">
        <ele>1941.52</ele>
        <time>2021-06-28T06:46:28Z</time>
      </trkpt>
      <trkpt lat="45.42239" lon="6.20789">
        <ele>1938.16</ele>
        <time>2021-06-28T06:46:31Z</time>
      </trkpt>
      <trkpt lat="45.42239" lon="6.20789">
        <ele>1941.52</ele>
        <time>2021-06-28T06:46:32Z</time>
      </trkpt>
      <trkpt lat="45.42238" lon="6.20788">
        <ele>1941.04</ele>
        <time>2021-06-28T06:46:42Z</time>
      </trkpt>
      <trkpt lat="45.42236" lon="6.20787">
        <ele>1942.48</ele>
        <time>2021-06-28T06:46:48Z</time>
      </trkpt>
      <trkpt lat="45.42232" lon="6.20786">
        <ele>1943.44</ele>
        <time>2021-06-28T06:46:58Z</time>
      </trkpt>
      <trkpt lat="45.42231" lon="6.20788">
        <ele>1946.81</ele>
        <time>2021-06-28T06:47:04Z</time>
      </trkpt>
      <trkpt lat="45.42231" lon="6.20786">
        <ele>1942.48</ele>
        <time>2021-06-28T06:47:06Z</time>
      </trkpt>
      <trkpt lat="45.42231" lon="6.20785">
        <ele>1945.85</ele>
        <time>2021-06-28T06:47:07Z</time>
      </trkpt>
      <trkpt lat="45.42228" lon="6.20788">
        <ele>1943.44</ele>
        <time>2021-06-28T06:47:18Z</time>
      </trkpt>
      <trkpt lat="45.42228" lon="6.20791">
        <ele>1946.81</ele>
        <time>2021-06-28T06:47:25Z</time>
      </trkpt>
      <trkpt lat="45.42227" lon="6.2079">
        <ele>1945.36</ele>
        <time>2021-06-28T06:47:34Z</time>
      </trkpt>
      <trkpt lat="45.42222" lon="6.20789">
        <ele>1947.77</ele>
        <time>2021-06-28T06:47:48Z</time>
      </trkpt>
      <trkpt lat="45.42219" lon="6.20792">
        <ele>1947.77</ele>
        <time>2021-06-28T06:47:58Z</time>
      </trkpt>
      <trkpt lat="45.42215" lon="6.20797">
        <ele>1950.65</ele>
        <time>2021-06-28T06:48:08Z</time>
      </trkpt>
      <trkpt lat="45.42213" lon="6.20802">
        <ele>1953.06</ele>
        <time>2021-06-28T06:48:23Z</time>
      </trkpt>
      <trkpt lat="45.42208" lon="6.20808">
        <ele>1954.98</ele>
        <time>2021-06-28T06:48:36Z</time>
      </trkpt>
      <trkpt lat="45.42204" lon="6.20811">
        <ele>1955.94</ele>
        <time>2021-06-28T06:48:47Z</time>
      </trkpt>
      <trkpt lat="45.42199" lon="6.20815">
        <ele>1959.3</ele>
        <time>2021-06-28T06:49:01Z</time>
      </trkpt>
      <trkpt lat="45.42193" lon="6.20817">
        <ele>1958.82</ele>
        <time>2021-06-28T06:49:15Z</time>
      </trkpt>
      <trkpt lat="45.42193" lon="6.20817">
        <ele>1958.34</ele>
        <time>2021-06-28T06:49:16Z</time>
      </trkpt>
      <trkpt lat="45.42191" lon="6.2082">
        <ele>1959.3</ele>
        <time>2021-06-28T06:49:23Z</time>
      </trkpt>
      <trkpt lat="45.42186" lon="6.2082">
        <ele>1962.19</ele>
        <time>2021-06-28T06:49:37Z</time>
      </trkpt>
      <trkpt lat="45.42183" lon="6.20822">
        <ele>1961.23</ele>
        <time>2021-06-28T06:49:50Z</time>
      </trkpt>
      <trkpt lat="45.42182" lon="6.20823">
        <ele>1964.59</ele>
        <time>2021-06-28T06:49:53Z</time>
      </trkpt>
      <trkpt lat="45.42182" lon="6.20822">
        <ele>1960.75</ele>
        <time>2021-06-28T06:49:55Z</time>
      </trkpt>
      <trkpt lat="45.42182" lon="6.20822">
        <ele>1964.59</ele>
        <time>2021-06-28T06:49:56Z</time>
      </trkpt>
      <trkpt lat="45.42179" lon="6.20825">
        <ele>1965.55</ele>
        <time>2021-06-28T06:50:07Z</time>
      </trkpt>
      <trkpt lat="45.42176" lon="6.20829">
        <ele>1965.07</ele>
        <time>2021-06-28T06:50:19Z</time>
      </trkpt>
      <trkpt lat="45.42176" lon="6.20831">
        <ele>1968.44</ele>
        <time>2021-06-28T06:50:23Z</time>
      </trkpt>
      <trkpt lat="45.42174" lon="6.20832">
        <ele>1968.44</ele>
        <time>2021-06-28T06:50:34Z</time>
      </trkpt>
      <trkpt lat="45.42173" lon="6.20833">
        <ele>1968.92</ele>
        <time>2021-06-28T06:50:45Z</time>
      </trkpt>
      <trkpt lat="45.42172" lon="6.20834">
        <ele>1972.28</ele>
        <time>2021-06-28T06:50:50Z</time>
      </trkpt>
      <trkpt lat="45.42171" lon="6.20839">
        <ele>1972.28</ele>
        <time>2021-06-28T06:51:00Z</time>
      </trkpt>
      <trkpt lat="45.42168" lon="6.20839">
        <ele>1973.24</ele>
        <time>2021-06-28T06:51:12Z</time>
      </trkpt>
      <trkpt lat="45.42166" lon="6.20841">
        <ele>1976.61</ele>
        <time>2021-06-28T06:51:21Z</time>
      </trkpt>
      <trkpt lat="45.42165" lon="6.20844">
        <ele>1975.17</ele>
        <time>2021-06-28T06:51:34Z</time>
      </trkpt>
      <trkpt lat="45.42165" lon="6.20844">
        <ele>1978.05</ele>
        <time>2021-06-28T06:51:35Z</time>
      </trkpt>
      <trkpt lat="45.42165" lon="6.20844">
        <ele>1977.09</ele>
        <time>2021-06-28T06:51:36Z</time>
      </trkpt>
      <trkpt lat="45.42165" lon="6.20844">
        <ele>1976.61</ele>
        <time>2021-06-28T06:51:38Z</time>
      </trkpt>
      <trkpt lat="45.42165" lon="6.20844">
        <ele>1979.01</ele>
        <time>2021-06-28T06:51:39Z</time>
      </trkpt>
      <trkpt lat="45.42162" lon="6.20846">
        <ele>1979.49</ele>
        <time>2021-06-28T06:51:51Z</time>
      </trkpt>
      <trkpt lat="45.4216" lon="6.20846">
        <ele>1982.86</ele>
        <time>2021-06-28T06:51:59Z</time>
      </trkpt>
      <trkpt lat="45.4216" lon="6.20846">
        <ele>1979.97</ele>
        <time>2021-06-28T06:52:00Z</time>
      </trkpt>
      <trkpt lat="45.42159" lon="6.20853">
        <ele>1983.34</ele>
        <time>2021-06-28T06:52:11Z</time>
      </trkpt>
      <trkpt lat="45.42159" lon="6.20852">
        <ele>1981.9</ele>
        <time>2021-06-28T06:52:22Z</time>
      </trkpt>
      <trkpt lat="45.42158" lon="6.20851">
        <ele>1985.26</ele>
        <time>2021-06-28T06:52:27Z</time>
      </trkpt>
      <trkpt lat="45.42154" lon="6.20852">
        <ele>1983.34</ele>
        <time>2021-06-28T06:52:41Z</time>
      </trkpt>
      <trkpt lat="45.42153" lon="6.20851">
        <ele>1984.3</ele>
        <time>2021-06-28T06:52:43Z</time>
      </trkpt>
      <trkpt lat="45.42147" lon="6.20849">
        <ele>1986.22</ele>
        <time>2021-06-28T06:52:57Z</time>
      </trkpt>
      <trkpt lat="45.42145" lon="6.20852">
        <ele>1989.1</ele>
        <time>2021-06-28T06:53:08Z</time>
      </trkpt>
      <trkpt lat="45.42142" lon="6.20853">
        <ele>1988.14</ele>
        <time>2021-06-28T06:53:19Z</time>
      </trkpt>
      <trkpt lat="45.42139" lon="6.20854">
        <ele>1989.1</ele>
        <time>2021-06-28T06:53:31Z</time>
      </trkpt>
      <trkpt lat="45.42137" lon="6.20854">
        <ele>1990.55</ele>
        <time>2021-06-28T06:53:39Z</time>
      </trkpt>
      <trkpt lat="45.42133" lon="6.20854">
        <ele>1991.99</ele>
        <time>2021-06-28T06:53:51Z</time>
      </trkpt>
      <trkpt lat="45.42131" lon="6.20857">
        <ele>1992.95</ele>
        <time>2021-06-28T06:54:02Z</time>
      </trkpt>
      <trkpt lat="45.42128" lon="6.20858">
        <ele>1993.43</ele>
        <time>2021-06-28T06:54:15Z</time>
      </trkpt>
      <trkpt lat="45.42126" lon="6.20859">
        <ele>1996.32</ele>
        <time>2021-06-28T06:54:23Z</time>
      </trkpt>
      <trkpt lat="45.42122" lon="6.20861">
        <ele>1996.8</ele>
        <time>2021-06-28T06:54:38Z</time>
      </trkpt>
      <trkpt lat="45.42121" lon="6.20865">
        <ele>1999.68</ele>
        <time>2021-06-28T06:54:44Z</time>
      </trkpt>
      <trkpt lat="45.4212" lon="6.20866">
        <ele>1996.32</ele>
        <time>2021-06-28T06:54:48Z</time>
      </trkpt>
      <trkpt lat="45.4212" lon="6.20865">
        <ele>2001.6</ele>
        <time>2021-06-28T06:54:49Z</time>
      </trkpt>
      <trkpt lat="45.4212" lon="6.20866">
        <ele>1998.24</ele>
        <time>2021-06-28T06:54:50Z</time>
      </trkpt>
      <trkpt lat="45.42118" lon="6.20865">
        <ele>2002.08</ele>
        <time>2021-06-28T06:54:57Z</time>
      </trkpt>
      <trkpt lat="45.42115" lon="6.20867">
        <ele>2001.6</ele>
        <time>2021-06-28T06:55:10Z</time>
      </trkpt>
      <trkpt lat="45.42113" lon="6.20871">
        <ele>2004.97</ele>
        <time>2021-06-28T06:55:23Z</time>
      </trkpt>
      <trkpt lat="45.42109" lon="6.20872">
        <ele>2004.49</ele>
        <time>2021-06-28T06:55:32Z</time>
      </trkpt>
      <trkpt lat="45.42105" lon="6.20872">
        <ele>2005.45</ele>
        <time>2021-06-28T06:55:43Z</time>
      </trkpt>
      <trkpt lat="45.421" lon="6.20873">
        <ele>2004.97</ele>
        <time>2021-06-28T06:55:57Z</time>
      </trkpt>
      <trkpt lat="45.421" lon="6.20873">
        <ele>2008.33</ele>
        <time>2021-06-28T06:55:58Z</time>
      </trkpt>
      <trkpt lat="45.42095" lon="6.20877">
        <ele>2008.81</ele>
        <time>2021-06-28T06:56:10Z</time>
      </trkpt>
      <trkpt lat="45.42093" lon="6.2088">
        <ele>2009.29</ele>
        <time>2021-06-28T06:56:22Z</time>
      </trkpt>
      <trkpt lat="45.42091" lon="6.20883">
        <ele>2009.77</ele>
        <time>2021-06-28T06:56:44Z</time>
      </trkpt>
      <trkpt lat="45.42094" lon="6.20883">
        <ele>2009.77</ele>
        <time>2021-06-28T06:57:06Z</time>
      </trkpt>
      <trkpt lat="45.42094" lon="6.20886">
        <ele>2009.29</ele>
        <time>2021-06-28T06:57:11Z</time>
      </trkpt>
      <trkpt lat="45.42094" lon="6.20886">
        <ele>2013.62</ele>
        <time>2021-06-28T06:57:12Z</time>
      </trkpt>
      <trkpt lat="45.42094" lon="6.20886">
        <ele>2010.25</ele>
        <time>2021-06-28T06:57:13Z</time>
      </trkpt>
      <trkpt lat="45.42091" lon="6.20889">
        <ele>2013.62</ele>
        <time>2021-06-28T06:57:23Z</time>
      </trkpt>
      <trkpt lat="45.42087" lon="6.2089">
        <ele>2013.62</ele>
        <time>2021-06-28T06:57:37Z</time>
      </trkpt>
      <trkpt lat="45.42083" lon="6.20891">
        <ele>2014.58</ele>
        <time>2021-06-28T06:57:52Z</time>
      </trkpt>
      <trkpt lat="45.4208" lon="6.20892">
        <ele>2015.54</ele>
        <time>2021-06-28T06:58:02Z</time>
      </trkpt>
      <trkpt lat="45.42072" lon="6.20892">
        <ele>2015.54</ele>
        <time>2021-06-28T06:58:16Z</time>
      </trkpt>
      <trkpt lat="45.42068" lon="6.20893">
        <ele>2014.58</ele>
        <time>2021-06-28T06:58:29Z</time>
      </trkpt>
      <trkpt lat="45.42068" lon="6.20892">
        <ele>2017.94</ele>
        <time>2021-06-28T06:58:30Z</time>
      </trkpt>
      <trkpt lat="45.42068" lon="6.20892">
        <ele>2016.02</ele>
        <time>2021-06-28T06:58:31Z</time>
      </trkpt>
      <trkpt lat="45.42068" lon="6.20891">
        <ele>2015.54</ele>
        <time>2021-06-28T06:58:33Z</time>
      </trkpt>
      <trkpt lat="45.42065" lon="6.20893">
        <ele>2016.98</ele>
        <time>2021-06-28T06:58:41Z</time>
      </trkpt>
      <trkpt lat="45.42061" lon="6.20895">
        <ele>2019.39</ele>
        <time>2021-06-28T06:58:54Z</time>
      </trkpt>
      <trkpt lat="45.42057" lon="6.20899">
        <ele>2016.98</ele>
        <time>2021-06-28T06:59:06Z</time>
      </trkpt>
      <trkpt lat="45.42057" lon="6.20899">
        <ele>2020.35</ele>
        <time>2021-06-28T06:59:07Z</time>
      </trkpt>
      <trkpt lat="45.42057" lon="6.209">
        <ele>2016.98</ele>
        <time>2021-06-28T06:59:10Z</time>
      </trkpt>
      <trkpt lat="45.42056" lon="6.20899">
        <ele>2020.35</ele>
        <time>2021-06-28T06:59:12Z</time>
      </trkpt>
      <trkpt lat="45.42053" lon="6.20897">
        <ele>2019.87</ele>
        <time>2021-06-28T06:59:26Z</time>
      </trkpt>
      <trkpt lat="45.42048" lon="6.20897">
        <ele>2019.87</ele>
        <time>2021-06-28T06:59:39Z</time>
      </trkpt>
      <trkpt lat="45.42045" lon="6.20898">
        <ele>2020.35</ele>
        <time>2021-06-28T06:59:53Z</time>
      </trkpt>
      <trkpt lat="45.42045" lon="6.20898">
        <ele>2017.46</ele>
        <time>2021-06-28T06:59:54Z</time>
      </trkpt>
      <trkpt lat="45.42044" lon="6.20898">
        <ele>2021.79</ele>
        <time>2021-06-28T06:59:55Z</time>
      </trkpt>
      <trkpt lat="45.42041" lon="6.20901">
        <ele>2023.23</ele>
        <time>2021-06-28T07:00:11Z</time>
      </trkpt>
      <trkpt lat="45.42037" lon="6.20905">
        <ele>2024.67</ele>
        <time>2021-06-28T07:00:26Z</time>
      </trkpt>
      <trkpt lat="45.42033" lon="6.20907">
        <ele>2026.6</ele>
        <time>2021-06-28T07:00:39Z</time>
      </trkpt>
      <trkpt lat="45.42027" lon="6.20906">
        <ele>2028.04</ele>
        <time>2021-06-28T07:00:52Z</time>
      </trkpt>
      <trkpt lat="45.42023" lon="6.20907">
        <ele>2029</ele>
        <time>2021-06-28T07:01:04Z</time>
      </trkpt>
      <trkpt lat="45.42019" lon="6.20907">
        <ele>2029.96</ele>
        <time>2021-06-28T07:01:15Z</time>
      </trkpt>
      <trkpt lat="45.42016" lon="6.20907">
        <ele>2032.84</ele>
        <time>2021-06-28T07:01:23Z</time>
      </trkpt>
      <trkpt lat="45.42014" lon="6.20907">
        <ele>2029.48</ele>
        <time>2021-06-28T07:01:27Z</time>
      </trkpt>
      <trkpt lat="45.42014" lon="6.20907">
        <ele>2032.84</ele>
        <time>2021-06-28T07:01:28Z</time>
      </trkpt>
      <trkpt lat="45.42013" lon="6.20907">
        <ele>2029.96</ele>
        <time>2021-06-28T07:01:31Z</time>
      </trkpt>
      <trkpt lat="45.42012" lon="6.20907">
        <ele>2033.33</ele>
        <time>2021-06-28T07:01:32Z</time>
      </trkpt>
      <trkpt lat="45.42008" lon="6.20913">
        <ele>2031.88</ele>
        <time>2021-06-28T07:01:45Z</time>
      </trkpt>
      <trkpt lat="45.42005" lon="6.20913">
        <ele>2032.84</ele>
        <time>2021-06-28T07:01:54Z</time>
      </trkpt>
      <trkpt lat="45.42001" lon="6.20914">
        <ele>2030.92</ele>
        <time>2021-06-28T07:02:07Z</time>
      </trkpt>
      <trkpt lat="45.41999" lon="6.20915">
        <ele>2034.29</ele>
        <time>2021-06-28T07:02:19Z</time>
      </trkpt>
      <trkpt lat="45.41995" lon="6.20919">
        <ele>2034.29</ele>
        <time>2021-06-28T07:02:35Z</time>
      </trkpt>
      <trkpt lat="45.41991" lon="6.2092">
        <ele>2035.25</ele>
        <time>2021-06-28T07:02:50Z</time>
      </trkpt>
      <trkpt lat="45.41991" lon="6.2092">
        <ele>2038.61</ele>
        <time>2021-06-28T07:02:51Z</time>
      </trkpt>
      <trkpt lat="45.4199" lon="6.2092">
        <ele>2034.29</ele>
        <time>2021-06-28T07:02:57Z</time>
      </trkpt>
      <trkpt lat="45.4199" lon="6.20921">
        <ele>2039.09</ele>
        <time>2021-06-28T07:02:58Z</time>
      </trkpt>
      <trkpt lat="45.41989" lon="6.20922">
        <ele>2035.25</ele>
        <time>2021-06-28T07:03:00Z</time>
      </trkpt>
      <trkpt lat="45.41986" lon="6.2092">
        <ele>2036.21</ele>
        <time>2021-06-28T07:03:14Z</time>
      </trkpt>
      <trkpt lat="45.41986" lon="6.20923">
        <ele>2038.13</ele>
        <time>2021-06-28T07:03:17Z</time>
      </trkpt>
      <trkpt lat="45.41983" lon="6.20923">
        <ele>2038.61</ele>
        <time>2021-06-28T07:03:34Z</time>
      </trkpt>
      <trkpt lat="45.4198" lon="6.20921">
        <ele>2040.05</ele>
        <time>2021-06-28T07:03:48Z</time>
      </trkpt>
      <trkpt lat="45.41976" lon="6.20918">
        <ele>2040.05</ele>
        <time>2021-06-28T07:04:01Z</time>
      </trkpt>
      <trkpt lat="45.4197" lon="6.20921">
        <ele>2042.46</ele>
        <time>2021-06-28T07:04:16Z</time>
      </trkpt>
      <trkpt lat="45.41969" lon="6.20924">
        <ele>2043.42</ele>
        <time>2021-06-28T07:04:30Z</time>
      </trkpt>
      <trkpt lat="45.41966" lon="6.20925">
        <ele>2046.3</ele>
        <time>2021-06-28T07:04:47Z</time>
      </trkpt>
      <trkpt lat="45.41966" lon="6.20924">
        <ele>2045.34</ele>
        <time>2021-06-28T07:04:48Z</time>
      </trkpt>
      <trkpt lat="45.41962" lon="6.20924">
        <ele>2046.3</ele>
        <time>2021-06-28T07:05:02Z</time>
      </trkpt>
      <trkpt lat="45.41961" lon="6.20925">
        <ele>2043.42</ele>
        <time>2021-06-28T07:05:05Z</time>
      </trkpt>
      <trkpt lat="45.4196" lon="6.20924">
        <ele>2046.3</ele>
        <time>2021-06-28T07:05:07Z</time>
      </trkpt>
      <trkpt lat="45.41959" lon="6.20923">
        <ele>2045.82</ele>
        <time>2021-06-28T07:05:14Z</time>
      </trkpt>
      <trkpt lat="45.41957" lon="6.20922">
        <ele>2047.75</ele>
        <time>2021-06-28T07:05:19Z</time>
      </trkpt>
      <trkpt lat="45.41954" lon="6.20917">
        <ele>2046.78</ele>
        <time>2021-06-28T07:05:31Z</time>
      </trkpt>
      <trkpt lat="45.41952" lon="6.20926">
        <ele>2048.23</ele>
        <time>2021-06-28T07:05:44Z</time>
      </trkpt>
      <trkpt lat="45.41948" lon="6.20928">
        <ele>2048.23</ele>
        <time>2021-06-28T07:05:56Z</time>
      </trkpt>
      <trkpt lat="45.41943" lon="6.20925">
        <ele>2051.11</ele>
        <time>2021-06-28T07:06:12Z</time>
      </trkpt>
      <trkpt lat="45.41942" lon="6.20926">
        <ele>2050.63</ele>
        <time>2021-06-28T07:06:13Z</time>
      </trkpt>
      <trkpt lat="45.41937" lon="6.2093">
        <ele>2049.19</ele>
        <time>2021-06-28T07:06:24Z</time>
      </trkpt>
      <trkpt lat="45.41933" lon="6.20935">
        <ele>2049.67</ele>
        <time>2021-06-28T07:06:38Z</time>
      </trkpt>
      <trkpt lat="45.4193" lon="6.20937">
        <ele>2049.67</ele>
        <time>2021-06-28T07:06:46Z</time>
      </trkpt>
      <trkpt lat="45.41923" lon="6.20935">
        <ele>2050.15</ele>
        <time>2021-06-28T07:06:57Z</time>
      </trkpt>
      <trkpt lat="45.41916" lon="6.20931">
        <ele>2050.15</ele>
        <time>2021-06-28T07:07:08Z</time>
      </trkpt>
      <trkpt lat="45.41913" lon="6.20929">
        <ele>2049.67</ele>
        <time>2021-06-28T07:07:20Z</time>
      </trkpt>
      <trkpt lat="45.4191" lon="6.20926">
        <ele>2049.19</ele>
        <time>2021-06-28T07:07:36Z</time>
      </trkpt>
      <trkpt lat="45.41909" lon="6.20926">
        <ele>2053.03</ele>
        <time>2021-06-28T07:07:38Z</time>
      </trkpt>
      <trkpt lat="45.41908" lon="6.20925">
        <ele>2049.67</ele>
        <time>2021-06-28T07:07:48Z</time>
      </trkpt>
      <trkpt lat="45.41905" lon="6.2092">
        <ele>2053.03</ele>
        <time>2021-06-28T07:07:58Z</time>
      </trkpt>
      <trkpt lat="45.41903" lon="6.2092">
        <ele>2049.67</ele>
        <time>2021-06-28T07:08:02Z</time>
      </trkpt>
      <trkpt lat="45.41902" lon="6.20918">
        <ele>2049.67</ele>
        <time>2021-06-28T07:08:08Z</time>
      </trkpt>
      <trkpt lat="45.41899" lon="6.20917">
        <ele>2049.19</ele>
        <time>2021-06-28T07:08:18Z</time>
      </trkpt>
      <trkpt lat="45.41899" lon="6.20918">
        <ele>2053.99</ele>
        <time>2021-06-28T07:08:19Z</time>
      </trkpt>
      <trkpt lat="45.41899" lon="6.20918">
        <ele>2051.11</ele>
        <time>2021-06-28T07:08:20Z</time>
      </trkpt>
      <trkpt lat="45.41899" lon="6.20918">
        <ele>2048.23</ele>
        <time>2021-06-28T07:08:21Z</time>
      </trkpt>
      <trkpt lat="45.41899" lon="6.20918">
        <ele>2051.59</ele>
        <time>2021-06-28T07:08:22Z</time>
      </trkpt>
      <trkpt lat="45.41896" lon="6.20917">
        <ele>2052.07</ele>
        <time>2021-06-28T07:08:33Z</time>
      </trkpt>
      <trkpt lat="45.41893" lon="6.20916">
        <ele>2051.59</ele>
        <time>2021-06-28T07:08:45Z</time>
      </trkpt>
      <trkpt lat="45.41889" lon="6.20916">
        <ele>2052.55</ele>
        <time>2021-06-28T07:08:58Z</time>
      </trkpt>
      <trkpt lat="45.41885" lon="6.20916">
        <ele>2052.55</ele>
        <time>2021-06-28T07:09:14Z</time>
      </trkpt>
      <trkpt lat="45.4188" lon="6.20913">
        <ele>2053.51</ele>
        <time>2021-06-28T07:09:25Z</time>
      </trkpt>
      <trkpt lat="45.41878" lon="6.20916">
        <ele>2054.96</ele>
        <time>2021-06-28T07:09:39Z</time>
      </trkpt>
      <trkpt lat="45.41876" lon="6.20915">
        <ele>2054.96</ele>
        <time>2021-06-28T07:09:46Z</time>
      </trkpt>
      <trkpt lat="45.41873" lon="6.20906">
        <ele>2054.96</ele>
        <time>2021-06-28T07:10:00Z</time>
      </trkpt>
      <trkpt lat="45.41872" lon="6.20904">
        <ele>2054.47</ele>
        <time>2021-06-28T07:10:02Z</time>
      </trkpt>
      <trkpt lat="45.41862" lon="6.20894">
        <ele>2053.51</ele>
        <time>2021-06-28T07:10:13Z</time>
      </trkpt>
      <trkpt lat="45.41854" lon="6.20889">
        <ele>2053.03</ele>
        <time>2021-06-28T07:10:29Z</time>
      </trkpt>
      <trkpt lat="45.41848" lon="6.20882">
        <ele>2049.67</ele>
        <time>2021-06-28T07:10:44Z</time>
      </trkpt>
      <trkpt lat="45.41843" lon="6.20876">
        <ele>2048.23</ele>
        <time>2021-06-28T07:10:57Z</time>
      </trkpt>
      <trkpt lat="45.41842" lon="6.20877">
        <ele>2048.71</ele>
        <time>2021-06-28T07:10:59Z</time>
      </trkpt>
      <trkpt lat="45.41835" lon="6.20879">
        <ele>2049.19</ele>
        <time>2021-06-28T07:11:11Z</time>
      </trkpt>
      <trkpt lat="45.4183" lon="6.20879">
        <ele>2049.67</ele>
        <time>2021-06-28T07:11:19Z</time>
      </trkpt>
      <trkpt lat="45.41828" lon="6.20879">
        <ele>2049.19</ele>
        <time>2021-06-28T07:11:22Z</time>
      </trkpt>
      <trkpt lat="45.41819" lon="6.20877">
        <ele>2048.71</ele>
        <time>2021-06-28T07:11:34Z</time>
      </trkpt>
      <trkpt lat="45.41813" lon="6.20874">
        <ele>2048.71</ele>
        <time>2021-06-28T07:11:47Z</time>
      </trkpt>
      <trkpt lat="45.41809" lon="6.20875">
        <ele>2047.26</ele>
        <time>2021-06-28T07:11:54Z</time>
      </trkpt>
      <trkpt lat="45.41799" lon="6.20875">
        <ele>2047.75</ele>
        <time>2021-06-28T07:12:09Z</time>
      </trkpt>
      <trkpt lat="45.4179" lon="6.20875">
        <ele>2046.78</ele>
        <time>2021-06-28T07:12:23Z</time>
      </trkpt>
      <trkpt lat="45.41784" lon="6.20874">
        <ele>2045.82</ele>
        <time>2021-06-28T07:12:29Z</time>
      </trkpt>
      <trkpt lat="45.4178" lon="6.20876">
        <ele>2043.42</ele>
        <time>2021-06-28T07:12:43Z</time>
      </trkpt>
      <trkpt lat="45.41773" lon="6.20879">
        <ele>2043.9</ele>
        <time>2021-06-28T07:12:57Z</time>
      </trkpt>
      <trkpt lat="45.41768" lon="6.20881">
        <ele>2045.34</ele>
        <time>2021-06-28T07:13:08Z</time>
      </trkpt>
      <trkpt lat="45.41763" lon="6.20881">
        <ele>2043.42</ele>
        <time>2021-06-28T07:13:21Z</time>
      </trkpt>
      <trkpt lat="45.41762" lon="6.20883">
        <ele>2043.9</ele>
        <time>2021-06-28T07:13:40Z</time>
      </trkpt>
      <trkpt lat="45.41764" lon="6.2088">
        <ele>2043.9</ele>
        <time>2021-06-28T07:14:08Z</time>
      </trkpt>
      <trkpt lat="45.41762" lon="6.20883">
        <ele>2042.94</ele>
        <time>2021-06-28T07:14:40Z</time>
      </trkpt>
      <trkpt lat="45.41766" lon="6.20883">
        <ele>2043.42</ele>
        <time>2021-06-28T07:15:12Z</time>
      </trkpt>
      <trkpt lat="45.41762" lon="6.20878">
        <ele>2043.42</ele>
        <time>2021-06-28T07:15:47Z</time>
      </trkpt>
      <trkpt lat="45.41758" lon="6.20879">
        <ele>2044.38</ele>
        <time>2021-06-28T07:16:25Z</time>
      </trkpt>
      <trkpt lat="45.41761" lon="6.20888">
        <ele>2044.38</ele>
        <time>2021-06-28T07:16:43Z</time>
      </trkpt>
      <trkpt lat="45.41757" lon="6.2089">
        <ele>2045.34</ele>
        <time>2021-06-28T07:17:11Z</time>
      </trkpt>
      <trkpt lat="45.41751" lon="6.20892">
        <ele>2045.34</ele>
        <time>2021-06-28T07:17:25Z</time>
      </trkpt>
      <trkpt lat="45.41749" lon="6.20892">
        <ele>2044.86</ele>
        <time>2021-06-28T07:17:28Z</time>
      </trkpt>
      <trkpt lat="45.41741" lon="6.20895">
        <ele>2047.75</ele>
        <time>2021-06-28T07:17:43Z</time>
      </trkpt>
      <trkpt lat="45.41733" lon="6.20896">
        <ele>2046.3</ele>
        <time>2021-06-28T07:17:56Z</time>
      </trkpt>
      <trkpt lat="45.4173" lon="6.20899">
        <ele>2049.67</ele>
        <time>2021-06-28T07:18:05Z</time>
      </trkpt>
      <trkpt lat="45.41725" lon="6.20903">
        <ele>2051.11</ele>
        <time>2021-06-28T07:18:18Z</time>
      </trkpt>
      <trkpt lat="45.4172" lon="6.20904">
        <ele>2053.51</ele>
        <time>2021-06-28T07:18:31Z</time>
      </trkpt>
      <trkpt lat="45.41715" lon="6.20901">
        <ele>2050.15</ele>
        <time>2021-06-28T07:18:38Z</time>
      </trkpt>
      <trkpt lat="45.41705" lon="6.20903">
        <ele>2050.63</ele>
        <time>2021-06-28T07:18:52Z</time>
      </trkpt>
      <trkpt lat="45.41701" lon="6.20902">
        <ele>2053.99</ele>
        <time>2021-06-28T07:19:01Z</time>
      </trkpt>
      <trkpt lat="45.41694" lon="6.20897">
        <ele>2052.55</ele>
        <time>2021-06-28T07:19:12Z</time>
      </trkpt>
      <trkpt lat="45.41687" lon="6.20895">
        <ele>2051.11</ele>
        <time>2021-06-28T07:19:24Z</time>
      </trkpt>
      <trkpt lat="45.41681" lon="6.20892">
        <ele>2052.07</ele>
        <time>2021-06-28T07:19:41Z</time>
      </trkpt>
      <trkpt lat="45.41672" lon="6.20887">
        <ele>2054.47</ele>
        <time>2021-06-28T07:19:56Z</time>
      </trkpt>
      <trkpt lat="45.4167" lon="6.20887">
        <ele>2051.59</ele>
        <time>2021-06-28T07:20:04Z</time>
      </trkpt>
      <trkpt lat="45.41669" lon="6.20887">
        <ele>2054.96</ele>
        <time>2021-06-28T07:20:05Z</time>
      </trkpt>
      <trkpt lat="45.41666" lon="6.20891">
        <ele>2055.92</ele>
        <time>2021-06-28T07:20:21Z</time>
      </trkpt>
      <trkpt lat="45.41668" lon="6.20895">
        <ele>2059.28</ele>
        <time>2021-06-28T07:20:33Z</time>
      </trkpt>
      <trkpt lat="45.41665" lon="6.20899">
        <ele>2060.24</ele>
        <time>2021-06-28T07:20:53Z</time>
      </trkpt>
      <trkpt lat="45.41661" lon="6.20896">
        <ele>2063.61</ele>
        <time>2021-06-28T07:21:02Z</time>
      </trkpt>
      <trkpt lat="45.41661" lon="6.20897">
        <ele>2059.28</ele>
        <time>2021-06-28T07:21:03Z</time>
      </trkpt>
      <trkpt lat="45.4166" lon="6.20896">
        <ele>2064.09</ele>
        <time>2021-06-28T07:21:07Z</time>
      </trkpt>
      <trkpt lat="45.41659" lon="6.20897">
        <ele>2059.76</ele>
        <time>2021-06-28T07:21:09Z</time>
      </trkpt>
      <trkpt lat="45.41658" lon="6.20897">
        <ele>2064.09</ele>
        <time>2021-06-28T07:21:10Z</time>
      </trkpt>
      <trkpt lat="45.41658" lon="6.20897">
        <ele>2062.65</ele>
        <time>2021-06-28T07:21:11Z</time>
      </trkpt>
      <trkpt lat="45.41655" lon="6.20894">
        <ele>2062.17</ele>
        <time>2021-06-28T07:21:27Z</time>
      </trkpt>
      <trkpt lat="45.4165" lon="6.20889">
        <ele>2061.68</ele>
        <time>2021-06-28T07:21:39Z</time>
      </trkpt>
      <trkpt lat="45.41647" lon="6.20882">
        <ele>2060.72</ele>
        <time>2021-06-28T07:21:55Z</time>
      </trkpt>
      <trkpt lat="45.41644" lon="6.20875">
        <ele>2058.8</ele>
        <time>2021-06-28T07:22:10Z</time>
      </trkpt>
      <trkpt lat="45.4164" lon="6.20871">
        <ele>2059.28</ele>
        <time>2021-06-28T07:22:23Z</time>
      </trkpt>
      <trkpt lat="45.41636" lon="6.20868">
        <ele>2059.76</ele>
        <time>2021-06-28T07:22:34Z</time>
      </trkpt>
      <trkpt lat="45.4163" lon="6.20868">
        <ele>2059.28</ele>
        <time>2021-06-28T07:22:49Z</time>
      </trkpt>
      <trkpt lat="45.41624" lon="6.20865">
        <ele>2059.28</ele>
        <time>2021-06-28T07:23:03Z</time>
      </trkpt>
      <trkpt lat="45.41622" lon="6.20864">
        <ele>2059.28</ele>
        <time>2021-06-28T07:23:08Z</time>
      </trkpt>
      <trkpt lat="45.41615" lon="6.20857">
        <ele>2059.76</ele>
        <time>2021-06-28T07:23:21Z</time>
      </trkpt>
      <trkpt lat="45.4161" lon="6.20852">
        <ele>2061.68</ele>
        <time>2021-06-28T07:23:33Z</time>
      </trkpt>
      <trkpt lat="45.41608" lon="6.20851">
        <ele>2058.32</ele>
        <time>2021-06-28T07:23:38Z</time>
      </trkpt>
      <trkpt lat="45.41607" lon="6.20851">
        <ele>2061.68</ele>
        <time>2021-06-28T07:23:39Z</time>
      </trkpt>
      <trkpt lat="45.41601" lon="6.20854">
        <ele>2061.2</ele>
        <time>2021-06-28T07:23:52Z</time>
      </trkpt>
      <trkpt lat="45.41597" lon="6.20849">
        <ele>2062.65</ele>
        <time>2021-06-28T07:24:05Z</time>
      </trkpt>
      <trkpt lat="45.4159" lon="6.20844">
        <ele>2062.17</ele>
        <time>2021-06-28T07:24:21Z</time>
      </trkpt>
      <trkpt lat="45.4159" lon="6.20844">
        <ele>2059.76</ele>
        <time>2021-06-28T07:24:31Z</time>
      </trkpt>
      <trkpt lat="45.41591" lon="6.20844">
        <ele>2062.65</ele>
        <time>2021-06-28T07:24:51Z</time>
      </trkpt>
      <trkpt lat="45.4159" lon="6.20844">
        <ele>2062.65</ele>
        <time>2021-06-28T07:24:52Z</time>
      </trkpt>
      <trkpt lat="45.41587" lon="6.20843">
        <ele>2063.13</ele>
        <time>2021-06-28T07:25:16Z</time>
      </trkpt>
      <trkpt lat="45.41585" lon="6.20842">
        <ele>2062.65</ele>
        <time>2021-06-28T07:25:34Z</time>
      </trkpt>
      <trkpt lat="45.41579" lon="6.20842">
        <ele>2063.61</ele>
        <time>2021-06-28T07:25:48Z</time>
      </trkpt>
      <trkpt lat="45.41573" lon="6.20839">
        <ele>2066.97</ele>
        <time>2021-06-28T07:25:58Z</time>
      </trkpt>
      <trkpt lat="45.41566" lon="6.20833">
        <ele>2067.45</ele>
        <time>2021-06-28T07:26:13Z</time>
      </trkpt>
      <trkpt lat="45.4156" lon="6.2083">
        <ele>2066.97</ele>
        <time>2021-06-28T07:26:22Z</time>
      </trkpt>
      <trkpt lat="45.41554" lon="6.2083">
        <ele>2067.93</ele>
        <time>2021-06-28T07:26:33Z</time>
      </trkpt>
      <trkpt lat="45.4155" lon="6.20831">
        <ele>2069.86</ele>
        <time>2021-06-28T07:26:45Z</time>
      </trkpt>
      <trkpt lat="45.41543" lon="6.20829">
        <ele>2071.3</ele>
        <time>2021-06-28T07:26:56Z</time>
      </trkpt>
      <trkpt lat="45.41536" lon="6.20826">
        <ele>2069.86</ele>
        <time>2021-06-28T07:27:09Z</time>
      </trkpt>
      <trkpt lat="45.41533" lon="6.20824">
        <ele>2071.78</ele>
        <time>2021-06-28T07:27:17Z</time>
      </trkpt>
      <trkpt lat="45.41527" lon="6.20817">
        <ele>2071.3</ele>
        <time>2021-06-28T07:27:32Z</time>
      </trkpt>
      <trkpt lat="45.41525" lon="6.20813">
        <ele>2074.18</ele>
        <time>2021-06-28T07:27:41Z</time>
      </trkpt>
      <trkpt lat="45.4152" lon="6.20808">
        <ele>2075.62</ele>
        <time>2021-06-28T07:27:58Z</time>
      </trkpt>
      <trkpt lat="45.41515" lon="6.20803">
        <ele>2074.66</ele>
        <time>2021-06-28T07:28:09Z</time>
      </trkpt>
      <trkpt lat="45.41515" lon="6.20802">
        <ele>2078.03</ele>
        <time>2021-06-28T07:28:10Z</time>
      </trkpt>
      <trkpt lat="45.41513" lon="6.20802">
        <ele>2073.7</ele>
        <time>2021-06-28T07:28:21Z</time>
      </trkpt>
      <trkpt lat="45.41511" lon="6.20801">
        <ele>2077.07</ele>
        <time>2021-06-28T07:28:25Z</time>
      </trkpt>
      <trkpt lat="45.41511" lon="6.208">
        <ele>2077.55</ele>
        <time>2021-06-28T07:28:29Z</time>
      </trkpt>
      <trkpt lat="45.41508" lon="6.20793">
        <ele>2076.1</ele>
        <time>2021-06-28T07:28:45Z</time>
      </trkpt>
      <trkpt lat="45.41508" lon="6.20793">
        <ele>2079.47</ele>
        <time>2021-06-28T07:28:46Z</time>
      </trkpt>
      <trkpt lat="45.41508" lon="6.20792">
        <ele>2077.55</ele>
        <time>2021-06-28T07:28:50Z</time>
      </trkpt>
      <trkpt lat="45.41508" lon="6.2079">
        <ele>2075.62</ele>
        <time>2021-06-28T07:28:52Z</time>
      </trkpt>
      <trkpt lat="45.41508" lon="6.2079">
        <ele>2081.39</ele>
        <time>2021-06-28T07:28:53Z</time>
      </trkpt>
      <trkpt lat="45.41508" lon="6.2079">
        <ele>2077.55</ele>
        <time>2021-06-28T07:28:55Z</time>
      </trkpt>
      <trkpt lat="45.41505" lon="6.20787">
        <ele>2080.43</ele>
        <time>2021-06-28T07:29:03Z</time>
      </trkpt>
      <trkpt lat="45.41501" lon="6.20784">
        <ele>2082.83</ele>
        <time>2021-06-28T07:29:15Z</time>
      </trkpt>
      <trkpt lat="45.415" lon="6.20784">
        <ele>2079.47</ele>
        <time>2021-06-28T07:29:18Z</time>
      </trkpt>
      <trkpt lat="45.415" lon="6.20784">
        <ele>2084.76</ele>
        <time>2021-06-28T07:29:19Z</time>
      </trkpt>
      <trkpt lat="45.41498" lon="6.20783">
        <ele>2081.87</ele>
        <time>2021-06-28T07:29:24Z</time>
      </trkpt>
      <trkpt lat="45.41491" lon="6.2078">
        <ele>2080.43</ele>
        <time>2021-06-28T07:29:37Z</time>
      </trkpt>
      <trkpt lat="45.4149" lon="6.2078">
        <ele>2084.28</ele>
        <time>2021-06-28T07:29:38Z</time>
      </trkpt>
      <trkpt lat="45.41486" lon="6.20776">
        <ele>2082.83</ele>
        <time>2021-06-28T07:29:48Z</time>
      </trkpt>
      <trkpt lat="45.41482" lon="6.20773">
        <ele>2086.68</ele>
        <time>2021-06-28T07:29:58Z</time>
      </trkpt>
      <trkpt lat="45.41481" lon="6.20767">
        <ele>2085.24</ele>
        <time>2021-06-28T07:30:10Z</time>
      </trkpt>
      <trkpt lat="45.41481" lon="6.20767">
        <ele>2089.56</ele>
        <time>2021-06-28T07:30:11Z</time>
      </trkpt>
      <trkpt lat="45.41481" lon="6.20767">
        <ele>2086.2</ele>
        <time>2021-06-28T07:30:12Z</time>
      </trkpt>
      <trkpt lat="45.41481" lon="6.20767">
        <ele>2089.08</ele>
        <time>2021-06-28T07:30:13Z</time>
      </trkpt>
      <trkpt lat="45.41478" lon="6.20767">
        <ele>2086.2</ele>
        <time>2021-06-28T07:30:18Z</time>
      </trkpt>
      <trkpt lat="45.41477" lon="6.20768">
        <ele>2089.56</ele>
        <time>2021-06-28T07:30:20Z</time>
      </trkpt>
      <trkpt lat="45.41476" lon="6.20768">
        <ele>2087.16</ele>
        <time>2021-06-28T07:30:21Z</time>
      </trkpt>
      <trkpt lat="45.4147" lon="6.20766">
        <ele>2089.56</ele>
        <time>2021-06-28T07:30:38Z</time>
      </trkpt>
      <trkpt lat="45.41466" lon="6.20762">
        <ele>2092.45</ele>
        <time>2021-06-28T07:30:47Z</time>
      </trkpt>
      <trkpt lat="45.41466" lon="6.20762">
        <ele>2092.93</ele>
        <time>2021-06-28T07:30:48Z</time>
      </trkpt>
      <trkpt lat="45.41466" lon="6.20762">
        <ele>2090.04</ele>
        <time>2021-06-28T07:30:49Z</time>
      </trkpt>
      <trkpt lat="45.41464" lon="6.20761">
        <ele>2093.89</ele>
        <time>2021-06-28T07:30:54Z</time>
      </trkpt>
      <trkpt lat="45.41464" lon="6.20757">
        <ele>2093.41</ele>
        <time>2021-06-28T07:31:10Z</time>
      </trkpt>
      <trkpt lat="45.41463" lon="6.20757">
        <ele>2096.77</ele>
        <time>2021-06-28T07:31:11Z</time>
      </trkpt>
      <trkpt lat="45.41462" lon="6.20757">
        <ele>2094.85</ele>
        <time>2021-06-28T07:31:12Z</time>
      </trkpt>
      <trkpt lat="45.41463" lon="6.20761">
        <ele>2097.25</ele>
        <time>2021-06-28T07:31:24Z</time>
      </trkpt>
      <trkpt lat="45.41459" lon="6.20759">
        <ele>2098.7</ele>
        <time>2021-06-28T07:31:42Z</time>
      </trkpt>
      <trkpt lat="45.41458" lon="6.20757">
        <ele>2099.66</ele>
        <time>2021-06-28T07:31:51Z</time>
      </trkpt>
      <trkpt lat="45.41454" lon="6.20752">
        <ele>2101.58</ele>
        <time>2021-06-28T07:32:06Z</time>
      </trkpt>
      <trkpt lat="45.41449" lon="6.20752">
        <ele>2101.58</ele>
        <time>2021-06-28T07:32:17Z</time>
      </trkpt>
      <trkpt lat="45.4144" lon="6.20751">
        <ele>2104.46</ele>
        <time>2021-06-28T07:32:34Z</time>
      </trkpt>
      <trkpt lat="45.41432" lon="6.20749">
        <ele>2103.02</ele>
        <time>2021-06-28T07:32:42Z</time>
      </trkpt>
      <trkpt lat="45.41432" lon="6.20749">
        <ele>2106.39</ele>
        <time>2021-06-28T07:32:43Z</time>
      </trkpt>
      <trkpt lat="45.41422" lon="6.20745">
        <ele>2105.42</ele>
        <time>2021-06-28T07:32:59Z</time>
      </trkpt>
      <trkpt lat="45.41426" lon="6.20744">
        <ele>2109.27</ele>
        <time>2021-06-28T07:33:04Z</time>
      </trkpt>
      <trkpt lat="45.41426" lon="6.20743">
        <ele>2106.39</ele>
        <time>2021-06-28T07:33:08Z</time>
      </trkpt>
      <trkpt lat="45.41426" lon="6.20742">
        <ele>2109.75</ele>
        <time>2021-06-28T07:33:12Z</time>
      </trkpt>
      <trkpt lat="45.41423" lon="6.20741">
        <ele>2109.27</ele>
        <time>2021-06-28T07:33:30Z</time>
      </trkpt>
      <trkpt lat="45.41423" lon="6.20739">
        <ele>2114.56</ele>
        <time>2021-06-28T07:33:41Z</time>
      </trkpt>
      <trkpt lat="45.41423" lon="6.20739">
        <ele>2111.19</ele>
        <time>2021-06-28T07:33:42Z</time>
      </trkpt>
      <trkpt lat="45.41423" lon="6.20736">
        <ele>2114.56</ele>
        <time>2021-06-28T07:33:54Z</time>
      </trkpt>
      <trkpt lat="45.41415" lon="6.20733">
        <ele>2114.56</ele>
        <time>2021-06-28T07:34:10Z</time>
      </trkpt>
      <trkpt lat="45.41409" lon="6.2073">
        <ele>2116</ele>
        <time>2021-06-28T07:34:23Z</time>
      </trkpt>
      <trkpt lat="45.41408" lon="6.20731">
        <ele>2117.44</ele>
        <time>2021-06-28T07:34:38Z</time>
      </trkpt>
      <trkpt lat="45.41404" lon="6.20731">
        <ele>2120.32</ele>
        <time>2021-06-28T07:34:47Z</time>
      </trkpt>
      <trkpt lat="45.414" lon="6.20728">
        <ele>2117.44</ele>
        <time>2021-06-28T07:34:53Z</time>
      </trkpt>
      <trkpt lat="45.414" lon="6.20727">
        <ele>2120.81</ele>
        <time>2021-06-28T07:34:54Z</time>
      </trkpt>
      <trkpt lat="45.41396" lon="6.20728">
        <ele>2118.88</ele>
        <time>2021-06-28T07:35:11Z</time>
      </trkpt>
      <trkpt lat="45.414" lon="6.20729">
        <ele>2120.32</ele>
        <time>2021-06-28T07:35:31Z</time>
      </trkpt>
      <trkpt lat="45.41398" lon="6.20738">
        <ele>2118.88</ele>
        <time>2021-06-28T07:35:56Z</time>
      </trkpt>
      <trkpt lat="45.41398" lon="6.20739">
        <ele>2118.4</ele>
        <time>2021-06-28T07:36:23Z</time>
      </trkpt>
      <trkpt lat="45.41398" lon="6.20732">
        <ele>2118.4</ele>
        <time>2021-06-28T07:36:43Z</time>
      </trkpt>
      <trkpt lat="45.41394" lon="6.2073">
        <ele>2118.4</ele>
        <time>2021-06-28T07:37:14Z</time>
      </trkpt>
      <trkpt lat="45.41394" lon="6.2073">
        <ele>2119.36</ele>
        <time>2021-06-28T07:37:44Z</time>
      </trkpt>
      <trkpt lat="45.41393" lon="6.2073">
        <ele>2118.88</ele>
        <time>2021-06-28T07:38:05Z</time>
      </trkpt>
      <trkpt lat="45.41391" lon="6.20727">
        <ele>2118.4</ele>
        <time>2021-06-28T07:38:21Z</time>
      </trkpt>
      <trkpt lat="45.41386" lon="6.20725">
        <ele>2121.29</ele>
        <time>2021-06-28T07:38:34Z</time>
      </trkpt>
      <trkpt lat="45.4138" lon="6.20719">
        <ele>2120.81</ele>
        <time>2021-06-28T07:38:48Z</time>
      </trkpt>
      <trkpt lat="45.41373" lon="6.20717">
        <ele>2124.17</ele>
        <time>2021-06-28T07:39:01Z</time>
      </trkpt>
      <trkpt lat="45.41371" lon="6.20715">
        <ele>2125.61</ele>
        <time>2021-06-28T07:39:14Z</time>
      </trkpt>
      <trkpt lat="45.41367" lon="6.2071">
        <ele>2126.57</ele>
        <time>2021-06-28T07:39:26Z</time>
      </trkpt>
      <trkpt lat="45.41368" lon="6.20708">
        <ele>2127.05</ele>
        <time>2021-06-28T07:39:38Z</time>
      </trkpt>
      <trkpt lat="45.41368" lon="6.207">
        <ele>2128.5</ele>
        <time>2021-06-28T07:39:50Z</time>
      </trkpt>
      <trkpt lat="45.41366" lon="6.20693">
        <ele>2130.42</ele>
        <time>2021-06-28T07:40:04Z</time>
      </trkpt>
      <trkpt lat="45.41365" lon="6.20688">
        <ele>2131.38</ele>
        <time>2021-06-28T07:40:16Z</time>
      </trkpt>
      <trkpt lat="45.41365" lon="6.20684">
        <ele>2133.78</ele>
        <time>2021-06-28T07:40:29Z</time>
      </trkpt>
      <trkpt lat="45.41362" lon="6.20683">
        <ele>2134.74</ele>
        <time>2021-06-28T07:40:43Z</time>
      </trkpt>
      <trkpt lat="45.41361" lon="6.20685">
        <ele>2135.71</ele>
        <time>2021-06-28T07:40:55Z</time>
      </trkpt>
      <trkpt lat="45.41357" lon="6.20686">
        <ele>2138.11</ele>
        <time>2021-06-28T07:41:09Z</time>
      </trkpt>
      <trkpt lat="45.41353" lon="6.20687">
        <ele>2138.11</ele>
        <time>2021-06-28T07:41:21Z</time>
      </trkpt>
      <trkpt lat="45.4135" lon="6.20689">
        <ele>2139.55</ele>
        <time>2021-06-28T07:41:31Z</time>
      </trkpt>
      <trkpt lat="45.41346" lon="6.20687">
        <ele>2140.51</ele>
        <time>2021-06-28T07:41:43Z</time>
      </trkpt>
      <trkpt lat="45.41343" lon="6.20688">
        <ele>2142.44</ele>
        <time>2021-06-28T07:41:56Z</time>
      </trkpt>
      <trkpt lat="45.41339" lon="6.20686">
        <ele>2145.32</ele>
        <time>2021-06-28T07:42:09Z</time>
      </trkpt>
      <trkpt lat="45.41338" lon="6.20688">
        <ele>2145.32</ele>
        <time>2021-06-28T07:42:22Z</time>
      </trkpt>
      <trkpt lat="45.41334" lon="6.20692">
        <ele>2147.72</ele>
        <time>2021-06-28T07:42:36Z</time>
      </trkpt>
      <trkpt lat="45.41333" lon="6.20691">
        <ele>2150.13</ele>
        <time>2021-06-28T07:42:50Z</time>
      </trkpt>
      <trkpt lat="45.4133" lon="6.2069">
        <ele>2150.61</ele>
        <time>2021-06-28T07:43:00Z</time>
      </trkpt>
      <trkpt lat="45.41325" lon="6.20686">
        <ele>2153.49</ele>
        <time>2021-06-28T07:43:13Z</time>
      </trkpt>
      <trkpt lat="45.41322" lon="6.20689">
        <ele>2154.45</ele>
        <time>2021-06-28T07:43:27Z</time>
      </trkpt>
      <trkpt lat="45.4132" lon="6.20689">
        <ele>2156.37</ele>
        <time>2021-06-28T07:43:39Z</time>
      </trkpt>
      <trkpt lat="45.41315" lon="6.20691">
        <ele>2158.78</ele>
        <time>2021-06-28T07:43:54Z</time>
      </trkpt>
      <trkpt lat="45.41311" lon="6.20694">
        <ele>2159.26</ele>
        <time>2021-06-28T07:44:03Z</time>
      </trkpt>
      <trkpt lat="45.41305" lon="6.20695">
        <ele>2159.74</ele>
        <time>2021-06-28T07:44:16Z</time>
      </trkpt>
      <trkpt lat="45.413" lon="6.20699">
        <ele>2159.74</ele>
        <time>2021-06-28T07:44:29Z</time>
      </trkpt>
      <trkpt lat="45.41294" lon="6.20698">
        <ele>2161.66</ele>
        <time>2021-06-28T07:44:40Z</time>
      </trkpt>
      <trkpt lat="45.41288" lon="6.20695">
        <ele>2162.14</ele>
        <time>2021-06-28T07:44:53Z</time>
      </trkpt>
      <trkpt lat="45.41285" lon="6.207">
        <ele>2162.14</ele>
        <time>2021-06-28T07:45:04Z</time>
      </trkpt>
      <trkpt lat="45.41281" lon="6.20701">
        <ele>2164.55</ele>
        <time>2021-06-28T07:45:14Z</time>
      </trkpt>
      <trkpt lat="45.41279" lon="6.20706">
        <ele>2165.99</ele>
        <time>2021-06-28T07:45:29Z</time>
      </trkpt>
      <trkpt lat="45.41278" lon="6.2071">
        <ele>2167.43</ele>
        <time>2021-06-28T07:45:42Z</time>
      </trkpt>
      <trkpt lat="45.41276" lon="6.20712">
        <ele>2166.95</ele>
        <time>2021-06-28T07:46:02Z</time>
      </trkpt>
      <trkpt lat="45.41276" lon="6.20714">
        <ele>2167.43</ele>
        <time>2021-06-28T07:46:31Z</time>
      </trkpt>
      <trkpt lat="45.41273" lon="6.2071">
        <ele>2167.91</ele>
        <time>2021-06-28T07:46:51Z</time>
      </trkpt>
      <trkpt lat="45.41266" lon="6.20714">
        <ele>2169.83</ele>
        <time>2021-06-28T07:47:08Z</time>
      </trkpt>
      <trkpt lat="45.41262" lon="6.20718">
        <ele>2170.31</ele>
        <time>2021-06-28T07:47:20Z</time>
      </trkpt>
      <trkpt lat="45.41259" lon="6.20721">
        <ele>2169.83</ele>
        <time>2021-06-28T07:47:30Z</time>
      </trkpt>
      <trkpt lat="45.41254" lon="6.20718">
        <ele>2171.27</ele>
        <time>2021-06-28T07:47:40Z</time>
      </trkpt>
      <trkpt lat="45.41249" lon="6.20716">
        <ele>2173.2</ele>
        <time>2021-06-28T07:47:49Z</time>
      </trkpt>
      <trkpt lat="45.41247" lon="6.20716">
        <ele>2174.64</ele>
        <time>2021-06-28T07:47:58Z</time>
      </trkpt>
      <trkpt lat="45.41243" lon="6.20718">
        <ele>2174.64</ele>
        <time>2021-06-28T07:48:08Z</time>
      </trkpt>
      <trkpt lat="45.41238" lon="6.2072">
        <ele>2174.16</ele>
        <time>2021-06-28T07:48:15Z</time>
      </trkpt>
      <trkpt lat="45.41234" lon="6.20723">
        <ele>2173.2</ele>
        <time>2021-06-28T07:48:22Z</time>
      </trkpt>
      <trkpt lat="45.41229" lon="6.20725">
        <ele>2173.2</ele>
        <time>2021-06-28T07:48:29Z</time>
      </trkpt>
      <trkpt lat="45.41225" lon="6.20734">
        <ele>2174.16</ele>
        <time>2021-06-28T07:48:41Z</time>
      </trkpt>
      <trkpt lat="45.41226" lon="6.20745">
        <ele>2174.16</ele>
        <time>2021-06-28T07:48:52Z</time>
      </trkpt>
      <trkpt lat="45.41229" lon="6.20756">
        <ele>2174.64</ele>
        <time>2021-06-28T07:49:05Z</time>
      </trkpt>
      <trkpt lat="45.41227" lon="6.20763">
        <ele>2175.12</ele>
        <time>2021-06-28T07:49:18Z</time>
      </trkpt>
      <trkpt lat="45.41228" lon="6.2077">
        <ele>2175.12</ele>
        <time>2021-06-28T07:49:30Z</time>
      </trkpt>
      <trkpt lat="45.41223" lon="6.20775">
        <ele>2176.08</ele>
        <time>2021-06-28T07:49:42Z</time>
      </trkpt>
      <trkpt lat="45.41221" lon="6.20778">
        <ele>2175.6</ele>
        <time>2021-06-28T07:49:45Z</time>
      </trkpt>
      <trkpt lat="45.41214" lon="6.20785">
        <ele>2174.64</ele>
        <time>2021-06-28T07:49:58Z</time>
      </trkpt>
      <trkpt lat="45.4121" lon="6.20789">
        <ele>2174.16</ele>
        <time>2021-06-28T07:50:06Z</time>
      </trkpt>
      <trkpt lat="45.41203" lon="6.20789">
        <ele>2173.68</ele>
        <time>2021-06-28T07:50:18Z</time>
      </trkpt>
      <trkpt lat="45.41198" lon="6.20793">
        <ele>2174.16</ele>
        <time>2021-06-28T07:50:32Z</time>
      </trkpt>
      <trkpt lat="45.41197" lon="6.20802">
        <ele>2174.16</ele>
        <time>2021-06-28T07:50:43Z</time>
      </trkpt>
      <trkpt lat="45.41197" lon="6.20806">
        <ele>2174.64</ele>
        <time>2021-06-28T07:50:47Z</time>
      </trkpt>
      <trkpt lat="45.41195" lon="6.20813">
        <ele>2175.12</ele>
        <time>2021-06-28T07:51:00Z</time>
      </trkpt>
      <trkpt lat="45.41191" lon="6.20817">
        <ele>2174.64</ele>
        <time>2021-06-28T07:51:09Z</time>
      </trkpt>
      <trkpt lat="45.41189" lon="6.20821">
        <ele>2175.12</ele>
        <time>2021-06-28T07:51:12Z</time>
      </trkpt>
      <trkpt lat="45.41184" lon="6.2083">
        <ele>2175.6</ele>
        <time>2021-06-28T07:51:23Z</time>
      </trkpt>
      <trkpt lat="45.41182" lon="6.20836">
        <ele>2176.08</ele>
        <time>2021-06-28T07:51:35Z</time>
      </trkpt>
      <trkpt lat="45.41182" lon="6.20843">
        <ele>2178</ele>
        <time>2021-06-28T07:51:47Z</time>
      </trkpt>
      <trkpt lat="45.41181" lon="6.20846">
        <ele>2176.56</ele>
        <time>2021-06-28T07:52:09Z</time>
      </trkpt>
      <trkpt lat="45.41184" lon="6.20837">
        <ele>2176.08</ele>
        <time>2021-06-28T07:52:44Z</time>
      </trkpt>
      <trkpt lat="45.41181" lon="6.20844">
        <ele>2176.08</ele>
        <time>2021-06-28T07:53:12Z</time>
      </trkpt>
      <trkpt lat="45.4118" lon="6.20845">
        <ele>2176.56</ele>
        <time>2021-06-28T07:53:43Z</time>
      </trkpt>
      <trkpt lat="45.41184" lon="6.20841">
        <ele>2176.08</ele>
        <time>2021-06-28T07:54:16Z</time>
      </trkpt>
      <trkpt lat="45.4118" lon="6.20837">
        <ele>2177.04</ele>
        <time>2021-06-28T07:54:43Z</time>
      </trkpt>
      <trkpt lat="45.41179" lon="6.20844">
        <ele>2176.08</ele>
        <time>2021-06-28T07:55:12Z</time>
      </trkpt>
      <trkpt lat="45.41181" lon="6.20838">
        <ele>2176.08</ele>
        <time>2021-06-28T07:55:44Z</time>
      </trkpt>
      <trkpt lat="45.41183" lon="6.20841">
        <ele>2175.6</ele>
        <time>2021-06-28T07:56:12Z</time>
      </trkpt>
      <trkpt lat="45.41183" lon="6.2084">
        <ele>2175.12</ele>
        <time>2021-06-28T07:56:43Z</time>
      </trkpt>
      <trkpt lat="45.41186" lon="6.20842">
        <ele>2174.64</ele>
        <time>2021-06-28T07:57:16Z</time>
      </trkpt>
      <trkpt lat="45.41183" lon="6.20836">
        <ele>2175.12</ele>
        <time>2021-06-28T07:57:50Z</time>
      </trkpt>
      <trkpt lat="45.41184" lon="6.20836">
        <ele>2175.12</ele>
        <time>2021-06-28T07:58:26Z</time>
      </trkpt>
      <trkpt lat="45.41184" lon="6.20839">
        <ele>2174.64</ele>
        <time>2021-06-28T07:58:53Z</time>
      </trkpt>
      <trkpt lat="45.41182" lon="6.20842">
        <ele>2174.16</ele>
        <time>2021-06-28T07:59:20Z</time>
      </trkpt>
      <trkpt lat="45.41183" lon="6.20846">
        <ele>2174.16</ele>
        <time>2021-06-28T07:59:49Z</time>
      </trkpt>
      <trkpt lat="45.41187" lon="6.20841">
        <ele>2173.68</ele>
        <time>2021-06-28T08:00:23Z</time>
      </trkpt>
      <trkpt lat="45.41181" lon="6.20841">
        <ele>2174.16</ele>
        <time>2021-06-28T08:00:46Z</time>
      </trkpt>
      <trkpt lat="45.41183" lon="6.2084">
        <ele>2174.16</ele>
        <time>2021-06-28T08:01:10Z</time>
      </trkpt>
      <trkpt lat="45.41178" lon="6.20843">
        <ele>2175.12</ele>
        <time>2021-06-28T08:01:24Z</time>
      </trkpt>
      <trkpt lat="45.41175" lon="6.2085">
        <ele>2174.64</ele>
        <time>2021-06-28T08:01:38Z</time>
      </trkpt>
      <trkpt lat="45.41174" lon="6.20848">
        <ele>2174.64</ele>
        <time>2021-06-28T08:02:07Z</time>
      </trkpt>
      <trkpt lat="45.41176" lon="6.20848">
        <ele>2174.64</ele>
        <time>2021-06-28T08:02:38Z</time>
      </trkpt>
      <trkpt lat="45.41181" lon="6.20849">
        <ele>2174.64</ele>
        <time>2021-06-28T08:03:02Z</time>
      </trkpt>
      <trkpt lat="45.41181" lon="6.20849">
        <ele>2176.08</ele>
        <time>2021-06-28T08:03:30Z</time>
      </trkpt>
      <trkpt lat="45.41182" lon="6.20845">
        <ele>2174.16</ele>
        <time>2021-06-28T08:03:54Z</time>
      </trkpt>
      <trkpt lat="45.41182" lon="6.20846">
        <ele>2173.68</ele>
        <time>2021-06-28T08:04:24Z</time>
      </trkpt>
      <trkpt lat="45.41186" lon="6.20852">
        <ele>2173.68</ele>
        <time>2021-06-28T08:05:00Z</time>
      </trkpt>
      <trkpt lat="45.4118" lon="6.20848">
        <ele>2173.68</ele>
        <time>2021-06-28T08:05:29Z</time>
      </trkpt>
      <trkpt lat="45.41184" lon="6.20849">
        <ele>2173.68</ele>
        <time>2021-06-28T08:06:01Z</time>
      </trkpt>
      <trkpt lat="45.41186" lon="6.20845">
        <ele>2173.68</ele>
        <time>2021-06-28T08:06:28Z</time>
      </trkpt>
      <trkpt lat="45.41187" lon="6.20845">
        <ele>2173.68</ele>
        <time>2021-06-28T08:06:53Z</time>
      </trkpt>
      <trkpt lat="45.41184" lon="6.20841">
        <ele>2173.68</ele>
        <time>2021-06-28T08:07:26Z</time>
      </trkpt>
      <trkpt lat="45.41182" lon="6.20841">
        <ele>2172.72</ele>
        <time>2021-06-28T08:07:59Z</time>
      </trkpt>
      <trkpt lat="45.41183" lon="6.20844">
        <ele>2173.2</ele>
        <time>2021-06-28T08:08:22Z</time>
      </trkpt>
      <trkpt lat="45.41177" lon="6.20842">
        <ele>2173.68</ele>
        <time>2021-06-28T08:08:29Z</time>
      </trkpt>
      <trkpt lat="45.41168" lon="6.20842">
        <ele>2173.68</ele>
        <time>2021-06-28T08:08:42Z</time>
      </trkpt>
      <trkpt lat="45.41167" lon="6.2084">
        <ele>2173.68</ele>
        <time>2021-06-28T08:09:09Z</time>
      </trkpt>
      <trkpt lat="45.4117" lon="6.20842">
        <ele>2174.16</ele>
        <time>2021-06-28T08:09:29Z</time>
      </trkpt>
      <trkpt lat="45.41165" lon="6.20843">
        <ele>2174.64</ele>
        <time>2021-06-28T08:09:46Z</time>
      </trkpt>
      <trkpt lat="45.41158" lon="6.20848">
        <ele>2177.52</ele>
        <time>2021-06-28T08:10:02Z</time>
      </trkpt>
      <trkpt lat="45.41154" lon="6.20849">
        <ele>2177.04</ele>
        <time>2021-06-28T08:10:13Z</time>
      </trkpt>
      <trkpt lat="45.41151" lon="6.20849">
        <ele>2180.89</ele>
        <time>2021-06-28T08:10:25Z</time>
      </trkpt>
      <trkpt lat="45.41145" lon="6.20849">
        <ele>2182.81</ele>
        <time>2021-06-28T08:10:37Z</time>
      </trkpt>
      <trkpt lat="45.41145" lon="6.20849">
        <ele>2178.48</ele>
        <time>2021-06-28T08:10:38Z</time>
      </trkpt>
      <trkpt lat="45.41145" lon="6.2085">
        <ele>2183.29</ele>
        <time>2021-06-28T08:10:39Z</time>
      </trkpt>
      <trkpt lat="45.41145" lon="6.20851">
        <ele>2179.45</ele>
        <time>2021-06-28T08:10:40Z</time>
      </trkpt>
      <trkpt lat="45.41144" lon="6.2086">
        <ele>2182.33</ele>
        <time>2021-06-28T08:10:49Z</time>
      </trkpt>
      <trkpt lat="45.4114" lon="6.20867">
        <ele>2186.18</ele>
        <time>2021-06-28T08:11:07Z</time>
      </trkpt>
      <trkpt lat="45.41135" lon="6.20874">
        <ele>2188.1</ele>
        <time>2021-06-28T08:11:25Z</time>
      </trkpt>
      <trkpt lat="45.41135" lon="6.20875">
        <ele>2184.73</ele>
        <time>2021-06-28T08:11:27Z</time>
      </trkpt>
      <trkpt lat="45.41135" lon="6.20876">
        <ele>2189.54</ele>
        <time>2021-06-28T08:11:28Z</time>
      </trkpt>
      <trkpt lat="45.41135" lon="6.20876">
        <ele>2185.21</ele>
        <time>2021-06-28T08:11:29Z</time>
      </trkpt>
      <trkpt lat="45.41134" lon="6.20876">
        <ele>2189.54</ele>
        <time>2021-06-28T08:11:30Z</time>
      </trkpt>
      <trkpt lat="45.41134" lon="6.20876">
        <ele>2185.69</ele>
        <time>2021-06-28T08:11:31Z</time>
      </trkpt>
      <trkpt lat="45.41134" lon="6.20876">
        <ele>2189.54</ele>
        <time>2021-06-28T08:11:32Z</time>
      </trkpt>
      <trkpt lat="45.41133" lon="6.20877">
        <ele>2185.69</ele>
        <time>2021-06-28T08:11:33Z</time>
      </trkpt>
      <trkpt lat="45.41133" lon="6.20877">
        <ele>2189.54</ele>
        <time>2021-06-28T08:11:34Z</time>
      </trkpt>
      <trkpt lat="45.4113" lon="6.20878">
        <ele>2191.46</ele>
        <time>2021-06-28T08:11:47Z</time>
      </trkpt>
      <trkpt lat="45.4113" lon="6.20878">
        <ele>2188.1</ele>
        <time>2021-06-28T08:11:48Z</time>
      </trkpt>
      <trkpt lat="45.4113" lon="6.20878">
        <ele>2191.46</ele>
        <time>2021-06-28T08:11:49Z</time>
      </trkpt>
      <trkpt lat="45.41128" lon="6.20876">
        <ele>2188.1</ele>
        <time>2021-06-28T08:11:52Z</time>
      </trkpt>
      <trkpt lat="45.41129" lon="6.20877">
        <ele>2191.46</ele>
        <time>2021-06-28T08:11:53Z</time>
      </trkpt>
      <trkpt lat="45.41126" lon="6.20876">
        <ele>2193.39</ele>
        <time>2021-06-28T08:12:07Z</time>
      </trkpt>
      <trkpt lat="45.41123" lon="6.20876">
        <ele>2191.46</ele>
        <time>2021-06-28T08:12:19Z</time>
      </trkpt>
      <trkpt lat="45.41122" lon="6.20879">
        <ele>2194.83</ele>
        <time>2021-06-28T08:12:24Z</time>
      </trkpt>
      <trkpt lat="45.41119" lon="6.20886">
        <ele>2193.39</ele>
        <time>2021-06-28T08:12:40Z</time>
      </trkpt>
      <trkpt lat="45.41119" lon="6.20886">
        <ele>2196.75</ele>
        <time>2021-06-28T08:12:41Z</time>
      </trkpt>
      <trkpt lat="45.41115" lon="6.20891">
        <ele>2194.83</ele>
        <time>2021-06-28T08:12:54Z</time>
      </trkpt>
      <trkpt lat="45.41115" lon="6.20891">
        <ele>2199.15</ele>
        <time>2021-06-28T08:12:55Z</time>
      </trkpt>
      <trkpt lat="45.41115" lon="6.20892">
        <ele>2195.31</ele>
        <time>2021-06-28T08:12:56Z</time>
      </trkpt>
      <trkpt lat="45.41115" lon="6.20892">
        <ele>2199.63</ele>
        <time>2021-06-28T08:12:57Z</time>
      </trkpt>
      <trkpt lat="45.41115" lon="6.20892">
        <ele>2196.75</ele>
        <time>2021-06-28T08:12:58Z</time>
      </trkpt>
      <trkpt lat="45.41114" lon="6.20892">
        <ele>2200.11</ele>
        <time>2021-06-28T08:13:01Z</time>
      </trkpt>
      <trkpt lat="45.41113" lon="6.20893">
        <ele>2196.27</ele>
        <time>2021-06-28T08:13:02Z</time>
      </trkpt>
      <trkpt lat="45.41113" lon="6.20894">
        <ele>2200.11</ele>
        <time>2021-06-28T08:13:03Z</time>
      </trkpt>
      <trkpt lat="45.41113" lon="6.20894">
        <ele>2196.75</ele>
        <time>2021-06-28T08:13:04Z</time>
      </trkpt>
      <trkpt lat="45.41114" lon="6.20895">
        <ele>2200.59</ele>
        <time>2021-06-28T08:13:08Z</time>
      </trkpt>
      <trkpt lat="45.41114" lon="6.20895">
        <ele>2197.71</ele>
        <time>2021-06-28T08:13:09Z</time>
      </trkpt>
      <trkpt lat="45.41114" lon="6.20895">
        <ele>2200.59</ele>
        <time>2021-06-28T08:13:10Z</time>
      </trkpt>
      <trkpt lat="45.41112" lon="6.20892">
        <ele>2202.04</ele>
        <time>2021-06-28T08:13:23Z</time>
      </trkpt>
      <trkpt lat="45.4111" lon="6.20888">
        <ele>2203.48</ele>
        <time>2021-06-28T08:13:33Z</time>
      </trkpt>
      <trkpt lat="45.41105" lon="6.20885">
        <ele>2202.04</ele>
        <time>2021-06-28T08:13:44Z</time>
      </trkpt>
      <trkpt lat="45.41105" lon="6.20885">
        <ele>2206.36</ele>
        <time>2021-06-28T08:13:47Z</time>
      </trkpt>
      <trkpt lat="45.41104" lon="6.20884">
        <ele>2201.56</ele>
        <time>2021-06-28T08:13:48Z</time>
      </trkpt>
      <trkpt lat="45.41104" lon="6.20885">
        <ele>2205.4</ele>
        <time>2021-06-28T08:13:49Z</time>
      </trkpt>
      <trkpt lat="45.41104" lon="6.20884">
        <ele>2201.56</ele>
        <time>2021-06-28T08:13:50Z</time>
      </trkpt>
      <trkpt lat="45.41103" lon="6.20883">
        <ele>2206.36</ele>
        <time>2021-06-28T08:13:52Z</time>
      </trkpt>
      <trkpt lat="45.41102" lon="6.20883">
        <ele>2203</ele>
        <time>2021-06-28T08:13:53Z</time>
      </trkpt>
      <trkpt lat="45.41102" lon="6.20884">
        <ele>2206.36</ele>
        <time>2021-06-28T08:13:56Z</time>
      </trkpt>
      <trkpt lat="45.41101" lon="6.20884">
        <ele>2203</ele>
        <time>2021-06-28T08:13:57Z</time>
      </trkpt>
      <trkpt lat="45.41101" lon="6.20884">
        <ele>2206.84</ele>
        <time>2021-06-28T08:13:58Z</time>
      </trkpt>
      <trkpt lat="45.41101" lon="6.20885">
        <ele>2203</ele>
        <time>2021-06-28T08:13:59Z</time>
      </trkpt>
      <trkpt lat="45.41101" lon="6.20886">
        <ele>2206.84</ele>
        <time>2021-06-28T08:14:00Z</time>
      </trkpt>
      <trkpt lat="45.411" lon="6.20887">
        <ele>2203</ele>
        <time>2021-06-28T08:14:03Z</time>
      </trkpt>
      <trkpt lat="45.41099" lon="6.20887">
        <ele>2206.84</ele>
        <time>2021-06-28T08:14:04Z</time>
      </trkpt>
      <trkpt lat="45.41098" lon="6.20887">
        <ele>2203</ele>
        <time>2021-06-28T08:14:05Z</time>
      </trkpt>
      <trkpt lat="45.41098" lon="6.20888">
        <ele>2207.32</ele>
        <time>2021-06-28T08:14:06Z</time>
      </trkpt>
      <trkpt lat="45.41096" lon="6.20895">
        <ele>2208.29</ele>
        <time>2021-06-28T08:14:20Z</time>
      </trkpt>
      <trkpt lat="45.41091" lon="6.20898">
        <ele>2209.73</ele>
        <time>2021-06-28T08:14:33Z</time>
      </trkpt>
      <trkpt lat="45.41091" lon="6.20903">
        <ele>2208.77</ele>
        <time>2021-06-28T08:14:42Z</time>
      </trkpt>
      <trkpt lat="45.4109" lon="6.20903">
        <ele>2211.65</ele>
        <time>2021-06-28T08:14:46Z</time>
      </trkpt>
      <trkpt lat="45.4109" lon="6.20904">
        <ele>2208.77</ele>
        <time>2021-06-28T08:14:47Z</time>
      </trkpt>
      <trkpt lat="45.4109" lon="6.20904">
        <ele>2213.09</ele>
        <time>2021-06-28T08:14:48Z</time>
      </trkpt>
      <trkpt lat="45.41089" lon="6.20905">
        <ele>2209.73</ele>
        <time>2021-06-28T08:14:49Z</time>
      </trkpt>
      <trkpt lat="45.41087" lon="6.20906">
        <ele>2213.09</ele>
        <time>2021-06-28T08:14:55Z</time>
      </trkpt>
      <trkpt lat="45.41088" lon="6.20907">
        <ele>2208.77</ele>
        <time>2021-06-28T08:14:56Z</time>
      </trkpt>
      <trkpt lat="45.41088" lon="6.20908">
        <ele>2214.05</ele>
        <time>2021-06-28T08:14:57Z</time>
      </trkpt>
      <trkpt lat="45.41087" lon="6.20907">
        <ele>2210.69</ele>
        <time>2021-06-28T08:14:58Z</time>
      </trkpt>
      <trkpt lat="45.41086" lon="6.20906">
        <ele>2214.05</ele>
        <time>2021-06-28T08:14:59Z</time>
      </trkpt>
      <trkpt lat="45.41085" lon="6.20907">
        <ele>2210.21</ele>
        <time>2021-06-28T08:15:01Z</time>
      </trkpt>
      <trkpt lat="45.41084" lon="6.20907">
        <ele>2214.05</ele>
        <time>2021-06-28T08:15:02Z</time>
      </trkpt>
      <trkpt lat="45.41084" lon="6.20908">
        <ele>2210.21</ele>
        <time>2021-06-28T08:15:03Z</time>
      </trkpt>
      <trkpt lat="45.41084" lon="6.20908">
        <ele>2214.05</ele>
        <time>2021-06-28T08:15:04Z</time>
      </trkpt>
      <trkpt lat="45.41084" lon="6.20911">
        <ele>2213.09</ele>
        <time>2021-06-28T08:15:13Z</time>
      </trkpt>
      <trkpt lat="45.41084" lon="6.20912">
        <ele>2216.46</ele>
        <time>2021-06-28T08:15:16Z</time>
      </trkpt>
      <trkpt lat="45.41084" lon="6.20912">
        <ele>2213.57</ele>
        <time>2021-06-28T08:15:17Z</time>
      </trkpt>
      <trkpt lat="45.41083" lon="6.2091">
        <ele>2217.42</ele>
        <time>2021-06-28T08:15:29Z</time>
      </trkpt>
      <trkpt lat="45.41078" lon="6.20904">
        <ele>2215.98</ele>
        <time>2021-06-28T08:15:44Z</time>
      </trkpt>
      <trkpt lat="45.41077" lon="6.20905">
        <ele>2219.34</ele>
        <time>2021-06-28T08:15:45Z</time>
      </trkpt>
      <trkpt lat="45.41074" lon="6.20903">
        <ele>2216.46</ele>
        <time>2021-06-28T08:15:48Z</time>
      </trkpt>
      <trkpt lat="45.41073" lon="6.20903">
        <ele>2219.82</ele>
        <time>2021-06-28T08:15:49Z</time>
      </trkpt>
      <trkpt lat="45.4107" lon="6.20909">
        <ele>2220.3</ele>
        <time>2021-06-28T08:16:02Z</time>
      </trkpt>
      <trkpt lat="45.41068" lon="6.20914">
        <ele>2219.34</ele>
        <time>2021-06-28T08:16:11Z</time>
      </trkpt>
      <trkpt lat="45.41068" lon="6.20915">
        <ele>2223.19</ele>
        <time>2021-06-28T08:16:12Z</time>
      </trkpt>
      <trkpt lat="45.41068" lon="6.20919">
        <ele>2224.15</ele>
        <time>2021-06-28T08:16:22Z</time>
      </trkpt>
      <trkpt lat="45.41069" lon="6.20917">
        <ele>2223.67</ele>
        <time>2021-06-28T08:16:36Z</time>
      </trkpt>
      <trkpt lat="45.41068" lon="6.20914">
        <ele>2227.03</ele>
        <time>2021-06-28T08:16:44Z</time>
      </trkpt>
      <trkpt lat="45.41065" lon="6.2091">
        <ele>2225.59</ele>
        <time>2021-06-28T08:16:55Z</time>
      </trkpt>
      <trkpt lat="45.41062" lon="6.20909">
        <ele>2229.43</ele>
        <time>2021-06-28T08:17:01Z</time>
      </trkpt>
      <trkpt lat="45.41061" lon="6.20909">
        <ele>2225.59</ele>
        <time>2021-06-28T08:17:02Z</time>
      </trkpt>
      <trkpt lat="45.41061" lon="6.20909">
        <ele>2228.95</ele>
        <time>2021-06-28T08:17:03Z</time>
      </trkpt>
      <trkpt lat="45.41059" lon="6.2091">
        <ele>2226.07</ele>
        <time>2021-06-28T08:17:07Z</time>
      </trkpt>
      <trkpt lat="45.41059" lon="6.20911">
        <ele>2229.43</ele>
        <time>2021-06-28T08:17:08Z</time>
      </trkpt>
      <trkpt lat="45.41056" lon="6.20914">
        <ele>2231.84</ele>
        <time>2021-06-28T08:17:22Z</time>
      </trkpt>
      <trkpt lat="45.41053" lon="6.20918">
        <ele>2234.24</ele>
        <time>2021-06-28T08:17:33Z</time>
      </trkpt>
      <trkpt lat="45.41053" lon="6.20919">
        <ele>2230.88</ele>
        <time>2021-06-28T08:17:34Z</time>
      </trkpt>
      <trkpt lat="45.41054" lon="6.2092">
        <ele>2234.24</ele>
        <time>2021-06-28T08:17:35Z</time>
      </trkpt>
      <trkpt lat="45.41053" lon="6.20918">
        <ele>2234.24</ele>
        <time>2021-06-28T08:17:45Z</time>
      </trkpt>
      <trkpt lat="45.41053" lon="6.20917">
        <ele>2234.72</ele>
        <time>2021-06-28T08:17:55Z</time>
      </trkpt>
      <trkpt lat="45.41053" lon="6.20914">
        <ele>2237.61</ele>
        <time>2021-06-28T08:18:07Z</time>
      </trkpt>
      <trkpt lat="45.4105" lon="6.20913">
        <ele>2234.24</ele>
        <time>2021-06-28T08:18:15Z</time>
      </trkpt>
      <trkpt lat="45.4105" lon="6.20913">
        <ele>2238.57</ele>
        <time>2021-06-28T08:18:16Z</time>
      </trkpt>
      <trkpt lat="45.41049" lon="6.20913">
        <ele>2234.24</ele>
        <time>2021-06-28T08:18:18Z</time>
      </trkpt>
      <trkpt lat="45.41048" lon="6.20913">
        <ele>2239.53</ele>
        <time>2021-06-28T08:18:19Z</time>
      </trkpt>
      <trkpt lat="45.41048" lon="6.20913">
        <ele>2234.72</ele>
        <time>2021-06-28T08:18:20Z</time>
      </trkpt>
      <trkpt lat="45.41048" lon="6.20913">
        <ele>2239.05</ele>
        <time>2021-06-28T08:18:21Z</time>
      </trkpt>
      <trkpt lat="45.41044" lon="6.20914">
        <ele>2240.49</ele>
        <time>2021-06-28T08:18:32Z</time>
      </trkpt>
      <trkpt lat="45.41044" lon="6.20916">
        <ele>2238.57</ele>
        <time>2021-06-28T08:18:44Z</time>
      </trkpt>
      <trkpt lat="45.41044" lon="6.20915">
        <ele>2242.41</ele>
        <time>2021-06-28T08:18:45Z</time>
      </trkpt>
      <trkpt lat="45.41044" lon="6.20915">
        <ele>2239.05</ele>
        <time>2021-06-28T08:18:46Z</time>
      </trkpt>
      <trkpt lat="45.41044" lon="6.20914">
        <ele>2240.49</ele>
        <time>2021-06-28T08:18:50Z</time>
      </trkpt>
      <trkpt lat="45.41044" lon="6.20913">
        <ele>2241.93</ele>
        <time>2021-06-28T08:18:52Z</time>
      </trkpt>
      <trkpt lat="45.41044" lon="6.2091">
        <ele>2245.3</ele>
        <time>2021-06-28T08:19:01Z</time>
      </trkpt>
      <trkpt lat="45.41043" lon="6.2091">
        <ele>2241.93</ele>
        <time>2021-06-28T08:19:02Z</time>
      </trkpt>
      <trkpt lat="45.4104" lon="6.2091">
        <ele>2245.3</ele>
        <time>2021-06-28T08:19:12Z</time>
      </trkpt>
      <trkpt lat="45.4104" lon="6.2091">
        <ele>2241.45</ele>
        <time>2021-06-28T08:19:14Z</time>
      </trkpt>
      <trkpt lat="45.41039" lon="6.20911">
        <ele>2244.82</ele>
        <time>2021-06-28T08:19:15Z</time>
      </trkpt>
      <trkpt lat="45.41036" lon="6.20914">
        <ele>2248.66</ele>
        <time>2021-06-28T08:19:27Z</time>
      </trkpt>
      <trkpt lat="45.41034" lon="6.20918">
        <ele>2246.26</ele>
        <time>2021-06-28T08:19:38Z</time>
      </trkpt>
      <trkpt lat="45.41033" lon="6.20919">
        <ele>2250.1</ele>
        <time>2021-06-28T08:19:39Z</time>
      </trkpt>
      <trkpt lat="45.41034" lon="6.20921">
        <ele>2246.74</ele>
        <time>2021-06-28T08:19:41Z</time>
      </trkpt>
      <trkpt lat="45.41034" lon="6.20921">
        <ele>2250.1</ele>
        <time>2021-06-28T08:19:43Z</time>
      </trkpt>
      <trkpt lat="45.41032" lon="6.20928">
        <ele>2249.62</ele>
        <time>2021-06-28T08:19:53Z</time>
      </trkpt>
      <trkpt lat="45.4103" lon="6.20937">
        <ele>2248.66</ele>
        <time>2021-06-28T08:20:07Z</time>
      </trkpt>
      <trkpt lat="45.4103" lon="6.20937">
        <ele>2253.47</ele>
        <time>2021-06-28T08:20:08Z</time>
      </trkpt>
      <trkpt lat="45.4103" lon="6.20937">
        <ele>2249.62</ele>
        <time>2021-06-28T08:20:09Z</time>
      </trkpt>
      <trkpt lat="45.4103" lon="6.20939">
        <ele>2252.99</ele>
        <time>2021-06-28T08:20:13Z</time>
      </trkpt>
      <trkpt lat="45.4103" lon="6.20939">
        <ele>2249.62</ele>
        <time>2021-06-28T08:20:14Z</time>
      </trkpt>
      <trkpt lat="45.4103" lon="6.20941">
        <ele>2254.91</ele>
        <time>2021-06-28T08:20:16Z</time>
      </trkpt>
      <trkpt lat="45.4103" lon="6.20942">
        <ele>2252.03</ele>
        <time>2021-06-28T08:20:17Z</time>
      </trkpt>
      <trkpt lat="45.4103" lon="6.20943">
        <ele>2255.39</ele>
        <time>2021-06-28T08:20:18Z</time>
      </trkpt>
      <trkpt lat="45.41029" lon="6.20948">
        <ele>2254.43</ele>
        <time>2021-06-28T08:20:29Z</time>
      </trkpt>
      <trkpt lat="45.41029" lon="6.20948">
        <ele>2257.31</ele>
        <time>2021-06-28T08:20:32Z</time>
      </trkpt>
      <trkpt lat="45.41029" lon="6.20949">
        <ele>2253.95</ele>
        <time>2021-06-28T08:20:33Z</time>
      </trkpt>
      <trkpt lat="45.41029" lon="6.2095">
        <ele>2257.31</ele>
        <time>2021-06-28T08:20:34Z</time>
      </trkpt>
      <trkpt lat="45.41029" lon="6.20952">
        <ele>2253.95</ele>
        <time>2021-06-28T08:20:36Z</time>
      </trkpt>
      <trkpt lat="45.41029" lon="6.20953">
        <ele>2257.31</ele>
        <time>2021-06-28T08:20:37Z</time>
      </trkpt>
      <trkpt lat="45.41029" lon="6.20953">
        <ele>2253.95</ele>
        <time>2021-06-28T08:20:38Z</time>
      </trkpt>
      <trkpt lat="45.41029" lon="6.20954">
        <ele>2257.79</ele>
        <time>2021-06-28T08:20:39Z</time>
      </trkpt>
      <trkpt lat="45.41026" lon="6.20952">
        <ele>2256.35</ele>
        <time>2021-06-28T08:20:52Z</time>
      </trkpt>
      <trkpt lat="45.41026" lon="6.20952">
        <ele>2259.24</ele>
        <time>2021-06-28T08:20:53Z</time>
      </trkpt>
      <trkpt lat="45.41023" lon="6.20949">
        <ele>2257.79</ele>
        <time>2021-06-28T08:21:07Z</time>
      </trkpt>
      <trkpt lat="45.41023" lon="6.20948">
        <ele>2259.72</ele>
        <time>2021-06-28T08:21:09Z</time>
      </trkpt>
      <trkpt lat="45.41019" lon="6.20946">
        <ele>2263.56</ele>
        <time>2021-06-28T08:21:21Z</time>
      </trkpt>
      <trkpt lat="45.41019" lon="6.20945">
        <ele>2259.72</ele>
        <time>2021-06-28T08:21:22Z</time>
      </trkpt>
      <trkpt lat="45.41018" lon="6.20946">
        <ele>2263.56</ele>
        <time>2021-06-28T08:21:26Z</time>
      </trkpt>
      <trkpt lat="45.41018" lon="6.20951">
        <ele>2263.56</ele>
        <time>2021-06-28T08:21:33Z</time>
      </trkpt>
      <trkpt lat="45.41015" lon="6.20957">
        <ele>2265.96</ele>
        <time>2021-06-28T08:21:47Z</time>
      </trkpt>
      <trkpt lat="45.41015" lon="6.20958">
        <ele>2262.6</ele>
        <time>2021-06-28T08:21:48Z</time>
      </trkpt>
      <trkpt lat="45.41015" lon="6.20958">
        <ele>2265.96</ele>
        <time>2021-06-28T08:21:49Z</time>
      </trkpt>
      <trkpt lat="45.41015" lon="6.20961">
        <ele>2262.6</ele>
        <time>2021-06-28T08:21:53Z</time>
      </trkpt>
      <trkpt lat="45.41015" lon="6.20962">
        <ele>2265.96</ele>
        <time>2021-06-28T08:21:54Z</time>
      </trkpt>
      <trkpt lat="45.41015" lon="6.2097">
        <ele>2268.37</ele>
        <time>2021-06-28T08:22:07Z</time>
      </trkpt>
      <trkpt lat="45.41015" lon="6.20972">
        <ele>2265.48</ele>
        <time>2021-06-28T08:22:11Z</time>
      </trkpt>
      <trkpt lat="45.41015" lon="6.20973">
        <ele>2270.77</ele>
        <time>2021-06-28T08:22:12Z</time>
      </trkpt>
      <trkpt lat="45.41015" lon="6.20973">
        <ele>2266.93</ele>
        <time>2021-06-28T08:22:13Z</time>
      </trkpt>
      <trkpt lat="45.41014" lon="6.20974">
        <ele>2270.29</ele>
        <time>2021-06-28T08:22:17Z</time>
      </trkpt>
      <trkpt lat="45.41016" lon="6.20983">
        <ele>2269.33</ele>
        <time>2021-06-28T08:22:30Z</time>
      </trkpt>
      <trkpt lat="45.41016" lon="6.20986">
        <ele>2269.33</ele>
        <time>2021-06-28T08:22:44Z</time>
      </trkpt>
      <trkpt lat="45.41016" lon="6.2098">
        <ele>2273.17</ele>
        <time>2021-06-28T08:23:06Z</time>
      </trkpt>
      <trkpt lat="45.41016" lon="6.20982">
        <ele>2269.81</ele>
        <time>2021-06-28T08:23:07Z</time>
      </trkpt>
      <trkpt lat="45.41018" lon="6.20986">
        <ele>2273.17</ele>
        <time>2021-06-28T08:23:10Z</time>
      </trkpt>
      <trkpt lat="45.41019" lon="6.20988">
        <ele>2270.77</ele>
        <time>2021-06-28T08:23:12Z</time>
      </trkpt>
      <trkpt lat="45.41024" lon="6.20997">
        <ele>2271.25</ele>
        <time>2021-06-28T08:23:23Z</time>
      </trkpt>
      <trkpt lat="45.41025" lon="6.20999">
        <ele>2271.25</ele>
        <time>2021-06-28T08:23:25Z</time>
      </trkpt>
      <trkpt lat="45.41029" lon="6.21003">
        <ele>2270.77</ele>
        <time>2021-06-28T08:23:36Z</time>
      </trkpt>
      <trkpt lat="45.41029" lon="6.21004">
        <ele>2272.21</ele>
        <time>2021-06-28T08:23:37Z</time>
      </trkpt>
      <trkpt lat="45.4103" lon="6.21005">
        <ele>2273.17</ele>
        <time>2021-06-28T08:23:39Z</time>
      </trkpt>
      <trkpt lat="45.41031" lon="6.21007">
        <ele>2273.17</ele>
        <time>2021-06-28T08:23:41Z</time>
      </trkpt>
      <trkpt lat="45.41035" lon="6.21014">
        <ele>2275.58</ele>
        <time>2021-06-28T08:23:52Z</time>
      </trkpt>
      <trkpt lat="45.41037" lon="6.21015">
        <ele>2275.1</ele>
        <time>2021-06-28T08:24:00Z</time>
      </trkpt>
      <trkpt lat="45.41041" lon="6.21018">
        <ele>2275.58</ele>
        <time>2021-06-28T08:24:07Z</time>
      </trkpt>
      <trkpt lat="45.41051" lon="6.21018">
        <ele>2276.06</ele>
        <time>2021-06-28T08:24:19Z</time>
      </trkpt>
      <trkpt lat="45.41054" lon="6.21016">
        <ele>2275.1</ele>
        <time>2021-06-28T08:24:23Z</time>
      </trkpt>
      <trkpt lat="45.41059" lon="6.21019">
        <ele>2278.46</ele>
        <time>2021-06-28T08:24:35Z</time>
      </trkpt>
      <trkpt lat="45.4106" lon="6.21025">
        <ele>2280.38</ele>
        <time>2021-06-28T08:24:48Z</time>
      </trkpt>
      <trkpt lat="45.4106" lon="6.21029">
        <ele>2283.27</ele>
        <time>2021-06-28T08:25:00Z</time>
      </trkpt>
      <trkpt lat="45.41065" lon="6.21029">
        <ele>2283.27</ele>
        <time>2021-06-28T08:25:18Z</time>
      </trkpt>
      <trkpt lat="45.41061" lon="6.21027">
        <ele>2282.79</ele>
        <time>2021-06-28T08:25:45Z</time>
      </trkpt>
      <trkpt lat="45.41062" lon="6.21029">
        <ele>2283.75</ele>
        <time>2021-06-28T08:26:12Z</time>
      </trkpt>
      <trkpt lat="45.41066" lon="6.21027">
        <ele>2282.79</ele>
        <time>2021-06-28T08:26:45Z</time>
      </trkpt>
      <trkpt lat="45.41065" lon="6.21029">
        <ele>2283.27</ele>
        <time>2021-06-28T08:27:12Z</time>
      </trkpt>
      <trkpt lat="45.41064" lon="6.2102">
        <ele>2282.31</ele>
        <time>2021-06-28T08:27:33Z</time>
      </trkpt>
      <trkpt lat="45.4107" lon="6.21017">
        <ele>2281.35</ele>
        <time>2021-06-28T08:27:45Z</time>
      </trkpt>
      <trkpt lat="45.41079" lon="6.21022">
        <ele>2279.42</ele>
        <time>2021-06-28T08:28:01Z</time>
      </trkpt>
      <trkpt lat="45.41081" lon="6.21024">
        <ele>2283.27</ele>
        <time>2021-06-28T08:28:09Z</time>
      </trkpt>
      <trkpt lat="45.41083" lon="6.21029">
        <ele>2284.23</ele>
        <time>2021-06-28T08:28:22Z</time>
      </trkpt>
      <trkpt lat="45.41082" lon="6.21034">
        <ele>2285.19</ele>
        <time>2021-06-28T08:28:33Z</time>
      </trkpt>
      <trkpt lat="45.41082" lon="6.21034">
        <ele>2281.83</ele>
        <time>2021-06-28T08:28:34Z</time>
      </trkpt>
      <trkpt lat="45.41082" lon="6.21035">
        <ele>2286.63</ele>
        <time>2021-06-28T08:28:35Z</time>
      </trkpt>
      <trkpt lat="45.41083" lon="6.21036">
        <ele>2282.79</ele>
        <time>2021-06-28T08:28:38Z</time>
      </trkpt>
      <trkpt lat="45.41083" lon="6.21037">
        <ele>2286.15</ele>
        <time>2021-06-28T08:28:39Z</time>
      </trkpt>
      <trkpt lat="45.41085" lon="6.21037">
        <ele>2285.19</ele>
        <time>2021-06-28T08:28:56Z</time>
      </trkpt>
      <trkpt lat="45.41081" lon="6.21032">
        <ele>2285.19</ele>
        <time>2021-06-28T08:29:22Z</time>
      </trkpt>
      <trkpt lat="45.41084" lon="6.21035">
        <ele>2285.19</ele>
        <time>2021-06-28T08:29:51Z</time>
      </trkpt>
      <trkpt lat="45.41086" lon="6.21033">
        <ele>2286.15</ele>
        <time>2021-06-28T08:30:13Z</time>
      </trkpt>
      <trkpt lat="45.41086" lon="6.21038">
        <ele>2285.67</ele>
        <time>2021-06-28T08:30:45Z</time>
      </trkpt>
      <trkpt lat="45.41087" lon="6.21039">
        <ele>2285.67</ele>
        <time>2021-06-28T08:31:20Z</time>
      </trkpt>
      <trkpt lat="45.41084" lon="6.21038">
        <ele>2285.67</ele>
        <time>2021-06-28T08:31:53Z</time>
      </trkpt>
      <trkpt lat="45.41085" lon="6.21041">
        <ele>2285.67</ele>
        <time>2021-06-28T08:32:23Z</time>
      </trkpt>
      <trkpt lat="45.41084" lon="6.21036">
        <ele>2285.67</ele>
        <time>2021-06-28T08:32:49Z</time>
      </trkpt>
      <trkpt lat="45.41085" lon="6.21036">
        <ele>2286.15</ele>
        <time>2021-06-28T08:33:14Z</time>
      </trkpt>
      <trkpt lat="45.41083" lon="6.21035">
        <ele>2286.15</ele>
        <time>2021-06-28T08:33:36Z</time>
      </trkpt>
      <trkpt lat="45.41084" lon="6.21035">
        <ele>2286.15</ele>
        <time>2021-06-28T08:34:00Z</time>
      </trkpt>
      <trkpt lat="45.41082" lon="6.21032">
        <ele>2286.15</ele>
        <time>2021-06-28T08:34:20Z</time>
      </trkpt>
      <trkpt lat="45.41081" lon="6.21032">
        <ele>2285.67</ele>
        <time>2021-06-28T08:34:42Z</time>
      </trkpt>
      <trkpt lat="45.41079" lon="6.21037">
        <ele>2286.15</ele>
        <time>2021-06-28T08:34:57Z</time>
      </trkpt>
      <trkpt lat="45.41077" lon="6.21035">
        <ele>2286.15</ele>
        <time>2021-06-28T08:35:26Z</time>
      </trkpt>
      <trkpt lat="45.41077" lon="6.21037">
        <ele>2288.08</ele>
        <time>2021-06-28T08:35:32Z</time>
      </trkpt>
      <trkpt lat="45.41077" lon="6.21041">
        <ele>2290.96</ele>
        <time>2021-06-28T08:35:40Z</time>
      </trkpt>
      <trkpt lat="45.41077" lon="6.21041">
        <ele>2289.04</ele>
        <time>2021-06-28T08:35:41Z</time>
      </trkpt>
      <trkpt lat="45.41076" lon="6.21047">
        <ele>2290.48</ele>
        <time>2021-06-28T08:35:56Z</time>
      </trkpt>
      <trkpt lat="45.41072" lon="6.21046">
        <ele>2290</ele>
        <time>2021-06-28T08:36:15Z</time>
      </trkpt>
      <trkpt lat="45.41072" lon="6.21049">
        <ele>2290.48</ele>
        <time>2021-06-28T08:36:28Z</time>
      </trkpt>
      <trkpt lat="45.41072" lon="6.21051">
        <ele>2291.44</ele>
        <time>2021-06-28T08:36:55Z</time>
      </trkpt>
      <trkpt lat="45.41072" lon="6.21052">
        <ele>2290.48</ele>
        <time>2021-06-28T08:37:22Z</time>
      </trkpt>
      <trkpt lat="45.41072" lon="6.21051">
        <ele>2293.36</ele>
        <time>2021-06-28T08:37:32Z</time>
      </trkpt>
      <trkpt lat="45.41071" lon="6.21052">
        <ele>2291.44</ele>
        <time>2021-06-28T08:37:49Z</time>
      </trkpt>
      <trkpt lat="45.41071" lon="6.21052">
        <ele>2291.44</ele>
        <time>2021-06-28T08:38:10Z</time>
      </trkpt>
      <trkpt lat="45.41071" lon="6.21052">
        <ele>2291.44</ele>
        <time>2021-06-28T08:38:11Z</time>
      </trkpt>
      <trkpt lat="45.41071" lon="6.21052">
        <ele>2292.88</ele>
        <time>2021-06-28T08:38:32Z</time>
      </trkpt>
      <trkpt lat="45.41072" lon="6.21052">
        <ele>2290.48</ele>
        <time>2021-06-28T08:38:59Z</time>
      </trkpt>
      <trkpt lat="45.41071" lon="6.21052">
        <ele>2290.96</ele>
        <time>2021-06-28T08:39:17Z</time>
      </trkpt>
      <trkpt lat="45.41073" lon="6.21051">
        <ele>2290.48</ele>
        <time>2021-06-28T08:39:43Z</time>
      </trkpt>
      <trkpt lat="45.41072" lon="6.21053">
        <ele>2291.44</ele>
        <time>2021-06-28T08:40:11Z</time>
      </trkpt>
      <trkpt lat="45.41072" lon="6.21052">
        <ele>2292.4</ele>
        <time>2021-06-28T08:40:47Z</time>
      </trkpt>
      <trkpt lat="45.41072" lon="6.21053">
        <ele>2291.92</ele>
        <time>2021-06-28T08:41:17Z</time>
      </trkpt>
      <trkpt lat="45.41072" lon="6.21054">
        <ele>2292.88</ele>
        <time>2021-06-28T08:41:50Z</time>
      </trkpt>
      <trkpt lat="45.41072" lon="6.21053">
        <ele>2292.4</ele>
        <time>2021-06-28T08:42:17Z</time>
      </trkpt>
      <trkpt lat="45.41071" lon="6.21053">
        <ele>2291.92</ele>
        <time>2021-06-28T08:42:50Z</time>
      </trkpt>
      <trkpt lat="45.41073" lon="6.21052">
        <ele>2290.96</ele>
        <time>2021-06-28T08:43:06Z</time>
      </trkpt>
      <trkpt lat="45.41073" lon="6.21052">
        <ele>2290</ele>
        <time>2021-06-28T08:43:08Z</time>
      </trkpt>
      <trkpt lat="45.41074" lon="6.21052">
        <ele>2292.88</ele>
        <time>2021-06-28T08:43:09Z</time>
      </trkpt>
      <trkpt lat="45.41074" lon="6.21052">
        <ele>2289.04</ele>
        <time>2021-06-28T08:43:12Z</time>
      </trkpt>
      <trkpt lat="45.41074" lon="6.21051">
        <ele>2292.88</ele>
        <time>2021-06-28T08:43:15Z</time>
      </trkpt>
      <trkpt lat="45.41074" lon="6.21052">
        <ele>2289.04</ele>
        <time>2021-06-28T08:43:17Z</time>
      </trkpt>
      <trkpt lat="45.41075" lon="6.21054">
        <ele>2288.08</ele>
        <time>2021-06-28T08:43:33Z</time>
      </trkpt>
      <trkpt lat="45.41075" lon="6.21054">
        <ele>2288.56</ele>
        <time>2021-06-28T08:43:35Z</time>
      </trkpt>
      <trkpt lat="45.41075" lon="6.21053">
        <ele>2287.59</ele>
        <time>2021-06-28T08:43:37Z</time>
      </trkpt>
      <trkpt lat="45.41075" lon="6.21051">
        <ele>2286.15</ele>
        <time>2021-06-28T08:43:48Z</time>
      </trkpt>
      <trkpt lat="45.41075" lon="6.21051">
        <ele>2289.52</ele>
        <time>2021-06-28T08:43:51Z</time>
      </trkpt>
      <trkpt lat="45.41075" lon="6.21052">
        <ele>2287.11</ele>
        <time>2021-06-28T08:43:54Z</time>
      </trkpt>
      <trkpt lat="45.41077" lon="6.21054">
        <ele>2287.11</ele>
        <time>2021-06-28T08:44:14Z</time>
      </trkpt>
      <trkpt lat="45.41077" lon="6.21056">
        <ele>2285.19</ele>
        <time>2021-06-28T08:44:42Z</time>
      </trkpt>
      <trkpt lat="45.4108" lon="6.21052">
        <ele>2283.27</ele>
        <time>2021-06-28T08:45:07Z</time>
      </trkpt>
      <trkpt lat="45.41081" lon="6.21054">
        <ele>2285.67</ele>
        <time>2021-06-28T08:45:27Z</time>
      </trkpt>
      <trkpt lat="45.41081" lon="6.21054">
        <ele>2282.79</ele>
        <time>2021-06-28T08:45:28Z</time>
      </trkpt>
      <trkpt lat="45.41081" lon="6.21054">
        <ele>2282.79</ele>
        <time>2021-06-28T08:45:29Z</time>
      </trkpt>
      <trkpt lat="45.41081" lon="6.21055">
        <ele>2280.87</ele>
        <time>2021-06-28T08:45:41Z</time>
      </trkpt>
      <trkpt lat="45.41083" lon="6.21056">
        <ele>2282.79</ele>
        <time>2021-06-28T08:45:58Z</time>
      </trkpt>
      <trkpt lat="45.41083" lon="6.21055">
        <ele>2278.94</ele>
        <time>2021-06-28T08:46:01Z</time>
      </trkpt>
      <trkpt lat="45.41083" lon="6.21056">
        <ele>2282.31</ele>
        <time>2021-06-28T08:46:03Z</time>
      </trkpt>
      <trkpt lat="45.41083" lon="6.21057">
        <ele>2280.87</ele>
        <time>2021-06-28T08:46:06Z</time>
      </trkpt>
      <trkpt lat="45.41088" lon="6.21056">
        <ele>2281.35</ele>
        <time>2021-06-28T08:46:33Z</time>
      </trkpt>
      <trkpt lat="45.41085" lon="6.21057">
        <ele>2280.38</ele>
        <time>2021-06-28T08:46:51Z</time>
      </trkpt>
      <trkpt lat="45.41087" lon="6.21059">
        <ele>2279.42</ele>
        <time>2021-06-28T08:47:19Z</time>
      </trkpt>
      <trkpt lat="45.4109" lon="6.21059">
        <ele>2278.46</ele>
        <time>2021-06-28T08:47:42Z</time>
      </trkpt>
      <trkpt lat="45.41083" lon="6.21063">
        <ele>2277.98</ele>
        <time>2021-06-28T08:48:05Z</time>
      </trkpt>
      <trkpt lat="45.41089" lon="6.21059">
        <ele>2277.02</ele>
        <time>2021-06-28T08:48:30Z</time>
      </trkpt>
      <trkpt lat="45.41089" lon="6.21059">
        <ele>2276.54</ele>
        <time>2021-06-28T08:48:49Z</time>
      </trkpt>
      <trkpt lat="45.41092" lon="6.21059">
        <ele>2273.17</ele>
        <time>2021-06-28T08:49:11Z</time>
      </trkpt>
      <trkpt lat="45.41092" lon="6.21059">
        <ele>2276.54</ele>
        <time>2021-06-28T08:49:12Z</time>
      </trkpt>
      <trkpt lat="45.411" lon="6.2106">
        <ele>2276.06</ele>
        <time>2021-06-28T08:49:28Z</time>
      </trkpt>
      <trkpt lat="45.411" lon="6.2106">
        <ele>2274.62</ele>
        <time>2021-06-28T08:49:31Z</time>
      </trkpt>
      <trkpt lat="45.41101" lon="6.21062">
        <ele>2274.14</ele>
        <time>2021-06-28T08:49:45Z</time>
      </trkpt>
      <trkpt lat="45.41097" lon="6.21062">
        <ele>2274.14</ele>
        <time>2021-06-28T08:50:14Z</time>
      </trkpt>
      <trkpt lat="45.41093" lon="6.21066">
        <ele>2272.69</ele>
        <time>2021-06-28T08:50:39Z</time>
      </trkpt>
      <trkpt lat="45.41095" lon="6.21066">
        <ele>2272.21</ele>
        <time>2021-06-28T08:51:07Z</time>
      </trkpt>
      <trkpt lat="45.41092" lon="6.21065">
        <ele>2273.17</ele>
        <time>2021-06-28T08:51:15Z</time>
      </trkpt>
      <trkpt lat="45.41097" lon="6.21065">
        <ele>2271.73</ele>
        <time>2021-06-28T08:51:30Z</time>
      </trkpt>
      <trkpt lat="45.41099" lon="6.21066">
        <ele>2272.21</ele>
        <time>2021-06-28T08:51:50Z</time>
      </trkpt>
      <trkpt lat="45.41095" lon="6.21069">
        <ele>2271.73</ele>
        <time>2021-06-28T08:52:00Z</time>
      </trkpt>
      <trkpt lat="45.41093" lon="6.21068">
        <ele>2270.29</ele>
        <time>2021-06-28T08:52:28Z</time>
      </trkpt>
      <trkpt lat="45.41092" lon="6.21068">
        <ele>2272.21</ele>
        <time>2021-06-28T08:52:31Z</time>
      </trkpt>
      <trkpt lat="45.41094" lon="6.21068">
        <ele>2271.25</ele>
        <time>2021-06-28T08:52:35Z</time>
      </trkpt>
      <trkpt lat="45.41093" lon="6.21068">
        <ele>2271.25</ele>
        <time>2021-06-28T08:52:55Z</time>
      </trkpt>
      <trkpt lat="45.41093" lon="6.21071">
        <ele>2270.77</ele>
        <time>2021-06-28T08:53:18Z</time>
      </trkpt>
      <trkpt lat="45.41095" lon="6.2107">
        <ele>2269.33</ele>
        <time>2021-06-28T08:53:42Z</time>
      </trkpt>
      <trkpt lat="45.41098" lon="6.21072">
        <ele>2268.37</ele>
        <time>2021-06-28T08:53:59Z</time>
      </trkpt>
      <trkpt lat="45.41098" lon="6.21073">
        <ele>2266.93</ele>
        <time>2021-06-28T08:54:06Z</time>
      </trkpt>
      <trkpt lat="45.41097" lon="6.21075">
        <ele>2272.21</ele>
        <time>2021-06-28T08:54:10Z</time>
      </trkpt>
      <trkpt lat="45.41098" lon="6.21074">
        <ele>2267.89</ele>
        <time>2021-06-28T08:54:11Z</time>
      </trkpt>
      <trkpt lat="45.41098" lon="6.21074">
        <ele>2267.41</ele>
        <time>2021-06-28T08:54:39Z</time>
      </trkpt>
      <trkpt lat="45.41099" lon="6.21076">
        <ele>2265.48</ele>
        <time>2021-06-28T08:54:56Z</time>
      </trkpt>
      <trkpt lat="45.41099" lon="6.21075">
        <ele>2264.52</ele>
        <time>2021-06-28T08:55:04Z</time>
      </trkpt>
      <trkpt lat="45.41099" lon="6.21076">
        <ele>2269.81</ele>
        <time>2021-06-28T08:55:05Z</time>
      </trkpt>
      <trkpt lat="45.41098" lon="6.21076">
        <ele>2266.45</ele>
        <time>2021-06-28T08:55:06Z</time>
      </trkpt>
      <trkpt lat="45.41098" lon="6.21078">
        <ele>2265</ele>
        <time>2021-06-28T08:55:17Z</time>
      </trkpt>
      <trkpt lat="45.41102" lon="6.21079">
        <ele>2264.04</ele>
        <time>2021-06-28T08:55:22Z</time>
      </trkpt>
      <trkpt lat="45.41103" lon="6.2108">
        <ele>2260.68</ele>
        <time>2021-06-28T08:55:29Z</time>
      </trkpt>
      <trkpt lat="45.41103" lon="6.21082">
        <ele>2259.24</ele>
        <time>2021-06-28T08:55:48Z</time>
      </trkpt>
      <trkpt lat="45.41097" lon="6.21086">
        <ele>2258.75</ele>
        <time>2021-06-28T08:56:02Z</time>
      </trkpt>
      <trkpt lat="45.411" lon="6.21084">
        <ele>2259.24</ele>
        <time>2021-06-28T08:56:26Z</time>
      </trkpt>
      <trkpt lat="45.411" lon="6.21085">
        <ele>2258.75</ele>
        <time>2021-06-28T08:56:52Z</time>
      </trkpt>
      <trkpt lat="45.41101" lon="6.21083">
        <ele>2255.39</ele>
        <time>2021-06-28T08:56:56Z</time>
      </trkpt>
      <trkpt lat="45.411" lon="6.21084">
        <ele>2259.72</ele>
        <time>2021-06-28T08:56:57Z</time>
      </trkpt>
      <trkpt lat="45.41104" lon="6.2108">
        <ele>2259.24</ele>
        <time>2021-06-28T08:57:16Z</time>
      </trkpt>
      <trkpt lat="45.41101" lon="6.21082">
        <ele>2258.75</ele>
        <time>2021-06-28T08:57:46Z</time>
      </trkpt>
      <trkpt lat="45.41098" lon="6.21087">
        <ele>2258.75</ele>
        <time>2021-06-28T08:58:14Z</time>
      </trkpt>
      <trkpt lat="45.41097" lon="6.21087">
        <ele>2259.24</ele>
        <time>2021-06-28T08:58:41Z</time>
      </trkpt>
      <trkpt lat="45.41102" lon="6.21086">
        <ele>2256.83</ele>
        <time>2021-06-28T08:58:56Z</time>
      </trkpt>
      <trkpt lat="45.41103" lon="6.21088">
        <ele>2253.47</ele>
        <time>2021-06-28T08:59:03Z</time>
      </trkpt>
      <trkpt lat="45.41104" lon="6.2109">
        <ele>2252.03</ele>
        <time>2021-06-28T08:59:17Z</time>
      </trkpt>
      <trkpt lat="45.41103" lon="6.21091">
        <ele>2251.54</ele>
        <time>2021-06-28T08:59:27Z</time>
      </trkpt>
      <trkpt lat="45.41103" lon="6.2109">
        <ele>2252.03</ele>
        <time>2021-06-28T08:59:49Z</time>
      </trkpt>
      <trkpt lat="45.41103" lon="6.21094">
        <ele>2252.51</ele>
        <time>2021-06-28T09:00:20Z</time>
      </trkpt>
      <trkpt lat="45.41103" lon="6.21093">
        <ele>2252.51</ele>
        <time>2021-06-28T09:00:54Z</time>
      </trkpt>
      <trkpt lat="45.41104" lon="6.21093">
        <ele>2252.03</ele>
        <time>2021-06-28T09:01:25Z</time>
      </trkpt>
      <trkpt lat="45.41103" lon="6.21097">
        <ele>2252.99</ele>
        <time>2021-06-28T09:01:43Z</time>
      </trkpt>
      <trkpt lat="45.41102" lon="6.21097">
        <ele>2250.1</ele>
        <time>2021-06-28T09:01:45Z</time>
      </trkpt>
      <trkpt lat="45.41103" lon="6.21097">
        <ele>2249.62</ele>
        <time>2021-06-28T09:02:03Z</time>
      </trkpt>
      <trkpt lat="45.41105" lon="6.21097">
        <ele>2248.18</ele>
        <time>2021-06-28T09:02:06Z</time>
      </trkpt>
      <trkpt lat="45.41103" lon="6.21098">
        <ele>2246.74</ele>
        <time>2021-06-28T09:02:20Z</time>
      </trkpt>
      <trkpt lat="45.41104" lon="6.21101">
        <ele>2246.74</ele>
        <time>2021-06-28T09:02:37Z</time>
      </trkpt>
      <trkpt lat="45.41104" lon="6.21104">
        <ele>2244.82</ele>
        <time>2021-06-28T09:02:57Z</time>
      </trkpt>
      <trkpt lat="45.41106" lon="6.21106">
        <ele>2240.97</ele>
        <time>2021-06-28T09:03:13Z</time>
      </trkpt>
      <trkpt lat="45.41106" lon="6.21106">
        <ele>2246.26</ele>
        <time>2021-06-28T09:03:15Z</time>
      </trkpt>
      <trkpt lat="45.41106" lon="6.21106">
        <ele>2242.89</ele>
        <time>2021-06-28T09:03:16Z</time>
      </trkpt>
      <trkpt lat="45.41107" lon="6.2111">
        <ele>2240.49</ele>
        <time>2021-06-28T09:03:35Z</time>
      </trkpt>
      <trkpt lat="45.41107" lon="6.21109">
        <ele>2237.13</ele>
        <time>2021-06-28T09:03:52Z</time>
      </trkpt>
      <trkpt lat="45.41106" lon="6.21109">
        <ele>2237.61</ele>
        <time>2021-06-28T09:04:11Z</time>
      </trkpt>
      <trkpt lat="45.41109" lon="6.21112">
        <ele>2236.64</ele>
        <time>2021-06-28T09:04:27Z</time>
      </trkpt>
      <trkpt lat="45.41109" lon="6.21113">
        <ele>2236.16</ele>
        <time>2021-06-28T09:04:46Z</time>
      </trkpt>
      <trkpt lat="45.4111" lon="6.21117">
        <ele>2232.32</ele>
        <time>2021-06-28T09:04:59Z</time>
      </trkpt>
      <trkpt lat="45.4111" lon="6.21115">
        <ele>2232.8</ele>
        <time>2021-06-28T09:05:14Z</time>
      </trkpt>
      <trkpt lat="45.41109" lon="6.21117">
        <ele>2229.43</ele>
        <time>2021-06-28T09:05:29Z</time>
      </trkpt>
      <trkpt lat="45.41108" lon="6.21118">
        <ele>2229.92</ele>
        <time>2021-06-28T09:05:36Z</time>
      </trkpt>
      <trkpt lat="45.41109" lon="6.21122">
        <ele>2229.43</ele>
        <time>2021-06-28T09:05:53Z</time>
      </trkpt>
      <trkpt lat="45.41109" lon="6.21121">
        <ele>2228.95</ele>
        <time>2021-06-28T09:06:01Z</time>
      </trkpt>
      <trkpt lat="45.41107" lon="6.21124">
        <ele>2227.03</ele>
        <time>2021-06-28T09:06:22Z</time>
      </trkpt>
      <trkpt lat="45.41105" lon="6.21129">
        <ele>2226.55</ele>
        <time>2021-06-28T09:06:36Z</time>
      </trkpt>
      <trkpt lat="45.41102" lon="6.21128">
        <ele>2223.19</ele>
        <time>2021-06-28T09:06:52Z</time>
      </trkpt>
      <trkpt lat="45.41102" lon="6.21128">
        <ele>2226.55</ele>
        <time>2021-06-28T09:06:53Z</time>
      </trkpt>
      <trkpt lat="45.41101" lon="6.2113">
        <ele>2223.67</ele>
        <time>2021-06-28T09:06:57Z</time>
      </trkpt>
      <trkpt lat="45.41104" lon="6.21136">
        <ele>2221.74</ele>
        <time>2021-06-28T09:07:13Z</time>
      </trkpt>
      <trkpt lat="45.41102" lon="6.21141">
        <ele>2218.86</ele>
        <time>2021-06-28T09:07:27Z</time>
      </trkpt>
      <trkpt lat="45.41103" lon="6.21144">
        <ele>2218.86</ele>
        <time>2021-06-28T09:07:45Z</time>
      </trkpt>
      <trkpt lat="45.41107" lon="6.21141">
        <ele>2216.94</ele>
        <time>2021-06-28T09:07:59Z</time>
      </trkpt>
      <trkpt lat="45.4111" lon="6.21139">
        <ele>2215.98</ele>
        <time>2021-06-28T09:08:11Z</time>
      </trkpt>
      <trkpt lat="45.41109" lon="6.2114">
        <ele>2215.01</ele>
        <time>2021-06-28T09:08:31Z</time>
      </trkpt>
      <trkpt lat="45.41113" lon="6.21146">
        <ele>2213.09</ele>
        <time>2021-06-28T09:08:51Z</time>
      </trkpt>
      <trkpt lat="45.4111" lon="6.21148">
        <ele>2212.13</ele>
        <time>2021-06-28T09:09:16Z</time>
      </trkpt>
      <trkpt lat="45.41107" lon="6.21146">
        <ele>2208.77</ele>
        <time>2021-06-28T09:09:32Z</time>
      </trkpt>
      <trkpt lat="45.41107" lon="6.21147">
        <ele>2211.65</ele>
        <time>2021-06-28T09:09:36Z</time>
      </trkpt>
      <trkpt lat="45.41107" lon="6.21147">
        <ele>2208.77</ele>
        <time>2021-06-28T09:09:40Z</time>
      </trkpt>
      <trkpt lat="45.41107" lon="6.21149">
        <ele>2207.81</ele>
        <time>2021-06-28T09:09:57Z</time>
      </trkpt>
      <trkpt lat="45.41106" lon="6.21152">
        <ele>2205.88</ele>
        <time>2021-06-28T09:10:16Z</time>
      </trkpt>
      <trkpt lat="45.41112" lon="6.21149">
        <ele>2207.81</ele>
        <time>2021-06-28T09:10:18Z</time>
      </trkpt>
      <trkpt lat="45.41114" lon="6.21147">
        <ele>2202.04</ele>
        <time>2021-06-28T09:10:25Z</time>
      </trkpt>
      <trkpt lat="45.41115" lon="6.21148">
        <ele>2206.84</ele>
        <time>2021-06-28T09:10:26Z</time>
      </trkpt>
      <trkpt lat="45.41122" lon="6.21154">
        <ele>2203.96</ele>
        <time>2021-06-28T09:10:43Z</time>
      </trkpt>
      <trkpt lat="45.41119" lon="6.21157">
        <ele>2205.4</ele>
        <time>2021-06-28T09:10:49Z</time>
      </trkpt>
      <trkpt lat="45.41118" lon="6.21159">
        <ele>2205.4</ele>
        <time>2021-06-28T09:11:11Z</time>
      </trkpt>
      <trkpt lat="45.41107" lon="6.21163">
        <ele>2204.44</ele>
        <time>2021-06-28T09:11:30Z</time>
      </trkpt>
      <trkpt lat="45.41108" lon="6.21162">
        <ele>2202.52</ele>
        <time>2021-06-28T09:11:48Z</time>
      </trkpt>
      <trkpt lat="45.41107" lon="6.21164">
        <ele>2202.04</ele>
        <time>2021-06-28T09:12:08Z</time>
      </trkpt>
      <trkpt lat="45.41107" lon="6.21166">
        <ele>2200.59</ele>
        <time>2021-06-28T09:12:13Z</time>
      </trkpt>
      <trkpt lat="45.41108" lon="6.2117">
        <ele>2197.71</ele>
        <time>2021-06-28T09:12:29Z</time>
      </trkpt>
      <trkpt lat="45.4111" lon="6.2117">
        <ele>2202.04</ele>
        <time>2021-06-28T09:12:32Z</time>
      </trkpt>
      <trkpt lat="45.4111" lon="6.2117">
        <ele>2198.19</ele>
        <time>2021-06-28T09:12:33Z</time>
      </trkpt>
      <trkpt lat="45.41115" lon="6.21173">
        <ele>2195.31</ele>
        <time>2021-06-28T09:12:44Z</time>
      </trkpt>
      <trkpt lat="45.41107" lon="6.21174">
        <ele>2193.87</ele>
        <time>2021-06-28T09:12:59Z</time>
      </trkpt>
      <trkpt lat="45.41105" lon="6.21177">
        <ele>2192.42</ele>
        <time>2021-06-28T09:13:07Z</time>
      </trkpt>
      <trkpt lat="45.41107" lon="6.2118">
        <ele>2190.98</ele>
        <time>2021-06-28T09:13:25Z</time>
      </trkpt>
      <trkpt lat="45.41105" lon="6.21185">
        <ele>2189.06</ele>
        <time>2021-06-28T09:13:41Z</time>
      </trkpt>
      <trkpt lat="45.41106" lon="6.21187">
        <ele>2187.62</ele>
        <time>2021-06-28T09:13:55Z</time>
      </trkpt>
      <trkpt lat="45.41106" lon="6.21189">
        <ele>2186.18</ele>
        <time>2021-06-28T09:13:57Z</time>
      </trkpt>
      <trkpt lat="45.41105" lon="6.21194">
        <ele>2183.29</ele>
        <time>2021-06-28T09:14:14Z</time>
      </trkpt>
      <trkpt lat="45.41105" lon="6.21193">
        <ele>2182.33</ele>
        <time>2021-06-28T09:14:28Z</time>
      </trkpt>
      <trkpt lat="45.41104" lon="6.21198">
        <ele>2180.89</ele>
        <time>2021-06-28T09:14:37Z</time>
      </trkpt>
      <trkpt lat="45.41104" lon="6.21201">
        <ele>2179.93</ele>
        <time>2021-06-28T09:14:52Z</time>
      </trkpt>
      <trkpt lat="45.41104" lon="6.21201">
        <ele>2177.04</ele>
        <time>2021-06-28T09:14:54Z</time>
      </trkpt>
      <trkpt lat="45.41103" lon="6.212">
        <ele>2183.29</ele>
        <time>2021-06-28T09:14:55Z</time>
      </trkpt>
      <trkpt lat="45.41103" lon="6.212">
        <ele>2178.97</ele>
        <time>2021-06-28T09:14:56Z</time>
      </trkpt>
      <trkpt lat="45.41104" lon="6.21201">
        <ele>2177.52</ele>
        <time>2021-06-28T09:15:14Z</time>
      </trkpt>
      <trkpt lat="45.41101" lon="6.21201">
        <ele>2177.04</ele>
        <time>2021-06-28T09:15:30Z</time>
      </trkpt>
      <trkpt lat="45.41103" lon="6.21203">
        <ele>2175.6</ele>
        <time>2021-06-28T09:15:42Z</time>
      </trkpt>
      <trkpt lat="45.41101" lon="6.21206">
        <ele>2174.16</ele>
        <time>2021-06-28T09:15:56Z</time>
      </trkpt>
      <trkpt lat="45.41098" lon="6.21207">
        <ele>2174.16</ele>
        <time>2021-06-28T09:16:13Z</time>
      </trkpt>
      <trkpt lat="45.41099" lon="6.21215">
        <ele>2171.76</ele>
        <time>2021-06-28T09:16:28Z</time>
      </trkpt>
      <trkpt lat="45.411" lon="6.21216">
        <ele>2170.79</ele>
        <time>2021-06-28T09:16:31Z</time>
      </trkpt>
      <trkpt lat="45.41099" lon="6.21213">
        <ele>2168.87</ele>
        <time>2021-06-28T09:16:44Z</time>
      </trkpt>
      <trkpt lat="45.41099" lon="6.21219">
        <ele>2166.95</ele>
        <time>2021-06-28T09:17:02Z</time>
      </trkpt>
      <trkpt lat="45.41099" lon="6.21225">
        <ele>2164.55</ele>
        <time>2021-06-28T09:17:21Z</time>
      </trkpt>
      <trkpt lat="45.41098" lon="6.21224">
        <ele>2163.58</ele>
        <time>2021-06-28T09:17:37Z</time>
      </trkpt>
      <trkpt lat="45.41098" lon="6.21232">
        <ele>2161.66</ele>
        <time>2021-06-28T09:17:50Z</time>
      </trkpt>
      <trkpt lat="45.41098" lon="6.21237">
        <ele>2159.74</ele>
        <time>2021-06-28T09:18:09Z</time>
      </trkpt>
      <trkpt lat="45.41098" lon="6.21238">
        <ele>2156.37</ele>
        <time>2021-06-28T09:18:18Z</time>
      </trkpt>
      <trkpt lat="45.41098" lon="6.21238">
        <ele>2156.86</ele>
        <time>2021-06-28T09:18:19Z</time>
      </trkpt>
      <trkpt lat="45.41098" lon="6.2124">
        <ele>2158.3</ele>
        <time>2021-06-28T09:18:21Z</time>
      </trkpt>
      <trkpt lat="45.41097" lon="6.21247">
        <ele>2156.37</ele>
        <time>2021-06-28T09:18:35Z</time>
      </trkpt>
      <trkpt lat="45.41097" lon="6.21249">
        <ele>2153.01</ele>
        <time>2021-06-28T09:18:41Z</time>
      </trkpt>
      <trkpt lat="45.41096" lon="6.21245">
        <ele>2156.86</ele>
        <time>2021-06-28T09:18:54Z</time>
      </trkpt>
      <trkpt lat="45.41096" lon="6.21244">
        <ele>2153.49</ele>
        <time>2021-06-28T09:19:02Z</time>
      </trkpt>
      <trkpt lat="45.41097" lon="6.21255">
        <ele>2152.53</ele>
        <time>2021-06-28T09:19:24Z</time>
      </trkpt>
      <trkpt lat="45.41099" lon="6.21258">
        <ele>2149.16</ele>
        <time>2021-06-28T09:19:42Z</time>
      </trkpt>
      <trkpt lat="45.41098" lon="6.2126">
        <ele>2149.65</ele>
        <time>2021-06-28T09:19:58Z</time>
      </trkpt>
      <trkpt lat="45.41098" lon="6.21258">
        <ele>2148.68</ele>
        <time>2021-06-28T09:20:00Z</time>
      </trkpt>
      <trkpt lat="45.41096" lon="6.21258">
        <ele>2145.32</ele>
        <time>2021-06-28T09:20:16Z</time>
      </trkpt>
      <trkpt lat="45.41096" lon="6.21261">
        <ele>2145.32</ele>
        <time>2021-06-28T09:20:33Z</time>
      </trkpt>
      <trkpt lat="45.41095" lon="6.21271">
        <ele>2141.95</ele>
        <time>2021-06-28T09:20:44Z</time>
      </trkpt>
      <trkpt lat="45.41094" lon="6.21267">
        <ele>2138.59</ele>
        <time>2021-06-28T09:20:56Z</time>
      </trkpt>
      <trkpt lat="45.41093" lon="6.21268">
        <ele>2138.11</ele>
        <time>2021-06-28T09:21:02Z</time>
      </trkpt>
      <trkpt lat="45.41092" lon="6.21275">
        <ele>2135.23</ele>
        <time>2021-06-28T09:21:15Z</time>
      </trkpt>
      <trkpt lat="45.41092" lon="6.21281">
        <ele>2132.82</ele>
        <time>2021-06-28T09:21:29Z</time>
      </trkpt>
      <trkpt lat="45.41093" lon="6.21286">
        <ele>2132.34</ele>
        <time>2021-06-28T09:21:40Z</time>
      </trkpt>
      <trkpt lat="45.4109" lon="6.21286">
        <ele>2130.9</ele>
        <time>2021-06-28T09:21:57Z</time>
      </trkpt>
      <trkpt lat="45.41092" lon="6.21289">
        <ele>2128.5</ele>
        <time>2021-06-28T09:22:04Z</time>
      </trkpt>
      <trkpt lat="45.41093" lon="6.21288">
        <ele>2127.53</ele>
        <time>2021-06-28T09:22:11Z</time>
      </trkpt>
      <trkpt lat="45.41092" lon="6.21285">
        <ele>2127.05</ele>
        <time>2021-06-28T09:22:16Z</time>
      </trkpt>
      <trkpt lat="45.4109" lon="6.2129">
        <ele>2125.13</ele>
        <time>2021-06-28T09:22:31Z</time>
      </trkpt>
      <trkpt lat="45.41087" lon="6.21291">
        <ele>2122.25</ele>
        <time>2021-06-28T09:22:38Z</time>
      </trkpt>
      <trkpt lat="45.41084" lon="6.21292">
        <ele>2122.25</ele>
        <time>2021-06-28T09:22:56Z</time>
      </trkpt>
      <trkpt lat="45.41082" lon="6.21288">
        <ele>2122.73</ele>
        <time>2021-06-28T09:23:24Z</time>
      </trkpt>
      <trkpt lat="45.41087" lon="6.21297">
        <ele>2122.73</ele>
        <time>2021-06-28T09:23:54Z</time>
      </trkpt>
      <trkpt lat="45.41087" lon="6.21296">
        <ele>2122.25</ele>
        <time>2021-06-28T09:24:23Z</time>
      </trkpt>
      <trkpt lat="45.41083" lon="6.21293">
        <ele>2121.77</ele>
        <time>2021-06-28T09:24:51Z</time>
      </trkpt>
      <trkpt lat="45.41083" lon="6.21297">
        <ele>2122.25</ele>
        <time>2021-06-28T09:25:09Z</time>
      </trkpt>
      <trkpt lat="45.41081" lon="6.2131">
        <ele>2120.81</ele>
        <time>2021-06-28T09:25:45Z</time>
      </trkpt>
      <trkpt lat="45.41081" lon="6.21311">
        <ele>2116.96</ele>
        <time>2021-06-28T09:26:02Z</time>
      </trkpt>
      <trkpt lat="45.41081" lon="6.21315">
        <ele>2112.63</ele>
        <time>2021-06-28T09:26:18Z</time>
      </trkpt>
      <trkpt lat="45.41082" lon="6.21316">
        <ele>2113.12</ele>
        <time>2021-06-28T09:26:22Z</time>
      </trkpt>
      <trkpt lat="45.41079" lon="6.21313">
        <ele>2110.71</ele>
        <time>2021-06-28T09:26:37Z</time>
      </trkpt>
      <trkpt lat="45.41078" lon="6.21318">
        <ele>2107.35</ele>
        <time>2021-06-28T09:26:48Z</time>
      </trkpt>
      <trkpt lat="45.41074" lon="6.21322">
        <ele>2105.42</ele>
        <time>2021-06-28T09:27:00Z</time>
      </trkpt>
      <trkpt lat="45.41074" lon="6.21325">
        <ele>2102.54</ele>
        <time>2021-06-28T09:27:13Z</time>
      </trkpt>
      <trkpt lat="45.41073" lon="6.21334">
        <ele>2100.62</ele>
        <time>2021-06-28T09:27:26Z</time>
      </trkpt>
      <trkpt lat="45.41073" lon="6.21337">
        <ele>2096.29</ele>
        <time>2021-06-28T09:27:38Z</time>
      </trkpt>
      <trkpt lat="45.41072" lon="6.21337">
        <ele>2099.66</ele>
        <time>2021-06-28T09:27:39Z</time>
      </trkpt>
      <trkpt lat="45.41072" lon="6.21338">
        <ele>2095.81</ele>
        <time>2021-06-28T09:27:44Z</time>
      </trkpt>
      <trkpt lat="45.41069" lon="6.21345">
        <ele>2094.85</ele>
        <time>2021-06-28T09:28:00Z</time>
      </trkpt>
      <trkpt lat="45.41067" lon="6.21353">
        <ele>2092.45</ele>
        <time>2021-06-28T09:28:13Z</time>
      </trkpt>
      <trkpt lat="45.41067" lon="6.21358">
        <ele>2089.56</ele>
        <time>2021-06-28T09:28:20Z</time>
      </trkpt>
      <trkpt lat="45.41066" lon="6.21357">
        <ele>2088.12</ele>
        <time>2021-06-28T09:28:29Z</time>
      </trkpt>
      <trkpt lat="45.41065" lon="6.21364">
        <ele>2083.79</ele>
        <time>2021-06-28T09:28:42Z</time>
      </trkpt>
      <trkpt lat="45.41061" lon="6.21365">
        <ele>2083.31</ele>
        <time>2021-06-28T09:28:58Z</time>
      </trkpt>
      <trkpt lat="45.41055" lon="6.21362">
        <ele>2083.31</ele>
        <time>2021-06-28T09:29:13Z</time>
      </trkpt>
      <trkpt lat="45.41048" lon="6.21364">
        <ele>2081.87</ele>
        <time>2021-06-28T09:29:29Z</time>
      </trkpt>
      <trkpt lat="45.41044" lon="6.21366">
        <ele>2080.91</ele>
        <time>2021-06-28T09:29:42Z</time>
      </trkpt>
      <trkpt lat="45.41043" lon="6.21365">
        <ele>2083.79</ele>
        <time>2021-06-28T09:29:43Z</time>
      </trkpt>
      <trkpt lat="45.41041" lon="6.21362">
        <ele>2080.43</ele>
        <time>2021-06-28T09:29:50Z</time>
      </trkpt>
      <trkpt lat="45.41037" lon="6.21362">
        <ele>2080.91</ele>
        <time>2021-06-28T09:30:04Z</time>
      </trkpt>
      <trkpt lat="45.41036" lon="6.21361">
        <ele>2080.91</ele>
        <time>2021-06-28T09:30:09Z</time>
      </trkpt>
      <trkpt lat="45.41033" lon="6.21359">
        <ele>2080.43</ele>
        <time>2021-06-28T09:30:24Z</time>
      </trkpt>
      <trkpt lat="45.4103" lon="6.2136">
        <ele>2080.43</ele>
        <time>2021-06-28T09:30:31Z</time>
      </trkpt>
      <trkpt lat="45.41024" lon="6.2136">
        <ele>2078.99</ele>
        <time>2021-06-28T09:30:46Z</time>
      </trkpt>
      <trkpt lat="45.41024" lon="6.21359">
        <ele>2082.35</ele>
        <time>2021-06-28T09:30:47Z</time>
      </trkpt>
      <trkpt lat="45.41022" lon="6.21357">
        <ele>2079.47</ele>
        <time>2021-06-28T09:30:52Z</time>
      </trkpt>
      <trkpt lat="45.41015" lon="6.21359">
        <ele>2080.43</ele>
        <time>2021-06-28T09:31:07Z</time>
      </trkpt>
      <trkpt lat="45.41013" lon="6.21357">
        <ele>2079.95</ele>
        <time>2021-06-28T09:31:14Z</time>
      </trkpt>
      <trkpt lat="45.41006" lon="6.21357">
        <ele>2079.95</ele>
        <time>2021-06-28T09:31:27Z</time>
      </trkpt>
      <trkpt lat="45.41" lon="6.21355">
        <ele>2080.91</ele>
        <time>2021-06-28T09:31:38Z</time>
      </trkpt>
      <trkpt lat="45.40994" lon="6.21356">
        <ele>2080.43</ele>
        <time>2021-06-28T09:31:51Z</time>
      </trkpt>
      <trkpt lat="45.40989" lon="6.21357">
        <ele>2079.95</ele>
        <time>2021-06-28T09:32:05Z</time>
      </trkpt>
      <trkpt lat="45.40987" lon="6.2136">
        <ele>2083.31</ele>
        <time>2021-06-28T09:32:15Z</time>
      </trkpt>
      <trkpt lat="45.40987" lon="6.21357">
        <ele>2079.47</ele>
        <time>2021-06-28T09:32:19Z</time>
      </trkpt>
      <trkpt lat="45.40986" lon="6.21355">
        <ele>2081.87</ele>
        <time>2021-06-28T09:32:41Z</time>
      </trkpt>
      <trkpt lat="45.40983" lon="6.2136">
        <ele>2079.95</ele>
        <time>2021-06-28T09:33:02Z</time>
      </trkpt>
      <trkpt lat="45.40979" lon="6.21363">
        <ele>2078.51</ele>
        <time>2021-06-28T09:33:15Z</time>
      </trkpt>
      <trkpt lat="45.40974" lon="6.21364">
        <ele>2078.51</ele>
        <time>2021-06-28T09:33:32Z</time>
      </trkpt>
      <trkpt lat="45.4097" lon="6.21368">
        <ele>2076.59</ele>
        <time>2021-06-28T09:33:44Z</time>
      </trkpt>
      <trkpt lat="45.40966" lon="6.21369">
        <ele>2076.59</ele>
        <time>2021-06-28T09:33:57Z</time>
      </trkpt>
      <trkpt lat="45.40966" lon="6.21368">
        <ele>2076.59</ele>
        <time>2021-06-28T09:34:16Z</time>
      </trkpt>
      <trkpt lat="45.40963" lon="6.21367">
        <ele>2077.07</ele>
        <time>2021-06-28T09:34:30Z</time>
      </trkpt>
      <trkpt lat="45.40959" lon="6.21371">
        <ele>2075.62</ele>
        <time>2021-06-28T09:34:43Z</time>
      </trkpt>
      <trkpt lat="45.40958" lon="6.21371">
        <ele>2076.59</ele>
        <time>2021-06-28T09:34:51Z</time>
      </trkpt>
      <trkpt lat="45.40955" lon="6.21368">
        <ele>2076.1</ele>
        <time>2021-06-28T09:35:08Z</time>
      </trkpt>
      <trkpt lat="45.40954" lon="6.21373">
        <ele>2078.51</ele>
        <time>2021-06-28T09:35:24Z</time>
      </trkpt>
      <trkpt lat="45.40954" lon="6.21372">
        <ele>2076.1</ele>
        <time>2021-06-28T09:35:26Z</time>
      </trkpt>
      <trkpt lat="45.40953" lon="6.21368">
        <ele>2076.59</ele>
        <time>2021-06-28T09:35:47Z</time>
      </trkpt>
      <trkpt lat="45.40949" lon="6.21364">
        <ele>2076.59</ele>
        <time>2021-06-28T09:35:59Z</time>
      </trkpt>
      <trkpt lat="45.40948" lon="6.21362">
        <ele>2078.03</ele>
        <time>2021-06-28T09:36:03Z</time>
      </trkpt>
      <trkpt lat="45.40942" lon="6.21361">
        <ele>2076.59</ele>
        <time>2021-06-28T09:36:19Z</time>
      </trkpt>
      <trkpt lat="45.40939" lon="6.2136">
        <ele>2073.7</ele>
        <time>2021-06-28T09:36:32Z</time>
      </trkpt>
      <trkpt lat="45.40935" lon="6.21361">
        <ele>2074.18</ele>
        <time>2021-06-28T09:36:46Z</time>
      </trkpt>
      <trkpt lat="45.4093" lon="6.21361">
        <ele>2070.82</ele>
        <time>2021-06-28T09:37:03Z</time>
      </trkpt>
      <trkpt lat="45.4093" lon="6.21361">
        <ele>2074.18</ele>
        <time>2021-06-28T09:37:04Z</time>
      </trkpt>
      <trkpt lat="45.40926" lon="6.21362">
        <ele>2071.3</ele>
        <time>2021-06-28T09:37:16Z</time>
      </trkpt>
      <trkpt lat="45.40922" lon="6.21363">
        <ele>2070.82</ele>
        <time>2021-06-28T09:37:31Z</time>
      </trkpt>
      <trkpt lat="45.40918" lon="6.21364">
        <ele>2070.34</ele>
        <time>2021-06-28T09:37:46Z</time>
      </trkpt>
      <trkpt lat="45.40918" lon="6.21363">
        <ele>2062.17</ele>
        <time>2021-06-28T09:37:49Z</time>
      </trkpt>
      <trkpt lat="45.40918" lon="6.21364">
        <ele>2074.66</ele>
        <time>2021-06-28T09:37:50Z</time>
      </trkpt>
      <trkpt lat="45.40919" lon="6.21364">
        <ele>2067.93</ele>
        <time>2021-06-28T09:37:51Z</time>
      </trkpt>
      <trkpt lat="45.40915" lon="6.2136">
        <ele>2068.41</ele>
        <time>2021-06-28T09:38:06Z</time>
      </trkpt>
      <trkpt lat="45.40913" lon="6.21356">
        <ele>2070.82</ele>
        <time>2021-06-28T09:38:19Z</time>
      </trkpt>
      <trkpt lat="45.40909" lon="6.21355">
        <ele>2069.86</ele>
        <time>2021-06-28T09:38:32Z</time>
      </trkpt>
      <trkpt lat="45.40909" lon="6.21351">
        <ele>2068.89</ele>
        <time>2021-06-28T09:38:48Z</time>
      </trkpt>
      <trkpt lat="45.40909" lon="6.2135">
        <ele>2071.3</ele>
        <time>2021-06-28T09:38:50Z</time>
      </trkpt>
      <trkpt lat="45.40903" lon="6.21351">
        <ele>2071.3</ele>
        <time>2021-06-28T09:39:05Z</time>
      </trkpt>
      <trkpt lat="45.409" lon="6.21344">
        <ele>2069.38</ele>
        <time>2021-06-28T09:39:22Z</time>
      </trkpt>
      <trkpt lat="45.40893" lon="6.21341">
        <ele>2068.41</ele>
        <time>2021-06-28T09:39:39Z</time>
      </trkpt>
      <trkpt lat="45.4089" lon="6.21342">
        <ele>2067.45</ele>
        <time>2021-06-28T09:39:51Z</time>
      </trkpt>
      <trkpt lat="45.40884" lon="6.21342">
        <ele>2065.53</ele>
        <time>2021-06-28T09:40:06Z</time>
      </trkpt>
      <trkpt lat="45.40879" lon="6.21342">
        <ele>2064.57</ele>
        <time>2021-06-28T09:40:18Z</time>
      </trkpt>
      <trkpt lat="45.40875" lon="6.2134">
        <ele>2063.61</ele>
        <time>2021-06-28T09:40:31Z</time>
      </trkpt>
      <trkpt lat="45.40874" lon="6.2134">
        <ele>2063.13</ele>
        <time>2021-06-28T09:40:40Z</time>
      </trkpt>
      <trkpt lat="45.40867" lon="6.21337">
        <ele>2064.09</ele>
        <time>2021-06-28T09:40:55Z</time>
      </trkpt>
      <trkpt lat="45.40864" lon="6.21337">
        <ele>2061.2</ele>
        <time>2021-06-28T09:41:05Z</time>
      </trkpt>
      <trkpt lat="45.40863" lon="6.21337">
        <ele>2064.57</ele>
        <time>2021-06-28T09:41:07Z</time>
      </trkpt>
      <trkpt lat="45.40858" lon="6.21337">
        <ele>2064.09</ele>
        <time>2021-06-28T09:41:21Z</time>
      </trkpt>
      <trkpt lat="45.40854" lon="6.21331">
        <ele>2063.13</ele>
        <time>2021-06-28T09:41:38Z</time>
      </trkpt>
      <trkpt lat="45.40842" lon="6.21329">
        <ele>2063.13</ele>
        <time>2021-06-28T09:41:54Z</time>
      </trkpt>
      <trkpt lat="45.40835" lon="6.21331">
        <ele>2063.13</ele>
        <time>2021-06-28T09:42:07Z</time>
      </trkpt>
      <trkpt lat="45.40832" lon="6.21333">
        <ele>2065.05</ele>
        <time>2021-06-28T09:42:21Z</time>
      </trkpt>
      <trkpt lat="45.40828" lon="6.21339">
        <ele>2063.61</ele>
        <time>2021-06-28T09:42:32Z</time>
      </trkpt>
      <trkpt lat="45.40826" lon="6.2134">
        <ele>2060.24</ele>
        <time>2021-06-28T09:42:37Z</time>
      </trkpt>
      <trkpt lat="45.40823" lon="6.21341">
        <ele>2060.72</ele>
        <time>2021-06-28T09:42:51Z</time>
      </trkpt>
      <trkpt lat="45.40817" lon="6.21342">
        <ele>2059.28</ele>
        <time>2021-06-28T09:43:05Z</time>
      </trkpt>
      <trkpt lat="45.40813" lon="6.2134">
        <ele>2055.92</ele>
        <time>2021-06-28T09:43:19Z</time>
      </trkpt>
      <trkpt lat="45.40812" lon="6.21339">
        <ele>2059.28</ele>
        <time>2021-06-28T09:43:22Z</time>
      </trkpt>
      <trkpt lat="45.4081" lon="6.2134">
        <ele>2055.92</ele>
        <time>2021-06-28T09:43:29Z</time>
      </trkpt>
      <trkpt lat="45.40807" lon="6.21344">
        <ele>2056.4</ele>
        <time>2021-06-28T09:43:40Z</time>
      </trkpt>
      <trkpt lat="45.40807" lon="6.21342">
        <ele>2056.88</ele>
        <time>2021-06-28T09:43:42Z</time>
      </trkpt>
      <trkpt lat="45.40806" lon="6.21344">
        <ele>2055.44</ele>
        <time>2021-06-28T09:44:05Z</time>
      </trkpt>
      <trkpt lat="45.40806" lon="6.21345">
        <ele>2052.07</ele>
        <time>2021-06-28T09:44:13Z</time>
      </trkpt>
      <trkpt lat="45.40806" lon="6.21346">
        <ele>2057.84</ele>
        <time>2021-06-28T09:44:14Z</time>
      </trkpt>
      <trkpt lat="45.40805" lon="6.21346">
        <ele>2054.96</ele>
        <time>2021-06-28T09:44:16Z</time>
      </trkpt>
      <trkpt lat="45.40805" lon="6.21346">
        <ele>2054.96</ele>
        <time>2021-06-28T09:44:17Z</time>
      </trkpt>
      <trkpt lat="45.40805" lon="6.21343">
        <ele>2055.44</ele>
        <time>2021-06-28T09:44:36Z</time>
      </trkpt>
      <trkpt lat="45.40802" lon="6.21343">
        <ele>2054.96</ele>
        <time>2021-06-28T09:45:02Z</time>
      </trkpt>
      <trkpt lat="45.40808" lon="6.21347">
        <ele>2056.4</ele>
        <time>2021-06-28T09:45:22Z</time>
      </trkpt>
      <trkpt lat="45.40808" lon="6.21348">
        <ele>2055.44</ele>
        <time>2021-06-28T09:45:55Z</time>
      </trkpt>
      <trkpt lat="45.40808" lon="6.21348">
        <ele>2055.92</ele>
        <time>2021-06-28T09:46:24Z</time>
      </trkpt>
      <trkpt lat="45.40805" lon="6.21345">
        <ele>2054.96</ele>
        <time>2021-06-28T09:46:47Z</time>
      </trkpt>
      <trkpt lat="45.40804" lon="6.21344">
        <ele>2055.44</ele>
        <time>2021-06-28T09:47:12Z</time>
      </trkpt>
      <trkpt lat="45.40807" lon="6.21346">
        <ele>2054.96</ele>
        <time>2021-06-28T09:47:41Z</time>
      </trkpt>
      <trkpt lat="45.40806" lon="6.21345">
        <ele>2054.96</ele>
        <time>2021-06-28T09:48:02Z</time>
      </trkpt>
      <trkpt lat="45.40809" lon="6.21347">
        <ele>2054.47</ele>
        <time>2021-06-28T09:48:32Z</time>
      </trkpt>
      <trkpt lat="45.40804" lon="6.21341">
        <ele>2055.44</ele>
        <time>2021-06-28T09:49:04Z</time>
      </trkpt>
      <trkpt lat="45.40805" lon="6.21341">
        <ele>2052.07</ele>
        <time>2021-06-28T09:49:06Z</time>
      </trkpt>
      <trkpt lat="45.40806" lon="6.21342">
        <ele>2058.8</ele>
        <time>2021-06-28T09:49:07Z</time>
      </trkpt>
      <trkpt lat="45.40806" lon="6.21342">
        <ele>2056.88</ele>
        <time>2021-06-28T09:49:08Z</time>
      </trkpt>
      <trkpt lat="45.40805" lon="6.21343">
        <ele>2053.51</ele>
        <time>2021-06-28T09:49:14Z</time>
      </trkpt>
      <trkpt lat="45.40804" lon="6.21346">
        <ele>2054.96</ele>
        <time>2021-06-28T09:49:47Z</time>
      </trkpt>
      <trkpt lat="45.40808" lon="6.21344">
        <ele>2054.47</ele>
        <time>2021-06-28T09:50:18Z</time>
      </trkpt>
      <trkpt lat="45.40807" lon="6.21345">
        <ele>2053.99</ele>
        <time>2021-06-28T09:51:02Z</time>
      </trkpt>
      <trkpt lat="45.40807" lon="6.21345">
        <ele>2057.36</ele>
        <time>2021-06-28T09:51:21Z</time>
      </trkpt>
      <trkpt lat="45.40803" lon="6.21346">
        <ele>2053.99</ele>
        <time>2021-06-28T09:51:29Z</time>
      </trkpt>
      <trkpt lat="45.40804" lon="6.21349">
        <ele>2053.99</ele>
        <time>2021-06-28T09:52:03Z</time>
      </trkpt>
      <trkpt lat="45.40806" lon="6.21348">
        <ele>2053.99</ele>
        <time>2021-06-28T09:52:32Z</time>
      </trkpt>
      <trkpt lat="45.40803" lon="6.21343">
        <ele>2053.51</ele>
        <time>2021-06-28T09:52:59Z</time>
      </trkpt>
      <trkpt lat="45.40808" lon="6.21351">
        <ele>2053.99</ele>
        <time>2021-06-28T09:53:23Z</time>
      </trkpt>
      <trkpt lat="45.40808" lon="6.21349">
        <ele>2054.47</ele>
        <time>2021-06-28T09:53:55Z</time>
      </trkpt>
      <trkpt lat="45.40808" lon="6.21344">
        <ele>2053.03</ele>
        <time>2021-06-28T09:54:07Z</time>
      </trkpt>
      <trkpt lat="45.40808" lon="6.21346">
        <ele>2054.47</ele>
        <time>2021-06-28T09:54:09Z</time>
      </trkpt>
      <trkpt lat="45.40806" lon="6.21344">
        <ele>2053.99</ele>
        <time>2021-06-28T09:54:44Z</time>
      </trkpt>
      <trkpt lat="45.40807" lon="6.21346">
        <ele>2053.99</ele>
        <time>2021-06-28T09:55:14Z</time>
      </trkpt>
      <trkpt lat="45.40808" lon="6.21346">
        <ele>2053.51</ele>
        <time>2021-06-28T09:55:42Z</time>
      </trkpt>
      <trkpt lat="45.40803" lon="6.21341">
        <ele>2053.51</ele>
        <time>2021-06-28T09:56:04Z</time>
      </trkpt>
      <trkpt lat="45.40804" lon="6.21347">
        <ele>2053.99</ele>
        <time>2021-06-28T09:56:24Z</time>
      </trkpt>
      <trkpt lat="45.40803" lon="6.21348">
        <ele>2053.99</ele>
        <time>2021-06-28T09:56:49Z</time>
      </trkpt>
      <trkpt lat="45.40806" lon="6.21351">
        <ele>2053.51</ele>
        <time>2021-06-28T09:57:18Z</time>
      </trkpt>
      <trkpt lat="45.40807" lon="6.2135">
        <ele>2053.99</ele>
        <time>2021-06-28T09:57:49Z</time>
      </trkpt>
      <trkpt lat="45.40807" lon="6.2135">
        <ele>2053.99</ele>
        <time>2021-06-28T09:58:15Z</time>
      </trkpt>
      <trkpt lat="45.40807" lon="6.21348">
        <ele>2054.47</ele>
        <time>2021-06-28T09:58:48Z</time>
      </trkpt>
      <trkpt lat="45.40808" lon="6.21349">
        <ele>2053.99</ele>
        <time>2021-06-28T09:59:12Z</time>
      </trkpt>
      <trkpt lat="45.40808" lon="6.21347">
        <ele>2052.55</ele>
        <time>2021-06-28T09:59:22Z</time>
      </trkpt>
      <trkpt lat="45.40808" lon="6.21345">
        <ele>2053.03</ele>
        <time>2021-06-28T09:59:47Z</time>
      </trkpt>
      <trkpt lat="45.40811" lon="6.21349">
        <ele>2053.03</ele>
        <time>2021-06-28T10:00:09Z</time>
      </trkpt>
      <trkpt lat="45.40807" lon="6.21349">
        <ele>2053.03</ele>
        <time>2021-06-28T10:00:34Z</time>
      </trkpt>
      <trkpt lat="45.40805" lon="6.21348">
        <ele>2053.51</ele>
        <time>2021-06-28T10:00:43Z</time>
      </trkpt>
      <trkpt lat="45.40801" lon="6.21347">
        <ele>2050.15</ele>
        <time>2021-06-28T10:00:51Z</time>
      </trkpt>
      <trkpt lat="45.40801" lon="6.21346">
        <ele>2055.92</ele>
        <time>2021-06-28T10:00:52Z</time>
      </trkpt>
      <trkpt lat="45.40801" lon="6.21346">
        <ele>2051.59</ele>
        <time>2021-06-28T10:00:53Z</time>
      </trkpt>
      <trkpt lat="45.408" lon="6.21344">
        <ele>2054.96</ele>
        <time>2021-06-28T10:00:55Z</time>
      </trkpt>
      <trkpt lat="45.40799" lon="6.21343">
        <ele>2051.59</ele>
        <time>2021-06-28T10:00:56Z</time>
      </trkpt>
      <trkpt lat="45.40798" lon="6.21343">
        <ele>2054.96</ele>
        <time>2021-06-28T10:00:58Z</time>
      </trkpt>
      <trkpt lat="45.40797" lon="6.21342">
        <ele>2051.59</ele>
        <time>2021-06-28T10:00:59Z</time>
      </trkpt>
      <trkpt lat="45.40797" lon="6.21343">
        <ele>2055.92</ele>
        <time>2021-06-28T10:01:03Z</time>
      </trkpt>
      <trkpt lat="45.40796" lon="6.21343">
        <ele>2052.07</ele>
        <time>2021-06-28T10:01:05Z</time>
      </trkpt>
      <trkpt lat="45.40795" lon="6.21343">
        <ele>2056.4</ele>
        <time>2021-06-28T10:01:06Z</time>
      </trkpt>
      <trkpt lat="45.40794" lon="6.21342">
        <ele>2053.03</ele>
        <time>2021-06-28T10:01:07Z</time>
      </trkpt>
      <trkpt lat="45.40793" lon="6.21342">
        <ele>2055.92</ele>
        <time>2021-06-28T10:01:11Z</time>
      </trkpt>
      <trkpt lat="45.40793" lon="6.21342">
        <ele>2052.07</ele>
        <time>2021-06-28T10:01:12Z</time>
      </trkpt>
      <trkpt lat="45.40792" lon="6.21342">
        <ele>2057.84</ele>
        <time>2021-06-28T10:01:13Z</time>
      </trkpt>
      <trkpt lat="45.40791" lon="6.21342">
        <ele>2053.03</ele>
        <time>2021-06-28T10:01:14Z</time>
      </trkpt>
      <trkpt lat="45.40791" lon="6.21342">
        <ele>2056.88</ele>
        <time>2021-06-28T10:01:15Z</time>
      </trkpt>
      <trkpt lat="45.40791" lon="6.21342">
        <ele>2051.59</ele>
        <time>2021-06-28T10:01:16Z</time>
      </trkpt>
      <trkpt lat="45.40791" lon="6.21342">
        <ele>2057.36</ele>
        <time>2021-06-28T10:01:17Z</time>
      </trkpt>
      <trkpt lat="45.40791" lon="6.21342">
        <ele>2053.03</ele>
        <time>2021-06-28T10:01:18Z</time>
      </trkpt>
      <trkpt lat="45.4079" lon="6.21342">
        <ele>2056.88</ele>
        <time>2021-06-28T10:01:19Z</time>
      </trkpt>
      <trkpt lat="45.4079" lon="6.21342">
        <ele>2053.51</ele>
        <time>2021-06-28T10:01:20Z</time>
      </trkpt>
      <trkpt lat="45.4079" lon="6.21342">
        <ele>2056.4</ele>
        <time>2021-06-28T10:01:21Z</time>
      </trkpt>
      <trkpt lat="45.40787" lon="6.21341">
        <ele>2053.03</ele>
        <time>2021-06-28T10:01:27Z</time>
      </trkpt>
      <trkpt lat="45.40787" lon="6.21341">
        <ele>2059.28</ele>
        <time>2021-06-28T10:01:28Z</time>
      </trkpt>
      <trkpt lat="45.40786" lon="6.21341">
        <ele>2055.44</ele>
        <time>2021-06-28T10:01:29Z</time>
      </trkpt>
      <trkpt lat="45.40786" lon="6.21341">
        <ele>2059.28</ele>
        <time>2021-06-28T10:01:31Z</time>
      </trkpt>
      <trkpt lat="45.40786" lon="6.21341">
        <ele>2055.92</ele>
        <time>2021-06-28T10:01:32Z</time>
      </trkpt>
      <trkpt lat="45.40785" lon="6.21341">
        <ele>2060.24</ele>
        <time>2021-06-28T10:01:34Z</time>
      </trkpt>
      <trkpt lat="45.40784" lon="6.21341">
        <ele>2055.44</ele>
        <time>2021-06-28T10:01:35Z</time>
      </trkpt>
      <trkpt lat="45.40784" lon="6.2134">
        <ele>2059.28</ele>
        <time>2021-06-28T10:01:36Z</time>
      </trkpt>
      <trkpt lat="45.40784" lon="6.21339">
        <ele>2055.44</ele>
        <time>2021-06-28T10:01:40Z</time>
      </trkpt>
      <trkpt lat="45.40785" lon="6.21338">
        <ele>2059.28</ele>
        <time>2021-06-28T10:01:41Z</time>
      </trkpt>
      <trkpt lat="45.40785" lon="6.21338">
        <ele>2055.44</ele>
        <time>2021-06-28T10:01:43Z</time>
      </trkpt>
      <trkpt lat="45.40785" lon="6.21338">
        <ele>2059.76</ele>
        <time>2021-06-28T10:01:44Z</time>
      </trkpt>
      <trkpt lat="45.40785" lon="6.21337">
        <ele>2056.4</ele>
        <time>2021-06-28T10:01:45Z</time>
      </trkpt>
      <trkpt lat="45.40784" lon="6.21334">
        <ele>2060.24</ele>
        <time>2021-06-28T10:01:49Z</time>
      </trkpt>
      <trkpt lat="45.40784" lon="6.21334">
        <ele>2054.96</ele>
        <time>2021-06-28T10:01:52Z</time>
      </trkpt>
      <trkpt lat="45.40784" lon="6.21333">
        <ele>2062.17</ele>
        <time>2021-06-28T10:01:53Z</time>
      </trkpt>
      <trkpt lat="45.40784" lon="6.21333">
        <ele>2056.88</ele>
        <time>2021-06-28T10:01:54Z</time>
      </trkpt>
      <trkpt lat="45.40784" lon="6.21333">
        <ele>2060.24</ele>
        <time>2021-06-28T10:01:55Z</time>
      </trkpt>
      <trkpt lat="45.40783" lon="6.21332">
        <ele>2055.92</ele>
        <time>2021-06-28T10:01:57Z</time>
      </trkpt>
      <trkpt lat="45.40783" lon="6.21333">
        <ele>2059.28</ele>
        <time>2021-06-28T10:01:58Z</time>
      </trkpt>
      <trkpt lat="45.40779" lon="6.21332">
        <ele>2063.13</ele>
        <time>2021-06-28T10:02:08Z</time>
      </trkpt>
      <trkpt lat="45.40779" lon="6.21332">
        <ele>2058.8</ele>
        <time>2021-06-28T10:02:09Z</time>
      </trkpt>
      <trkpt lat="45.40779" lon="6.21332">
        <ele>2063.13</ele>
        <time>2021-06-28T10:02:11Z</time>
      </trkpt>
      <trkpt lat="45.40778" lon="6.21332">
        <ele>2063.13</ele>
        <time>2021-06-28T10:02:12Z</time>
      </trkpt>
      <trkpt lat="45.40778" lon="6.21332">
        <ele>2059.76</ele>
        <time>2021-06-28T10:02:13Z</time>
      </trkpt>
      <trkpt lat="45.40777" lon="6.21332">
        <ele>2061.68</ele>
        <time>2021-06-28T10:02:14Z</time>
      </trkpt>
      <trkpt lat="45.40774" lon="6.21332">
        <ele>2057.84</ele>
        <time>2021-06-28T10:02:21Z</time>
      </trkpt>
      <trkpt lat="45.40774" lon="6.21332">
        <ele>2061.68</ele>
        <time>2021-06-28T10:02:22Z</time>
      </trkpt>
      <trkpt lat="45.40769" lon="6.21337">
        <ele>2059.28</ele>
        <time>2021-06-28T10:02:37Z</time>
      </trkpt>
      <trkpt lat="45.40769" lon="6.21337">
        <ele>2063.13</ele>
        <time>2021-06-28T10:02:40Z</time>
      </trkpt>
      <trkpt lat="45.40768" lon="6.21336">
        <ele>2059.28</ele>
        <time>2021-06-28T10:02:41Z</time>
      </trkpt>
      <trkpt lat="45.40766" lon="6.21336">
        <ele>2055.92</ele>
        <time>2021-06-28T10:02:48Z</time>
      </trkpt>
      <trkpt lat="45.40766" lon="6.21337">
        <ele>2061.68</ele>
        <time>2021-06-28T10:02:49Z</time>
      </trkpt>
      <trkpt lat="45.40766" lon="6.21337">
        <ele>2061.68</ele>
        <time>2021-06-28T10:02:50Z</time>
      </trkpt>
      <trkpt lat="45.40765" lon="6.21337">
        <ele>2057.36</ele>
        <time>2021-06-28T10:02:54Z</time>
      </trkpt>
      <trkpt lat="45.40765" lon="6.21337">
        <ele>2063.13</ele>
        <time>2021-06-28T10:02:55Z</time>
      </trkpt>
      <trkpt lat="45.40765" lon="6.21337">
        <ele>2059.76</ele>
        <time>2021-06-28T10:02:57Z</time>
      </trkpt>
      <trkpt lat="45.40765" lon="6.21337">
        <ele>2059.76</ele>
        <time>2021-06-28T10:02:58Z</time>
      </trkpt>
      <trkpt lat="45.4076" lon="6.2134">
        <ele>2060.24</ele>
        <time>2021-06-28T10:03:09Z</time>
      </trkpt>
      <trkpt lat="45.40757" lon="6.2134">
        <ele>2058.8</ele>
        <time>2021-06-28T10:03:18Z</time>
      </trkpt>
      <trkpt lat="45.40756" lon="6.21339">
        <ele>2063.13</ele>
        <time>2021-06-28T10:03:20Z</time>
      </trkpt>
      <trkpt lat="45.40756" lon="6.21339">
        <ele>2057.84</ele>
        <time>2021-06-28T10:03:21Z</time>
      </trkpt>
      <trkpt lat="45.40755" lon="6.21339">
        <ele>2062.17</ele>
        <time>2021-06-28T10:03:22Z</time>
      </trkpt>
      <trkpt lat="45.40753" lon="6.21338">
        <ele>2058.8</ele>
        <time>2021-06-28T10:03:25Z</time>
      </trkpt>
      <trkpt lat="45.40749" lon="6.21337">
        <ele>2058.32</ele>
        <time>2021-06-28T10:03:30Z</time>
      </trkpt>
      <trkpt lat="45.40749" lon="6.21337">
        <ele>2061.68</ele>
        <time>2021-06-28T10:03:31Z</time>
      </trkpt>
      <trkpt lat="45.40748" lon="6.21337">
        <ele>2061.68</ele>
        <time>2021-06-28T10:03:32Z</time>
      </trkpt>
      <trkpt lat="45.40742" lon="6.21336">
        <ele>2058.8</ele>
        <time>2021-06-28T10:03:44Z</time>
      </trkpt>
      <trkpt lat="45.40741" lon="6.21336">
        <ele>2065.53</ele>
        <time>2021-06-28T10:03:45Z</time>
      </trkpt>
      <trkpt lat="45.40741" lon="6.21336">
        <ele>2061.68</ele>
        <time>2021-06-28T10:03:46Z</time>
      </trkpt>
      <trkpt lat="45.40736" lon="6.21335">
        <ele>2058.32</ele>
        <time>2021-06-28T10:03:59Z</time>
      </trkpt>
      <trkpt lat="45.40735" lon="6.21334">
        <ele>2063.61</ele>
        <time>2021-06-28T10:04:00Z</time>
      </trkpt>
      <trkpt lat="45.40735" lon="6.21333">
        <ele>2059.28</ele>
        <time>2021-06-28T10:04:01Z</time>
      </trkpt>
      <trkpt lat="45.40736" lon="6.21333">
        <ele>2062.17</ele>
        <time>2021-06-28T10:04:03Z</time>
      </trkpt>
      <trkpt lat="45.40735" lon="6.21333">
        <ele>2061.68</ele>
        <time>2021-06-28T10:04:04Z</time>
      </trkpt>
      <trkpt lat="45.40728" lon="6.21331">
        <ele>2060.24</ele>
        <time>2021-06-28T10:04:19Z</time>
      </trkpt>
      <trkpt lat="45.40727" lon="6.2133">
        <ele>2063.13</ele>
        <time>2021-06-28T10:04:22Z</time>
      </trkpt>
      <trkpt lat="45.40726" lon="6.21325">
        <ele>2062.65</ele>
        <time>2021-06-28T10:04:34Z</time>
      </trkpt>
      <trkpt lat="45.40724" lon="6.21323">
        <ele>2066.01</ele>
        <time>2021-06-28T10:04:43Z</time>
      </trkpt>
      <trkpt lat="45.40715" lon="6.21322">
        <ele>2066.97</ele>
        <time>2021-06-28T10:04:57Z</time>
      </trkpt>
      <trkpt lat="45.40712" lon="6.21322">
        <ele>2065.53</ele>
        <time>2021-06-28T10:05:10Z</time>
      </trkpt>
      <trkpt lat="45.40712" lon="6.21322">
        <ele>2068.89</ele>
        <time>2021-06-28T10:05:11Z</time>
      </trkpt>
      <trkpt lat="45.40709" lon="6.21326">
        <ele>2064.09</ele>
        <time>2021-06-28T10:05:19Z</time>
      </trkpt>
      <trkpt lat="45.40708" lon="6.21324">
        <ele>2067.45</ele>
        <time>2021-06-28T10:05:20Z</time>
      </trkpt>
      <trkpt lat="45.40705" lon="6.21322">
        <ele>2067.45</ele>
        <time>2021-06-28T10:05:33Z</time>
      </trkpt>
      <trkpt lat="45.40704" lon="6.21322">
        <ele>2070.34</ele>
        <time>2021-06-28T10:05:38Z</time>
      </trkpt>
      <trkpt lat="45.40704" lon="6.21322">
        <ele>2066.97</ele>
        <time>2021-06-28T10:05:39Z</time>
      </trkpt>
      <trkpt lat="45.40703" lon="6.21323">
        <ele>2070.34</ele>
        <time>2021-06-28T10:05:42Z</time>
      </trkpt>
      <trkpt lat="45.407" lon="6.2132">
        <ele>2071.3</ele>
        <time>2021-06-28T10:05:54Z</time>
      </trkpt>
      <trkpt lat="45.40699" lon="6.2132">
        <ele>2067.45</ele>
        <time>2021-06-28T10:05:55Z</time>
      </trkpt>
      <trkpt lat="45.40699" lon="6.21321">
        <ele>2071.78</ele>
        <time>2021-06-28T10:05:57Z</time>
      </trkpt>
      <trkpt lat="45.407" lon="6.21322">
        <ele>2067.93</ele>
        <time>2021-06-28T10:06:02Z</time>
      </trkpt>
      <trkpt lat="45.407" lon="6.21322">
        <ele>2073.22</ele>
        <time>2021-06-28T10:06:03Z</time>
      </trkpt>
      <trkpt lat="45.407" lon="6.21321">
        <ele>2069.38</ele>
        <time>2021-06-28T10:06:04Z</time>
      </trkpt>
      <trkpt lat="45.407" lon="6.21319">
        <ele>2072.26</ele>
        <time>2021-06-28T10:06:06Z</time>
      </trkpt>
      <trkpt lat="45.40698" lon="6.2132">
        <ele>2073.7</ele>
        <time>2021-06-28T10:06:20Z</time>
      </trkpt>
      <trkpt lat="45.40701" lon="6.21319">
        <ele>2068.89</ele>
        <time>2021-06-28T10:06:31Z</time>
      </trkpt>
      <trkpt lat="45.40701" lon="6.21318">
        <ele>2076.1</ele>
        <time>2021-06-28T10:06:32Z</time>
      </trkpt>
      <trkpt lat="45.40702" lon="6.21318">
        <ele>2072.26</ele>
        <time>2021-06-28T10:06:33Z</time>
      </trkpt>
      <trkpt lat="45.40704" lon="6.21315">
        <ele>2076.1</ele>
        <time>2021-06-28T10:06:41Z</time>
      </trkpt>
      <trkpt lat="45.40704" lon="6.21315">
        <ele>2071.78</ele>
        <time>2021-06-28T10:06:43Z</time>
      </trkpt>
      <trkpt lat="45.40704" lon="6.21315">
        <ele>2075.62</ele>
        <time>2021-06-28T10:06:44Z</time>
      </trkpt>
      <trkpt lat="45.40704" lon="6.21314">
        <ele>2071.78</ele>
        <time>2021-06-28T10:06:45Z</time>
      </trkpt>
      <trkpt lat="45.40704" lon="6.21314">
        <ele>2075.62</ele>
        <time>2021-06-28T10:06:46Z</time>
      </trkpt>
      <trkpt lat="45.40704" lon="6.21313">
        <ele>2071.3</ele>
        <time>2021-06-28T10:06:48Z</time>
      </trkpt>
      <trkpt lat="45.40703" lon="6.21314">
        <ele>2075.14</ele>
        <time>2021-06-28T10:06:50Z</time>
      </trkpt>
      <trkpt lat="45.40697" lon="6.21314">
        <ele>2072.26</ele>
        <time>2021-06-28T10:07:06Z</time>
      </trkpt>
      <trkpt lat="45.40697" lon="6.21314">
        <ele>2078.03</ele>
        <time>2021-06-28T10:07:07Z</time>
      </trkpt>
      <trkpt lat="45.40696" lon="6.21313">
        <ele>2074.66</ele>
        <time>2021-06-28T10:07:08Z</time>
      </trkpt>
      <trkpt lat="45.40695" lon="6.21313">
        <ele>2078.03</ele>
        <time>2021-06-28T10:07:12Z</time>
      </trkpt>
      <trkpt lat="45.40695" lon="6.21313">
        <ele>2074.66</ele>
        <time>2021-06-28T10:07:13Z</time>
      </trkpt>
      <trkpt lat="45.40694" lon="6.21312">
        <ele>2078.51</ele>
        <time>2021-06-28T10:07:15Z</time>
      </trkpt>
      <trkpt lat="45.4069" lon="6.2131">
        <ele>2074.66</ele>
        <time>2021-06-28T10:07:28Z</time>
      </trkpt>
      <trkpt lat="45.40691" lon="6.2131">
        <ele>2078.51</ele>
        <time>2021-06-28T10:07:29Z</time>
      </trkpt>
      <trkpt lat="45.40693" lon="6.21309">
        <ele>2078.99</ele>
        <time>2021-06-28T10:07:31Z</time>
      </trkpt>
      <trkpt lat="45.40687" lon="6.21308">
        <ele>2079.47</ele>
        <time>2021-06-28T10:07:44Z</time>
      </trkpt>
      <trkpt lat="45.40682" lon="6.21304">
        <ele>2083.31</ele>
        <time>2021-06-28T10:07:58Z</time>
      </trkpt>
      <trkpt lat="45.40682" lon="6.21303">
        <ele>2078.99</ele>
        <time>2021-06-28T10:07:59Z</time>
      </trkpt>
      <trkpt lat="45.40682" lon="6.21303">
        <ele>2082.35</ele>
        <time>2021-06-28T10:08:00Z</time>
      </trkpt>
      <trkpt lat="45.40681" lon="6.21303">
        <ele>2078.51</ele>
        <time>2021-06-28T10:08:02Z</time>
      </trkpt>
      <trkpt lat="45.4068" lon="6.21302">
        <ele>2082.83</ele>
        <time>2021-06-28T10:08:04Z</time>
      </trkpt>
      <trkpt lat="45.4068" lon="6.21302">
        <ele>2079.47</ele>
        <time>2021-06-28T10:08:06Z</time>
      </trkpt>
      <trkpt lat="45.40679" lon="6.21301">
        <ele>2083.31</ele>
        <time>2021-06-28T10:08:08Z</time>
      </trkpt>
      <trkpt lat="45.40679" lon="6.21301">
        <ele>2082.35</ele>
        <time>2021-06-28T10:08:09Z</time>
      </trkpt>
      <trkpt lat="45.40678" lon="6.21301">
        <ele>2082.83</ele>
        <time>2021-06-28T10:08:13Z</time>
      </trkpt>
      <trkpt lat="45.40673" lon="6.213">
        <ele>2084.76</ele>
        <time>2021-06-28T10:08:29Z</time>
      </trkpt>
      <trkpt lat="45.40666" lon="6.21297">
        <ele>2085.24</ele>
        <time>2021-06-28T10:08:45Z</time>
      </trkpt>
      <trkpt lat="45.40663" lon="6.21293">
        <ele>2088.6</ele>
        <time>2021-06-28T10:08:59Z</time>
      </trkpt>
      <trkpt lat="45.40663" lon="6.21293">
        <ele>2084.76</ele>
        <time>2021-06-28T10:09:00Z</time>
      </trkpt>
      <trkpt lat="45.40664" lon="6.21295">
        <ele>2088.12</ele>
        <time>2021-06-28T10:09:07Z</time>
      </trkpt>
      <trkpt lat="45.40665" lon="6.21295">
        <ele>2084.28</ele>
        <time>2021-06-28T10:09:13Z</time>
      </trkpt>
      <trkpt lat="45.40665" lon="6.21295">
        <ele>2090.52</ele>
        <time>2021-06-28T10:09:14Z</time>
      </trkpt>
      <trkpt lat="45.40665" lon="6.21294">
        <ele>2084.28</ele>
        <time>2021-06-28T10:09:15Z</time>
      </trkpt>
      <trkpt lat="45.40665" lon="6.21294">
        <ele>2089.08</ele>
        <time>2021-06-28T10:09:16Z</time>
      </trkpt>
      <trkpt lat="45.40666" lon="6.21294">
        <ele>2088.12</ele>
        <time>2021-06-28T10:09:19Z</time>
      </trkpt>
      <trkpt lat="45.40666" lon="6.21293">
        <ele>2086.2</ele>
        <time>2021-06-28T10:09:20Z</time>
      </trkpt>
      <trkpt lat="45.40665" lon="6.21292">
        <ele>2089.56</ele>
        <time>2021-06-28T10:09:26Z</time>
      </trkpt>
      <trkpt lat="45.40664" lon="6.21292">
        <ele>2086.2</ele>
        <time>2021-06-28T10:09:27Z</time>
      </trkpt>
      <trkpt lat="45.40663" lon="6.21292">
        <ele>2090.04</ele>
        <time>2021-06-28T10:09:28Z</time>
      </trkpt>
      <trkpt lat="45.40655" lon="6.21289">
        <ele>2086.68</ele>
        <time>2021-06-28T10:09:42Z</time>
      </trkpt>
      <trkpt lat="45.40654" lon="6.21287">
        <ele>2091</ele>
        <time>2021-06-28T10:09:44Z</time>
      </trkpt>
      <trkpt lat="45.40653" lon="6.21285">
        <ele>2087.16</ele>
        <time>2021-06-28T10:09:49Z</time>
      </trkpt>
      <trkpt lat="45.40653" lon="6.21285">
        <ele>2092.45</ele>
        <time>2021-06-28T10:09:50Z</time>
      </trkpt>
      <trkpt lat="45.40652" lon="6.21285">
        <ele>2089.08</ele>
        <time>2021-06-28T10:09:53Z</time>
      </trkpt>
      <trkpt lat="45.40651" lon="6.21283">
        <ele>2092.93</ele>
        <time>2021-06-28T10:09:57Z</time>
      </trkpt>
      <trkpt lat="45.40651" lon="6.21283">
        <ele>2089.08</ele>
        <time>2021-06-28T10:09:58Z</time>
      </trkpt>
      <trkpt lat="45.40642" lon="6.21283">
        <ele>2092.45</ele>
        <time>2021-06-28T10:10:10Z</time>
      </trkpt>
      <trkpt lat="45.40641" lon="6.21283">
        <ele>2089.08</ele>
        <time>2021-06-28T10:10:11Z</time>
      </trkpt>
      <trkpt lat="45.40641" lon="6.21282">
        <ele>2093.41</ele>
        <time>2021-06-28T10:10:15Z</time>
      </trkpt>
      <trkpt lat="45.40639" lon="6.21278">
        <ele>2089.56</ele>
        <time>2021-06-28T10:10:22Z</time>
      </trkpt>
      <trkpt lat="45.40639" lon="6.21278">
        <ele>2092.93</ele>
        <time>2021-06-28T10:10:23Z</time>
      </trkpt>
      <trkpt lat="45.40633" lon="6.21279">
        <ele>2093.89</ele>
        <time>2021-06-28T10:10:34Z</time>
      </trkpt>
      <trkpt lat="45.40633" lon="6.2128">
        <ele>2091</ele>
        <time>2021-06-28T10:10:35Z</time>
      </trkpt>
      <trkpt lat="45.40634" lon="6.21282">
        <ele>2094.37</ele>
        <time>2021-06-28T10:10:37Z</time>
      </trkpt>
      <trkpt lat="45.40639" lon="6.21285">
        <ele>2092.93</ele>
        <time>2021-06-28T10:10:48Z</time>
      </trkpt>
      <trkpt lat="45.40641" lon="6.21284">
        <ele>2097.25</ele>
        <time>2021-06-28T10:10:55Z</time>
      </trkpt>
      <trkpt lat="45.40644" lon="6.21281">
        <ele>2096.29</ele>
        <time>2021-06-28T10:11:09Z</time>
      </trkpt>
      <trkpt lat="45.40648" lon="6.21277">
        <ele>2098.7</ele>
        <time>2021-06-28T10:11:20Z</time>
      </trkpt>
      <trkpt lat="45.40648" lon="6.21276">
        <ele>2099.66</ele>
        <time>2021-06-28T10:11:22Z</time>
      </trkpt>
      <trkpt lat="45.40651" lon="6.21271">
        <ele>2099.66</ele>
        <time>2021-06-28T10:11:35Z</time>
      </trkpt>
      <trkpt lat="45.40652" lon="6.21269">
        <ele>2103.02</ele>
        <time>2021-06-28T10:11:44Z</time>
      </trkpt>
      <trkpt lat="45.40651" lon="6.21261">
        <ele>2103.98</ele>
        <time>2021-06-28T10:11:55Z</time>
      </trkpt>
      <trkpt lat="45.40651" lon="6.21257">
        <ele>2103.02</ele>
        <time>2021-06-28T10:12:04Z</time>
      </trkpt>
      <trkpt lat="45.40649" lon="6.21254">
        <ele>2102.06</ele>
        <time>2021-06-28T10:12:10Z</time>
      </trkpt>
      <trkpt lat="45.40649" lon="6.21254">
        <ele>2109.75</ele>
        <time>2021-06-28T10:12:11Z</time>
      </trkpt>
      <trkpt lat="45.40648" lon="6.21254">
        <ele>2104.94</ele>
        <time>2021-06-28T10:12:12Z</time>
      </trkpt>
      <trkpt lat="45.40647" lon="6.21254">
        <ele>2107.83</ele>
        <time>2021-06-28T10:12:13Z</time>
      </trkpt>
      <trkpt lat="45.40647" lon="6.21255">
        <ele>2104.46</ele>
        <time>2021-06-28T10:12:14Z</time>
      </trkpt>
      <trkpt lat="45.40647" lon="6.21254">
        <ele>2108.31</ele>
        <time>2021-06-28T10:12:15Z</time>
      </trkpt>
      <trkpt lat="45.4064" lon="6.21254">
        <ele>2106.87</ele>
        <time>2021-06-28T10:12:28Z</time>
      </trkpt>
      <trkpt lat="45.40639" lon="6.21256">
        <ele>2109.75</ele>
        <time>2021-06-28T10:12:30Z</time>
      </trkpt>
      <trkpt lat="45.40634" lon="6.21251">
        <ele>2112.63</ele>
        <time>2021-06-28T10:12:48Z</time>
      </trkpt>
      <trkpt lat="45.40634" lon="6.21251">
        <ele>2109.27</ele>
        <time>2021-06-28T10:12:49Z</time>
      </trkpt>
      <trkpt lat="45.40634" lon="6.2125">
        <ele>2112.63</ele>
        <time>2021-06-28T10:12:50Z</time>
      </trkpt>
      <trkpt lat="45.40626" lon="6.21249">
        <ele>2114.08</ele>
        <time>2021-06-28T10:13:03Z</time>
      </trkpt>
      <trkpt lat="45.40621" lon="6.21245">
        <ele>2115.52</ele>
        <time>2021-06-28T10:13:15Z</time>
      </trkpt>
      <trkpt lat="45.40621" lon="6.21244">
        <ele>2112.63</ele>
        <time>2021-06-28T10:13:16Z</time>
      </trkpt>
      <trkpt lat="45.40621" lon="6.21244">
        <ele>2116</ele>
        <time>2021-06-28T10:13:17Z</time>
      </trkpt>
      <trkpt lat="45.4062" lon="6.21242">
        <ele>2113.12</ele>
        <time>2021-06-28T10:13:19Z</time>
      </trkpt>
      <trkpt lat="45.40619" lon="6.21242">
        <ele>2116</ele>
        <time>2021-06-28T10:13:20Z</time>
      </trkpt>
      <trkpt lat="45.40616" lon="6.21245">
        <ele>2114.08</ele>
        <time>2021-06-28T10:13:35Z</time>
      </trkpt>
      <trkpt lat="45.40616" lon="6.21245">
        <ele>2119.84</ele>
        <time>2021-06-28T10:13:36Z</time>
      </trkpt>
      <trkpt lat="45.40616" lon="6.21245">
        <ele>2115.52</ele>
        <time>2021-06-28T10:13:37Z</time>
      </trkpt>
      <trkpt lat="45.40616" lon="6.21245">
        <ele>2118.88</ele>
        <time>2021-06-28T10:13:38Z</time>
      </trkpt>
      <trkpt lat="45.40616" lon="6.21244">
        <ele>2115.52</ele>
        <time>2021-06-28T10:13:39Z</time>
      </trkpt>
      <trkpt lat="45.40616" lon="6.21244">
        <ele>2119.36</ele>
        <time>2021-06-28T10:13:41Z</time>
      </trkpt>
      <trkpt lat="45.40618" lon="6.21244">
        <ele>2117.92</ele>
        <time>2021-06-28T10:13:55Z</time>
      </trkpt>
      <trkpt lat="45.40618" lon="6.21244">
        <ele>2121.29</ele>
        <time>2021-06-28T10:13:56Z</time>
      </trkpt>
      <trkpt lat="45.40622" lon="6.21243">
        <ele>2121.77</ele>
        <time>2021-06-28T10:14:07Z</time>
      </trkpt>
      <trkpt lat="45.40621" lon="6.21238">
        <ele>2120.81</ele>
        <time>2021-06-28T10:14:14Z</time>
      </trkpt>
      <trkpt lat="45.40621" lon="6.21236">
        <ele>2123.69</ele>
        <time>2021-06-28T10:14:15Z</time>
      </trkpt>
      <trkpt lat="45.40618" lon="6.2123">
        <ele>2124.65</ele>
        <time>2021-06-28T10:14:24Z</time>
      </trkpt>
      <trkpt lat="45.40617" lon="6.21229">
        <ele>2121.77</ele>
        <time>2021-06-28T10:14:26Z</time>
      </trkpt>
      <trkpt lat="45.40617" lon="6.21228">
        <ele>2126.57</ele>
        <time>2021-06-28T10:14:27Z</time>
      </trkpt>
      <trkpt lat="45.40617" lon="6.21228">
        <ele>2122.25</ele>
        <time>2021-06-28T10:14:28Z</time>
      </trkpt>
      <trkpt lat="45.40616" lon="6.21228">
        <ele>2126.09</ele>
        <time>2021-06-28T10:14:29Z</time>
      </trkpt>
      <trkpt lat="45.40616" lon="6.21227">
        <ele>2122.25</ele>
        <time>2021-06-28T10:14:30Z</time>
      </trkpt>
      <trkpt lat="45.40616" lon="6.21226">
        <ele>2126.09</ele>
        <time>2021-06-28T10:14:31Z</time>
      </trkpt>
      <trkpt lat="45.40616" lon="6.21225">
        <ele>2121.29</ele>
        <time>2021-06-28T10:14:33Z</time>
      </trkpt>
      <trkpt lat="45.40615" lon="6.21225">
        <ele>2127.53</ele>
        <time>2021-06-28T10:14:34Z</time>
      </trkpt>
      <trkpt lat="45.40615" lon="6.21224">
        <ele>2123.21</ele>
        <time>2021-06-28T10:14:35Z</time>
      </trkpt>
      <trkpt lat="45.40614" lon="6.21225">
        <ele>2127.53</ele>
        <time>2021-06-28T10:14:39Z</time>
      </trkpt>
      <trkpt lat="45.40614" lon="6.21225">
        <ele>2124.17</ele>
        <time>2021-06-28T10:14:40Z</time>
      </trkpt>
      <trkpt lat="45.40614" lon="6.21227">
        <ele>2128.5</ele>
        <time>2021-06-28T10:14:44Z</time>
      </trkpt>
      <trkpt lat="45.40615" lon="6.21227">
        <ele>2125.13</ele>
        <time>2021-06-28T10:14:45Z</time>
      </trkpt>
      <trkpt lat="45.40614" lon="6.21227">
        <ele>2128.98</ele>
        <time>2021-06-28T10:14:50Z</time>
      </trkpt>
      <trkpt lat="45.40614" lon="6.21228">
        <ele>2125.61</ele>
        <time>2021-06-28T10:14:51Z</time>
      </trkpt>
      <trkpt lat="45.40613" lon="6.21228">
        <ele>2128.98</ele>
        <time>2021-06-28T10:14:52Z</time>
      </trkpt>
      <trkpt lat="45.40604" lon="6.21226">
        <ele>2126.09</ele>
        <time>2021-06-28T10:15:05Z</time>
      </trkpt>
      <trkpt lat="45.40604" lon="6.21225">
        <ele>2131.38</ele>
        <time>2021-06-28T10:15:06Z</time>
      </trkpt>
      <trkpt lat="45.40601" lon="6.21225">
        <ele>2128.02</ele>
        <time>2021-06-28T10:15:10Z</time>
      </trkpt>
      <trkpt lat="45.40598" lon="6.21223">
        <ele>2132.34</ele>
        <time>2021-06-28T10:15:17Z</time>
      </trkpt>
      <trkpt lat="45.40598" lon="6.21222">
        <ele>2129.46</ele>
        <time>2021-06-28T10:15:20Z</time>
      </trkpt>
      <trkpt lat="45.40598" lon="6.21221">
        <ele>2133.78</ele>
        <time>2021-06-28T10:15:21Z</time>
      </trkpt>
      <trkpt lat="45.40598" lon="6.21221">
        <ele>2128.98</ele>
        <time>2021-06-28T10:15:22Z</time>
      </trkpt>
      <trkpt lat="45.40597" lon="6.2122">
        <ele>2133.3</ele>
        <time>2021-06-28T10:15:23Z</time>
      </trkpt>
      <trkpt lat="45.40596" lon="6.21219">
        <ele>2129.46</ele>
        <time>2021-06-28T10:15:33Z</time>
      </trkpt>
      <trkpt lat="45.40595" lon="6.21219">
        <ele>2133.3</ele>
        <time>2021-06-28T10:15:34Z</time>
      </trkpt>
      <trkpt lat="45.40589" lon="6.21217">
        <ele>2137.15</ele>
        <time>2021-06-28T10:15:50Z</time>
      </trkpt>
      <trkpt lat="45.40589" lon="6.21217">
        <ele>2133.3</ele>
        <time>2021-06-28T10:15:51Z</time>
      </trkpt>
      <trkpt lat="45.40588" lon="6.21217">
        <ele>2137.15</ele>
        <time>2021-06-28T10:15:52Z</time>
      </trkpt>
      <trkpt lat="45.40584" lon="6.21217">
        <ele>2134.26</ele>
        <time>2021-06-28T10:16:00Z</time>
      </trkpt>
      <trkpt lat="45.40584" lon="6.21217">
        <ele>2138.11</ele>
        <time>2021-06-28T10:16:01Z</time>
      </trkpt>
      <trkpt lat="45.40586" lon="6.21215">
        <ele>2138.11</ele>
        <time>2021-06-28T10:16:14Z</time>
      </trkpt>
      <trkpt lat="45.40582" lon="6.21212">
        <ele>2140.03</ele>
        <time>2021-06-28T10:16:32Z</time>
      </trkpt>
      <trkpt lat="45.40584" lon="6.21209">
        <ele>2140.03</ele>
        <time>2021-06-28T10:16:49Z</time>
      </trkpt>
      <trkpt lat="45.40583" lon="6.21205">
        <ele>2139.55</ele>
        <time>2021-06-28T10:17:14Z</time>
      </trkpt>
      <trkpt lat="45.40586" lon="6.21207">
        <ele>2140.51</ele>
        <time>2021-06-28T10:17:51Z</time>
      </trkpt>
      <trkpt lat="45.40586" lon="6.21207">
        <ele>2140.03</ele>
        <time>2021-06-28T10:18:19Z</time>
      </trkpt>
      <trkpt lat="45.40584" lon="6.21206">
        <ele>2140.51</ele>
        <time>2021-06-28T10:18:54Z</time>
      </trkpt>
      <trkpt lat="45.40584" lon="6.21204">
        <ele>2140.51</ele>
        <time>2021-06-28T10:19:31Z</time>
      </trkpt>
      <trkpt lat="45.40583" lon="6.21205">
        <ele>2140.51</ele>
        <time>2021-06-28T10:20:12Z</time>
      </trkpt>
      <trkpt lat="45.4058" lon="6.21207">
        <ele>2143.4</ele>
        <time>2021-06-28T10:20:52Z</time>
      </trkpt>
      <trkpt lat="45.40579" lon="6.21209">
        <ele>2140.51</ele>
        <time>2021-06-28T10:20:57Z</time>
      </trkpt>
      <trkpt lat="45.40576" lon="6.21205">
        <ele>2139.55</ele>
        <time>2021-06-28T10:21:10Z</time>
      </trkpt>
      <trkpt lat="45.40576" lon="6.21198">
        <ele>2137.15</ele>
        <time>2021-06-28T10:21:18Z</time>
      </trkpt>
      <trkpt lat="45.40575" lon="6.21193">
        <ele>2135.23</ele>
        <time>2021-06-28T10:21:25Z</time>
      </trkpt>
      <trkpt lat="45.40574" lon="6.21192">
        <ele>2134.26</ele>
        <time>2021-06-28T10:21:28Z</time>
      </trkpt>
      <trkpt lat="45.40572" lon="6.21186">
        <ele>2130.9</ele>
        <time>2021-06-28T10:21:37Z</time>
      </trkpt>
      <trkpt lat="45.40571" lon="6.21178">
        <ele>2128.98</ele>
        <time>2021-06-28T10:21:51Z</time>
      </trkpt>
      <trkpt lat="45.40572" lon="6.21173">
        <ele>2127.05</ele>
        <time>2021-06-28T10:21:57Z</time>
      </trkpt>
      <trkpt lat="45.40574" lon="6.21163">
        <ele>2125.13</ele>
        <time>2021-06-28T10:22:09Z</time>
      </trkpt>
      <trkpt lat="45.40572" lon="6.21161">
        <ele>2122.25</ele>
        <time>2021-06-28T10:22:15Z</time>
      </trkpt>
      <trkpt lat="45.40575" lon="6.21151">
        <ele>2119.36</ele>
        <time>2021-06-28T10:22:27Z</time>
      </trkpt>
      <trkpt lat="45.40575" lon="6.2115">
        <ele>2119.36</ele>
        <time>2021-06-28T10:22:28Z</time>
      </trkpt>
      <trkpt lat="45.4057" lon="6.21143">
        <ele>2116.48</ele>
        <time>2021-06-28T10:22:41Z</time>
      </trkpt>
      <trkpt lat="45.40568" lon="6.21141">
        <ele>2115.04</ele>
        <time>2021-06-28T10:22:50Z</time>
      </trkpt>
      <trkpt lat="45.40562" lon="6.21146">
        <ele>2112.15</ele>
        <time>2021-06-28T10:23:01Z</time>
      </trkpt>
      <trkpt lat="45.40557" lon="6.21146">
        <ele>2111.67</ele>
        <time>2021-06-28T10:23:17Z</time>
      </trkpt>
      <trkpt lat="45.40559" lon="6.21143">
        <ele>2108.31</ele>
        <time>2021-06-28T10:23:23Z</time>
      </trkpt>
      <trkpt lat="45.40557" lon="6.21138">
        <ele>2107.83</ele>
        <time>2021-06-28T10:23:36Z</time>
      </trkpt>
      <trkpt lat="45.40554" lon="6.21132">
        <ele>2104.94</ele>
        <time>2021-06-28T10:23:47Z</time>
      </trkpt>
      <trkpt lat="45.40552" lon="6.21133">
        <ele>2103.5</ele>
        <time>2021-06-28T10:23:52Z</time>
      </trkpt>
      <trkpt lat="45.4055" lon="6.21136">
        <ele>2102.54</ele>
        <time>2021-06-28T10:23:56Z</time>
      </trkpt>
      <trkpt lat="45.40544" lon="6.21141">
        <ele>2100.62</ele>
        <time>2021-06-28T10:24:09Z</time>
      </trkpt>
      <trkpt lat="45.40545" lon="6.2114">
        <ele>2100.62</ele>
        <time>2021-06-28T10:24:11Z</time>
      </trkpt>
      <trkpt lat="45.40549" lon="6.21133">
        <ele>2100.62</ele>
        <time>2021-06-28T10:24:17Z</time>
      </trkpt>
      <trkpt lat="45.40545" lon="6.21121">
        <ele>2097.73</ele>
        <time>2021-06-28T10:24:32Z</time>
      </trkpt>
      <trkpt lat="45.40545" lon="6.21121">
        <ele>2096.77</ele>
        <time>2021-06-28T10:24:33Z</time>
      </trkpt>
      <trkpt lat="45.40542" lon="6.2111">
        <ele>2093.89</ele>
        <time>2021-06-28T10:24:46Z</time>
      </trkpt>
      <trkpt lat="45.40541" lon="6.21109">
        <ele>2092.93</ele>
        <time>2021-06-28T10:24:48Z</time>
      </trkpt>
      <trkpt lat="45.40538" lon="6.21106">
        <ele>2092.45</ele>
        <time>2021-06-28T10:24:55Z</time>
      </trkpt>
      <trkpt lat="45.40529" lon="6.211">
        <ele>2090.52</ele>
        <time>2021-06-28T10:25:07Z</time>
      </trkpt>
      <trkpt lat="45.40523" lon="6.21094">
        <ele>2089.08</ele>
        <time>2021-06-28T10:25:20Z</time>
      </trkpt>
      <trkpt lat="45.40524" lon="6.2109">
        <ele>2084.28</ele>
        <time>2021-06-28T10:25:26Z</time>
      </trkpt>
      <trkpt lat="45.40524" lon="6.2109">
        <ele>2088.12</ele>
        <time>2021-06-28T10:25:27Z</time>
      </trkpt>
      <trkpt lat="45.4052" lon="6.21086">
        <ele>2084.28</ele>
        <time>2021-06-28T10:25:33Z</time>
      </trkpt>
      <trkpt lat="45.40513" lon="6.21083">
        <ele>2080.43</ele>
        <time>2021-06-28T10:25:44Z</time>
      </trkpt>
      <trkpt lat="45.4051" lon="6.21085">
        <ele>2084.28</ele>
        <time>2021-06-28T10:25:53Z</time>
      </trkpt>
      <trkpt lat="45.4051" lon="6.21082">
        <ele>2081.39</ele>
        <time>2021-06-28T10:25:59Z</time>
      </trkpt>
      <trkpt lat="45.40509" lon="6.21079">
        <ele>2078.99</ele>
        <time>2021-06-28T10:26:04Z</time>
      </trkpt>
      <trkpt lat="45.40509" lon="6.21072">
        <ele>2076.59</ele>
        <time>2021-06-28T10:26:10Z</time>
      </trkpt>
      <trkpt lat="45.40503" lon="6.21061">
        <ele>2075.14</ele>
        <time>2021-06-28T10:26:24Z</time>
      </trkpt>
      <trkpt lat="45.40502" lon="6.21059">
        <ele>2075.14</ele>
        <time>2021-06-28T10:26:28Z</time>
      </trkpt>
      <trkpt lat="45.40499" lon="6.21044">
        <ele>2071.78</ele>
        <time>2021-06-28T10:26:43Z</time>
      </trkpt>
      <trkpt lat="45.40498" lon="6.21038">
        <ele>2068.89</ele>
        <time>2021-06-28T10:26:50Z</time>
      </trkpt>
      <trkpt lat="45.40499" lon="6.2103">
        <ele>2068.89</ele>
        <time>2021-06-28T10:26:57Z</time>
      </trkpt>
      <trkpt lat="45.40498" lon="6.21022">
        <ele>2066.49</ele>
        <time>2021-06-28T10:27:03Z</time>
      </trkpt>
      <trkpt lat="45.40499" lon="6.21012">
        <ele>2068.89</ele>
        <time>2021-06-28T10:27:15Z</time>
      </trkpt>
      <trkpt lat="45.40498" lon="6.21011">
        <ele>2069.86</ele>
        <time>2021-06-28T10:27:16Z</time>
      </trkpt>
      <trkpt lat="45.4049" lon="6.20996">
        <ele>2069.38</ele>
        <time>2021-06-28T10:27:28Z</time>
      </trkpt>
      <trkpt lat="45.40489" lon="6.20992">
        <ele>2070.82</ele>
        <time>2021-06-28T10:27:35Z</time>
      </trkpt>
      <trkpt lat="45.40485" lon="6.20982">
        <ele>2070.34</ele>
        <time>2021-06-28T10:27:49Z</time>
      </trkpt>
      <trkpt lat="45.40485" lon="6.20976">
        <ele>2069.86</ele>
        <time>2021-06-28T10:27:54Z</time>
      </trkpt>
      <trkpt lat="45.40477" lon="6.20961">
        <ele>2067.45</ele>
        <time>2021-06-28T10:28:10Z</time>
      </trkpt>
      <trkpt lat="45.40474" lon="6.20952">
        <ele>2064.57</ele>
        <time>2021-06-28T10:28:23Z</time>
      </trkpt>
      <trkpt lat="45.40474" lon="6.2095">
        <ele>2063.13</ele>
        <time>2021-06-28T10:28:28Z</time>
      </trkpt>
      <trkpt lat="45.40468" lon="6.20945">
        <ele>2061.68</ele>
        <time>2021-06-28T10:28:42Z</time>
      </trkpt>
      <trkpt lat="45.40466" lon="6.20938">
        <ele>2057.36</ele>
        <time>2021-06-28T10:28:55Z</time>
      </trkpt>
      <trkpt lat="45.40466" lon="6.20937">
        <ele>2060.72</ele>
        <time>2021-06-28T10:28:56Z</time>
      </trkpt>
      <trkpt lat="45.40465" lon="6.20936">
        <ele>2057.36</ele>
        <time>2021-06-28T10:28:57Z</time>
      </trkpt>
      <trkpt lat="45.40465" lon="6.20929">
        <ele>2056.88</ele>
        <time>2021-06-28T10:29:09Z</time>
      </trkpt>
      <trkpt lat="45.40463" lon="6.20927">
        <ele>2053.03</ele>
        <time>2021-06-28T10:29:14Z</time>
      </trkpt>
      <trkpt lat="45.40463" lon="6.20921">
        <ele>2053.03</ele>
        <time>2021-06-28T10:29:25Z</time>
      </trkpt>
      <trkpt lat="45.40463" lon="6.20914">
        <ele>2052.07</ele>
        <time>2021-06-28T10:29:30Z</time>
      </trkpt>
      <trkpt lat="45.40463" lon="6.20911">
        <ele>2052.07</ele>
        <time>2021-06-28T10:29:33Z</time>
      </trkpt>
      <trkpt lat="45.40462" lon="6.20898">
        <ele>2051.59</ele>
        <time>2021-06-28T10:29:45Z</time>
      </trkpt>
      <trkpt lat="45.40463" lon="6.20895">
        <ele>2054.96</ele>
        <time>2021-06-28T10:29:51Z</time>
      </trkpt>
      <trkpt lat="45.40463" lon="6.20888">
        <ele>2057.36</ele>
        <time>2021-06-28T10:30:03Z</time>
      </trkpt>
      <trkpt lat="45.40463" lon="6.20887">
        <ele>2053.99</ele>
        <time>2021-06-28T10:30:05Z</time>
      </trkpt>
      <trkpt lat="45.40463" lon="6.20886">
        <ele>2057.36</ele>
        <time>2021-06-28T10:30:06Z</time>
      </trkpt>
      <trkpt lat="45.40461" lon="6.20876">
        <ele>2055.92</ele>
        <time>2021-06-28T10:30:17Z</time>
      </trkpt>
      <trkpt lat="45.40458" lon="6.2086">
        <ele>2055.44</ele>
        <time>2021-06-28T10:30:32Z</time>
      </trkpt>
      <trkpt lat="45.40458" lon="6.2086">
        <ele>2059.76</ele>
        <time>2021-06-28T10:30:36Z</time>
      </trkpt>
      <trkpt lat="45.40458" lon="6.20859">
        <ele>2055.44</ele>
        <time>2021-06-28T10:30:37Z</time>
      </trkpt>
      <trkpt lat="45.40457" lon="6.20858">
        <ele>2058.8</ele>
        <time>2021-06-28T10:30:38Z</time>
      </trkpt>
      <trkpt lat="45.40454" lon="6.20851">
        <ele>2055.44</ele>
        <time>2021-06-28T10:30:43Z</time>
      </trkpt>
      <trkpt lat="45.40451" lon="6.20844">
        <ele>2057.84</ele>
        <time>2021-06-28T10:30:52Z</time>
      </trkpt>
      <trkpt lat="45.40451" lon="6.20841">
        <ele>2054.47</ele>
        <time>2021-06-28T10:30:56Z</time>
      </trkpt>
      <trkpt lat="45.40451" lon="6.20841">
        <ele>2060.24</ele>
        <time>2021-06-28T10:30:57Z</time>
      </trkpt>
      <trkpt lat="45.40451" lon="6.2084">
        <ele>2057.36</ele>
        <time>2021-06-28T10:30:58Z</time>
      </trkpt>
      <trkpt lat="45.40452" lon="6.20837">
        <ele>2058.32</ele>
        <time>2021-06-28T10:31:05Z</time>
      </trkpt>
      <trkpt lat="45.40452" lon="6.2083">
        <ele>2059.76</ele>
        <time>2021-06-28T10:31:17Z</time>
      </trkpt>
      <trkpt lat="45.40453" lon="6.20827">
        <ele>2065.05</ele>
        <time>2021-06-28T10:31:23Z</time>
      </trkpt>
      <trkpt lat="45.40454" lon="6.20826">
        <ele>2059.76</ele>
        <time>2021-06-28T10:31:26Z</time>
      </trkpt>
      <trkpt lat="45.40454" lon="6.20827">
        <ele>2065.05</ele>
        <time>2021-06-28T10:31:27Z</time>
      </trkpt>
      <trkpt lat="45.40454" lon="6.20826">
        <ele>2061.68</ele>
        <time>2021-06-28T10:31:28Z</time>
      </trkpt>
      <trkpt lat="45.40452" lon="6.20824">
        <ele>2064.57</ele>
        <time>2021-06-28T10:31:31Z</time>
      </trkpt>
      <trkpt lat="45.4045" lon="6.20821">
        <ele>2063.13</ele>
        <time>2021-06-28T10:31:39Z</time>
      </trkpt>
      <trkpt lat="45.4045" lon="6.20819">
        <ele>2066.97</ele>
        <time>2021-06-28T10:31:42Z</time>
      </trkpt>
      <trkpt lat="45.4045" lon="6.20817">
        <ele>2063.13</ele>
        <time>2021-06-28T10:31:47Z</time>
      </trkpt>
      <trkpt lat="45.4045" lon="6.20816">
        <ele>2067.45</ele>
        <time>2021-06-28T10:31:48Z</time>
      </trkpt>
      <trkpt lat="45.4045" lon="6.20815">
        <ele>2064.09</ele>
        <time>2021-06-28T10:31:49Z</time>
      </trkpt>
      <trkpt lat="45.40449" lon="6.20812">
        <ele>2067.45</ele>
        <time>2021-06-28T10:31:53Z</time>
      </trkpt>
      <trkpt lat="45.40449" lon="6.20809">
        <ele>2066.01</ele>
        <time>2021-06-28T10:31:57Z</time>
      </trkpt>
      <trkpt lat="45.40442" lon="6.20796">
        <ele>2066.01</ele>
        <time>2021-06-28T10:32:10Z</time>
      </trkpt>
      <trkpt lat="45.40441" lon="6.20795">
        <ele>2066.01</ele>
        <time>2021-06-28T10:32:11Z</time>
      </trkpt>
      <trkpt lat="45.40439" lon="6.20794">
        <ele>2065.05</ele>
        <time>2021-06-28T10:32:14Z</time>
      </trkpt>
      <trkpt lat="45.40431" lon="6.20788">
        <ele>2064.57</ele>
        <time>2021-06-28T10:32:25Z</time>
      </trkpt>
      <trkpt lat="45.40428" lon="6.20786">
        <ele>2064.57</ele>
        <time>2021-06-28T10:32:29Z</time>
      </trkpt>
      <trkpt lat="45.40422" lon="6.20782">
        <ele>2064.57</ele>
        <time>2021-06-28T10:32:35Z</time>
      </trkpt>
      <trkpt lat="45.40417" lon="6.20774">
        <ele>2063.13</ele>
        <time>2021-06-28T10:32:48Z</time>
      </trkpt>
      <trkpt lat="45.40412" lon="6.20769">
        <ele>2063.61</ele>
        <time>2021-06-28T10:32:55Z</time>
      </trkpt>
      <trkpt lat="45.40408" lon="6.20759">
        <ele>2065.53</ele>
        <time>2021-06-28T10:33:06Z</time>
      </trkpt>
      <trkpt lat="45.40406" lon="6.20757">
        <ele>2065.53</ele>
        <time>2021-06-28T10:33:09Z</time>
      </trkpt>
      <trkpt lat="45.40402" lon="6.20754">
        <ele>2063.61</ele>
        <time>2021-06-28T10:33:12Z</time>
      </trkpt>
      <trkpt lat="45.40398" lon="6.20748">
        <ele>2061.2</ele>
        <time>2021-06-28T10:33:25Z</time>
      </trkpt>
      <trkpt lat="45.40398" lon="6.20748">
        <ele>2065.05</ele>
        <time>2021-06-28T10:33:26Z</time>
      </trkpt>
      <trkpt lat="45.40396" lon="6.20741">
        <ele>2062.65</ele>
        <time>2021-06-28T10:33:38Z</time>
      </trkpt>
      <trkpt lat="45.40393" lon="6.20731">
        <ele>2063.13</ele>
        <time>2021-06-28T10:33:50Z</time>
      </trkpt>
      <trkpt lat="45.40391" lon="6.20724">
        <ele>2062.65</ele>
        <time>2021-06-28T10:34:01Z</time>
      </trkpt>
      <trkpt lat="45.40385" lon="6.20708">
        <ele>2059.76</ele>
        <time>2021-06-28T10:34:15Z</time>
      </trkpt>
      <trkpt lat="45.40382" lon="6.20698">
        <ele>2059.76</ele>
        <time>2021-06-28T10:34:26Z</time>
      </trkpt>
      <trkpt lat="45.4038" lon="6.20685">
        <ele>2059.76</ele>
        <time>2021-06-28T10:34:40Z</time>
      </trkpt>
      <trkpt lat="45.40378" lon="6.20684">
        <ele>2058.8</ele>
        <time>2021-06-28T10:34:43Z</time>
      </trkpt>
      <trkpt lat="45.40376" lon="6.20675">
        <ele>2062.17</ele>
        <time>2021-06-28T10:34:51Z</time>
      </trkpt>
      <trkpt lat="45.40376" lon="6.20674">
        <ele>2057.84</ele>
        <time>2021-06-28T10:34:53Z</time>
      </trkpt>
      <trkpt lat="45.40376" lon="6.20673">
        <ele>2062.17</ele>
        <time>2021-06-28T10:34:54Z</time>
      </trkpt>
      <trkpt lat="45.40376" lon="6.20672">
        <ele>2057.84</ele>
        <time>2021-06-28T10:34:56Z</time>
      </trkpt>
      <trkpt lat="45.40376" lon="6.20672">
        <ele>2062.17</ele>
        <time>2021-06-28T10:34:57Z</time>
      </trkpt>
      <trkpt lat="45.40376" lon="6.20671">
        <ele>2057.84</ele>
        <time>2021-06-28T10:34:58Z</time>
      </trkpt>
      <trkpt lat="45.40375" lon="6.2067">
        <ele>2063.13</ele>
        <time>2021-06-28T10:34:59Z</time>
      </trkpt>
      <trkpt lat="45.40372" lon="6.20666">
        <ele>2059.76</ele>
        <time>2021-06-28T10:35:04Z</time>
      </trkpt>
      <trkpt lat="45.40364" lon="6.20659">
        <ele>2058.8</ele>
        <time>2021-06-28T10:35:21Z</time>
      </trkpt>
      <trkpt lat="45.40363" lon="6.20659">
        <ele>2061.68</ele>
        <time>2021-06-28T10:35:22Z</time>
      </trkpt>
      <trkpt lat="45.40356" lon="6.20655">
        <ele>2060.24</ele>
        <time>2021-06-28T10:35:33Z</time>
      </trkpt>
      <trkpt lat="45.40349" lon="6.2065">
        <ele>2061.2</ele>
        <time>2021-06-28T10:35:45Z</time>
      </trkpt>
      <trkpt lat="45.40343" lon="6.20643">
        <ele>2059.76</ele>
        <time>2021-06-28T10:35:59Z</time>
      </trkpt>
      <trkpt lat="45.40337" lon="6.20641">
        <ele>2058.32</ele>
        <time>2021-06-28T10:36:11Z</time>
      </trkpt>
      <trkpt lat="45.40331" lon="6.20635">
        <ele>2058.8</ele>
        <time>2021-06-28T10:36:22Z</time>
      </trkpt>
      <trkpt lat="45.40329" lon="6.2063">
        <ele>2059.76</ele>
        <time>2021-06-28T10:36:34Z</time>
      </trkpt>
      <trkpt lat="45.40322" lon="6.20623">
        <ele>2060.24</ele>
        <time>2021-06-28T10:36:49Z</time>
      </trkpt>
      <trkpt lat="45.40317" lon="6.20615">
        <ele>2059.28</ele>
        <time>2021-06-28T10:37:02Z</time>
      </trkpt>
      <trkpt lat="45.40313" lon="6.20611">
        <ele>2060.72</ele>
        <time>2021-06-28T10:37:09Z</time>
      </trkpt>
      <trkpt lat="45.40309" lon="6.20604">
        <ele>2060.72</ele>
        <time>2021-06-28T10:37:21Z</time>
      </trkpt>
      <trkpt lat="45.40308" lon="6.20603">
        <ele>2061.68</ele>
        <time>2021-06-28T10:37:22Z</time>
      </trkpt>
      <trkpt lat="45.40304" lon="6.20601">
        <ele>2061.2</ele>
        <time>2021-06-28T10:37:27Z</time>
      </trkpt>
      <trkpt lat="45.40298" lon="6.20595">
        <ele>2061.2</ele>
        <time>2021-06-28T10:37:41Z</time>
      </trkpt>
      <trkpt lat="45.40293" lon="6.20588">
        <ele>2061.2</ele>
        <time>2021-06-28T10:37:55Z</time>
      </trkpt>
      <trkpt lat="45.40292" lon="6.20587">
        <ele>2060.72</ele>
        <time>2021-06-28T10:37:57Z</time>
      </trkpt>
      <trkpt lat="45.40286" lon="6.20575">
        <ele>2060.72</ele>
        <time>2021-06-28T10:38:10Z</time>
      </trkpt>
      <trkpt lat="45.40281" lon="6.20564">
        <ele>2059.76</ele>
        <time>2021-06-28T10:38:22Z</time>
      </trkpt>
      <trkpt lat="45.40278" lon="6.2056">
        <ele>2059.76</ele>
        <time>2021-06-28T10:38:28Z</time>
      </trkpt>
      <trkpt lat="45.40275" lon="6.2056">
        <ele>2059.76</ele>
        <time>2021-06-28T10:38:31Z</time>
      </trkpt>
      <trkpt lat="45.40272" lon="6.2056">
        <ele>2059.28</ele>
        <time>2021-06-28T10:38:33Z</time>
      </trkpt>
      <trkpt lat="45.40271" lon="6.2056">
        <ele>2058.8</ele>
        <time>2021-06-28T10:38:35Z</time>
      </trkpt>
      <trkpt lat="45.40263" lon="6.20564">
        <ele>2056.88</ele>
        <time>2021-06-28T10:38:47Z</time>
      </trkpt>
      <trkpt lat="45.40259" lon="6.20566">
        <ele>2055.44</ele>
        <time>2021-06-28T10:39:00Z</time>
      </trkpt>
      <trkpt lat="45.40257" lon="6.20569">
        <ele>2054.96</ele>
        <time>2021-06-28T10:39:05Z</time>
      </trkpt>
      <trkpt lat="45.40252" lon="6.20575">
        <ele>2053.03</ele>
        <time>2021-06-28T10:39:15Z</time>
      </trkpt>
      <trkpt lat="45.4025" lon="6.20576">
        <ele>2052.55</ele>
        <time>2021-06-28T10:39:19Z</time>
      </trkpt>
      <trkpt lat="45.40249" lon="6.20582">
        <ele>2051.11</ele>
        <time>2021-06-28T10:39:32Z</time>
      </trkpt>
      <trkpt lat="45.40247" lon="6.20587">
        <ele>2049.67</ele>
        <time>2021-06-28T10:39:50Z</time>
      </trkpt>
      <trkpt lat="45.40244" lon="6.20593">
        <ele>2046.3</ele>
        <time>2021-06-28T10:40:00Z</time>
      </trkpt>
      <trkpt lat="45.40239" lon="6.20599">
        <ele>2045.82</ele>
        <time>2021-06-28T10:40:14Z</time>
      </trkpt>
      <trkpt lat="45.40234" lon="6.20606">
        <ele>2042.94</ele>
        <time>2021-06-28T10:40:25Z</time>
      </trkpt>
      <trkpt lat="45.40234" lon="6.20607">
        <ele>2042.46</ele>
        <time>2021-06-28T10:40:27Z</time>
      </trkpt>
      <trkpt lat="45.40228" lon="6.20611">
        <ele>2041.02</ele>
        <time>2021-06-28T10:40:36Z</time>
      </trkpt>
      <trkpt lat="45.40222" lon="6.2062">
        <ele>2037.65</ele>
        <time>2021-06-28T10:40:49Z</time>
      </trkpt>
      <trkpt lat="45.40215" lon="6.20626">
        <ele>2035.25</ele>
        <time>2021-06-28T10:41:01Z</time>
      </trkpt>
      <trkpt lat="45.4021" lon="6.2063">
        <ele>2033.33</ele>
        <time>2021-06-28T10:41:15Z</time>
      </trkpt>
      <trkpt lat="45.40201" lon="6.20635">
        <ele>2030.92</ele>
        <time>2021-06-28T10:41:29Z</time>
      </trkpt>
      <trkpt lat="45.40199" lon="6.20636">
        <ele>2029.48</ele>
        <time>2021-06-28T10:41:32Z</time>
      </trkpt>
      <trkpt lat="45.40191" lon="6.2064">
        <ele>2027.08</ele>
        <time>2021-06-28T10:41:45Z</time>
      </trkpt>
      <trkpt lat="45.40182" lon="6.20642">
        <ele>2025.15</ele>
        <time>2021-06-28T10:41:58Z</time>
      </trkpt>
      <trkpt lat="45.40173" lon="6.20643">
        <ele>2022.75</ele>
        <time>2021-06-28T10:42:11Z</time>
      </trkpt>
      <trkpt lat="45.40164" lon="6.20645">
        <ele>2019.39</ele>
        <time>2021-06-28T10:42:25Z</time>
      </trkpt>
      <trkpt lat="45.40153" lon="6.20646">
        <ele>2017.46</ele>
        <time>2021-06-28T10:42:39Z</time>
      </trkpt>
      <trkpt lat="45.40149" lon="6.20645">
        <ele>2018.43</ele>
        <time>2021-06-28T10:42:44Z</time>
      </trkpt>
      <trkpt lat="45.40136" lon="6.20648">
        <ele>2014.1</ele>
        <time>2021-06-28T10:42:59Z</time>
      </trkpt>
      <trkpt lat="45.40127" lon="6.20651">
        <ele>2013.14</ele>
        <time>2021-06-28T10:43:08Z</time>
      </trkpt>
      <trkpt lat="45.40115" lon="6.20653">
        <ele>2013.14</ele>
        <time>2021-06-28T10:43:22Z</time>
      </trkpt>
      <trkpt lat="45.40114" lon="6.20653">
        <ele>2013.62</ele>
        <time>2021-06-28T10:43:23Z</time>
      </trkpt>
      <trkpt lat="45.40109" lon="6.20652">
        <ele>2012.18</ele>
        <time>2021-06-28T10:43:29Z</time>
      </trkpt>
      <trkpt lat="45.40101" lon="6.20657">
        <ele>2007.85</ele>
        <time>2021-06-28T10:43:42Z</time>
      </trkpt>
      <trkpt lat="45.40092" lon="6.20657">
        <ele>2004.97</ele>
        <time>2021-06-28T10:43:54Z</time>
      </trkpt>
      <trkpt lat="45.40082" lon="6.20658">
        <ele>2002.56</ele>
        <time>2021-06-28T10:44:07Z</time>
      </trkpt>
      <trkpt lat="45.4008" lon="6.20656">
        <ele>2003.04</ele>
        <time>2021-06-28T10:44:10Z</time>
      </trkpt>
      <trkpt lat="45.40074" lon="6.20658">
        <ele>2000.16</ele>
        <time>2021-06-28T10:44:18Z</time>
      </trkpt>
      <trkpt lat="45.40068" lon="6.20659">
        <ele>2000.16</ele>
        <time>2021-06-28T10:44:38Z</time>
      </trkpt>
      <trkpt lat="45.40068" lon="6.2066">
        <ele>1999.2</ele>
        <time>2021-06-28T10:45:04Z</time>
      </trkpt>
      <trkpt lat="45.40068" lon="6.20659">
        <ele>1999.2</ele>
        <time>2021-06-28T10:45:35Z</time>
      </trkpt>
      <trkpt lat="45.4007" lon="6.20662">
        <ele>1999.2</ele>
        <time>2021-06-28T10:46:04Z</time>
      </trkpt>
      <trkpt lat="45.40069" lon="6.20658">
        <ele>1999.68</ele>
        <time>2021-06-28T10:46:27Z</time>
      </trkpt>
      <trkpt lat="45.40067" lon="6.2065">
        <ele>2002.08</ele>
        <time>2021-06-28T10:46:43Z</time>
      </trkpt>
      <trkpt lat="45.40065" lon="6.20648">
        <ele>1997.28</ele>
        <time>2021-06-28T10:46:52Z</time>
      </trkpt>
      <trkpt lat="45.40066" lon="6.20649">
        <ele>2000.64</ele>
        <time>2021-06-28T10:46:55Z</time>
      </trkpt>
      <trkpt lat="45.40066" lon="6.20655">
        <ele>2000.16</ele>
        <time>2021-06-28T10:47:07Z</time>
      </trkpt>
      <trkpt lat="45.4007" lon="6.20661">
        <ele>1999.2</ele>
        <time>2021-06-28T10:47:22Z</time>
      </trkpt>
      <trkpt lat="45.40069" lon="6.20661">
        <ele>1999.68</ele>
        <time>2021-06-28T10:47:34Z</time>
      </trkpt>
      <trkpt lat="45.40069" lon="6.20661">
        <ele>1998.24</ele>
        <time>2021-06-28T10:48:03Z</time>
      </trkpt>
      <trkpt lat="45.4007" lon="6.20663">
        <ele>1999.68</ele>
        <time>2021-06-28T10:48:05Z</time>
      </trkpt>
      <trkpt lat="45.40066" lon="6.2066">
        <ele>1998.72</ele>
        <time>2021-06-28T10:48:24Z</time>
      </trkpt>
      <trkpt lat="45.40067" lon="6.2066">
        <ele>2001.6</ele>
        <time>2021-06-28T10:48:32Z</time>
      </trkpt>
      <trkpt lat="45.40067" lon="6.20661">
        <ele>1998.72</ele>
        <time>2021-06-28T10:48:34Z</time>
      </trkpt>
      <trkpt lat="45.40067" lon="6.20659">
        <ele>1999.2</ele>
        <time>2021-06-28T10:49:01Z</time>
      </trkpt>
      <trkpt lat="45.4007" lon="6.20663">
        <ele>1999.2</ele>
        <time>2021-06-28T10:49:37Z</time>
      </trkpt>
      <trkpt lat="45.40067" lon="6.2066">
        <ele>1998.72</ele>
        <time>2021-06-28T10:50:08Z</time>
      </trkpt>
      <trkpt lat="45.40066" lon="6.20661">
        <ele>1998.72</ele>
        <time>2021-06-28T10:50:31Z</time>
      </trkpt>
      <trkpt lat="45.40066" lon="6.20656">
        <ele>1998.72</ele>
        <time>2021-06-28T10:51:03Z</time>
      </trkpt>
      <trkpt lat="45.40068" lon="6.20658">
        <ele>1998.72</ele>
        <time>2021-06-28T10:51:28Z</time>
      </trkpt>
      <trkpt lat="45.40067" lon="6.20657">
        <ele>1998.72</ele>
        <time>2021-06-28T10:51:48Z</time>
      </trkpt>
      <trkpt lat="45.40066" lon="6.20659">
        <ele>1998.72</ele>
        <time>2021-06-28T10:52:10Z</time>
      </trkpt>
      <trkpt lat="45.40067" lon="6.2066">
        <ele>1998.24</ele>
        <time>2021-06-28T10:52:37Z</time>
      </trkpt>
      <trkpt lat="45.40066" lon="6.20661">
        <ele>1998.24</ele>
        <time>2021-06-28T10:53:08Z</time>
      </trkpt>
      <trkpt lat="45.40064" lon="6.20652">
        <ele>1998.24</ele>
        <time>2021-06-28T10:53:38Z</time>
      </trkpt>
      <trkpt lat="45.4007" lon="6.2066">
        <ele>1999.68</ele>
        <time>2021-06-28T10:54:02Z</time>
      </trkpt>
      <trkpt lat="45.40069" lon="6.20661">
        <ele>1998.72</ele>
        <time>2021-06-28T10:54:20Z</time>
      </trkpt>
      <trkpt lat="45.40067" lon="6.20661">
        <ele>1997.76</ele>
        <time>2021-06-28T10:54:27Z</time>
      </trkpt>
      <trkpt lat="45.40065" lon="6.20664">
        <ele>1998.24</ele>
        <time>2021-06-28T10:54:30Z</time>
      </trkpt>
      <trkpt lat="45.40058" lon="6.20665">
        <ele>1996.8</ele>
        <time>2021-06-28T10:54:42Z</time>
      </trkpt>
      <trkpt lat="45.40057" lon="6.20662">
        <ele>2000.16</ele>
        <time>2021-06-28T10:54:46Z</time>
      </trkpt>
      <trkpt lat="45.40058" lon="6.20655">
        <ele>2000.64</ele>
        <time>2021-06-28T10:54:57Z</time>
      </trkpt>
      <trkpt lat="45.40056" lon="6.20648">
        <ele>2003.52</ele>
        <time>2021-06-28T10:55:08Z</time>
      </trkpt>
      <trkpt lat="45.40056" lon="6.20648">
        <ele>2002.08</ele>
        <time>2021-06-28T10:55:09Z</time>
      </trkpt>
      <trkpt lat="45.40053" lon="6.20641">
        <ele>2004.01</ele>
        <time>2021-06-28T10:55:21Z</time>
      </trkpt>
      <trkpt lat="45.40051" lon="6.20644">
        <ele>2004.49</ele>
        <time>2021-06-28T10:55:25Z</time>
      </trkpt>
      <trkpt lat="45.40044" lon="6.20651">
        <ele>2005.93</ele>
        <time>2021-06-28T10:55:38Z</time>
      </trkpt>
      <trkpt lat="45.40041" lon="6.20651">
        <ele>2005.45</ele>
        <time>2021-06-28T10:55:42Z</time>
      </trkpt>
      <trkpt lat="45.40036" lon="6.20653">
        <ele>2005.45</ele>
        <time>2021-06-28T10:55:50Z</time>
      </trkpt>
      <trkpt lat="45.40026" lon="6.20646">
        <ele>2004.01</ele>
        <time>2021-06-28T10:56:04Z</time>
      </trkpt>
      <trkpt lat="45.4002" lon="6.20642">
        <ele>2006.89</ele>
        <time>2021-06-28T10:56:17Z</time>
      </trkpt>
      <trkpt lat="45.40014" lon="6.20638">
        <ele>2006.89</ele>
        <time>2021-06-28T10:56:29Z</time>
      </trkpt>
      <trkpt lat="45.4001" lon="6.20633">
        <ele>2007.37</ele>
        <time>2021-06-28T10:56:41Z</time>
      </trkpt>
      <trkpt lat="45.40009" lon="6.20627">
        <ele>2010.73</ele>
        <time>2021-06-28T10:56:49Z</time>
      </trkpt>
      <trkpt lat="45.40004" lon="6.20626">
        <ele>2009.29</ele>
        <time>2021-06-28T10:57:01Z</time>
      </trkpt>
      <trkpt lat="45.40004" lon="6.20625">
        <ele>2012.66</ele>
        <time>2021-06-28T10:57:02Z</time>
      </trkpt>
      <trkpt lat="45.40003" lon="6.20626">
        <ele>2009.77</ele>
        <time>2021-06-28T10:57:05Z</time>
      </trkpt>
      <trkpt lat="45.40003" lon="6.20626">
        <ele>2013.14</ele>
        <time>2021-06-28T10:57:06Z</time>
      </trkpt>
      <trkpt lat="45.39999" lon="6.20625">
        <ele>2011.7</ele>
        <time>2021-06-28T10:57:13Z</time>
      </trkpt>
      <trkpt lat="45.39997" lon="6.20625">
        <ele>2012.66</ele>
        <time>2021-06-28T10:57:15Z</time>
      </trkpt>
      <trkpt lat="45.39991" lon="6.20627">
        <ele>2015.54</ele>
        <time>2021-06-28T10:57:29Z</time>
      </trkpt>
      <trkpt lat="45.39986" lon="6.20628">
        <ele>2016.5</ele>
        <time>2021-06-28T10:57:41Z</time>
      </trkpt>
      <trkpt lat="45.39987" lon="6.20623">
        <ele>2015.06</ele>
        <time>2021-06-28T10:57:53Z</time>
      </trkpt>
      <trkpt lat="45.39987" lon="6.20623">
        <ele>2019.39</ele>
        <time>2021-06-28T10:57:54Z</time>
      </trkpt>
      <trkpt lat="45.39982" lon="6.20618">
        <ele>2020.35</ele>
        <time>2021-06-28T10:58:06Z</time>
      </trkpt>
      <trkpt lat="45.39978" lon="6.20611">
        <ele>2018.91</ele>
        <time>2021-06-28T10:58:22Z</time>
      </trkpt>
      <trkpt lat="45.39978" lon="6.2061">
        <ele>2023.23</ele>
        <time>2021-06-28T10:58:23Z</time>
      </trkpt>
      <trkpt lat="45.39978" lon="6.2061">
        <ele>2019.87</ele>
        <time>2021-06-28T10:58:24Z</time>
      </trkpt>
      <trkpt lat="45.39979" lon="6.2061">
        <ele>2023.23</ele>
        <time>2021-06-28T10:58:28Z</time>
      </trkpt>
      <trkpt lat="45.39979" lon="6.20609">
        <ele>2019.39</ele>
        <time>2021-06-28T10:58:29Z</time>
      </trkpt>
      <trkpt lat="45.39979" lon="6.20608">
        <ele>2023.23</ele>
        <time>2021-06-28T10:58:32Z</time>
      </trkpt>
      <trkpt lat="45.39976" lon="6.20604">
        <ele>2020.35</ele>
        <time>2021-06-28T10:58:45Z</time>
      </trkpt>
      <trkpt lat="45.39976" lon="6.20603">
        <ele>2025.64</ele>
        <time>2021-06-28T10:58:46Z</time>
      </trkpt>
      <trkpt lat="45.39976" lon="6.20603">
        <ele>2022.27</ele>
        <time>2021-06-28T10:58:47Z</time>
      </trkpt>
      <trkpt lat="45.39974" lon="6.20601">
        <ele>2023.71</ele>
        <time>2021-06-28T10:59:00Z</time>
      </trkpt>
      <trkpt lat="45.39975" lon="6.20601">
        <ele>2027.56</ele>
        <time>2021-06-28T10:59:03Z</time>
      </trkpt>
      <trkpt lat="45.39975" lon="6.206">
        <ele>2023.71</ele>
        <time>2021-06-28T10:59:04Z</time>
      </trkpt>
      <trkpt lat="45.39974" lon="6.206">
        <ele>2027.08</ele>
        <time>2021-06-28T10:59:08Z</time>
      </trkpt>
      <trkpt lat="45.39972" lon="6.20596">
        <ele>2028.52</ele>
        <time>2021-06-28T10:59:20Z</time>
      </trkpt>
      <trkpt lat="45.39972" lon="6.20595">
        <ele>2027.08</ele>
        <time>2021-06-28T10:59:22Z</time>
      </trkpt>
      <trkpt lat="45.39973" lon="6.20591">
        <ele>2030.92</ele>
        <time>2021-06-28T10:59:27Z</time>
      </trkpt>
      <trkpt lat="45.39973" lon="6.2059">
        <ele>2027.56</ele>
        <time>2021-06-28T10:59:29Z</time>
      </trkpt>
      <trkpt lat="45.39973" lon="6.20589">
        <ele>2030.92</ele>
        <time>2021-06-28T10:59:35Z</time>
      </trkpt>
      <trkpt lat="45.39975" lon="6.20583">
        <ele>2030.92</ele>
        <time>2021-06-28T10:59:47Z</time>
      </trkpt>
      <trkpt lat="45.39974" lon="6.20577">
        <ele>2030.92</ele>
        <time>2021-06-28T10:59:58Z</time>
      </trkpt>
      <trkpt lat="45.39974" lon="6.20577">
        <ele>2034.29</ele>
        <time>2021-06-28T10:59:59Z</time>
      </trkpt>
      <trkpt lat="45.39974" lon="6.20576">
        <ele>2031.4</ele>
        <time>2021-06-28T11:00:00Z</time>
      </trkpt>
      <trkpt lat="45.39975" lon="6.20577">
        <ele>2034.29</ele>
        <time>2021-06-28T11:00:01Z</time>
      </trkpt>
      <trkpt lat="45.39975" lon="6.20569">
        <ele>2033.81</ele>
        <time>2021-06-28T11:00:12Z</time>
      </trkpt>
      <trkpt lat="45.39972" lon="6.20559">
        <ele>2035.25</ele>
        <time>2021-06-28T11:00:25Z</time>
      </trkpt>
      <trkpt lat="45.3997" lon="6.20551">
        <ele>2039.09</ele>
        <time>2021-06-28T11:00:39Z</time>
      </trkpt>
      <trkpt lat="45.39968" lon="6.2055">
        <ele>2035.73</ele>
        <time>2021-06-28T11:00:43Z</time>
      </trkpt>
      <trkpt lat="45.39967" lon="6.2055">
        <ele>2040.54</ele>
        <time>2021-06-28T11:00:44Z</time>
      </trkpt>
      <trkpt lat="45.39967" lon="6.20549">
        <ele>2036.21</ele>
        <time>2021-06-28T11:00:45Z</time>
      </trkpt>
      <trkpt lat="45.39967" lon="6.20549">
        <ele>2040.54</ele>
        <time>2021-06-28T11:00:46Z</time>
      </trkpt>
      <trkpt lat="45.39965" lon="6.20548">
        <ele>2037.17</ele>
        <time>2021-06-28T11:00:50Z</time>
      </trkpt>
      <trkpt lat="45.39965" lon="6.20547">
        <ele>2041.02</ele>
        <time>2021-06-28T11:00:51Z</time>
      </trkpt>
      <trkpt lat="45.39963" lon="6.20544">
        <ele>2041.98</ele>
        <time>2021-06-28T11:01:06Z</time>
      </trkpt>
      <trkpt lat="45.39959" lon="6.20538">
        <ele>2045.34</ele>
        <time>2021-06-28T11:01:17Z</time>
      </trkpt>
      <trkpt lat="45.39959" lon="6.20536">
        <ele>2041.5</ele>
        <time>2021-06-28T11:01:19Z</time>
      </trkpt>
      <trkpt lat="45.3996" lon="6.20536">
        <ele>2044.86</ele>
        <time>2021-06-28T11:01:23Z</time>
      </trkpt>
      <trkpt lat="45.39959" lon="6.20531">
        <ele>2044.38</ele>
        <time>2021-06-28T11:01:32Z</time>
      </trkpt>
      <trkpt lat="45.39957" lon="6.20528">
        <ele>2048.23</ele>
        <time>2021-06-28T11:01:41Z</time>
      </trkpt>
      <trkpt lat="45.39957" lon="6.20527">
        <ele>2044.38</ele>
        <time>2021-06-28T11:01:42Z</time>
      </trkpt>
      <trkpt lat="45.39956" lon="6.20527">
        <ele>2048.71</ele>
        <time>2021-06-28T11:01:43Z</time>
      </trkpt>
      <trkpt lat="45.39955" lon="6.20527">
        <ele>2044.86</ele>
        <time>2021-06-28T11:01:44Z</time>
      </trkpt>
      <trkpt lat="45.39955" lon="6.20527">
        <ele>2048.23</ele>
        <time>2021-06-28T11:01:45Z</time>
      </trkpt>
      <trkpt lat="45.3995" lon="6.20521">
        <ele>2049.67</ele>
        <time>2021-06-28T11:01:58Z</time>
      </trkpt>
      <trkpt lat="45.39948" lon="6.20518">
        <ele>2048.71</ele>
        <time>2021-06-28T11:02:09Z</time>
      </trkpt>
      <trkpt lat="45.39946" lon="6.20516">
        <ele>2048.71</ele>
        <time>2021-06-28T11:02:11Z</time>
      </trkpt>
      <trkpt lat="45.39945" lon="6.20515">
        <ele>2047.75</ele>
        <time>2021-06-28T11:02:13Z</time>
      </trkpt>
      <trkpt lat="45.39944" lon="6.20515">
        <ele>2053.51</ele>
        <time>2021-06-28T11:02:14Z</time>
      </trkpt>
      <trkpt lat="45.39944" lon="6.20513">
        <ele>2050.15</ele>
        <time>2021-06-28T11:02:16Z</time>
      </trkpt>
      <trkpt lat="45.39943" lon="6.2051">
        <ele>2053.51</ele>
        <time>2021-06-28T11:02:25Z</time>
      </trkpt>
      <trkpt lat="45.39942" lon="6.20509">
        <ele>2054.47</ele>
        <time>2021-06-28T11:02:27Z</time>
      </trkpt>
      <trkpt lat="45.39941" lon="6.20509">
        <ele>2052.55</ele>
        <time>2021-06-28T11:02:28Z</time>
      </trkpt>
      <trkpt lat="45.39941" lon="6.20508">
        <ele>2051.11</ele>
        <time>2021-06-28T11:02:29Z</time>
      </trkpt>
      <trkpt lat="45.3994" lon="6.20508">
        <ele>2054.47</ele>
        <time>2021-06-28T11:02:30Z</time>
      </trkpt>
      <trkpt lat="45.3994" lon="6.20506">
        <ele>2053.03</ele>
        <time>2021-06-28T11:02:31Z</time>
      </trkpt>
      <trkpt lat="45.39939" lon="6.20505">
        <ele>2054.47</ele>
        <time>2021-06-28T11:02:33Z</time>
      </trkpt>
      <trkpt lat="45.39938" lon="6.20505">
        <ele>2051.59</ele>
        <time>2021-06-28T11:02:34Z</time>
      </trkpt>
      <trkpt lat="45.39938" lon="6.20505">
        <ele>2055.44</ele>
        <time>2021-06-28T11:02:35Z</time>
      </trkpt>
      <trkpt lat="45.39938" lon="6.20505">
        <ele>2053.99</ele>
        <time>2021-06-28T11:02:36Z</time>
      </trkpt>
      <trkpt lat="45.39937" lon="6.20504">
        <ele>2054.47</ele>
        <time>2021-06-28T11:02:38Z</time>
      </trkpt>
      <trkpt lat="45.39937" lon="6.20503">
        <ele>2054.96</ele>
        <time>2021-06-28T11:02:40Z</time>
      </trkpt>
      <trkpt lat="45.39935" lon="6.20499">
        <ele>2054.47</ele>
        <time>2021-06-28T11:02:49Z</time>
      </trkpt>
      <trkpt lat="45.39932" lon="6.20496">
        <ele>2056.88</ele>
        <time>2021-06-28T11:03:00Z</time>
      </trkpt>
      <trkpt lat="45.39928" lon="6.20498">
        <ele>2055.92</ele>
        <time>2021-06-28T11:03:09Z</time>
      </trkpt>
      <trkpt lat="45.39928" lon="6.20499">
        <ele>2058.32</ele>
        <time>2021-06-28T11:03:10Z</time>
      </trkpt>
      <trkpt lat="45.39927" lon="6.20506">
        <ele>2060.24</ele>
        <time>2021-06-28T11:03:18Z</time>
      </trkpt>
      <trkpt lat="45.39927" lon="6.20507">
        <ele>2057.84</ele>
        <time>2021-06-28T11:03:19Z</time>
      </trkpt>
      <trkpt lat="45.39927" lon="6.20508">
        <ele>2059.28</ele>
        <time>2021-06-28T11:03:20Z</time>
      </trkpt>
      <trkpt lat="45.39927" lon="6.20509">
        <ele>2058.32</ele>
        <time>2021-06-28T11:03:22Z</time>
      </trkpt>
      <trkpt lat="45.39927" lon="6.2051">
        <ele>2060.24</ele>
        <time>2021-06-28T11:03:23Z</time>
      </trkpt>
      <trkpt lat="45.39927" lon="6.20511">
        <ele>2060.24</ele>
        <time>2021-06-28T11:03:24Z</time>
      </trkpt>
      <trkpt lat="45.39928" lon="6.20513">
        <ele>2058.8</ele>
        <time>2021-06-28T11:03:25Z</time>
      </trkpt>
      <trkpt lat="45.39927" lon="6.20516">
        <ele>2061.2</ele>
        <time>2021-06-28T11:03:29Z</time>
      </trkpt>
      <trkpt lat="45.39926" lon="6.20518">
        <ele>2061.68</ele>
        <time>2021-06-28T11:03:32Z</time>
      </trkpt>
      <trkpt lat="45.39926" lon="6.20519">
        <ele>2059.76</ele>
        <time>2021-06-28T11:03:33Z</time>
      </trkpt>
      <trkpt lat="45.39925" lon="6.2052">
        <ele>2061.2</ele>
        <time>2021-06-28T11:03:34Z</time>
      </trkpt>
      <trkpt lat="45.39926" lon="6.20521">
        <ele>2059.76</ele>
        <time>2021-06-28T11:03:36Z</time>
      </trkpt>
      <trkpt lat="45.39925" lon="6.20521">
        <ele>2063.13</ele>
        <time>2021-06-28T11:03:37Z</time>
      </trkpt>
      <trkpt lat="45.39925" lon="6.20521">
        <ele>2061.2</ele>
        <time>2021-06-28T11:03:38Z</time>
      </trkpt>
      <trkpt lat="45.39924" lon="6.2052">
        <ele>2062.17</ele>
        <time>2021-06-28T11:03:41Z</time>
      </trkpt>
      <trkpt lat="45.39924" lon="6.20519">
        <ele>2059.28</ele>
        <time>2021-06-28T11:03:44Z</time>
      </trkpt>
      <trkpt lat="45.39925" lon="6.20519">
        <ele>2064.57</ele>
        <time>2021-06-28T11:03:45Z</time>
      </trkpt>
      <trkpt lat="45.39924" lon="6.20518">
        <ele>2061.68</ele>
        <time>2021-06-28T11:03:46Z</time>
      </trkpt>
      <trkpt lat="45.39924" lon="6.20517">
        <ele>2064.09</ele>
        <time>2021-06-28T11:03:47Z</time>
      </trkpt>
      <trkpt lat="45.39924" lon="6.20517">
        <ele>2061.68</ele>
        <time>2021-06-28T11:03:48Z</time>
      </trkpt>
      <trkpt lat="45.39923" lon="6.20516">
        <ele>2064.09</ele>
        <time>2021-06-28T11:03:49Z</time>
      </trkpt>
      <trkpt lat="45.39923" lon="6.20515">
        <ele>2062.65</ele>
        <time>2021-06-28T11:03:50Z</time>
      </trkpt>
      <trkpt lat="45.39923" lon="6.20514">
        <ele>2060.72</ele>
        <time>2021-06-28T11:03:51Z</time>
      </trkpt>
      <trkpt lat="45.39922" lon="6.20514">
        <ele>2066.01</ele>
        <time>2021-06-28T11:03:52Z</time>
      </trkpt>
      <trkpt lat="45.39921" lon="6.20514">
        <ele>2062.65</ele>
        <time>2021-06-28T11:03:53Z</time>
      </trkpt>
      <trkpt lat="45.39921" lon="6.20513">
        <ele>2064.57</ele>
        <time>2021-06-28T11:03:55Z</time>
      </trkpt>
      <trkpt lat="45.39921" lon="6.20511">
        <ele>2066.49</ele>
        <time>2021-06-28T11:04:00Z</time>
      </trkpt>
      <trkpt lat="45.39917" lon="6.20505">
        <ele>2067.45</ele>
        <time>2021-06-28T11:04:12Z</time>
      </trkpt>
      <trkpt lat="45.39916" lon="6.205">
        <ele>2068.89</ele>
        <time>2021-06-28T11:04:24Z</time>
      </trkpt>
      <trkpt lat="45.39913" lon="6.20495">
        <ele>2070.82</ele>
        <time>2021-06-28T11:04:36Z</time>
      </trkpt>
      <trkpt lat="45.39909" lon="6.20487">
        <ele>2073.7</ele>
        <time>2021-06-28T11:04:48Z</time>
      </trkpt>
      <trkpt lat="45.39905" lon="6.20481">
        <ele>2075.14</ele>
        <time>2021-06-28T11:05:00Z</time>
      </trkpt>
      <trkpt lat="45.399" lon="6.20475">
        <ele>2074.18</ele>
        <time>2021-06-28T11:05:12Z</time>
      </trkpt>
      <trkpt lat="45.39899" lon="6.20472">
        <ele>2077.55</ele>
        <time>2021-06-28T11:05:17Z</time>
      </trkpt>
      <trkpt lat="45.39894" lon="6.20465">
        <ele>2078.51</ele>
        <time>2021-06-28T11:05:29Z</time>
      </trkpt>
      <trkpt lat="45.3989" lon="6.2046">
        <ele>2082.35</ele>
        <time>2021-06-28T11:05:40Z</time>
      </trkpt>
      <trkpt lat="45.39887" lon="6.20454">
        <ele>2080.43</ele>
        <time>2021-06-28T11:05:49Z</time>
      </trkpt>
      <trkpt lat="45.39885" lon="6.20452">
        <ele>2083.79</ele>
        <time>2021-06-28T11:05:57Z</time>
      </trkpt>
      <trkpt lat="45.3988" lon="6.20448">
        <ele>2085.24</ele>
        <time>2021-06-28T11:06:09Z</time>
      </trkpt>
      <trkpt lat="45.39878" lon="6.2045">
        <ele>2085.24</ele>
        <time>2021-06-28T11:06:16Z</time>
      </trkpt>
      <trkpt lat="45.39874" lon="6.20444">
        <ele>2086.68</ele>
        <time>2021-06-28T11:06:29Z</time>
      </trkpt>
      <trkpt lat="45.39872" lon="6.20442">
        <ele>2090.04</ele>
        <time>2021-06-28T11:06:33Z</time>
      </trkpt>
      <trkpt lat="45.39868" lon="6.20435">
        <ele>2090.52</ele>
        <time>2021-06-28T11:06:47Z</time>
      </trkpt>
      <trkpt lat="45.39863" lon="6.2043">
        <ele>2091</ele>
        <time>2021-06-28T11:07:04Z</time>
      </trkpt>
      <trkpt lat="45.39862" lon="6.20429">
        <ele>2091.97</ele>
        <time>2021-06-28T11:07:06Z</time>
      </trkpt>
      <trkpt lat="45.39858" lon="6.20422">
        <ele>2090.04</ele>
        <time>2021-06-28T11:07:19Z</time>
      </trkpt>
      <trkpt lat="45.39857" lon="6.2042">
        <ele>2092.93</ele>
        <time>2021-06-28T11:07:21Z</time>
      </trkpt>
      <trkpt lat="45.39856" lon="6.20414">
        <ele>2091.97</ele>
        <time>2021-06-28T11:07:33Z</time>
      </trkpt>
      <trkpt lat="45.39857" lon="6.20411">
        <ele>2090.52</ele>
        <time>2021-06-28T11:07:40Z</time>
      </trkpt>
      <trkpt lat="45.39856" lon="6.20396">
        <ele>2091</ele>
        <time>2021-06-28T11:07:54Z</time>
      </trkpt>
      <trkpt lat="45.39854" lon="6.20388">
        <ele>2091.49</ele>
        <time>2021-06-28T11:08:04Z</time>
      </trkpt>
      <trkpt lat="45.39853" lon="6.20383">
        <ele>2091</ele>
        <time>2021-06-28T11:08:07Z</time>
      </trkpt>
      <trkpt lat="45.3985" lon="6.20368">
        <ele>2090.04</ele>
        <time>2021-06-28T11:08:22Z</time>
      </trkpt>
      <trkpt lat="45.39847" lon="6.20358">
        <ele>2090.52</ele>
        <time>2021-06-28T11:08:34Z</time>
      </trkpt>
      <trkpt lat="45.39846" lon="6.20349">
        <ele>2088.6</ele>
        <time>2021-06-28T11:08:47Z</time>
      </trkpt>
      <trkpt lat="45.39846" lon="6.20349">
        <ele>2092.45</ele>
        <time>2021-06-28T11:08:48Z</time>
      </trkpt>
      <trkpt lat="45.39847" lon="6.20347">
        <ele>2092.93</ele>
        <time>2021-06-28T11:08:58Z</time>
      </trkpt>
      <trkpt lat="45.39849" lon="6.20342">
        <ele>2092.93</ele>
        <time>2021-06-28T11:09:10Z</time>
      </trkpt>
      <trkpt lat="45.39849" lon="6.20337">
        <ele>2096.77</ele>
        <time>2021-06-28T11:09:21Z</time>
      </trkpt>
      <trkpt lat="45.39849" lon="6.20337">
        <ele>2093.41</ele>
        <time>2021-06-28T11:09:22Z</time>
      </trkpt>
      <trkpt lat="45.39849" lon="6.20336">
        <ele>2096.77</ele>
        <time>2021-06-28T11:09:23Z</time>
      </trkpt>
      <trkpt lat="45.39847" lon="6.2033">
        <ele>2096.77</ele>
        <time>2021-06-28T11:09:34Z</time>
      </trkpt>
      <trkpt lat="45.39851" lon="6.20327">
        <ele>2099.18</ele>
        <time>2021-06-28T11:09:46Z</time>
      </trkpt>
      <trkpt lat="45.39852" lon="6.20327">
        <ele>2095.81</ele>
        <time>2021-06-28T11:09:47Z</time>
      </trkpt>
      <trkpt lat="45.39852" lon="6.20326">
        <ele>2099.66</ele>
        <time>2021-06-28T11:09:48Z</time>
      </trkpt>
      <trkpt lat="45.39853" lon="6.20327">
        <ele>2096.29</ele>
        <time>2021-06-28T11:09:50Z</time>
      </trkpt>
      <trkpt lat="45.39853" lon="6.20328">
        <ele>2100.14</ele>
        <time>2021-06-28T11:09:51Z</time>
      </trkpt>
      <trkpt lat="45.39855" lon="6.20329">
        <ele>2096.77</ele>
        <time>2021-06-28T11:09:56Z</time>
      </trkpt>
      <trkpt lat="45.39856" lon="6.20328">
        <ele>2099.66</ele>
        <time>2021-06-28T11:09:57Z</time>
      </trkpt>
      <trkpt lat="45.39861" lon="6.20324">
        <ele>2098.7</ele>
        <time>2021-06-28T11:10:02Z</time>
      </trkpt>
      <trkpt lat="45.39863" lon="6.20321">
        <ele>2097.73</ele>
        <time>2021-06-28T11:10:06Z</time>
      </trkpt>
      <trkpt lat="45.39866" lon="6.20316">
        <ele>2098.21</ele>
        <time>2021-06-28T11:10:13Z</time>
      </trkpt>
      <trkpt lat="45.39872" lon="6.2032">
        <ele>2097.25</ele>
        <time>2021-06-28T11:10:26Z</time>
      </trkpt>
      <trkpt lat="45.39873" lon="6.20321">
        <ele>2097.25</ele>
        <time>2021-06-28T11:10:30Z</time>
      </trkpt>
      <trkpt lat="45.3988" lon="6.20326">
        <ele>2100.14</ele>
        <time>2021-06-28T11:10:41Z</time>
      </trkpt>
      <trkpt lat="45.39887" lon="6.20331">
        <ele>2099.66</ele>
        <time>2021-06-28T11:10:51Z</time>
      </trkpt>
      <trkpt lat="45.39893" lon="6.20337">
        <ele>2099.18</ele>
        <time>2021-06-28T11:11:04Z</time>
      </trkpt>
      <trkpt lat="45.39898" lon="6.20338">
        <ele>2102.06</ele>
        <time>2021-06-28T11:11:13Z</time>
      </trkpt>
      <trkpt lat="45.39901" lon="6.20338">
        <ele>2102.06</ele>
        <time>2021-06-28T11:11:18Z</time>
      </trkpt>
      <trkpt lat="45.39904" lon="6.20333">
        <ele>2101.1</ele>
        <time>2021-06-28T11:11:25Z</time>
      </trkpt>
      <trkpt lat="45.39907" lon="6.20329">
        <ele>2103.5</ele>
        <time>2021-06-28T11:11:33Z</time>
      </trkpt>
      <trkpt lat="45.39908" lon="6.20328">
        <ele>2101.58</ele>
        <time>2021-06-28T11:11:35Z</time>
      </trkpt>
      <trkpt lat="45.3991" lon="6.20328">
        <ele>2103.5</ele>
        <time>2021-06-28T11:11:37Z</time>
      </trkpt>
      <trkpt lat="45.39911" lon="6.20329">
        <ele>2104.94</ele>
        <time>2021-06-28T11:11:39Z</time>
      </trkpt>
      <trkpt lat="45.39919" lon="6.20328">
        <ele>2105.91</ele>
        <time>2021-06-28T11:11:51Z</time>
      </trkpt>
      <trkpt lat="45.39923" lon="6.20327">
        <ele>2107.35</ele>
        <time>2021-06-28T11:11:59Z</time>
      </trkpt>
      <trkpt lat="45.39925" lon="6.20326">
        <ele>2107.35</ele>
        <time>2021-06-28T11:12:02Z</time>
      </trkpt>
      <trkpt lat="45.39931" lon="6.20323">
        <ele>2106.39</ele>
        <time>2021-06-28T11:12:10Z</time>
      </trkpt>
      <trkpt lat="45.39935" lon="6.20321">
        <ele>2107.83</ele>
        <time>2021-06-28T11:12:14Z</time>
      </trkpt>
      <trkpt lat="45.39938" lon="6.2031">
        <ele>2109.27</ele>
        <time>2021-06-28T11:12:25Z</time>
      </trkpt>
      <trkpt lat="45.3994" lon="6.20303">
        <ele>2106.39</ele>
        <time>2021-06-28T11:12:32Z</time>
      </trkpt>
      <trkpt lat="45.39943" lon="6.20299">
        <ele>2108.31</ele>
        <time>2021-06-28T11:12:37Z</time>
      </trkpt>
      <trkpt lat="45.39945" lon="6.20297">
        <ele>2107.83</ele>
        <time>2021-06-28T11:12:42Z</time>
      </trkpt>
      <trkpt lat="45.39952" lon="6.203">
        <ele>2108.79</ele>
        <time>2021-06-28T11:12:54Z</time>
      </trkpt>
      <trkpt lat="45.39955" lon="6.20299">
        <ele>2112.15</ele>
        <time>2021-06-28T11:13:00Z</time>
      </trkpt>
      <trkpt lat="45.39958" lon="6.20289">
        <ele>2113.12</ele>
        <time>2021-06-28T11:13:11Z</time>
      </trkpt>
      <trkpt lat="45.39959" lon="6.20281">
        <ele>2115.04</ele>
        <time>2021-06-28T11:13:22Z</time>
      </trkpt>
      <trkpt lat="45.39959" lon="6.20273">
        <ele>2114.08</ele>
        <time>2021-06-28T11:13:33Z</time>
      </trkpt>
      <trkpt lat="45.39961" lon="6.2027">
        <ele>2117.44</ele>
        <time>2021-06-28T11:13:40Z</time>
      </trkpt>
      <trkpt lat="45.39962" lon="6.20266">
        <ele>2114.08</ele>
        <time>2021-06-28T11:13:48Z</time>
      </trkpt>
      <trkpt lat="45.39962" lon="6.20266">
        <ele>2118.88</ele>
        <time>2021-06-28T11:13:49Z</time>
      </trkpt>
      <trkpt lat="45.39967" lon="6.2027">
        <ele>2120.32</ele>
        <time>2021-06-28T11:14:01Z</time>
      </trkpt>
      <trkpt lat="45.39968" lon="6.20271">
        <ele>2117.44</ele>
        <time>2021-06-28T11:14:02Z</time>
      </trkpt>
      <trkpt lat="45.39969" lon="6.20271">
        <ele>2120.81</ele>
        <time>2021-06-28T11:14:06Z</time>
      </trkpt>
      <trkpt lat="45.39969" lon="6.20272">
        <ele>2117.44</ele>
        <time>2021-06-28T11:14:07Z</time>
      </trkpt>
      <trkpt lat="45.3997" lon="6.20271">
        <ele>2121.29</ele>
        <time>2021-06-28T11:14:08Z</time>
      </trkpt>
      <trkpt lat="45.3997" lon="6.20271">
        <ele>2117.92</ele>
        <time>2021-06-28T11:14:09Z</time>
      </trkpt>
      <trkpt lat="45.3997" lon="6.2027">
        <ele>2120.32</ele>
        <time>2021-06-28T11:14:10Z</time>
      </trkpt>
      <trkpt lat="45.39971" lon="6.20263">
        <ele>2123.21</ele>
        <time>2021-06-28T11:14:20Z</time>
      </trkpt>
      <trkpt lat="45.39973" lon="6.20257">
        <ele>2122.73</ele>
        <time>2021-06-28T11:14:31Z</time>
      </trkpt>
      <trkpt lat="45.39975" lon="6.2025">
        <ele>2126.09</ele>
        <time>2021-06-28T11:14:42Z</time>
      </trkpt>
      <trkpt lat="45.39975" lon="6.2025">
        <ele>2123.21</ele>
        <time>2021-06-28T11:14:45Z</time>
      </trkpt>
      <trkpt lat="45.39975" lon="6.20249">
        <ele>2126.57</ele>
        <time>2021-06-28T11:14:46Z</time>
      </trkpt>
      <trkpt lat="45.39976" lon="6.20248">
        <ele>2123.21</ele>
        <time>2021-06-28T11:14:50Z</time>
      </trkpt>
      <trkpt lat="45.39976" lon="6.20247">
        <ele>2127.05</ele>
        <time>2021-06-28T11:14:51Z</time>
      </trkpt>
      <trkpt lat="45.39976" lon="6.20246">
        <ele>2124.17</ele>
        <time>2021-06-28T11:14:53Z</time>
      </trkpt>
      <trkpt lat="45.39977" lon="6.20245">
        <ele>2127.53</ele>
        <time>2021-06-28T11:14:54Z</time>
      </trkpt>
      <trkpt lat="45.39977" lon="6.20244">
        <ele>2124.17</ele>
        <time>2021-06-28T11:14:55Z</time>
      </trkpt>
      <trkpt lat="45.39977" lon="6.20244">
        <ele>2128.02</ele>
        <time>2021-06-28T11:14:56Z</time>
      </trkpt>
      <trkpt lat="45.39977" lon="6.20243">
        <ele>2124.17</ele>
        <time>2021-06-28T11:14:57Z</time>
      </trkpt>
      <trkpt lat="45.39977" lon="6.20243">
        <ele>2128.5</ele>
        <time>2021-06-28T11:14:58Z</time>
      </trkpt>
      <trkpt lat="45.39974" lon="6.20236">
        <ele>2125.13</ele>
        <time>2021-06-28T11:15:06Z</time>
      </trkpt>
      <trkpt lat="45.39974" lon="6.20236">
        <ele>2128.98</ele>
        <time>2021-06-28T11:15:07Z</time>
      </trkpt>
      <trkpt lat="45.39972" lon="6.2023">
        <ele>2129.94</ele>
        <time>2021-06-28T11:15:18Z</time>
      </trkpt>
      <trkpt lat="45.39972" lon="6.20229">
        <ele>2126.57</ele>
        <time>2021-06-28T11:15:19Z</time>
      </trkpt>
      <trkpt lat="45.39972" lon="6.20229">
        <ele>2130.42</ele>
        <time>2021-06-28T11:15:20Z</time>
      </trkpt>
      <trkpt lat="45.39975" lon="6.20222">
        <ele>2132.34</ele>
        <time>2021-06-28T11:15:32Z</time>
      </trkpt>
      <trkpt lat="45.39978" lon="6.20217">
        <ele>2131.38</ele>
        <time>2021-06-28T11:15:43Z</time>
      </trkpt>
      <trkpt lat="45.39982" lon="6.20214">
        <ele>2135.23</ele>
        <time>2021-06-28T11:15:55Z</time>
      </trkpt>
      <trkpt lat="45.39984" lon="6.20207">
        <ele>2134.26</ele>
        <time>2021-06-28T11:16:06Z</time>
      </trkpt>
      <trkpt lat="45.39984" lon="6.20205">
        <ele>2137.63</ele>
        <time>2021-06-28T11:16:10Z</time>
      </trkpt>
      <trkpt lat="45.39987" lon="6.20202">
        <ele>2136.67</ele>
        <time>2021-06-28T11:16:21Z</time>
      </trkpt>
      <trkpt lat="45.3999" lon="6.20202">
        <ele>2140.03</ele>
        <time>2021-06-28T11:16:27Z</time>
      </trkpt>
      <trkpt lat="45.39995" lon="6.20199">
        <ele>2142.44</ele>
        <time>2021-06-28T11:16:40Z</time>
      </trkpt>
      <trkpt lat="45.39996" lon="6.20199">
        <ele>2139.07</ele>
        <time>2021-06-28T11:16:41Z</time>
      </trkpt>
      <trkpt lat="45.39996" lon="6.20199">
        <ele>2142.92</ele>
        <time>2021-06-28T11:16:43Z</time>
      </trkpt>
      <trkpt lat="45.40002" lon="6.20198">
        <ele>2144.36</ele>
        <time>2021-06-28T11:16:56Z</time>
      </trkpt>
      <trkpt lat="45.40006" lon="6.20196">
        <ele>2144.36</ele>
        <time>2021-06-28T11:17:08Z</time>
      </trkpt>
      <trkpt lat="45.40007" lon="6.20191">
        <ele>2143.88</ele>
        <time>2021-06-28T11:17:20Z</time>
      </trkpt>
      <trkpt lat="45.40009" lon="6.20184">
        <ele>2147.24</ele>
        <time>2021-06-28T11:17:32Z</time>
      </trkpt>
      <trkpt lat="45.40008" lon="6.20176">
        <ele>2146.28</ele>
        <time>2021-06-28T11:17:44Z</time>
      </trkpt>
      <trkpt lat="45.40005" lon="6.20168">
        <ele>2148.2</ele>
        <time>2021-06-28T11:17:57Z</time>
      </trkpt>
      <trkpt lat="45.40006" lon="6.20159">
        <ele>2151.09</ele>
        <time>2021-06-28T11:18:08Z</time>
      </trkpt>
      <trkpt lat="45.40006" lon="6.20149">
        <ele>2149.65</ele>
        <time>2021-06-28T11:18:20Z</time>
      </trkpt>
      <trkpt lat="45.40005" lon="6.20147">
        <ele>2153.01</ele>
        <time>2021-06-28T11:18:24Z</time>
      </trkpt>
      <trkpt lat="45.39999" lon="6.2014">
        <ele>2153.97</ele>
        <time>2021-06-28T11:18:36Z</time>
      </trkpt>
      <trkpt lat="45.4" lon="6.20134">
        <ele>2153.01</ele>
        <time>2021-06-28T11:18:43Z</time>
      </trkpt>
      <trkpt lat="45.39998" lon="6.20126">
        <ele>2154.93</ele>
        <time>2021-06-28T11:18:53Z</time>
      </trkpt>
      <trkpt lat="45.39993" lon="6.20122">
        <ele>2158.78</ele>
        <time>2021-06-28T11:19:03Z</time>
      </trkpt>
      <trkpt lat="45.39993" lon="6.20119">
        <ele>2155.89</ele>
        <time>2021-06-28T11:19:07Z</time>
      </trkpt>
      <trkpt lat="45.39991" lon="6.20117">
        <ele>2159.26</ele>
        <time>2021-06-28T11:19:11Z</time>
      </trkpt>
      <trkpt lat="45.39989" lon="6.20113">
        <ele>2158.78</ele>
        <time>2021-06-28T11:19:16Z</time>
      </trkpt>
      <trkpt lat="45.39988" lon="6.20108">
        <ele>2159.74</ele>
        <time>2021-06-28T11:19:22Z</time>
      </trkpt>
      <trkpt lat="45.39985" lon="6.20101">
        <ele>2160.7</ele>
        <time>2021-06-28T11:19:33Z</time>
      </trkpt>
      <trkpt lat="45.39983" lon="6.20095">
        <ele>2163.1</ele>
        <time>2021-06-28T11:19:45Z</time>
      </trkpt>
      <trkpt lat="45.39982" lon="6.20088">
        <ele>2162.14</ele>
        <time>2021-06-28T11:19:57Z</time>
      </trkpt>
      <trkpt lat="45.39983" lon="6.20085">
        <ele>2165.51</ele>
        <time>2021-06-28T11:20:07Z</time>
      </trkpt>
      <trkpt lat="45.39982" lon="6.20078">
        <ele>2164.55</ele>
        <time>2021-06-28T11:20:18Z</time>
      </trkpt>
      <trkpt lat="45.39978" lon="6.20067">
        <ele>2166.95</ele>
        <time>2021-06-28T11:20:28Z</time>
      </trkpt>
      <trkpt lat="45.39971" lon="6.20055">
        <ele>2166.47</ele>
        <time>2021-06-28T11:20:41Z</time>
      </trkpt>
      <trkpt lat="45.39966" lon="6.20049">
        <ele>2165.03</ele>
        <time>2021-06-28T11:20:53Z</time>
      </trkpt>
      <trkpt lat="45.39966" lon="6.20049">
        <ele>2168.39</ele>
        <time>2021-06-28T11:20:54Z</time>
      </trkpt>
      <trkpt lat="45.39963" lon="6.20043">
        <ele>2167.43</ele>
        <time>2021-06-28T11:21:01Z</time>
      </trkpt>
      <trkpt lat="45.39959" lon="6.20038">
        <ele>2169.83</ele>
        <time>2021-06-28T11:21:10Z</time>
      </trkpt>
      <trkpt lat="45.39958" lon="6.20034">
        <ele>2169.83</ele>
        <time>2021-06-28T11:21:14Z</time>
      </trkpt>
      <trkpt lat="45.39953" lon="6.2003">
        <ele>2171.76</ele>
        <time>2021-06-28T11:21:22Z</time>
      </trkpt>
      <trkpt lat="45.39953" lon="6.2003">
        <ele>2167.91</ele>
        <time>2021-06-28T11:21:24Z</time>
      </trkpt>
      <trkpt lat="45.39952" lon="6.20028">
        <ele>2171.27</ele>
        <time>2021-06-28T11:21:27Z</time>
      </trkpt>
      <trkpt lat="45.3995" lon="6.20026">
        <ele>2168.39</ele>
        <time>2021-06-28T11:21:34Z</time>
      </trkpt>
      <trkpt lat="45.3995" lon="6.20025">
        <ele>2174.64</ele>
        <time>2021-06-28T11:21:35Z</time>
      </trkpt>
      <trkpt lat="45.3995" lon="6.20024">
        <ele>2170.79</ele>
        <time>2021-06-28T11:21:36Z</time>
      </trkpt>
      <trkpt lat="45.39949" lon="6.20021">
        <ele>2174.16</ele>
        <time>2021-06-28T11:21:40Z</time>
      </trkpt>
      <trkpt lat="45.39946" lon="6.20016">
        <ele>2174.64</ele>
        <time>2021-06-28T11:21:49Z</time>
      </trkpt>
      <trkpt lat="45.39944" lon="6.20015">
        <ele>2174.16</ele>
        <time>2021-06-28T11:21:53Z</time>
      </trkpt>
      <trkpt lat="45.39938" lon="6.20009">
        <ele>2172.72</ele>
        <time>2021-06-28T11:22:06Z</time>
      </trkpt>
      <trkpt lat="45.39937" lon="6.20009">
        <ele>2177.04</ele>
        <time>2021-06-28T11:22:07Z</time>
      </trkpt>
      <trkpt lat="45.39937" lon="6.20009">
        <ele>2174.16</ele>
        <time>2021-06-28T11:22:09Z</time>
      </trkpt>
      <trkpt lat="45.39935" lon="6.20008">
        <ele>2177.04</ele>
        <time>2021-06-28T11:22:14Z</time>
      </trkpt>
      <trkpt lat="45.39932" lon="6.20003">
        <ele>2177.52</ele>
        <time>2021-06-28T11:22:28Z</time>
      </trkpt>
      <trkpt lat="45.39931" lon="6.20002">
        <ele>2180.41</ele>
        <time>2021-06-28T11:22:29Z</time>
      </trkpt>
      <trkpt lat="45.39932" lon="6.20002">
        <ele>2178.48</ele>
        <time>2021-06-28T11:22:30Z</time>
      </trkpt>
      <trkpt lat="45.3993" lon="6.20001">
        <ele>2175.6</ele>
        <time>2021-06-28T11:22:51Z</time>
      </trkpt>
      <trkpt lat="45.39931" lon="6.2">
        <ele>2179.45</ele>
        <time>2021-06-28T11:22:54Z</time>
      </trkpt>
      <trkpt lat="45.3993" lon="6.19999">
        <ele>2176.08</ele>
        <time>2021-06-28T11:22:55Z</time>
      </trkpt>
      <trkpt lat="45.39931" lon="6.19999">
        <ele>2179.45</ele>
        <time>2021-06-28T11:22:58Z</time>
      </trkpt>
      <trkpt lat="45.3993" lon="6.19999">
        <ele>2178</ele>
        <time>2021-06-28T11:23:01Z</time>
      </trkpt>
      <trkpt lat="45.39929" lon="6.19999">
        <ele>2177.04</ele>
        <time>2021-06-28T11:23:30Z</time>
      </trkpt>
      <trkpt lat="45.39928" lon="6.19997">
        <ele>2178</ele>
        <time>2021-06-28T11:23:51Z</time>
      </trkpt>
      <trkpt lat="45.39929" lon="6.19998">
        <ele>2178</ele>
        <time>2021-06-28T11:24:17Z</time>
      </trkpt>
      <trkpt lat="45.39928" lon="6.19997">
        <ele>2178.48</ele>
        <time>2021-06-28T11:24:53Z</time>
      </trkpt>
      <trkpt lat="45.39928" lon="6.19997">
        <ele>2178.97</ele>
        <time>2021-06-28T11:25:02Z</time>
      </trkpt>
      <trkpt lat="45.3993" lon="6.19998">
        <ele>2178</ele>
        <time>2021-06-28T11:25:30Z</time>
      </trkpt>
      <trkpt lat="45.39929" lon="6.19999">
        <ele>2178.48</ele>
        <time>2021-06-28T11:26:07Z</time>
      </trkpt>
      <trkpt lat="45.39929" lon="6.20001">
        <ele>2178.48</ele>
        <time>2021-06-28T11:26:34Z</time>
      </trkpt>
      <trkpt lat="45.39927" lon="6.19996">
        <ele>2178</ele>
        <time>2021-06-28T11:26:52Z</time>
      </trkpt>
      <trkpt lat="45.39927" lon="6.19994">
        <ele>2173.68</ele>
        <time>2021-06-28T11:27:02Z</time>
      </trkpt>
      <trkpt lat="45.39927" lon="6.19994">
        <ele>2175.6</ele>
        <time>2021-06-28T11:27:03Z</time>
      </trkpt>
      <trkpt lat="45.39923" lon="6.19989">
        <ele>2172.72</ele>
        <time>2021-06-28T11:27:19Z</time>
      </trkpt>
      <trkpt lat="45.39923" lon="6.19983">
        <ele>2171.76</ele>
        <time>2021-06-28T11:27:31Z</time>
      </trkpt>
      <trkpt lat="45.39923" lon="6.19982">
        <ele>2168.87</ele>
        <time>2021-06-28T11:27:43Z</time>
      </trkpt>
      <trkpt lat="45.3992" lon="6.19977">
        <ele>2166.47</ele>
        <time>2021-06-28T11:27:54Z</time>
      </trkpt>
      <trkpt lat="45.39918" lon="6.19974">
        <ele>2163.1</ele>
        <time>2021-06-28T11:28:08Z</time>
      </trkpt>
      <trkpt lat="45.39918" lon="6.19974">
        <ele>2166.47</ele>
        <time>2021-06-28T11:28:09Z</time>
      </trkpt>
      <trkpt lat="45.39919" lon="6.19974">
        <ele>2163.58</ele>
        <time>2021-06-28T11:28:14Z</time>
      </trkpt>
      <trkpt lat="45.39921" lon="6.1997">
        <ele>2161.18</ele>
        <time>2021-06-28T11:28:24Z</time>
      </trkpt>
      <trkpt lat="45.39924" lon="6.19967">
        <ele>2160.22</ele>
        <time>2021-06-28T11:28:38Z</time>
      </trkpt>
      <trkpt lat="45.39922" lon="6.19961">
        <ele>2158.3</ele>
        <time>2021-06-28T11:28:56Z</time>
      </trkpt>
      <trkpt lat="45.39919" lon="6.19962">
        <ele>2156.86</ele>
        <time>2021-06-28T11:29:16Z</time>
      </trkpt>
      <trkpt lat="45.39916" lon="6.1996">
        <ele>2155.89</ele>
        <time>2021-06-28T11:29:30Z</time>
      </trkpt>
      <trkpt lat="45.39913" lon="6.19958">
        <ele>2152.53</ele>
        <time>2021-06-28T11:29:42Z</time>
      </trkpt>
      <trkpt lat="45.3991" lon="6.19955">
        <ele>2151.09</ele>
        <time>2021-06-28T11:29:56Z</time>
      </trkpt>
      <trkpt lat="45.39907" lon="6.1995">
        <ele>2148.68</ele>
        <time>2021-06-28T11:30:09Z</time>
      </trkpt>
      <trkpt lat="45.39906" lon="6.19948">
        <ele>2147.72</ele>
        <time>2021-06-28T11:30:22Z</time>
      </trkpt>
      <trkpt lat="45.39904" lon="6.19946">
        <ele>2144.84</ele>
        <time>2021-06-28T11:30:38Z</time>
      </trkpt>
      <trkpt lat="45.39901" lon="6.19947">
        <ele>2142.92</ele>
        <time>2021-06-28T11:30:54Z</time>
      </trkpt>
      <trkpt lat="45.39897" lon="6.19946">
        <ele>2140.51</ele>
        <time>2021-06-28T11:31:07Z</time>
      </trkpt>
      <trkpt lat="45.39893" lon="6.19946">
        <ele>2139.07</ele>
        <time>2021-06-28T11:31:19Z</time>
      </trkpt>
      <trkpt lat="45.39889" lon="6.19944">
        <ele>2137.63</ele>
        <time>2021-06-28T11:31:25Z</time>
      </trkpt>
      <trkpt lat="45.39881" lon="6.19943">
        <ele>2136.19</ele>
        <time>2021-06-28T11:31:35Z</time>
      </trkpt>
      <trkpt lat="45.3988" lon="6.19943">
        <ele>2136.67</ele>
        <time>2021-06-28T11:31:37Z</time>
      </trkpt>
      <trkpt lat="45.39872" lon="6.19943">
        <ele>2135.23</ele>
        <time>2021-06-28T11:31:49Z</time>
      </trkpt>
      <trkpt lat="45.39866" lon="6.19944">
        <ele>2134.26</ele>
        <time>2021-06-28T11:32:02Z</time>
      </trkpt>
      <trkpt lat="45.39863" lon="6.19945">
        <ele>2133.78</ele>
        <time>2021-06-28T11:32:19Z</time>
      </trkpt>
      <trkpt lat="45.39865" lon="6.1995">
        <ele>2134.74</ele>
        <time>2021-06-28T11:32:35Z</time>
      </trkpt>
      <trkpt lat="45.39862" lon="6.19943">
        <ele>2135.23</ele>
        <time>2021-06-28T11:33:02Z</time>
      </trkpt>
      <trkpt lat="45.39861" lon="6.19943">
        <ele>2135.23</ele>
        <time>2021-06-28T11:33:30Z</time>
      </trkpt>
      <trkpt lat="45.39858" lon="6.19947">
        <ele>2135.23</ele>
        <time>2021-06-28T11:33:41Z</time>
      </trkpt>
      <trkpt lat="45.39854" lon="6.19951">
        <ele>2135.23</ele>
        <time>2021-06-28T11:33:51Z</time>
      </trkpt>
      <trkpt lat="45.39854" lon="6.19951">
        <ele>2137.15</ele>
        <time>2021-06-28T11:33:53Z</time>
      </trkpt>
      <trkpt lat="45.39849" lon="6.19952">
        <ele>2136.67</ele>
        <time>2021-06-28T11:34:04Z</time>
      </trkpt>
      <trkpt lat="45.39848" lon="6.19953">
        <ele>2140.51</ele>
        <time>2021-06-28T11:34:05Z</time>
      </trkpt>
      <trkpt lat="45.39845" lon="6.19953">
        <ele>2140.99</ele>
        <time>2021-06-28T11:34:17Z</time>
      </trkpt>
      <trkpt lat="45.39842" lon="6.19953">
        <ele>2140.99</ele>
        <time>2021-06-28T11:34:29Z</time>
      </trkpt>
      <trkpt lat="45.39839" lon="6.19955">
        <ele>2141.47</ele>
        <time>2021-06-28T11:34:50Z</time>
      </trkpt>
      <trkpt lat="45.39835" lon="6.19957">
        <ele>2144.36</ele>
        <time>2021-06-28T11:35:00Z</time>
      </trkpt>
      <trkpt lat="45.39831" lon="6.19957">
        <ele>2146.76</ele>
        <time>2021-06-28T11:35:11Z</time>
      </trkpt>
      <trkpt lat="45.3983" lon="6.19957">
        <ele>2143.4</ele>
        <time>2021-06-28T11:35:15Z</time>
      </trkpt>
      <trkpt lat="45.39829" lon="6.19957">
        <ele>2146.76</ele>
        <time>2021-06-28T11:35:16Z</time>
      </trkpt>
      <trkpt lat="45.39829" lon="6.19959">
        <ele>2146.28</ele>
        <time>2021-06-28T11:35:22Z</time>
      </trkpt>
      <trkpt lat="45.39825" lon="6.1996">
        <ele>2147.24</ele>
        <time>2021-06-28T11:35:34Z</time>
      </trkpt>
      <trkpt lat="45.39822" lon="6.19961">
        <ele>2148.2</ele>
        <time>2021-06-28T11:35:47Z</time>
      </trkpt>
      <trkpt lat="45.39819" lon="6.1996">
        <ele>2152.53</ele>
        <time>2021-06-28T11:35:57Z</time>
      </trkpt>
      <trkpt lat="45.39816" lon="6.19963">
        <ele>2153.49</ele>
        <time>2021-06-28T11:36:09Z</time>
      </trkpt>
      <trkpt lat="45.39812" lon="6.19961">
        <ele>2153.01</ele>
        <time>2021-06-28T11:36:21Z</time>
      </trkpt>
      <trkpt lat="45.39811" lon="6.19961">
        <ele>2155.89</ele>
        <time>2021-06-28T11:36:28Z</time>
      </trkpt>
      <trkpt lat="45.39809" lon="6.1996">
        <ele>2156.86</ele>
        <time>2021-06-28T11:36:41Z</time>
      </trkpt>
      <trkpt lat="45.39805" lon="6.19963">
        <ele>2159.26</ele>
        <time>2021-06-28T11:36:53Z</time>
      </trkpt>
      <trkpt lat="45.39805" lon="6.19962">
        <ele>2160.7</ele>
        <time>2021-06-28T11:36:55Z</time>
      </trkpt>
      <trkpt lat="45.39804" lon="6.19962">
        <ele>2156.86</ele>
        <time>2021-06-28T11:36:57Z</time>
      </trkpt>
      <trkpt lat="45.39804" lon="6.19962">
        <ele>2160.7</ele>
        <time>2021-06-28T11:36:58Z</time>
      </trkpt>
      <trkpt lat="45.39804" lon="6.19963">
        <ele>2157.34</ele>
        <time>2021-06-28T11:36:59Z</time>
      </trkpt>
      <trkpt lat="45.39803" lon="6.19963">
        <ele>2160.7</ele>
        <time>2021-06-28T11:37:00Z</time>
      </trkpt>
      <trkpt lat="45.39803" lon="6.19964">
        <ele>2156.86</ele>
        <time>2021-06-28T11:37:01Z</time>
      </trkpt>
      <trkpt lat="45.39803" lon="6.19964">
        <ele>2161.18</ele>
        <time>2021-06-28T11:37:02Z</time>
      </trkpt>
      <trkpt lat="45.39799" lon="6.19965">
        <ele>2161.18</ele>
        <time>2021-06-28T11:37:16Z</time>
      </trkpt>
      <trkpt lat="45.39795" lon="6.19965">
        <ele>2164.55</ele>
        <time>2021-06-28T11:37:28Z</time>
      </trkpt>
      <trkpt lat="45.39793" lon="6.19966">
        <ele>2162.62</ele>
        <time>2021-06-28T11:37:42Z</time>
      </trkpt>
      <trkpt lat="45.39793" lon="6.19966">
        <ele>2166.95</ele>
        <time>2021-06-28T11:37:43Z</time>
      </trkpt>
      <trkpt lat="45.39792" lon="6.19966">
        <ele>2162.62</ele>
        <time>2021-06-28T11:37:44Z</time>
      </trkpt>
      <trkpt lat="45.39792" lon="6.19966">
        <ele>2166.95</ele>
        <time>2021-06-28T11:37:45Z</time>
      </trkpt>
      <trkpt lat="45.39789" lon="6.19964">
        <ele>2166.95</ele>
        <time>2021-06-28T11:37:59Z</time>
      </trkpt>
      <trkpt lat="45.39786" lon="6.19961">
        <ele>2168.87</ele>
        <time>2021-06-28T11:38:13Z</time>
      </trkpt>
      <trkpt lat="45.39783" lon="6.19958">
        <ele>2172.24</ele>
        <time>2021-06-28T11:38:25Z</time>
      </trkpt>
      <trkpt lat="45.3978" lon="6.19957">
        <ele>2172.72</ele>
        <time>2021-06-28T11:38:37Z</time>
      </trkpt>
      <trkpt lat="45.3978" lon="6.19956">
        <ele>2171.76</ele>
        <time>2021-06-28T11:38:38Z</time>
      </trkpt>
      <trkpt lat="45.39776" lon="6.19956">
        <ele>2174.16</ele>
        <time>2021-06-28T11:38:49Z</time>
      </trkpt>
      <trkpt lat="45.39773" lon="6.19955">
        <ele>2174.64</ele>
        <time>2021-06-28T11:39:01Z</time>
      </trkpt>
      <trkpt lat="45.39772" lon="6.19953">
        <ele>2177.52</ele>
        <time>2021-06-28T11:39:08Z</time>
      </trkpt>
      <trkpt lat="45.39771" lon="6.19951">
        <ele>2174.64</ele>
        <time>2021-06-28T11:39:11Z</time>
      </trkpt>
      <trkpt lat="45.3977" lon="6.19951">
        <ele>2178</ele>
        <time>2021-06-28T11:39:12Z</time>
      </trkpt>
      <trkpt lat="45.39766" lon="6.19951">
        <ele>2178.48</ele>
        <time>2021-06-28T11:39:27Z</time>
      </trkpt>
      <trkpt lat="45.39763" lon="6.19948">
        <ele>2178.97</ele>
        <time>2021-06-28T11:39:39Z</time>
      </trkpt>
      <trkpt lat="45.39761" lon="6.19946">
        <ele>2181.37</ele>
        <time>2021-06-28T11:39:52Z</time>
      </trkpt>
      <trkpt lat="45.39759" lon="6.19945">
        <ele>2183.29</ele>
        <time>2021-06-28T11:40:06Z</time>
      </trkpt>
      <trkpt lat="45.39756" lon="6.19947">
        <ele>2187.14</ele>
        <time>2021-06-28T11:40:18Z</time>
      </trkpt>
      <trkpt lat="45.39756" lon="6.19949">
        <ele>2183.29</ele>
        <time>2021-06-28T11:40:22Z</time>
      </trkpt>
      <trkpt lat="45.39756" lon="6.1995">
        <ele>2186.66</ele>
        <time>2021-06-28T11:40:23Z</time>
      </trkpt>
      <trkpt lat="45.39756" lon="6.19952">
        <ele>2187.14</ele>
        <time>2021-06-28T11:40:34Z</time>
      </trkpt>
      <trkpt lat="45.39753" lon="6.1995">
        <ele>2186.18</ele>
        <time>2021-06-28T11:40:49Z</time>
      </trkpt>
      <trkpt lat="45.39752" lon="6.1995">
        <ele>2189.54</ele>
        <time>2021-06-28T11:40:50Z</time>
      </trkpt>
      <trkpt lat="45.39753" lon="6.1995">
        <ele>2189.06</ele>
        <time>2021-06-28T11:40:55Z</time>
      </trkpt>
      <trkpt lat="45.39749" lon="6.19948">
        <ele>2191.46</ele>
        <time>2021-06-28T11:41:06Z</time>
      </trkpt>
      <trkpt lat="45.3975" lon="6.19947">
        <ele>2188.58</ele>
        <time>2021-06-28T11:41:08Z</time>
      </trkpt>
      <trkpt lat="45.39749" lon="6.19948">
        <ele>2192.42</ele>
        <time>2021-06-28T11:41:09Z</time>
      </trkpt>
      <trkpt lat="45.39747" lon="6.19947">
        <ele>2192.9</ele>
        <time>2021-06-28T11:41:20Z</time>
      </trkpt>
      <trkpt lat="45.39744" lon="6.19943">
        <ele>2195.31</ele>
        <time>2021-06-28T11:41:32Z</time>
      </trkpt>
      <trkpt lat="45.39743" lon="6.19942">
        <ele>2194.35</ele>
        <time>2021-06-28T11:41:36Z</time>
      </trkpt>
      <trkpt lat="45.3974" lon="6.1994">
        <ele>2194.83</ele>
        <time>2021-06-28T11:41:48Z</time>
      </trkpt>
      <trkpt lat="45.39738" lon="6.19939">
        <ele>2197.23</ele>
        <time>2021-06-28T11:41:57Z</time>
      </trkpt>
      <trkpt lat="45.39736" lon="6.19938">
        <ele>2197.71</ele>
        <time>2021-06-28T11:42:01Z</time>
      </trkpt>
      <trkpt lat="45.39734" lon="6.19933">
        <ele>2200.11</ele>
        <time>2021-06-28T11:42:14Z</time>
      </trkpt>
      <trkpt lat="45.39732" lon="6.19928">
        <ele>2199.15</ele>
        <time>2021-06-28T11:42:27Z</time>
      </trkpt>
      <trkpt lat="45.3973" lon="6.19927">
        <ele>2203</ele>
        <time>2021-06-28T11:42:33Z</time>
      </trkpt>
      <trkpt lat="45.3973" lon="6.19926">
        <ele>2201.08</ele>
        <time>2021-06-28T11:42:36Z</time>
      </trkpt>
      <trkpt lat="45.39728" lon="6.19922">
        <ele>2203.96</ele>
        <time>2021-06-28T11:42:48Z</time>
      </trkpt>
      <trkpt lat="45.39725" lon="6.19923">
        <ele>2205.4</ele>
        <time>2021-06-28T11:43:04Z</time>
      </trkpt>
      <trkpt lat="45.39723" lon="6.19919">
        <ele>2206.84</ele>
        <time>2021-06-28T11:43:16Z</time>
      </trkpt>
      <trkpt lat="45.3972" lon="6.19917">
        <ele>2207.32</ele>
        <time>2021-06-28T11:43:29Z</time>
      </trkpt>
      <trkpt lat="45.39717" lon="6.19913">
        <ele>2210.21</ele>
        <time>2021-06-28T11:43:43Z</time>
      </trkpt>
      <trkpt lat="45.39714" lon="6.19909">
        <ele>2211.17</ele>
        <time>2021-06-28T11:43:55Z</time>
      </trkpt>
      <trkpt lat="45.39711" lon="6.19906">
        <ele>2214.05</ele>
        <time>2021-06-28T11:44:07Z</time>
      </trkpt>
      <trkpt lat="45.39711" lon="6.19906">
        <ele>2211.17</ele>
        <time>2021-06-28T11:44:08Z</time>
      </trkpt>
      <trkpt lat="45.39711" lon="6.19906">
        <ele>2215.01</ele>
        <time>2021-06-28T11:44:09Z</time>
      </trkpt>
      <trkpt lat="45.39711" lon="6.19906">
        <ele>2212.13</ele>
        <time>2021-06-28T11:44:10Z</time>
      </trkpt>
      <trkpt lat="45.39709" lon="6.19903">
        <ele>2215.5</ele>
        <time>2021-06-28T11:44:16Z</time>
      </trkpt>
      <trkpt lat="45.39707" lon="6.19899">
        <ele>2218.38</ele>
        <time>2021-06-28T11:44:28Z</time>
      </trkpt>
      <trkpt lat="45.39706" lon="6.19899">
        <ele>2215.5</ele>
        <time>2021-06-28T11:44:30Z</time>
      </trkpt>
      <trkpt lat="45.39706" lon="6.19898">
        <ele>2218.38</ele>
        <time>2021-06-28T11:44:31Z</time>
      </trkpt>
      <trkpt lat="45.39706" lon="6.19896">
        <ele>2215.01</ele>
        <time>2021-06-28T11:44:37Z</time>
      </trkpt>
      <trkpt lat="45.39706" lon="6.19896">
        <ele>2218.86</ele>
        <time>2021-06-28T11:44:38Z</time>
      </trkpt>
      <trkpt lat="45.39705" lon="6.1989">
        <ele>2219.34</ele>
        <time>2021-06-28T11:44:52Z</time>
      </trkpt>
      <trkpt lat="45.39704" lon="6.19885">
        <ele>2220.3</ele>
        <time>2021-06-28T11:45:04Z</time>
      </trkpt>
      <trkpt lat="45.39703" lon="6.19881">
        <ele>2222.71</ele>
        <time>2021-06-28T11:45:15Z</time>
      </trkpt>
      <trkpt lat="45.39699" lon="6.19873">
        <ele>2223.19</ele>
        <time>2021-06-28T11:45:28Z</time>
      </trkpt>
      <trkpt lat="45.39698" lon="6.19872">
        <ele>2226.55</ele>
        <time>2021-06-28T11:45:34Z</time>
      </trkpt>
      <trkpt lat="45.39697" lon="6.1987">
        <ele>2223.19</ele>
        <time>2021-06-28T11:45:38Z</time>
      </trkpt>
      <trkpt lat="45.39697" lon="6.1987">
        <ele>2227.99</ele>
        <time>2021-06-28T11:45:39Z</time>
      </trkpt>
      <trkpt lat="45.39696" lon="6.19869">
        <ele>2224.63</ele>
        <time>2021-06-28T11:45:42Z</time>
      </trkpt>
      <trkpt lat="45.39696" lon="6.19868">
        <ele>2227.99</ele>
        <time>2021-06-28T11:45:43Z</time>
      </trkpt>
      <trkpt lat="45.39695" lon="6.19863">
        <ele>2228.47</ele>
        <time>2021-06-28T11:45:58Z</time>
      </trkpt>
      <trkpt lat="45.39692" lon="6.19859">
        <ele>2230.4</ele>
        <time>2021-06-28T11:46:11Z</time>
      </trkpt>
      <trkpt lat="45.39688" lon="6.19858">
        <ele>2230.4</ele>
        <time>2021-06-28T11:46:24Z</time>
      </trkpt>
      <trkpt lat="45.39686" lon="6.19859">
        <ele>2233.76</ele>
        <time>2021-06-28T11:46:31Z</time>
      </trkpt>
      <trkpt lat="45.39686" lon="6.19861">
        <ele>2229.92</ele>
        <time>2021-06-28T11:46:35Z</time>
      </trkpt>
      <trkpt lat="45.39685" lon="6.19863">
        <ele>2234.72</ele>
        <time>2021-06-28T11:46:37Z</time>
      </trkpt>
      <trkpt lat="45.39685" lon="6.19863">
        <ele>2232.8</ele>
        <time>2021-06-28T11:46:38Z</time>
      </trkpt>
      <trkpt lat="45.39682" lon="6.1986">
        <ele>2233.28</ele>
        <time>2021-06-28T11:46:43Z</time>
      </trkpt>
      <trkpt lat="45.39673" lon="6.19863">
        <ele>2232.32</ele>
        <time>2021-06-28T11:46:58Z</time>
      </trkpt>
      <trkpt lat="45.39671" lon="6.19863">
        <ele>2235.68</ele>
        <time>2021-06-28T11:47:03Z</time>
      </trkpt>
      <trkpt lat="45.3967" lon="6.19863">
        <ele>2233.76</ele>
        <time>2021-06-28T11:47:05Z</time>
      </trkpt>
      <trkpt lat="45.39668" lon="6.19864">
        <ele>2234.72</ele>
        <time>2021-06-28T11:47:07Z</time>
      </trkpt>
      <trkpt lat="45.39663" lon="6.19863">
        <ele>2234.72</ele>
        <time>2021-06-28T11:47:15Z</time>
      </trkpt>
      <trkpt lat="45.39658" lon="6.19864">
        <ele>2235.68</ele>
        <time>2021-06-28T11:47:25Z</time>
      </trkpt>
      <trkpt lat="45.39657" lon="6.19864">
        <ele>2237.61</ele>
        <time>2021-06-28T11:47:27Z</time>
      </trkpt>
      <trkpt lat="45.39653" lon="6.19871">
        <ele>2238.57</ele>
        <time>2021-06-28T11:47:38Z</time>
      </trkpt>
      <trkpt lat="45.39652" lon="6.19874">
        <ele>2238.09</ele>
        <time>2021-06-28T11:47:42Z</time>
      </trkpt>
      <trkpt lat="45.39651" lon="6.1988">
        <ele>2238.57</ele>
        <time>2021-06-28T11:47:50Z</time>
      </trkpt>
      <trkpt lat="45.39649" lon="6.19882">
        <ele>2238.09</ele>
        <time>2021-06-28T11:48:03Z</time>
      </trkpt>
      <trkpt lat="45.39651" lon="6.19887">
        <ele>2236.64</ele>
        <time>2021-06-28T11:48:18Z</time>
      </trkpt>
      <trkpt lat="45.39654" lon="6.19894">
        <ele>2237.61</ele>
        <time>2021-06-28T11:48:30Z</time>
      </trkpt>
      <trkpt lat="45.39654" lon="6.19895">
        <ele>2238.09</ele>
        <time>2021-06-28T11:48:31Z</time>
      </trkpt>
      <trkpt lat="45.39656" lon="6.19904">
        <ele>2238.57</ele>
        <time>2021-06-28T11:48:42Z</time>
      </trkpt>
      <trkpt lat="45.39654" lon="6.19909">
        <ele>2238.57</ele>
        <time>2021-06-28T11:48:56Z</time>
      </trkpt>
      <trkpt lat="45.39651" lon="6.19914">
        <ele>2238.09</ele>
        <time>2021-06-28T11:49:10Z</time>
      </trkpt>
      <trkpt lat="45.39651" lon="6.19912">
        <ele>2238.09</ele>
        <time>2021-06-28T11:49:25Z</time>
      </trkpt>
      <trkpt lat="45.39653" lon="6.19913">
        <ele>2238.09</ele>
        <time>2021-06-28T11:50:01Z</time>
      </trkpt>
      <trkpt lat="45.39652" lon="6.19913">
        <ele>2238.09</ele>
        <time>2021-06-28T11:50:29Z</time>
      </trkpt>
      <trkpt lat="45.39651" lon="6.19915">
        <ele>2237.61</ele>
        <time>2021-06-28T11:51:00Z</time>
      </trkpt>
      <trkpt lat="45.39651" lon="6.19913">
        <ele>2237.61</ele>
        <time>2021-06-28T11:51:31Z</time>
      </trkpt>
      <trkpt lat="45.3965" lon="6.19912">
        <ele>2237.13</ele>
        <time>2021-06-28T11:52:07Z</time>
      </trkpt>
      <trkpt lat="45.39652" lon="6.19912">
        <ele>2237.61</ele>
        <time>2021-06-28T11:52:43Z</time>
      </trkpt>
      <trkpt lat="45.39651" lon="6.19916">
        <ele>2237.61</ele>
        <time>2021-06-28T11:53:08Z</time>
      </trkpt>
      <trkpt lat="45.39652" lon="6.19915">
        <ele>2237.61</ele>
        <time>2021-06-28T11:53:38Z</time>
      </trkpt>
      <trkpt lat="45.39654" lon="6.19912">
        <ele>2237.13</ele>
        <time>2021-06-28T11:54:14Z</time>
      </trkpt>
      <trkpt lat="45.39654" lon="6.19913">
        <ele>2237.61</ele>
        <time>2021-06-28T11:54:45Z</time>
      </trkpt>
      <trkpt lat="45.39652" lon="6.1991">
        <ele>2238.09</ele>
        <time>2021-06-28T11:55:17Z</time>
      </trkpt>
      <trkpt lat="45.39653" lon="6.19912">
        <ele>2238.09</ele>
        <time>2021-06-28T11:55:52Z</time>
      </trkpt>
      <trkpt lat="45.39652" lon="6.19913">
        <ele>2238.09</ele>
        <time>2021-06-28T11:56:24Z</time>
      </trkpt>
      <trkpt lat="45.39654" lon="6.19917">
        <ele>2239.05</ele>
        <time>2021-06-28T11:56:54Z</time>
      </trkpt>
      <trkpt lat="45.39652" lon="6.19917">
        <ele>2238.57</ele>
        <time>2021-06-28T11:57:33Z</time>
      </trkpt>
      <trkpt lat="45.39654" lon="6.19915">
        <ele>2238.57</ele>
        <time>2021-06-28T11:58:10Z</time>
      </trkpt>
      <trkpt lat="45.39655" lon="6.19916">
        <ele>2238.09</ele>
        <time>2021-06-28T11:58:42Z</time>
      </trkpt>
      <trkpt lat="45.39653" lon="6.19917">
        <ele>2238.09</ele>
        <time>2021-06-28T11:59:14Z</time>
      </trkpt>
      <trkpt lat="45.39653" lon="6.19916">
        <ele>2238.09</ele>
        <time>2021-06-28T11:59:49Z</time>
      </trkpt>
      <trkpt lat="45.39651" lon="6.19913">
        <ele>2238.09</ele>
        <time>2021-06-28T12:00:19Z</time>
      </trkpt>
      <trkpt lat="45.39654" lon="6.19915">
        <ele>2238.57</ele>
        <time>2021-06-28T12:00:41Z</time>
      </trkpt>
      <trkpt lat="45.39659" lon="6.19913">
        <ele>2240.49</ele>
        <time>2021-06-28T12:00:53Z</time>
      </trkpt>
      <trkpt lat="45.39658" lon="6.19912">
        <ele>2238.09</ele>
        <time>2021-06-28T12:00:57Z</time>
      </trkpt>
      <trkpt lat="45.39659" lon="6.1991">
        <ele>2239.05</ele>
        <time>2021-06-28T12:01:25Z</time>
      </trkpt>
      <trkpt lat="45.3966" lon="6.19911">
        <ele>2239.53</ele>
        <time>2021-06-28T12:01:56Z</time>
      </trkpt>
      <trkpt lat="45.3966" lon="6.19914">
        <ele>2239.53</ele>
        <time>2021-06-28T12:02:23Z</time>
      </trkpt>
      <trkpt lat="45.39657" lon="6.19914">
        <ele>2240.97</ele>
        <time>2021-06-28T12:02:40Z</time>
      </trkpt>
      <trkpt lat="45.39654" lon="6.1991">
        <ele>2237.61</ele>
        <time>2021-06-28T12:02:53Z</time>
      </trkpt>
      <trkpt lat="45.39654" lon="6.1991">
        <ele>2241.93</ele>
        <time>2021-06-28T12:02:54Z</time>
      </trkpt>
      <trkpt lat="45.39658" lon="6.1991">
        <ele>2238.09</ele>
        <time>2021-06-28T12:03:01Z</time>
      </trkpt>
      <trkpt lat="45.39659" lon="6.19911">
        <ele>2241.93</ele>
        <time>2021-06-28T12:03:21Z</time>
      </trkpt>
      <trkpt lat="45.39657" lon="6.19911">
        <ele>2239.53</ele>
        <time>2021-06-28T12:03:24Z</time>
      </trkpt>
      <trkpt lat="45.39657" lon="6.19911">
        <ele>2240.49</ele>
        <time>2021-06-28T12:03:26Z</time>
      </trkpt>
      <trkpt lat="45.39658" lon="6.19909">
        <ele>2240.01</ele>
        <time>2021-06-28T12:03:40Z</time>
      </trkpt>
      <trkpt lat="45.39658" lon="6.1991">
        <ele>2243.85</ele>
        <time>2021-06-28T12:03:55Z</time>
      </trkpt>
      <trkpt lat="45.39656" lon="6.19911">
        <ele>2240.49</ele>
        <time>2021-06-28T12:03:57Z</time>
      </trkpt>
      <trkpt lat="45.39651" lon="6.19914">
        <ele>2238.09</ele>
        <time>2021-06-28T12:04:09Z</time>
      </trkpt>
      <trkpt lat="45.39652" lon="6.19914">
        <ele>2239.53</ele>
        <time>2021-06-28T12:04:31Z</time>
      </trkpt>
      <trkpt lat="45.39651" lon="6.19914">
        <ele>2239.05</ele>
        <time>2021-06-28T12:05:01Z</time>
      </trkpt>
      <trkpt lat="45.39653" lon="6.19912">
        <ele>2239.05</ele>
        <time>2021-06-28T12:05:33Z</time>
      </trkpt>
      <trkpt lat="45.39653" lon="6.19913">
        <ele>2239.05</ele>
        <time>2021-06-28T12:06:08Z</time>
      </trkpt>
      <trkpt lat="45.39652" lon="6.19913">
        <ele>2239.53</ele>
        <time>2021-06-28T12:06:41Z</time>
      </trkpt>
      <trkpt lat="45.39651" lon="6.19913">
        <ele>2239.53</ele>
        <time>2021-06-28T12:07:07Z</time>
      </trkpt>
      <trkpt lat="45.39641" lon="6.19929">
        <ele>2208.77</ele>
        <time>2021-06-28T12:13:43Z</time>
      </trkpt>
      <trkpt lat="45.39642" lon="6.19926">
        <ele>2207.32</ele>
        <time>2021-06-28T12:13:45Z</time>
      </trkpt>
      <trkpt lat="45.39648" lon="6.19921">
        <ele>2209.25</ele>
        <time>2021-06-28T12:13:51Z</time>
      </trkpt>
      <trkpt lat="45.39648" lon="6.1992">
        <ele>2212.61</ele>
        <time>2021-06-28T12:13:54Z</time>
      </trkpt>
      <trkpt lat="45.39648" lon="6.1992">
        <ele>2215.01</ele>
        <time>2021-06-28T12:13:58Z</time>
      </trkpt>
      <trkpt lat="45.39648" lon="6.19921">
        <ele>2218.38</ele>
        <time>2021-06-28T12:14:02Z</time>
      </trkpt>
      <trkpt lat="45.39648" lon="6.1992">
        <ele>2222.71</ele>
        <time>2021-06-28T12:14:06Z</time>
      </trkpt>
      <trkpt lat="45.39648" lon="6.19918">
        <ele>2226.55</ele>
        <time>2021-06-28T12:14:11Z</time>
      </trkpt>
      <trkpt lat="45.39648" lon="6.19918">
        <ele>2226.55</ele>
        <time>2021-06-28T12:14:12Z</time>
      </trkpt>
      <trkpt lat="45.39649" lon="6.19915">
        <ele>2230.4</ele>
        <time>2021-06-28T12:14:17Z</time>
      </trkpt>
      <trkpt lat="45.39649" lon="6.19915">
        <ele>2230.4</ele>
        <time>2021-06-28T12:14:18Z</time>
      </trkpt>
      <trkpt lat="45.39653" lon="6.19916">
        <ele>2233.76</ele>
        <time>2021-06-28T12:14:27Z</time>
      </trkpt>
      <trkpt lat="45.39653" lon="6.19916">
        <ele>2233.76</ele>
        <time>2021-06-28T12:14:28Z</time>
      </trkpt>
      <trkpt lat="45.39653" lon="6.19915">
        <ele>2237.61</ele>
        <time>2021-06-28T12:14:40Z</time>
      </trkpt>
      <trkpt lat="45.39654" lon="6.19914">
        <ele>2240.49</ele>
        <time>2021-06-28T12:14:55Z</time>
      </trkpt>
      <trkpt lat="45.39652" lon="6.19913">
        <ele>2242.89</ele>
        <time>2021-06-28T12:15:15Z</time>
      </trkpt>
      <trkpt lat="45.39651" lon="6.19915">
        <ele>2243.85</ele>
        <time>2021-06-28T12:15:42Z</time>
      </trkpt>
      <trkpt lat="45.3965" lon="6.19914">
        <ele>2242.41</ele>
        <time>2021-06-28T12:16:19Z</time>
      </trkpt>
      <trkpt lat="45.3965" lon="6.19909">
        <ele>2242.89</ele>
        <time>2021-06-28T12:16:36Z</time>
      </trkpt>
      <trkpt lat="45.3965" lon="6.19906">
        <ele>2241.45</ele>
        <time>2021-06-28T12:16:40Z</time>
      </trkpt>
      <trkpt lat="45.39645" lon="6.19902">
        <ele>2239.53</ele>
        <time>2021-06-28T12:16:53Z</time>
      </trkpt>
      <trkpt lat="45.39641" lon="6.19907">
        <ele>2238.57</ele>
        <time>2021-06-28T12:17:04Z</time>
      </trkpt>
      <trkpt lat="45.39639" lon="6.19904">
        <ele>2237.13</ele>
        <time>2021-06-28T12:17:13Z</time>
      </trkpt>
      <trkpt lat="45.39636" lon="6.19906">
        <ele>2236.16</ele>
        <time>2021-06-28T12:17:18Z</time>
      </trkpt>
      <trkpt lat="45.39635" lon="6.19914">
        <ele>2234.24</ele>
        <time>2021-06-28T12:17:27Z</time>
      </trkpt>
      <trkpt lat="45.39633" lon="6.19921">
        <ele>2233.76</ele>
        <time>2021-06-28T12:17:38Z</time>
      </trkpt>
      <trkpt lat="45.39632" lon="6.19923">
        <ele>2233.28</ele>
        <time>2021-06-28T12:17:41Z</time>
      </trkpt>
      <trkpt lat="45.3963" lon="6.19926">
        <ele>2232.32</ele>
        <time>2021-06-28T12:17:45Z</time>
      </trkpt>
      <trkpt lat="45.39626" lon="6.1993">
        <ele>2230.88</ele>
        <time>2021-06-28T12:17:56Z</time>
      </trkpt>
      <trkpt lat="45.39621" lon="6.1993">
        <ele>2228.47</ele>
        <time>2021-06-28T12:18:08Z</time>
      </trkpt>
      <trkpt lat="45.39617" lon="6.19934">
        <ele>2227.51</ele>
        <time>2021-06-28T12:18:22Z</time>
      </trkpt>
      <trkpt lat="45.39612" lon="6.19938">
        <ele>2225.59</ele>
        <time>2021-06-28T12:18:31Z</time>
      </trkpt>
      <trkpt lat="45.39611" lon="6.19939">
        <ele>2225.11</ele>
        <time>2021-06-28T12:18:33Z</time>
      </trkpt>
      <trkpt lat="45.39607" lon="6.19943">
        <ele>2224.63</ele>
        <time>2021-06-28T12:18:46Z</time>
      </trkpt>
      <trkpt lat="45.39607" lon="6.19943">
        <ele>2228.95</ele>
        <time>2021-06-28T12:18:47Z</time>
      </trkpt>
      <trkpt lat="45.39607" lon="6.19943">
        <ele>2225.59</ele>
        <time>2021-06-28T12:18:48Z</time>
      </trkpt>
      <trkpt lat="45.39606" lon="6.19944">
        <ele>2229.43</ele>
        <time>2021-06-28T12:18:51Z</time>
      </trkpt>
      <trkpt lat="45.39602" lon="6.19951">
        <ele>2227.51</ele>
        <time>2021-06-28T12:19:04Z</time>
      </trkpt>
      <trkpt lat="45.39602" lon="6.19953">
        <ele>2226.07</ele>
        <time>2021-06-28T12:19:06Z</time>
      </trkpt>
      <trkpt lat="45.39602" lon="6.19956">
        <ele>2226.07</ele>
        <time>2021-06-28T12:19:09Z</time>
      </trkpt>
      <trkpt lat="45.39601" lon="6.19967">
        <ele>2227.51</ele>
        <time>2021-06-28T12:19:21Z</time>
      </trkpt>
      <trkpt lat="45.396" lon="6.19974">
        <ele>2225.59</ele>
        <time>2021-06-28T12:19:33Z</time>
      </trkpt>
      <trkpt lat="45.396" lon="6.19975">
        <ele>2229.92</ele>
        <time>2021-06-28T12:19:34Z</time>
      </trkpt>
      <trkpt lat="45.396" lon="6.19981">
        <ele>2227.99</ele>
        <time>2021-06-28T12:19:47Z</time>
      </trkpt>
      <trkpt lat="45.396" lon="6.19983">
        <ele>2231.36</ele>
        <time>2021-06-28T12:19:50Z</time>
      </trkpt>
      <trkpt lat="45.396" lon="6.19985">
        <ele>2228.47</ele>
        <time>2021-06-28T12:19:53Z</time>
      </trkpt>
      <trkpt lat="45.396" lon="6.19986">
        <ele>2231.36</ele>
        <time>2021-06-28T12:19:56Z</time>
      </trkpt>
      <trkpt lat="45.396" lon="6.19989">
        <ele>2232.8</ele>
        <time>2021-06-28T12:20:06Z</time>
      </trkpt>
      <trkpt lat="45.39599" lon="6.19993">
        <ele>2229.92</ele>
        <time>2021-06-28T12:20:15Z</time>
      </trkpt>
      <trkpt lat="45.39599" lon="6.19993">
        <ele>2235.2</ele>
        <time>2021-06-28T12:20:16Z</time>
      </trkpt>
      <trkpt lat="45.396" lon="6.19996">
        <ele>2231.84</ele>
        <time>2021-06-28T12:20:20Z</time>
      </trkpt>
      <trkpt lat="45.396" lon="6.19996">
        <ele>2234.72</ele>
        <time>2021-06-28T12:20:24Z</time>
      </trkpt>
      <trkpt lat="45.396" lon="6.20001">
        <ele>2236.64</ele>
        <time>2021-06-28T12:20:35Z</time>
      </trkpt>
      <trkpt lat="45.39602" lon="6.20007">
        <ele>2236.16</ele>
        <time>2021-06-28T12:20:47Z</time>
      </trkpt>
      <trkpt lat="45.39601" lon="6.20009">
        <ele>2239.05</ele>
        <time>2021-06-28T12:20:56Z</time>
      </trkpt>
      <trkpt lat="45.396" lon="6.20015">
        <ele>2236.16</ele>
        <time>2021-06-28T12:21:09Z</time>
      </trkpt>
      <trkpt lat="45.396" lon="6.20015">
        <ele>2242.41</ele>
        <time>2021-06-28T12:21:10Z</time>
      </trkpt>
      <trkpt lat="45.396" lon="6.20017">
        <ele>2238.57</ele>
        <time>2021-06-28T12:21:13Z</time>
      </trkpt>
      <trkpt lat="45.39602" lon="6.2002">
        <ele>2240.97</ele>
        <time>2021-06-28T12:21:25Z</time>
      </trkpt>
      <trkpt lat="45.39602" lon="6.20024">
        <ele>2243.37</ele>
        <time>2021-06-28T12:21:34Z</time>
      </trkpt>
      <trkpt lat="45.39602" lon="6.20025">
        <ele>2240.01</ele>
        <time>2021-06-28T12:21:35Z</time>
      </trkpt>
      <trkpt lat="45.39602" lon="6.20025">
        <ele>2244.82</ele>
        <time>2021-06-28T12:21:36Z</time>
      </trkpt>
      <trkpt lat="45.39603" lon="6.2003">
        <ele>2244.82</ele>
        <time>2021-06-28T12:21:48Z</time>
      </trkpt>
      <trkpt lat="45.39602" lon="6.20031">
        <ele>2245.78</ele>
        <time>2021-06-28T12:21:58Z</time>
      </trkpt>
      <trkpt lat="45.396" lon="6.20035">
        <ele>2247.7</ele>
        <time>2021-06-28T12:22:10Z</time>
      </trkpt>
      <trkpt lat="45.39597" lon="6.20042">
        <ele>2247.22</ele>
        <time>2021-06-28T12:22:21Z</time>
      </trkpt>
      <trkpt lat="45.39597" lon="6.20042">
        <ele>2250.58</ele>
        <time>2021-06-28T12:22:24Z</time>
      </trkpt>
      <trkpt lat="45.39596" lon="6.20042">
        <ele>2247.22</ele>
        <time>2021-06-28T12:22:25Z</time>
      </trkpt>
      <trkpt lat="45.39596" lon="6.20042">
        <ele>2250.1</ele>
        <time>2021-06-28T12:22:26Z</time>
      </trkpt>
      <trkpt lat="45.39591" lon="6.20048">
        <ele>2250.1</ele>
        <time>2021-06-28T12:22:42Z</time>
      </trkpt>
      <trkpt lat="45.39589" lon="6.20054">
        <ele>2252.99</ele>
        <time>2021-06-28T12:22:55Z</time>
      </trkpt>
      <trkpt lat="45.39585" lon="6.2006">
        <ele>2252.51</ele>
        <time>2021-06-28T12:23:07Z</time>
      </trkpt>
      <trkpt lat="45.39581" lon="6.20064">
        <ele>2254.91</ele>
        <time>2021-06-28T12:23:18Z</time>
      </trkpt>
      <trkpt lat="45.39573" lon="6.20062">
        <ele>2251.54</ele>
        <time>2021-06-28T12:23:33Z</time>
      </trkpt>
      <trkpt lat="45.39569" lon="6.20062">
        <ele>2250.58</ele>
        <time>2021-06-28T12:23:42Z</time>
      </trkpt>
      <trkpt lat="45.39563" lon="6.20066">
        <ele>2245.78</ele>
        <time>2021-06-28T12:23:55Z</time>
      </trkpt>
      <trkpt lat="45.39563" lon="6.20066">
        <ele>2249.14</ele>
        <time>2021-06-28T12:23:56Z</time>
      </trkpt>
      <trkpt lat="45.39561" lon="6.20066">
        <ele>2245.78</ele>
        <time>2021-06-28T12:24:02Z</time>
      </trkpt>
      <trkpt lat="45.39557" lon="6.20064">
        <ele>2244.33</ele>
        <time>2021-06-28T12:24:15Z</time>
      </trkpt>
      <trkpt lat="45.39553" lon="6.20069">
        <ele>2241.45</ele>
        <time>2021-06-28T12:24:27Z</time>
      </trkpt>
      <trkpt lat="45.39547" lon="6.20067">
        <ele>2241.45</ele>
        <time>2021-06-28T12:24:38Z</time>
      </trkpt>
      <trkpt lat="45.39545" lon="6.20063">
        <ele>2238.09</ele>
        <time>2021-06-28T12:24:49Z</time>
      </trkpt>
      <trkpt lat="45.39542" lon="6.20064">
        <ele>2236.16</ele>
        <time>2021-06-28T12:25:02Z</time>
      </trkpt>
      <trkpt lat="45.39539" lon="6.20066">
        <ele>2234.24</ele>
        <time>2021-06-28T12:25:16Z</time>
      </trkpt>
      <trkpt lat="45.39536" lon="6.20065">
        <ele>2232.8</ele>
        <time>2021-06-28T12:25:26Z</time>
      </trkpt>
      <trkpt lat="45.39532" lon="6.20068">
        <ele>2230.4</ele>
        <time>2021-06-28T12:25:39Z</time>
      </trkpt>
      <trkpt lat="45.39528" lon="6.20067">
        <ele>2227.51</ele>
        <time>2021-06-28T12:25:54Z</time>
      </trkpt>
      <trkpt lat="45.39524" lon="6.20066">
        <ele>2225.59</ele>
        <time>2021-06-28T12:26:07Z</time>
      </trkpt>
      <trkpt lat="45.39521" lon="6.20067">
        <ele>2222.71</ele>
        <time>2021-06-28T12:26:16Z</time>
      </trkpt>
      <trkpt lat="45.39518" lon="6.20066">
        <ele>2220.3</ele>
        <time>2021-06-28T12:26:29Z</time>
      </trkpt>
      <trkpt lat="45.39513" lon="6.20067">
        <ele>2216.94</ele>
        <time>2021-06-28T12:26:42Z</time>
      </trkpt>
      <trkpt lat="45.39508" lon="6.2007">
        <ele>2215.5</ele>
        <time>2021-06-28T12:26:54Z</time>
      </trkpt>
      <trkpt lat="45.39505" lon="6.20071">
        <ele>2215.98</ele>
        <time>2021-06-28T12:26:59Z</time>
      </trkpt>
      <trkpt lat="45.395" lon="6.20074">
        <ele>2214.53</ele>
        <time>2021-06-28T12:27:14Z</time>
      </trkpt>
      <trkpt lat="45.39498" lon="6.20072">
        <ele>2214.53</ele>
        <time>2021-06-28T12:27:21Z</time>
      </trkpt>
      <trkpt lat="45.39496" lon="6.20076">
        <ele>2214.05</ele>
        <time>2021-06-28T12:27:33Z</time>
      </trkpt>
      <trkpt lat="45.39495" lon="6.20075">
        <ele>2213.57</ele>
        <time>2021-06-28T12:27:37Z</time>
      </trkpt>
      <trkpt lat="45.39491" lon="6.20076">
        <ele>2211.65</ele>
        <time>2021-06-28T12:27:48Z</time>
      </trkpt>
      <trkpt lat="45.39483" lon="6.20077">
        <ele>2210.69</ele>
        <time>2021-06-28T12:28:02Z</time>
      </trkpt>
      <trkpt lat="45.39476" lon="6.20082">
        <ele>2208.29</ele>
        <time>2021-06-28T12:28:15Z</time>
      </trkpt>
      <trkpt lat="45.39467" lon="6.20085">
        <ele>2207.81</ele>
        <time>2021-06-28T12:28:28Z</time>
      </trkpt>
      <trkpt lat="45.39466" lon="6.20086">
        <ele>2207.81</ele>
        <time>2021-06-28T12:28:30Z</time>
      </trkpt>
      <trkpt lat="45.39461" lon="6.20088">
        <ele>2209.25</ele>
        <time>2021-06-28T12:28:38Z</time>
      </trkpt>
      <trkpt lat="45.39452" lon="6.20095">
        <ele>2208.77</ele>
        <time>2021-06-28T12:28:52Z</time>
      </trkpt>
      <trkpt lat="45.39447" lon="6.20098">
        <ele>2207.81</ele>
        <time>2021-06-28T12:29:04Z</time>
      </trkpt>
      <trkpt lat="45.39444" lon="6.20102">
        <ele>2204.44</ele>
        <time>2021-06-28T12:29:10Z</time>
      </trkpt>
      <trkpt lat="45.39443" lon="6.20103">
        <ele>2208.29</ele>
        <time>2021-06-28T12:29:12Z</time>
      </trkpt>
      <trkpt lat="45.39443" lon="6.20104">
        <ele>2207.32</ele>
        <time>2021-06-28T12:29:13Z</time>
      </trkpt>
      <trkpt lat="45.39435" lon="6.20105">
        <ele>2206.84</ele>
        <time>2021-06-28T12:29:23Z</time>
      </trkpt>
      <trkpt lat="45.39425" lon="6.20108">
        <ele>2209.25</ele>
        <time>2021-06-28T12:29:37Z</time>
      </trkpt>
      <trkpt lat="45.39425" lon="6.20108">
        <ele>2207.81</ele>
        <time>2021-06-28T12:29:38Z</time>
      </trkpt>
      <trkpt lat="45.39417" lon="6.20109">
        <ele>2209.73</ele>
        <time>2021-06-28T12:29:49Z</time>
      </trkpt>
      <trkpt lat="45.39417" lon="6.20109">
        <ele>2208.29</ele>
        <time>2021-06-28T12:29:50Z</time>
      </trkpt>
      <trkpt lat="45.39412" lon="6.20106">
        <ele>2208.29</ele>
        <time>2021-06-28T12:29:56Z</time>
      </trkpt>
      <trkpt lat="45.39403" lon="6.20103">
        <ele>2208.77</ele>
        <time>2021-06-28T12:30:11Z</time>
      </trkpt>
      <trkpt lat="45.39397" lon="6.201">
        <ele>2209.25</ele>
        <time>2021-06-28T12:30:22Z</time>
      </trkpt>
      <trkpt lat="45.3939" lon="6.20102">
        <ele>2211.65</ele>
        <time>2021-06-28T12:30:36Z</time>
      </trkpt>
      <trkpt lat="45.3939" lon="6.20102">
        <ele>2210.21</ele>
        <time>2021-06-28T12:30:37Z</time>
      </trkpt>
      <trkpt lat="45.39383" lon="6.20102">
        <ele>2211.65</ele>
        <time>2021-06-28T12:30:49Z</time>
      </trkpt>
      <trkpt lat="45.39381" lon="6.20103">
        <ele>2212.13</ele>
        <time>2021-06-28T12:30:51Z</time>
      </trkpt>
      <trkpt lat="45.39372" lon="6.20101">
        <ele>2212.13</ele>
        <time>2021-06-28T12:31:03Z</time>
      </trkpt>
      <trkpt lat="45.3937" lon="6.201">
        <ele>2210.69</ele>
        <time>2021-06-28T12:31:06Z</time>
      </trkpt>
      <trkpt lat="45.39363" lon="6.20097">
        <ele>2211.65</ele>
        <time>2021-06-28T12:31:18Z</time>
      </trkpt>
      <trkpt lat="45.39358" lon="6.20092">
        <ele>2211.17</ele>
        <time>2021-06-28T12:31:31Z</time>
      </trkpt>
      <trkpt lat="45.39357" lon="6.20092">
        <ele>2214.05</ele>
        <time>2021-06-28T12:31:32Z</time>
      </trkpt>
      <trkpt lat="45.39353" lon="6.20087">
        <ele>2214.05</ele>
        <time>2021-06-28T12:31:44Z</time>
      </trkpt>
      <trkpt lat="45.39353" lon="6.20087">
        <ele>2214.53</ele>
        <time>2021-06-28T12:31:45Z</time>
      </trkpt>
      <trkpt lat="45.39348" lon="6.20087">
        <ele>2216.46</ele>
        <time>2021-06-28T12:31:59Z</time>
      </trkpt>
      <trkpt lat="45.39346" lon="6.20087">
        <ele>2219.34</ele>
        <time>2021-06-28T12:32:13Z</time>
      </trkpt>
      <trkpt lat="45.39343" lon="6.20085">
        <ele>2219.82</ele>
        <time>2021-06-28T12:32:24Z</time>
      </trkpt>
      <trkpt lat="45.39337" lon="6.20081">
        <ele>2220.78</ele>
        <time>2021-06-28T12:32:37Z</time>
      </trkpt>
      <trkpt lat="45.39334" lon="6.20079">
        <ele>2223.67</ele>
        <time>2021-06-28T12:32:46Z</time>
      </trkpt>
      <trkpt lat="45.39331" lon="6.20076">
        <ele>2225.11</ele>
        <time>2021-06-28T12:32:57Z</time>
      </trkpt>
      <trkpt lat="45.39327" lon="6.20074">
        <ele>2226.07</ele>
        <time>2021-06-28T12:33:10Z</time>
      </trkpt>
      <trkpt lat="45.39322" lon="6.20072">
        <ele>2227.99</ele>
        <time>2021-06-28T12:33:23Z</time>
      </trkpt>
      <trkpt lat="45.39318" lon="6.20067">
        <ele>2228.47</ele>
        <time>2021-06-28T12:33:35Z</time>
      </trkpt>
      <trkpt lat="45.39315" lon="6.20062">
        <ele>2229.92</ele>
        <time>2021-06-28T12:33:46Z</time>
      </trkpt>
      <trkpt lat="45.39312" lon="6.20057">
        <ele>2233.28</ele>
        <time>2021-06-28T12:33:57Z</time>
      </trkpt>
      <trkpt lat="45.39308" lon="6.20056">
        <ele>2232.32</ele>
        <time>2021-06-28T12:34:07Z</time>
      </trkpt>
      <trkpt lat="45.39305" lon="6.20053">
        <ele>2235.68</ele>
        <time>2021-06-28T12:34:16Z</time>
      </trkpt>
      <trkpt lat="45.39301" lon="6.20051">
        <ele>2237.61</ele>
        <time>2021-06-28T12:34:31Z</time>
      </trkpt>
      <trkpt lat="45.39298" lon="6.20047">
        <ele>2237.13</ele>
        <time>2021-06-28T12:34:43Z</time>
      </trkpt>
      <trkpt lat="45.39297" lon="6.20047">
        <ele>2240.49</ele>
        <time>2021-06-28T12:34:44Z</time>
      </trkpt>
      <trkpt lat="45.39295" lon="6.20045">
        <ele>2239.05</ele>
        <time>2021-06-28T12:34:56Z</time>
      </trkpt>
      <trkpt lat="45.39295" lon="6.20044">
        <ele>2242.89</ele>
        <time>2021-06-28T12:34:59Z</time>
      </trkpt>
      <trkpt lat="45.39294" lon="6.20042">
        <ele>2239.53</ele>
        <time>2021-06-28T12:35:02Z</time>
      </trkpt>
      <trkpt lat="45.39293" lon="6.20041">
        <ele>2242.89</ele>
        <time>2021-06-28T12:35:06Z</time>
      </trkpt>
      <trkpt lat="45.39289" lon="6.20038">
        <ele>2244.33</ele>
        <time>2021-06-28T12:35:16Z</time>
      </trkpt>
      <trkpt lat="45.39287" lon="6.20036">
        <ele>2243.37</ele>
        <time>2021-06-28T12:35:27Z</time>
      </trkpt>
      <trkpt lat="45.39286" lon="6.20033">
        <ele>2246.26</ele>
        <time>2021-06-28T12:35:34Z</time>
      </trkpt>
      <trkpt lat="45.39284" lon="6.20029">
        <ele>2247.7</ele>
        <time>2021-06-28T12:35:46Z</time>
      </trkpt>
      <trkpt lat="45.3928" lon="6.20027">
        <ele>2251.06</ele>
        <time>2021-06-28T12:35:58Z</time>
      </trkpt>
      <trkpt lat="45.3928" lon="6.20028">
        <ele>2248.66</ele>
        <time>2021-06-28T12:35:59Z</time>
      </trkpt>
      <trkpt lat="45.39278" lon="6.20024">
        <ele>2251.54</ele>
        <time>2021-06-28T12:36:09Z</time>
      </trkpt>
      <trkpt lat="45.39278" lon="6.20024">
        <ele>2248.18</ele>
        <time>2021-06-28T12:36:10Z</time>
      </trkpt>
      <trkpt lat="45.39278" lon="6.20023">
        <ele>2252.03</ele>
        <time>2021-06-28T12:36:11Z</time>
      </trkpt>
      <trkpt lat="45.39274" lon="6.20017">
        <ele>2252.51</ele>
        <time>2021-06-28T12:36:24Z</time>
      </trkpt>
      <trkpt lat="45.39269" lon="6.20016">
        <ele>2254.91</ele>
        <time>2021-06-28T12:36:37Z</time>
      </trkpt>
      <trkpt lat="45.39267" lon="6.20015">
        <ele>2254.43</ele>
        <time>2021-06-28T12:36:51Z</time>
      </trkpt>
      <trkpt lat="45.39266" lon="6.20014">
        <ele>2258.27</ele>
        <time>2021-06-28T12:37:01Z</time>
      </trkpt>
      <trkpt lat="45.39265" lon="6.20011">
        <ele>2259.24</ele>
        <time>2021-06-28T12:37:11Z</time>
      </trkpt>
      <trkpt lat="45.39263" lon="6.20008">
        <ele>2261.16</ele>
        <time>2021-06-28T12:37:25Z</time>
      </trkpt>
      <trkpt lat="45.39259" lon="6.20007">
        <ele>2261.16</ele>
        <time>2021-06-28T12:37:40Z</time>
      </trkpt>
      <trkpt lat="45.39257" lon="6.20004">
        <ele>2264.52</ele>
        <time>2021-06-28T12:37:50Z</time>
      </trkpt>
      <trkpt lat="45.39252" lon="6.19998">
        <ele>2265</ele>
        <time>2021-06-28T12:38:06Z</time>
      </trkpt>
      <trkpt lat="45.39248" lon="6.19997">
        <ele>2268.37</ele>
        <time>2021-06-28T12:38:17Z</time>
      </trkpt>
      <trkpt lat="45.39247" lon="6.19997">
        <ele>2265.48</ele>
        <time>2021-06-28T12:38:18Z</time>
      </trkpt>
      <trkpt lat="45.39247" lon="6.19997">
        <ele>2268.85</ele>
        <time>2021-06-28T12:38:19Z</time>
      </trkpt>
      <trkpt lat="45.39243" lon="6.2">
        <ele>2269.33</ele>
        <time>2021-06-28T12:38:30Z</time>
      </trkpt>
      <trkpt lat="45.39238" lon="6.19998">
        <ele>2269.33</ele>
        <time>2021-06-28T12:38:45Z</time>
      </trkpt>
      <trkpt lat="45.39237" lon="6.19998">
        <ele>2269.33</ele>
        <time>2021-06-28T12:39:02Z</time>
      </trkpt>
      <trkpt lat="45.39237" lon="6.19996">
        <ele>2269.81</ele>
        <time>2021-06-28T12:39:19Z</time>
      </trkpt>
      <trkpt lat="45.39237" lon="6.19994">
        <ele>2269.81</ele>
        <time>2021-06-28T12:39:37Z</time>
      </trkpt>
      <trkpt lat="45.37054" lon="6.19307">
        <ele>1921.81</ele>
        <time>2021-06-28T14:46:37Z</time>
      </trkpt>
      <trkpt lat="45.37111" lon="6.19418">
        <ele>1921.33</ele>
        <time>2021-06-28T14:47:03Z</time>
      </trkpt>
      <trkpt lat="45.37123" lon="6.19439">
        <ele>1919.89</ele>
        <time>2021-06-28T14:47:07Z</time>
      </trkpt>
      <trkpt lat="45.37136" lon="6.1946">
        <ele>1923.74</ele>
        <time>2021-06-28T14:47:14Z</time>
      </trkpt>
      <trkpt lat="45.37139" lon="6.19464">
        <ele>1927.58</ele>
        <time>2021-06-28T14:47:17Z</time>
      </trkpt>
      <trkpt lat="45.3714" lon="6.19467">
        <ele>1930.95</ele>
        <time>2021-06-28T14:47:21Z</time>
      </trkpt>
      <trkpt lat="45.37142" lon="6.19469">
        <ele>1932.87</ele>
        <time>2021-06-28T14:47:27Z</time>
      </trkpt>
      <trkpt lat="45.37141" lon="6.19482">
        <ele>1935.27</ele>
        <time>2021-06-28T14:47:42Z</time>
      </trkpt>
      <trkpt lat="45.37141" lon="6.19489">
        <ele>1935.75</ele>
        <time>2021-06-28T14:47:52Z</time>
      </trkpt>
      <trkpt lat="45.37136" lon="6.19485">
        <ele>1935.75</ele>
        <time>2021-06-28T14:48:04Z</time>
      </trkpt>
      <trkpt lat="45.37137" lon="6.19486">
        <ele>1935.27</ele>
        <time>2021-06-28T14:48:14Z</time>
      </trkpt>
      <trkpt lat="45.37138" lon="6.1949">
        <ele>1935.27</ele>
        <time>2021-06-28T14:48:22Z</time>
      </trkpt>
      <trkpt lat="45.37136" lon="6.1949">
        <ele>1934.79</ele>
        <time>2021-06-28T14:48:33Z</time>
      </trkpt>
      <trkpt lat="45.37133" lon="6.19491">
        <ele>1935.75</ele>
        <time>2021-06-28T14:48:43Z</time>
      </trkpt>
      <trkpt lat="45.37127" lon="6.19495">
        <ele>1936.23</ele>
        <time>2021-06-28T14:48:57Z</time>
      </trkpt>
      <trkpt lat="45.37126" lon="6.19498">
        <ele>1936.71</ele>
        <time>2021-06-28T14:49:10Z</time>
      </trkpt>
      <trkpt lat="45.37119" lon="6.19502">
        <ele>1937.67</ele>
        <time>2021-06-28T14:49:24Z</time>
      </trkpt>
      <trkpt lat="45.37117" lon="6.19505">
        <ele>1939.12</ele>
        <time>2021-06-28T14:49:35Z</time>
      </trkpt>
      <trkpt lat="45.37114" lon="6.19505">
        <ele>1938.16</ele>
        <time>2021-06-28T14:49:48Z</time>
      </trkpt>
      <trkpt lat="45.37113" lon="6.19502">
        <ele>1937.67</ele>
        <time>2021-06-28T14:49:56Z</time>
      </trkpt>
      <trkpt lat="45.3711" lon="6.19503">
        <ele>1937.67</ele>
        <time>2021-06-28T14:50:03Z</time>
      </trkpt>
      <trkpt lat="45.37106" lon="6.19507">
        <ele>1937.19</ele>
        <time>2021-06-28T14:50:15Z</time>
      </trkpt>
      <trkpt lat="45.37105" lon="6.19509">
        <ele>1936.71</ele>
        <time>2021-06-28T14:50:24Z</time>
      </trkpt>
      <trkpt lat="45.37102" lon="6.19511">
        <ele>1936.71</ele>
        <time>2021-06-28T14:50:35Z</time>
      </trkpt>
      <trkpt lat="45.371" lon="6.19513">
        <ele>1935.75</ele>
        <time>2021-06-28T14:50:48Z</time>
      </trkpt>
      <trkpt lat="45.37096" lon="6.19522">
        <ele>1935.75</ele>
        <time>2021-06-28T14:51:03Z</time>
      </trkpt>
      <trkpt lat="45.37097" lon="6.19522">
        <ele>1936.23</ele>
        <time>2021-06-28T14:51:15Z</time>
      </trkpt>
      <trkpt lat="45.37098" lon="6.19525">
        <ele>1936.71</ele>
        <time>2021-06-28T14:51:28Z</time>
      </trkpt>
      <trkpt lat="45.37097" lon="6.1952">
        <ele>1936.71</ele>
        <time>2021-06-28T14:51:51Z</time>
      </trkpt>
      <trkpt lat="45.371" lon="6.19515">
        <ele>1935.75</ele>
        <time>2021-06-28T14:52:12Z</time>
      </trkpt>
      <trkpt lat="45.37099" lon="6.19518">
        <ele>1935.75</ele>
        <time>2021-06-28T14:52:41Z</time>
      </trkpt>
      <trkpt lat="45.37098" lon="6.19525">
        <ele>1936.23</ele>
        <time>2021-06-28T14:52:59Z</time>
      </trkpt>
      <trkpt lat="45.37098" lon="6.19527">
        <ele>1936.23</ele>
        <time>2021-06-28T14:53:19Z</time>
      </trkpt>
      <trkpt lat="45.37099" lon="6.1953">
        <ele>1937.19</ele>
        <time>2021-06-28T14:53:31Z</time>
      </trkpt>
      <trkpt lat="45.37099" lon="6.19533">
        <ele>1936.71</ele>
        <time>2021-06-28T14:53:45Z</time>
      </trkpt>
      <trkpt lat="45.371" lon="6.19533">
        <ele>1936.71</ele>
        <time>2021-06-28T14:53:56Z</time>
      </trkpt>
      <trkpt lat="45.37097" lon="6.19528">
        <ele>1935.27</ele>
        <time>2021-06-28T14:54:08Z</time>
      </trkpt>
      <trkpt lat="45.37094" lon="6.1953">
        <ele>1934.79</ele>
        <time>2021-06-28T14:54:27Z</time>
      </trkpt>
      <trkpt lat="45.37089" lon="6.19527">
        <ele>1934.79</ele>
        <time>2021-06-28T14:54:40Z</time>
      </trkpt>
      <trkpt lat="45.37085" lon="6.19529">
        <ele>1935.27</ele>
        <time>2021-06-28T14:54:52Z</time>
      </trkpt>
      <trkpt lat="45.37084" lon="6.19533">
        <ele>1935.27</ele>
        <time>2021-06-28T14:55:05Z</time>
      </trkpt>
      <trkpt lat="45.37084" lon="6.19537">
        <ele>1935.27</ele>
        <time>2021-06-28T14:55:19Z</time>
      </trkpt>
      <trkpt lat="45.37085" lon="6.19534">
        <ele>1935.75</ele>
        <time>2021-06-28T14:55:27Z</time>
      </trkpt>
      <trkpt lat="45.37082" lon="6.19535">
        <ele>1935.75</ele>
        <time>2021-06-28T14:55:39Z</time>
      </trkpt>
      <trkpt lat="45.37079" lon="6.1954">
        <ele>1936.23</ele>
        <time>2021-06-28T14:55:52Z</time>
      </trkpt>
      <trkpt lat="45.37081" lon="6.19542">
        <ele>1936.23</ele>
        <time>2021-06-28T14:56:03Z</time>
      </trkpt>
      <trkpt lat="45.37078" lon="6.19533">
        <ele>1936.23</ele>
        <time>2021-06-28T14:56:24Z</time>
      </trkpt>
      <trkpt lat="45.37081" lon="6.19534">
        <ele>1936.23</ele>
        <time>2021-06-28T14:56:41Z</time>
      </trkpt>
      <trkpt lat="45.37077" lon="6.19534">
        <ele>1935.27</ele>
        <time>2021-06-28T14:56:51Z</time>
      </trkpt>
      <trkpt lat="45.37076" lon="6.19534">
        <ele>1934.31</ele>
        <time>2021-06-28T14:56:56Z</time>
      </trkpt>
      <trkpt lat="45.37076" lon="6.19537">
        <ele>1935.27</ele>
        <time>2021-06-28T14:57:08Z</time>
      </trkpt>
      <trkpt lat="45.37073" lon="6.19537">
        <ele>1934.79</ele>
        <time>2021-06-28T14:57:20Z</time>
      </trkpt>
      <trkpt lat="45.37072" lon="6.19535">
        <ele>1934.31</ele>
        <time>2021-06-28T14:57:33Z</time>
      </trkpt>
      <trkpt lat="45.37069" lon="6.19535">
        <ele>1934.31</ele>
        <time>2021-06-28T14:57:46Z</time>
      </trkpt>
      <trkpt lat="45.3707" lon="6.19535">
        <ele>1933.35</ele>
        <time>2021-06-28T14:58:01Z</time>
      </trkpt>
      <trkpt lat="45.37071" lon="6.19532">
        <ele>1932.39</ele>
        <time>2021-06-28T14:58:12Z</time>
      </trkpt>
      <trkpt lat="45.37072" lon="6.19527">
        <ele>1932.39</ele>
        <time>2021-06-28T14:58:23Z</time>
      </trkpt>
      <trkpt lat="45.37069" lon="6.19528">
        <ele>1930.95</ele>
        <time>2021-06-28T14:58:35Z</time>
      </trkpt>
      <trkpt lat="45.37068" lon="6.19525">
        <ele>1929.98</ele>
        <time>2021-06-28T14:58:45Z</time>
      </trkpt>
      <trkpt lat="45.37067" lon="6.19522">
        <ele>1929.02</ele>
        <time>2021-06-28T14:58:57Z</time>
      </trkpt>
      <trkpt lat="45.37069" lon="6.19521">
        <ele>1927.58</ele>
        <time>2021-06-28T14:59:07Z</time>
      </trkpt>
      <trkpt lat="45.37066" lon="6.1952">
        <ele>1926.62</ele>
        <time>2021-06-28T14:59:21Z</time>
      </trkpt>
      <trkpt lat="45.37069" lon="6.19519">
        <ele>1927.1</ele>
        <time>2021-06-28T14:59:33Z</time>
      </trkpt>
      <trkpt lat="45.37073" lon="6.19516">
        <ele>1927.1</ele>
        <time>2021-06-28T14:59:43Z</time>
      </trkpt>
      <trkpt lat="45.37075" lon="6.19518">
        <ele>1926.62</ele>
        <time>2021-06-28T14:59:57Z</time>
      </trkpt>
      <trkpt lat="45.37077" lon="6.19519">
        <ele>1926.62</ele>
        <time>2021-06-28T15:00:07Z</time>
      </trkpt>
      <trkpt lat="45.37074" lon="6.19517">
        <ele>1926.62</ele>
        <time>2021-06-28T15:00:24Z</time>
      </trkpt>
      <trkpt lat="45.37074" lon="6.19518">
        <ele>1927.1</ele>
        <time>2021-06-28T15:00:42Z</time>
      </trkpt>
      <trkpt lat="45.37076" lon="6.19515">
        <ele>1926.62</ele>
        <time>2021-06-28T15:00:53Z</time>
      </trkpt>
      <trkpt lat="45.37072" lon="6.19516">
        <ele>1926.14</ele>
        <time>2021-06-28T15:01:09Z</time>
      </trkpt>
      <trkpt lat="45.37076" lon="6.19511">
        <ele>1925.66</ele>
        <time>2021-06-28T15:01:20Z</time>
      </trkpt>
      <trkpt lat="45.37078" lon="6.19511">
        <ele>1925.66</ele>
        <time>2021-06-28T15:01:39Z</time>
      </trkpt>
      <trkpt lat="45.37073" lon="6.19512">
        <ele>1925.66</ele>
        <time>2021-06-28T15:01:55Z</time>
      </trkpt>
      <trkpt lat="45.37072" lon="6.19512">
        <ele>1924.22</ele>
        <time>2021-06-28T15:02:05Z</time>
      </trkpt>
      <trkpt lat="45.37073" lon="6.1951">
        <ele>1924.22</ele>
        <time>2021-06-28T15:02:15Z</time>
      </trkpt>
      <trkpt lat="45.37076" lon="6.19507">
        <ele>1923.74</ele>
        <time>2021-06-28T15:02:29Z</time>
      </trkpt>
      <trkpt lat="45.37074" lon="6.19505">
        <ele>1923.25</ele>
        <time>2021-06-28T15:02:41Z</time>
      </trkpt>
      <trkpt lat="45.37077" lon="6.19502">
        <ele>1922.77</ele>
        <time>2021-06-28T15:02:55Z</time>
      </trkpt>
      <trkpt lat="45.37076" lon="6.19506">
        <ele>1922.29</ele>
        <time>2021-06-28T15:03:03Z</time>
      </trkpt>
      <trkpt lat="45.37075" lon="6.19507">
        <ele>1922.77</ele>
        <time>2021-06-28T15:03:19Z</time>
      </trkpt>
      <trkpt lat="45.37081" lon="6.19504">
        <ele>1922.77</ele>
        <time>2021-06-28T15:03:34Z</time>
      </trkpt>
      <trkpt lat="45.37081" lon="6.19504">
        <ele>1921.81</ele>
        <time>2021-06-28T15:03:49Z</time>
      </trkpt>
      <trkpt lat="45.37081" lon="6.19504">
        <ele>1921.81</ele>
        <time>2021-06-28T15:04:06Z</time>
      </trkpt>
      <trkpt lat="45.37083" lon="6.19497">
        <ele>1920.85</ele>
        <time>2021-06-28T15:04:18Z</time>
      </trkpt>
      <trkpt lat="45.37083" lon="6.19494">
        <ele>1920.37</ele>
        <time>2021-06-28T15:04:30Z</time>
      </trkpt>
      <trkpt lat="45.37084" lon="6.19496">
        <ele>1918.93</ele>
        <time>2021-06-28T15:04:44Z</time>
      </trkpt>
      <trkpt lat="45.37083" lon="6.19493">
        <ele>1918.93</ele>
        <time>2021-06-28T15:04:56Z</time>
      </trkpt>
      <trkpt lat="45.37081" lon="6.195">
        <ele>1919.89</ele>
        <time>2021-06-28T15:05:07Z</time>
      </trkpt>
      <trkpt lat="45.37082" lon="6.195">
        <ele>1920.37</ele>
        <time>2021-06-28T15:05:08Z</time>
      </trkpt>
      <trkpt lat="45.37085" lon="6.19502">
        <ele>1921.33</ele>
        <time>2021-06-28T15:05:19Z</time>
      </trkpt>
      <trkpt lat="45.37087" lon="6.19502">
        <ele>1921.33</ele>
        <time>2021-06-28T15:05:33Z</time>
      </trkpt>
      <trkpt lat="45.37089" lon="6.19498">
        <ele>1921.33</ele>
        <time>2021-06-28T15:05:44Z</time>
      </trkpt>
      <trkpt lat="45.37084" lon="6.19504">
        <ele>1920.85</ele>
        <time>2021-06-28T15:06:01Z</time>
      </trkpt>
      <trkpt lat="45.37079" lon="6.19507">
        <ele>1920.37</ele>
        <time>2021-06-28T15:06:14Z</time>
      </trkpt>
      <trkpt lat="45.37076" lon="6.19508">
        <ele>1920.85</ele>
        <time>2021-06-28T15:06:27Z</time>
      </trkpt>
      <trkpt lat="45.37078" lon="6.19512">
        <ele>1921.33</ele>
        <time>2021-06-28T15:06:43Z</time>
      </trkpt>
      <trkpt lat="45.37075" lon="6.19509">
        <ele>1921.33</ele>
        <time>2021-06-28T15:06:58Z</time>
      </trkpt>
      <trkpt lat="45.37075" lon="6.19509">
        <ele>1921.33</ele>
        <time>2021-06-28T15:07:14Z</time>
      </trkpt>
      <trkpt lat="45.37073" lon="6.19514">
        <ele>1921.81</ele>
        <time>2021-06-28T15:07:30Z</time>
      </trkpt>
      <trkpt lat="45.37071" lon="6.1952">
        <ele>1922.77</ele>
        <time>2021-06-28T15:07:42Z</time>
      </trkpt>
      <trkpt lat="45.37072" lon="6.19519">
        <ele>1922.77</ele>
        <time>2021-06-28T15:07:57Z</time>
      </trkpt>
      <trkpt lat="45.37068" lon="6.19521">
        <ele>1922.29</ele>
        <time>2021-06-28T15:08:09Z</time>
      </trkpt>
      <trkpt lat="45.37071" lon="6.19521">
        <ele>1922.29</ele>
        <time>2021-06-28T15:08:23Z</time>
      </trkpt>
      <trkpt lat="45.37072" lon="6.19516">
        <ele>1920.85</ele>
        <time>2021-06-28T15:08:36Z</time>
      </trkpt>
      <trkpt lat="45.3707" lon="6.19515">
        <ele>1920.37</ele>
        <time>2021-06-28T15:08:53Z</time>
      </trkpt>
      <trkpt lat="45.37072" lon="6.19513">
        <ele>1919.89</ele>
        <time>2021-06-28T15:09:04Z</time>
      </trkpt>
      <trkpt lat="45.37071" lon="6.19512">
        <ele>1919.41</ele>
        <time>2021-06-28T15:09:18Z</time>
      </trkpt>
      <trkpt lat="45.37068" lon="6.19518">
        <ele>1919.41</ele>
        <time>2021-06-28T15:09:41Z</time>
      </trkpt>
      <trkpt lat="45.37068" lon="6.19521">
        <ele>1919.89</ele>
        <time>2021-06-28T15:09:47Z</time>
      </trkpt>
      <trkpt lat="45.37065" lon="6.19523">
        <ele>1920.85</ele>
        <time>2021-06-28T15:09:56Z</time>
      </trkpt>
      <trkpt lat="45.37067" lon="6.19527">
        <ele>1922.29</ele>
        <time>2021-06-28T15:10:13Z</time>
      </trkpt>
      <trkpt lat="45.37071" lon="6.1952">
        <ele>1921.81</ele>
        <time>2021-06-28T15:10:30Z</time>
      </trkpt>
      <trkpt lat="45.3707" lon="6.19519">
        <ele>1922.29</ele>
        <time>2021-06-28T15:10:42Z</time>
      </trkpt>
      <trkpt lat="45.37073" lon="6.19518">
        <ele>1921.81</ele>
        <time>2021-06-28T15:10:55Z</time>
      </trkpt>
      <trkpt lat="45.37074" lon="6.19517">
        <ele>1920.85</ele>
        <time>2021-06-28T15:11:11Z</time>
      </trkpt>
      <trkpt lat="45.37073" lon="6.19515">
        <ele>1920.37</ele>
        <time>2021-06-28T15:11:26Z</time>
      </trkpt>
      <trkpt lat="45.37072" lon="6.19512">
        <ele>1919.89</ele>
        <time>2021-06-28T15:11:54Z</time>
      </trkpt>
      <trkpt lat="45.37071" lon="6.19513">
        <ele>1919.89</ele>
        <time>2021-06-28T15:12:23Z</time>
      </trkpt>
      <trkpt lat="45.37067" lon="6.19508">
        <ele>1919.41</ele>
        <time>2021-06-28T15:12:46Z</time>
      </trkpt>
      <trkpt lat="45.37071" lon="6.1951">
        <ele>1919.41</ele>
        <time>2021-06-28T15:13:07Z</time>
      </trkpt>
      <trkpt lat="45.3707" lon="6.19509">
        <ele>1920.37</ele>
        <time>2021-06-28T15:13:38Z</time>
      </trkpt>
      <trkpt lat="45.3707" lon="6.1951">
        <ele>1920.37</ele>
        <time>2021-06-28T15:14:04Z</time>
      </trkpt>
      <trkpt lat="45.37069" lon="6.19509">
        <ele>1920.37</ele>
        <time>2021-06-28T15:14:34Z</time>
      </trkpt>
      <trkpt lat="45.37071" lon="6.19509">
        <ele>1919.41</ele>
        <time>2021-06-28T15:14:44Z</time>
      </trkpt>
      <trkpt lat="45.3707" lon="6.19508">
        <ele>1918.93</ele>
        <time>2021-06-28T15:14:58Z</time>
      </trkpt>
      <trkpt lat="45.3707" lon="6.19508">
        <ele>1917.97</ele>
        <time>2021-06-28T15:15:16Z</time>
      </trkpt>
      <trkpt lat="45.37069" lon="6.19509">
        <ele>1917.97</ele>
        <time>2021-06-28T15:15:36Z</time>
      </trkpt>
      <trkpt lat="45.37068" lon="6.19513">
        <ele>1917.49</ele>
        <time>2021-06-28T15:15:59Z</time>
      </trkpt>
      <trkpt lat="45.37068" lon="6.19509">
        <ele>1916.53</ele>
        <time>2021-06-28T15:16:08Z</time>
      </trkpt>
      <trkpt lat="45.37068" lon="6.19508">
        <ele>1916.53</ele>
        <time>2021-06-28T15:16:11Z</time>
      </trkpt>
      <trkpt lat="45.37071" lon="6.19504">
        <ele>1916.04</ele>
        <time>2021-06-28T15:16:25Z</time>
      </trkpt>
      <trkpt lat="45.37066" lon="6.19513">
        <ele>1916.53</ele>
        <time>2021-06-28T15:16:39Z</time>
      </trkpt>
      <trkpt lat="45.37062" lon="6.19515">
        <ele>1917.49</ele>
        <time>2021-06-28T15:16:52Z</time>
      </trkpt>
      <trkpt lat="45.37063" lon="6.19518">
        <ele>1917.49</ele>
        <time>2021-06-28T15:17:02Z</time>
      </trkpt>
      <trkpt lat="45.3706" lon="6.1952">
        <ele>1917.01</ele>
        <time>2021-06-28T15:17:27Z</time>
      </trkpt>
      <trkpt lat="45.37058" lon="6.19519">
        <ele>1917.01</ele>
        <time>2021-06-28T15:17:36Z</time>
      </trkpt>
      <trkpt lat="45.37057" lon="6.1952">
        <ele>1917.49</ele>
        <time>2021-06-28T15:17:50Z</time>
      </trkpt>
      <trkpt lat="45.37059" lon="6.19519">
        <ele>1917.49</ele>
        <time>2021-06-28T15:18:08Z</time>
      </trkpt>
      <trkpt lat="45.37063" lon="6.19518">
        <ele>1917.01</ele>
        <time>2021-06-28T15:18:21Z</time>
      </trkpt>
      <trkpt lat="45.37066" lon="6.19516">
        <ele>1917.49</ele>
        <time>2021-06-28T15:18:37Z</time>
      </trkpt>
      <trkpt lat="45.37068" lon="6.19514">
        <ele>1917.49</ele>
        <time>2021-06-28T15:18:51Z</time>
      </trkpt>
      <trkpt lat="45.3707" lon="6.1951">
        <ele>1917.01</ele>
        <time>2021-06-28T15:19:05Z</time>
      </trkpt>
      <trkpt lat="45.37069" lon="6.1951">
        <ele>1916.53</ele>
        <time>2021-06-28T15:19:10Z</time>
      </trkpt>
      <trkpt lat="45.3707" lon="6.1951">
        <ele>1916.53</ele>
        <time>2021-06-28T15:19:20Z</time>
      </trkpt>
      <trkpt lat="45.37071" lon="6.19514">
        <ele>1916.53</ele>
        <time>2021-06-28T15:19:47Z</time>
      </trkpt>
      <trkpt lat="45.37074" lon="6.19514">
        <ele>1917.97</ele>
        <time>2021-06-28T15:19:57Z</time>
      </trkpt>
      <trkpt lat="45.37076" lon="6.19512">
        <ele>1918.45</ele>
        <time>2021-06-28T15:20:10Z</time>
      </trkpt>
      <trkpt lat="45.37073" lon="6.19517">
        <ele>1919.89</ele>
        <time>2021-06-28T15:20:32Z</time>
      </trkpt>
      <trkpt lat="45.37069" lon="6.1952">
        <ele>1917.97</ele>
        <time>2021-06-28T15:20:43Z</time>
      </trkpt>
      <trkpt lat="45.37067" lon="6.19516">
        <ele>1917.97</ele>
        <time>2021-06-28T15:20:56Z</time>
      </trkpt>
      <trkpt lat="45.37067" lon="6.19517">
        <ele>1918.45</ele>
        <time>2021-06-28T15:20:58Z</time>
      </trkpt>
      <trkpt lat="45.37066" lon="6.19519">
        <ele>1919.41</ele>
        <time>2021-06-28T15:21:09Z</time>
      </trkpt>
      <trkpt lat="45.37064" lon="6.19525">
        <ele>1920.85</ele>
        <time>2021-06-28T15:21:27Z</time>
      </trkpt>
      <trkpt lat="45.37067" lon="6.19531">
        <ele>1920.37</ele>
        <time>2021-06-28T15:21:57Z</time>
      </trkpt>
      <trkpt lat="45.37071" lon="6.19524">
        <ele>1919.89</ele>
        <time>2021-06-28T15:22:07Z</time>
      </trkpt>
      <trkpt lat="45.37075" lon="6.19519">
        <ele>1919.89</ele>
        <time>2021-06-28T15:22:17Z</time>
      </trkpt>
      <trkpt lat="45.37077" lon="6.19517">
        <ele>1919.89</ele>
        <time>2021-06-28T15:22:32Z</time>
      </trkpt>
      <trkpt lat="45.37077" lon="6.19518">
        <ele>1919.89</ele>
        <time>2021-06-28T15:22:42Z</time>
      </trkpt>
      <trkpt lat="45.37081" lon="6.19518">
        <ele>1919.89</ele>
        <time>2021-06-28T15:22:55Z</time>
      </trkpt>
      <trkpt lat="45.37079" lon="6.19521">
        <ele>1920.37</ele>
        <time>2021-06-28T15:23:09Z</time>
      </trkpt>
      <trkpt lat="45.37074" lon="6.19524">
        <ele>1920.85</ele>
        <time>2021-06-28T15:23:21Z</time>
      </trkpt>
      <trkpt lat="45.37074" lon="6.19527">
        <ele>1921.33</ele>
        <time>2021-06-28T15:23:33Z</time>
      </trkpt>
      <trkpt lat="45.37077" lon="6.19525">
        <ele>1921.81</ele>
        <time>2021-06-28T15:23:46Z</time>
      </trkpt>
      <trkpt lat="45.37078" lon="6.19527">
        <ele>1921.81</ele>
        <time>2021-06-28T15:24:00Z</time>
      </trkpt>
      <trkpt lat="45.3708" lon="6.19521">
        <ele>1920.85</ele>
        <time>2021-06-28T15:24:13Z</time>
      </trkpt>
      <trkpt lat="45.37078" lon="6.19517">
        <ele>1920.37</ele>
        <time>2021-06-28T15:24:27Z</time>
      </trkpt>
      <trkpt lat="45.37079" lon="6.19511">
        <ele>1918.93</ele>
        <time>2021-06-28T15:24:41Z</time>
      </trkpt>
      <trkpt lat="45.37078" lon="6.19516">
        <ele>1919.41</ele>
        <time>2021-06-28T15:24:54Z</time>
      </trkpt>
      <trkpt lat="45.37079" lon="6.19513">
        <ele>1918.93</ele>
        <time>2021-06-28T15:25:10Z</time>
      </trkpt>
      <trkpt lat="45.37076" lon="6.19517">
        <ele>1919.41</ele>
        <time>2021-06-28T15:25:23Z</time>
      </trkpt>
      <trkpt lat="45.3707" lon="6.19522">
        <ele>1918.93</ele>
        <time>2021-06-28T15:25:39Z</time>
      </trkpt>
      <trkpt lat="45.3707" lon="6.19525">
        <ele>1917.01</ele>
        <time>2021-06-28T15:25:48Z</time>
      </trkpt>
      <trkpt lat="45.37067" lon="6.19523">
        <ele>1919.41</ele>
        <time>2021-06-28T15:26:01Z</time>
      </trkpt>
      <trkpt lat="45.3707" lon="6.19516">
        <ele>1917.49</ele>
        <time>2021-06-28T15:26:14Z</time>
      </trkpt>
      <trkpt lat="45.37071" lon="6.19519">
        <ele>1918.45</ele>
        <time>2021-06-28T15:26:35Z</time>
      </trkpt>
      <trkpt lat="45.37071" lon="6.19516">
        <ele>1917.97</ele>
        <time>2021-06-28T15:27:10Z</time>
      </trkpt>
      <trkpt lat="45.37069" lon="6.19514">
        <ele>1917.49</ele>
        <time>2021-06-28T15:27:25Z</time>
      </trkpt>
      <trkpt lat="45.37071" lon="6.19511">
        <ele>1917.01</ele>
        <time>2021-06-28T15:27:39Z</time>
      </trkpt>
      <trkpt lat="45.37071" lon="6.19514">
        <ele>1914.12</ele>
        <time>2021-06-28T15:27:49Z</time>
      </trkpt>
      <trkpt lat="45.37071" lon="6.19516">
        <ele>1914.12</ele>
        <time>2021-06-28T15:28:24Z</time>
      </trkpt>
      <trkpt lat="45.3707" lon="6.19513">
        <ele>1916.53</ele>
        <time>2021-06-28T15:28:33Z</time>
      </trkpt>
      <trkpt lat="45.37072" lon="6.1951">
        <ele>1915.08</ele>
        <time>2021-06-28T15:28:52Z</time>
      </trkpt>
      <trkpt lat="45.37071" lon="6.1951">
        <ele>1914.6</ele>
        <time>2021-06-28T15:29:05Z</time>
      </trkpt>
      <trkpt lat="45.37071" lon="6.19511">
        <ele>1914.6</ele>
        <time>2021-06-28T15:29:23Z</time>
      </trkpt>
      <trkpt lat="45.37068" lon="6.19511">
        <ele>1914.6</ele>
        <time>2021-06-28T15:29:42Z</time>
      </trkpt>
      <trkpt lat="45.37074" lon="6.19512">
        <ele>1915.56</ele>
        <time>2021-06-28T15:30:01Z</time>
      </trkpt>
      <trkpt lat="45.37076" lon="6.1951">
        <ele>1915.56</ele>
        <time>2021-06-28T15:30:16Z</time>
      </trkpt>
      <trkpt lat="45.37077" lon="6.19507">
        <ele>1915.08</ele>
        <time>2021-06-28T15:30:31Z</time>
      </trkpt>
      <trkpt lat="45.37077" lon="6.19509">
        <ele>1914.6</ele>
        <time>2021-06-28T15:30:52Z</time>
      </trkpt>
      <trkpt lat="45.37077" lon="6.19508">
        <ele>1914.12</ele>
        <time>2021-06-28T15:30:56Z</time>
      </trkpt>
      <trkpt lat="45.37076" lon="6.19507">
        <ele>1914.12</ele>
        <time>2021-06-28T15:31:03Z</time>
      </trkpt>
      <trkpt lat="45.37071" lon="6.1951">
        <ele>1913.64</ele>
        <time>2021-06-28T15:31:16Z</time>
      </trkpt>
      <trkpt lat="45.37066" lon="6.1951">
        <ele>1912.2</ele>
        <time>2021-06-28T15:31:28Z</time>
      </trkpt>
      <trkpt lat="45.37065" lon="6.19509">
        <ele>1911.72</ele>
        <time>2021-06-28T15:31:42Z</time>
      </trkpt>
      <trkpt lat="45.37069" lon="6.19509">
        <ele>1911.72</ele>
        <time>2021-06-28T15:31:59Z</time>
      </trkpt>
      <trkpt lat="45.37071" lon="6.19501">
        <ele>1910.28</ele>
        <time>2021-06-28T15:32:13Z</time>
      </trkpt>
      <trkpt lat="45.37071" lon="6.19496">
        <ele>1908.35</ele>
        <time>2021-06-28T15:32:26Z</time>
      </trkpt>
      <trkpt lat="45.37072" lon="6.19496">
        <ele>1907.87</ele>
        <time>2021-06-28T15:32:28Z</time>
      </trkpt>
      <trkpt lat="45.37072" lon="6.19495">
        <ele>1908.35</ele>
        <time>2021-06-28T15:32:29Z</time>
      </trkpt>
      <trkpt lat="45.37073" lon="6.19487">
        <ele>1906.91</ele>
        <time>2021-06-28T15:32:44Z</time>
      </trkpt>
      <trkpt lat="45.37074" lon="6.19482">
        <ele>1905.47</ele>
        <time>2021-06-28T15:32:58Z</time>
      </trkpt>
      <trkpt lat="45.37072" lon="6.19472">
        <ele>1907.87</ele>
        <time>2021-06-28T15:33:11Z</time>
      </trkpt>
      <trkpt lat="45.3707" lon="6.19473">
        <ele>1907.87</ele>
        <time>2021-06-28T15:33:22Z</time>
      </trkpt>
      <trkpt lat="45.37073" lon="6.19478">
        <ele>1904.99</ele>
        <time>2021-06-28T15:33:37Z</time>
      </trkpt>
      <trkpt lat="45.37073" lon="6.19478">
        <ele>1912.2</ele>
        <time>2021-06-28T15:33:38Z</time>
      </trkpt>
      <trkpt lat="45.37073" lon="6.19478">
        <ele>1907.39</ele>
        <time>2021-06-28T15:33:39Z</time>
      </trkpt>
      <trkpt lat="45.37077" lon="6.19485">
        <ele>1907.87</ele>
        <time>2021-06-28T15:33:54Z</time>
      </trkpt>
      <trkpt lat="45.37077" lon="6.19486">
        <ele>1909.32</ele>
        <time>2021-06-28T15:33:55Z</time>
      </trkpt>
      <trkpt lat="45.37078" lon="6.19487">
        <ele>1906.91</ele>
        <time>2021-06-28T15:33:56Z</time>
      </trkpt>
      <trkpt lat="45.37079" lon="6.19487">
        <ele>1908.83</ele>
        <time>2021-06-28T15:33:58Z</time>
      </trkpt>
      <trkpt lat="45.37081" lon="6.19488">
        <ele>1909.32</ele>
        <time>2021-06-28T15:34:02Z</time>
      </trkpt>
      <trkpt lat="45.37084" lon="6.19488">
        <ele>1912.2</ele>
        <time>2021-06-28T15:34:12Z</time>
      </trkpt>
      <trkpt lat="45.37086" lon="6.19487">
        <ele>1908.83</ele>
        <time>2021-06-28T15:34:15Z</time>
      </trkpt>
      <trkpt lat="45.37088" lon="6.19485">
        <ele>1912.2</ele>
        <time>2021-06-28T15:34:18Z</time>
      </trkpt>
      <trkpt lat="45.37089" lon="6.19484">
        <ele>1912.2</ele>
        <time>2021-06-28T15:34:21Z</time>
      </trkpt>
      <trkpt lat="45.37094" lon="6.19473">
        <ele>1912.2</ele>
        <time>2021-06-28T15:34:32Z</time>
      </trkpt>
      <trkpt lat="45.371" lon="6.19469">
        <ele>1912.2</ele>
        <time>2021-06-28T15:34:42Z</time>
      </trkpt>
      <trkpt lat="45.371" lon="6.19464">
        <ele>1913.16</ele>
        <time>2021-06-28T15:34:50Z</time>
      </trkpt>
      <trkpt lat="45.37101" lon="6.19458">
        <ele>1913.64</ele>
        <time>2021-06-28T15:34:58Z</time>
      </trkpt>
      <trkpt lat="45.37103" lon="6.19457">
        <ele>1914.12</ele>
        <time>2021-06-28T15:35:01Z</time>
      </trkpt>
      <trkpt lat="45.37108" lon="6.19454">
        <ele>1914.6</ele>
        <time>2021-06-28T15:35:12Z</time>
      </trkpt>
      <trkpt lat="45.37111" lon="6.19451">
        <ele>1916.04</ele>
        <time>2021-06-28T15:35:25Z</time>
      </trkpt>
      <trkpt lat="45.37121" lon="6.19458">
        <ele>1917.97</ele>
        <time>2021-06-28T15:35:37Z</time>
      </trkpt>
      <trkpt lat="45.37122" lon="6.19457">
        <ele>1917.01</ele>
        <time>2021-06-28T15:35:39Z</time>
      </trkpt>
      <trkpt lat="45.37127" lon="6.19453">
        <ele>1917.49</ele>
        <time>2021-06-28T15:35:46Z</time>
      </trkpt>
      <trkpt lat="45.37131" lon="6.19456">
        <ele>1916.53</ele>
        <time>2021-06-28T15:35:53Z</time>
      </trkpt>
      <trkpt lat="45.37139" lon="6.19455">
        <ele>1916.04</ele>
        <time>2021-06-28T15:36:03Z</time>
      </trkpt>
      <trkpt lat="45.37144" lon="6.19453">
        <ele>1915.56</ele>
        <time>2021-06-28T15:36:15Z</time>
      </trkpt>
      <trkpt lat="45.37146" lon="6.19454">
        <ele>1916.04</ele>
        <time>2021-06-28T15:36:18Z</time>
      </trkpt>
      <trkpt lat="45.37153" lon="6.19454">
        <ele>1916.53</ele>
        <time>2021-06-28T15:36:25Z</time>
      </trkpt>
      <trkpt lat="45.37154" lon="6.19446">
        <ele>1916.53</ele>
        <time>2021-06-28T15:36:32Z</time>
      </trkpt>
      <trkpt lat="45.37156" lon="6.19432">
        <ele>1917.49</ele>
        <time>2021-06-28T15:36:44Z</time>
      </trkpt>
      <trkpt lat="45.37155" lon="6.19431">
        <ele>1917.01</ele>
        <time>2021-06-28T15:36:46Z</time>
      </trkpt>
      <trkpt lat="45.37161" lon="6.19425">
        <ele>1917.01</ele>
        <time>2021-06-28T15:37:00Z</time>
      </trkpt>
      <trkpt lat="45.37168" lon="6.19423">
        <ele>1918.45</ele>
        <time>2021-06-28T15:37:14Z</time>
      </trkpt>
      <trkpt lat="45.37173" lon="6.19422">
        <ele>1918.45</ele>
        <time>2021-06-28T15:37:26Z</time>
      </trkpt>
      <trkpt lat="45.37174" lon="6.19422">
        <ele>1917.97</ele>
        <time>2021-06-28T15:37:28Z</time>
      </trkpt>
      <trkpt lat="45.37175" lon="6.1942">
        <ele>1918.45</ele>
        <time>2021-06-28T15:37:30Z</time>
      </trkpt>
      <trkpt lat="45.37176" lon="6.1942">
        <ele>1917.97</ele>
        <time>2021-06-28T15:37:32Z</time>
      </trkpt>
      <trkpt lat="45.37183" lon="6.19418">
        <ele>1918.45</ele>
        <time>2021-06-28T15:37:45Z</time>
      </trkpt>
      <trkpt lat="45.37183" lon="6.19419">
        <ele>1917.97</ele>
        <time>2021-06-28T15:37:49Z</time>
      </trkpt>
      <trkpt lat="45.37187" lon="6.19417">
        <ele>1917.97</ele>
        <time>2021-06-28T15:37:57Z</time>
      </trkpt>
      <trkpt lat="45.37192" lon="6.19417">
        <ele>1920.37</ele>
        <time>2021-06-28T15:38:11Z</time>
      </trkpt>
      <trkpt lat="45.37192" lon="6.19417">
        <ele>1919.89</ele>
        <time>2021-06-28T15:38:15Z</time>
      </trkpt>
      <trkpt lat="45.37192" lon="6.19418">
        <ele>1921.33</ele>
        <time>2021-06-28T15:38:17Z</time>
      </trkpt>
      <trkpt lat="45.37197" lon="6.1942">
        <ele>1920.37</ele>
        <time>2021-06-28T15:38:30Z</time>
      </trkpt>
      <trkpt lat="45.37196" lon="6.19417">
        <ele>1920.37</ele>
        <time>2021-06-28T15:38:56Z</time>
      </trkpt>
      <trkpt lat="45.37199" lon="6.19419">
        <ele>1920.37</ele>
        <time>2021-06-28T15:39:19Z</time>
      </trkpt>
      <trkpt lat="45.37198" lon="6.19417">
        <ele>1920.37</ele>
        <time>2021-06-28T15:39:46Z</time>
      </trkpt>
      <trkpt lat="45.37198" lon="6.19418">
        <ele>1920.37</ele>
        <time>2021-06-28T15:40:01Z</time>
      </trkpt>
      <trkpt lat="45.37195" lon="6.19423">
        <ele>1919.89</ele>
        <time>2021-06-28T15:40:13Z</time>
      </trkpt>
      <trkpt lat="45.37192" lon="6.19442">
        <ele>1919.41</ele>
        <time>2021-06-28T15:40:35Z</time>
      </trkpt>
      <trkpt lat="45.37199" lon="6.1946">
        <ele>1919.41</ele>
        <time>2021-06-28T15:40:57Z</time>
      </trkpt>
      <trkpt lat="45.37201" lon="6.19428">
        <ele>1919.41</ele>
        <time>2021-06-28T15:41:10Z</time>
      </trkpt>
      <trkpt lat="45.37202" lon="6.1943">
        <ele>1920.85</ele>
        <time>2021-06-28T15:41:24Z</time>
      </trkpt>
      <trkpt lat="45.372" lon="6.19424">
        <ele>1918.93</ele>
        <time>2021-06-28T15:41:38Z</time>
      </trkpt>
      <trkpt lat="45.372" lon="6.19423">
        <ele>1919.89</ele>
        <time>2021-06-28T15:41:40Z</time>
      </trkpt>
      <trkpt lat="45.37199" lon="6.1942">
        <ele>1919.89</ele>
        <time>2021-06-28T15:42:07Z</time>
      </trkpt>
      <trkpt lat="45.372" lon="6.19418">
        <ele>1920.37</ele>
        <time>2021-06-28T15:42:31Z</time>
      </trkpt>
      <trkpt lat="45.372" lon="6.19416">
        <ele>1919.41</ele>
        <time>2021-06-28T15:42:38Z</time>
      </trkpt>
      <trkpt lat="45.37199" lon="6.19415">
        <ele>1919.89</ele>
        <time>2021-06-28T15:42:46Z</time>
      </trkpt>
      <trkpt lat="45.37197" lon="6.19414">
        <ele>1920.37</ele>
        <time>2021-06-28T15:43:01Z</time>
      </trkpt>
      <trkpt lat="45.37196" lon="6.19414">
        <ele>1919.89</ele>
        <time>2021-06-28T15:43:03Z</time>
      </trkpt>
      <trkpt lat="45.372" lon="6.19418">
        <ele>1918.93</ele>
        <time>2021-06-28T15:43:30Z</time>
      </trkpt>
      <trkpt lat="45.37203" lon="6.19419">
        <ele>1919.89</ele>
        <time>2021-06-28T15:43:46Z</time>
      </trkpt>
      <trkpt lat="45.37202" lon="6.19418">
        <ele>1919.89</ele>
        <time>2021-06-28T15:44:19Z</time>
      </trkpt>
      <trkpt lat="45.37202" lon="6.19416">
        <ele>1919.41</ele>
        <time>2021-06-28T15:44:39Z</time>
      </trkpt>
      <trkpt lat="45.372" lon="6.19414">
        <ele>1919.89</ele>
        <time>2021-06-28T15:44:56Z</time>
      </trkpt>
      <trkpt lat="45.37199" lon="6.19416">
        <ele>1918.93</ele>
        <time>2021-06-28T15:45:13Z</time>
      </trkpt>
      <trkpt lat="45.37197" lon="6.19418">
        <ele>1919.41</ele>
        <time>2021-06-28T15:45:27Z</time>
      </trkpt>
      <trkpt lat="45.37191" lon="6.19422">
        <ele>1919.41</ele>
        <time>2021-06-28T15:45:39Z</time>
      </trkpt>
      <trkpt lat="45.37189" lon="6.19436">
        <ele>1917.49</ele>
        <time>2021-06-28T15:45:50Z</time>
      </trkpt>
      <trkpt lat="45.37184" lon="6.19445">
        <ele>1916.53</ele>
        <time>2021-06-28T15:46:01Z</time>
      </trkpt>
      <trkpt lat="45.3718" lon="6.19459">
        <ele>1917.01</ele>
        <time>2021-06-28T15:46:14Z</time>
      </trkpt>
      <trkpt lat="45.37179" lon="6.19459">
        <ele>1916.53</ele>
        <time>2021-06-28T15:46:15Z</time>
      </trkpt>
      <trkpt lat="45.37176" lon="6.19463">
        <ele>1917.01</ele>
        <time>2021-06-28T15:46:26Z</time>
      </trkpt>
      <trkpt lat="45.3717" lon="6.1947">
        <ele>1917.01</ele>
        <time>2021-06-28T15:46:40Z</time>
      </trkpt>
      <trkpt lat="45.37164" lon="6.19469">
        <ele>1916.04</ele>
        <time>2021-06-28T15:46:54Z</time>
      </trkpt>
      <trkpt lat="45.37164" lon="6.19465">
        <ele>1915.56</ele>
        <time>2021-06-28T15:47:11Z</time>
      </trkpt>
      <trkpt lat="45.37163" lon="6.19462">
        <ele>1915.56</ele>
        <time>2021-06-28T15:47:21Z</time>
      </trkpt>
      <trkpt lat="45.37162" lon="6.1946">
        <ele>1916.04</ele>
        <time>2021-06-28T15:47:25Z</time>
      </trkpt>
      <trkpt lat="45.37159" lon="6.19462">
        <ele>1913.16</ele>
        <time>2021-06-28T15:47:39Z</time>
      </trkpt>
      <trkpt lat="45.37158" lon="6.19462">
        <ele>1916.53</ele>
        <time>2021-06-28T15:47:40Z</time>
      </trkpt>
      <trkpt lat="45.37158" lon="6.1946">
        <ele>1915.08</ele>
        <time>2021-06-28T15:47:43Z</time>
      </trkpt>
      <trkpt lat="45.37157" lon="6.19449">
        <ele>1914.6</ele>
        <time>2021-06-28T15:47:56Z</time>
      </trkpt>
      <trkpt lat="45.37157" lon="6.19448">
        <ele>1913.16</ele>
        <time>2021-06-28T15:47:57Z</time>
      </trkpt>
      <trkpt lat="45.37153" lon="6.19444">
        <ele>1914.6</ele>
        <time>2021-06-28T15:48:05Z</time>
      </trkpt>
      <trkpt lat="45.37143" lon="6.19445">
        <ele>1914.6</ele>
        <time>2021-06-28T15:48:18Z</time>
      </trkpt>
      <trkpt lat="45.37134" lon="6.19446">
        <ele>1915.56</ele>
        <time>2021-06-28T15:48:31Z</time>
      </trkpt>
      <trkpt lat="45.37134" lon="6.19446">
        <ele>1914.12</ele>
        <time>2021-06-28T15:48:33Z</time>
      </trkpt>
      <trkpt lat="45.37132" lon="6.19446">
        <ele>1915.08</ele>
        <time>2021-06-28T15:48:36Z</time>
      </trkpt>
      <trkpt lat="45.37127" lon="6.19452">
        <ele>1916.53</ele>
        <time>2021-06-28T15:48:47Z</time>
      </trkpt>
      <trkpt lat="45.37126" lon="6.19453">
        <ele>1916.04</ele>
        <time>2021-06-28T15:48:52Z</time>
      </trkpt>
      <trkpt lat="45.3712" lon="6.19454">
        <ele>1914.12</ele>
        <time>2021-06-28T15:49:04Z</time>
      </trkpt>
      <trkpt lat="45.37118" lon="6.19456">
        <ele>1913.64</ele>
        <time>2021-06-28T15:49:08Z</time>
      </trkpt>
      <trkpt lat="45.37113" lon="6.19457">
        <ele>1913.16</ele>
        <time>2021-06-28T15:49:20Z</time>
      </trkpt>
      <trkpt lat="45.37107" lon="6.19458">
        <ele>1912.2</ele>
        <time>2021-06-28T15:49:34Z</time>
      </trkpt>
      <trkpt lat="45.37102" lon="6.19461">
        <ele>1912.2</ele>
        <time>2021-06-28T15:49:48Z</time>
      </trkpt>
      <trkpt lat="45.371" lon="6.19464">
        <ele>1911.24</ele>
        <time>2021-06-28T15:49:57Z</time>
      </trkpt>
      <trkpt lat="45.37093" lon="6.19471">
        <ele>1910.28</ele>
        <time>2021-06-28T15:50:09Z</time>
      </trkpt>
      <trkpt lat="45.37098" lon="6.19476">
        <ele>1907.87</ele>
        <time>2021-06-28T15:50:33Z</time>
      </trkpt>
      <trkpt lat="45.37092" lon="6.19472">
        <ele>1910.76</ele>
        <time>2021-06-28T15:50:45Z</time>
      </trkpt>
      <trkpt lat="45.37092" lon="6.19472">
        <ele>1910.76</ele>
        <time>2021-06-28T15:50:46Z</time>
      </trkpt>
      <trkpt lat="45.37092" lon="6.19476">
        <ele>1909.8</ele>
        <time>2021-06-28T15:51:08Z</time>
      </trkpt>
      <trkpt lat="45.37093" lon="6.19482">
        <ele>1908.83</ele>
        <time>2021-06-28T15:51:21Z</time>
      </trkpt>
      <trkpt lat="45.37089" lon="6.19487">
        <ele>1910.28</ele>
        <time>2021-06-28T15:51:33Z</time>
      </trkpt>
      <trkpt lat="45.37085" lon="6.19488">
        <ele>1911.24</ele>
        <time>2021-06-28T15:51:44Z</time>
      </trkpt>
      <trkpt lat="45.37082" lon="6.19495">
        <ele>1911.72</ele>
        <time>2021-06-28T15:52:00Z</time>
      </trkpt>
      <trkpt lat="45.3708" lon="6.195">
        <ele>1912.68</ele>
        <time>2021-06-28T15:52:19Z</time>
      </trkpt>
      <trkpt lat="45.37083" lon="6.19503">
        <ele>1912.2</ele>
        <time>2021-06-28T15:52:32Z</time>
      </trkpt>
      <trkpt lat="45.37079" lon="6.19507">
        <ele>1913.16</ele>
        <time>2021-06-28T15:52:43Z</time>
      </trkpt>
      <trkpt lat="45.37077" lon="6.19508">
        <ele>1912.68</ele>
        <time>2021-06-28T15:52:58Z</time>
      </trkpt>
      <trkpt lat="45.37076" lon="6.1951">
        <ele>1912.68</ele>
        <time>2021-06-28T15:53:10Z</time>
      </trkpt>
      <trkpt lat="45.37065" lon="6.19505">
        <ele>1912.68</ele>
        <time>2021-06-28T15:53:28Z</time>
      </trkpt>
      <trkpt lat="45.37077" lon="6.19505">
        <ele>1911.24</ele>
        <time>2021-06-28T15:53:48Z</time>
      </trkpt>
      <trkpt lat="45.37076" lon="6.195">
        <ele>1911.72</ele>
        <time>2021-06-28T15:54:08Z</time>
      </trkpt>
      <trkpt lat="45.37079" lon="6.195">
        <ele>1911.72</ele>
        <time>2021-06-28T15:54:22Z</time>
      </trkpt>
      <trkpt lat="45.37079" lon="6.195">
        <ele>1912.2</ele>
        <time>2021-06-28T15:54:28Z</time>
      </trkpt>
      <trkpt lat="45.37083" lon="6.19498">
        <ele>1912.68</ele>
        <time>2021-06-28T15:54:39Z</time>
      </trkpt>
      <trkpt lat="45.37084" lon="6.19499">
        <ele>1911.24</ele>
        <time>2021-06-28T15:54:42Z</time>
      </trkpt>
      <trkpt lat="45.37086" lon="6.19498">
        <ele>1911.24</ele>
        <time>2021-06-28T15:54:58Z</time>
      </trkpt>
      <trkpt lat="45.37084" lon="6.19497">
        <ele>1912.2</ele>
        <time>2021-06-28T15:55:18Z</time>
      </trkpt>
      <trkpt lat="45.37083" lon="6.19498">
        <ele>1912.68</ele>
        <time>2021-06-28T15:55:46Z</time>
      </trkpt>
      <trkpt lat="45.37082" lon="6.19497">
        <ele>1912.2</ele>
        <time>2021-06-28T15:56:17Z</time>
      </trkpt>
    </trkseg>
  </trk>
</gpx>